<?xml version="1.0" encoding="UTF-8" standalone="no" ?>
<gpx xmlns="http://www.topografix.com/GPX/1/1" xmlns:xsi="http://www.w3.org/2001/XMLSchema-instance" xsi:schemaLocation="http://www.topografix.com/GPX/1/1 http://www.topografix.com/GPX/1/1/gpx.xsd" version="1.1" creator="VisuGPX - https://www.visugpx.com">
  <metadata>
    <name>Volvic - Montfermy (Sioule)</name>
  </metadata>
  <wpt lat="45.87987" lon="2.80856">
    <ele>559.6</ele>
    <name><![CDATA[Eau]]></name>
    <type><![CDATA[WATER]]></type>
  </wpt>
  <wpt lat="45.86193" lon="2.83164">
    <ele>646.2</ele>
    <name><![CDATA[Eau]]></name>
    <type><![CDATA[WATER]]></type>
  </wpt>
  <trk>
    <name><![CDATA[Volvic - Montfermy (Sioule)]]></name>
    <trkseg>
      <trkpt lat="45.86748" lon="3.03991">
        <ele>486.95727539062</ele>
        <time>2020-07-07T17:17:39.000Z</time>
      </trkpt>
      <trkpt lat="45.86799" lon="3.03976">
        <ele>488.42138671875</ele>
        <time>2020-07-07T17:17:39.010Z</time>
      </trkpt>
      <trkpt lat="45.86796" lon="3.0393">
        <ele>490.56182861328</ele>
        <time>2020-07-07T17:17:39.027Z</time>
      </trkpt>
      <trkpt lat="45.86783" lon="3.03868">
        <ele>491.9619140625</ele>
        <time>2020-07-07T17:17:39.053Z</time>
      </trkpt>
      <trkpt lat="45.8683" lon="3.03842">
        <ele>495.20666503906</ele>
        <time>2020-07-07T17:17:39.089Z</time>
      </trkpt>
      <trkpt lat="45.86852" lon="3.03813">
        <ele>498.68368530273</ele>
        <time>2020-07-07T17:17:39.131Z</time>
      </trkpt>
      <trkpt lat="45.8688" lon="3.03773">
        <ele>501.19409179688</ele>
        <time>2020-07-07T17:17:39.181Z</time>
      </trkpt>
      <trkpt lat="45.86906" lon="3.03757">
        <ele>503.44155883789</ele>
        <time>2020-07-07T17:17:39.237Z</time>
      </trkpt>
      <trkpt lat="45.86924" lon="3.03751">
        <ele>505.75238037109</ele>
        <time>2020-07-07T17:17:39.296Z</time>
      </trkpt>
      <trkpt lat="45.86942" lon="3.03764">
        <ele>505.48083496094</ele>
        <time>2020-07-07T17:17:39.359Z</time>
      </trkpt>
      <trkpt lat="45.86962" lon="3.03775">
        <ele>506.45748901367</ele>
        <time>2020-07-07T17:17:39.427Z</time>
      </trkpt>
      <trkpt lat="45.86969" lon="3.03783">
        <ele>506.57745361328</ele>
        <time>2020-07-07T17:17:39.496Z</time>
      </trkpt>
      <trkpt lat="45.86983" lon="3.03773">
        <ele>507.18441772461</ele>
        <time>2020-07-07T17:17:39.569Z</time>
      </trkpt>
      <trkpt lat="45.86992" lon="3.03752">
        <ele>509.05297851562</ele>
        <time>2020-07-07T17:17:39.645Z</time>
      </trkpt>
      <trkpt lat="45.87" lon="3.03727">
        <ele>512.17486572266</ele>
        <time>2020-07-07T17:17:39.725Z</time>
      </trkpt>
      <trkpt lat="45.86998" lon="3.03723">
        <ele>512.65954589844</ele>
        <time>2020-07-07T17:17:39.806Z</time>
      </trkpt>
      <trkpt lat="45.86992" lon="3.03726">
        <ele>512.13165283203</ele>
        <time>2020-07-07T17:17:39.888Z</time>
      </trkpt>
      <trkpt lat="45.86984" lon="3.03732">
        <ele>511.33499145508</ele>
        <time>2020-07-07T17:17:39.972Z</time>
      </trkpt>
      <trkpt lat="45.86976" lon="3.03731">
        <ele>511.36376953125</ele>
        <time>2020-07-07T17:17:40.057Z</time>
      </trkpt>
      <trkpt lat="45.86972" lon="3.03729">
        <ele>511.55972290039</ele>
        <time>2020-07-07T17:17:40.143Z</time>
      </trkpt>
      <trkpt lat="45.86967" lon="3.03727">
        <ele>511.70608520508</ele>
        <time>2020-07-07T17:17:40.230Z</time>
      </trkpt>
      <trkpt lat="45.8696" lon="3.03713">
        <ele>513.21301269531</ele>
        <time>2020-07-07T17:17:40.320Z</time>
      </trkpt>
      <trkpt lat="45.86957" lon="3.03704">
        <ele>514.16326904297</ele>
        <time>2020-07-07T17:17:40.411Z</time>
      </trkpt>
      <trkpt lat="45.86952" lon="3.03678">
        <ele>517.25396728516</ele>
        <time>2020-07-07T17:17:40.506Z</time>
      </trkpt>
      <trkpt lat="45.86943" lon="3.03657">
        <ele>520.15808105469</ele>
        <time>2020-07-07T17:17:40.604Z</time>
      </trkpt>
      <trkpt lat="45.86936" lon="3.0364">
        <ele>522.68005371094</ele>
        <time>2020-07-07T17:17:40.705Z</time>
      </trkpt>
      <trkpt lat="45.86933" lon="3.03631">
        <ele>523.67907714844</ele>
        <time>2020-07-07T17:17:40.807Z</time>
      </trkpt>
      <trkpt lat="45.86923" lon="3.0362">
        <ele>525.18963623047</ele>
        <time>2020-07-07T17:17:40.912Z</time>
      </trkpt>
      <trkpt lat="45.86913" lon="3.03615">
        <ele>525.95153808594</ele>
        <time>2020-07-07T17:17:41.019Z</time>
      </trkpt>
      <trkpt lat="45.86897" lon="3.0361">
        <ele>526.41619873047</ele>
        <time>2020-07-07T17:17:41.129Z</time>
      </trkpt>
      <trkpt lat="45.86889" lon="3.0361">
        <ele>526.21221923828</ele>
        <time>2020-07-07T17:17:41.241Z</time>
      </trkpt>
      <trkpt lat="45.86872" lon="3.03609">
        <ele>525.90991210938</ele>
        <time>2020-07-07T17:17:41.356Z</time>
      </trkpt>
      <trkpt lat="45.86862" lon="3.03609">
        <ele>525.66754150391</ele>
        <time>2020-07-07T17:17:41.473Z</time>
      </trkpt>
      <trkpt lat="45.86853" lon="3.03609">
        <ele>525.44439697266</ele>
        <time>2020-07-07T17:17:41.592Z</time>
      </trkpt>
      <trkpt lat="45.86839" lon="3.03603">
        <ele>526.19665527344</ele>
        <time>2020-07-07T17:17:41.714Z</time>
      </trkpt>
      <trkpt lat="45.86826" lon="3.03592">
        <ele>527.53509521484</ele>
        <time>2020-07-07T17:17:41.839Z</time>
      </trkpt>
      <trkpt lat="45.86811" lon="3.03574">
        <ele>528.9052734375</ele>
        <time>2020-07-07T17:17:41.968Z</time>
      </trkpt>
      <trkpt lat="45.868" lon="3.0356">
        <ele>529.27270507812</ele>
        <time>2020-07-07T17:17:42.100Z</time>
      </trkpt>
      <trkpt lat="45.8679" lon="3.03537">
        <ele>530.20971679688</ele>
        <time>2020-07-07T17:17:42.236Z</time>
      </trkpt>
      <trkpt lat="45.86784" lon="3.03503">
        <ele>532.21063232422</ele>
        <time>2020-07-07T17:17:42.377Z</time>
      </trkpt>
      <trkpt lat="45.86787" lon="3.03482">
        <ele>532.97076416016</ele>
        <time>2020-07-07T17:17:42.520Z</time>
      </trkpt>
      <trkpt lat="45.8679" lon="3.03454">
        <ele>533.74945068359</ele>
        <time>2020-07-07T17:17:42.667Z</time>
      </trkpt>
      <trkpt lat="45.86799" lon="3.03422">
        <ele>535.41802978516</ele>
        <time>2020-07-07T17:17:42.819Z</time>
      </trkpt>
      <trkpt lat="45.86814" lon="3.03406">
        <ele>536.11785888672</ele>
        <time>2020-07-07T17:17:42.975Z</time>
      </trkpt>
      <trkpt lat="45.86829" lon="3.0338">
        <ele>536.53662109375</ele>
        <time>2020-07-07T17:17:43.136Z</time>
      </trkpt>
      <trkpt lat="45.86842" lon="3.03362">
        <ele>537.53552246094</ele>
        <time>2020-07-07T17:17:43.300Z</time>
      </trkpt>
      <trkpt lat="45.8686" lon="3.03351">
        <ele>539.31719970703</ele>
        <time>2020-07-07T17:17:43.468Z</time>
      </trkpt>
      <trkpt lat="45.86879" lon="3.03355">
        <ele>540.77734375</ele>
        <time>2020-07-07T17:17:43.640Z</time>
      </trkpt>
      <trkpt lat="45.86891" lon="3.03359">
        <ele>541.59991455078</ele>
        <time>2020-07-07T17:17:43.815Z</time>
      </trkpt>
      <trkpt lat="45.86907" lon="3.03368">
        <ele>541.3935546875</ele>
        <time>2020-07-07T17:17:43.993Z</time>
      </trkpt>
      <trkpt lat="45.86926" lon="3.03378">
        <ele>541.13696289062</ele>
        <time>2020-07-07T17:17:44.175Z</time>
      </trkpt>
      <trkpt lat="45.86943" lon="3.03388">
        <ele>541.18853759766</ele>
        <time>2020-07-07T17:17:44.361Z</time>
      </trkpt>
      <trkpt lat="45.86956" lon="3.03398">
        <ele>541.08416748047</ele>
        <time>2020-07-07T17:17:44.550Z</time>
      </trkpt>
      <trkpt lat="45.86966" lon="3.03397">
        <ele>541.49328613281</ele>
        <time>2020-07-07T17:17:44.741Z</time>
      </trkpt>
      <trkpt lat="45.86983" lon="3.03388">
        <ele>542.11212158203</ele>
        <time>2020-07-07T17:17:44.935Z</time>
      </trkpt>
      <trkpt lat="45.86991" lon="3.03379">
        <ele>542.55487060547</ele>
        <time>2020-07-07T17:17:45.131Z</time>
      </trkpt>
      <trkpt lat="45.87" lon="3.03365">
        <ele>543.32153320312</ele>
        <time>2020-07-07T17:17:45.330Z</time>
      </trkpt>
      <trkpt lat="45.8701" lon="3.03348">
        <ele>544.19738769531</ele>
        <time>2020-07-07T17:17:45.532Z</time>
      </trkpt>
      <trkpt lat="45.87017" lon="3.03335">
        <ele>544.91607666016</ele>
        <time>2020-07-07T17:17:45.736Z</time>
      </trkpt>
      <trkpt lat="45.87028" lon="3.03312">
        <ele>546.22448730469</ele>
        <time>2020-07-07T17:17:45.944Z</time>
      </trkpt>
      <trkpt lat="45.87031" lon="3.033">
        <ele>547.7841796875</ele>
        <time>2020-07-07T17:17:46.154Z</time>
      </trkpt>
      <trkpt lat="45.8703" lon="3.03281">
        <ele>550.140625</ele>
        <time>2020-07-07T17:17:46.367Z</time>
      </trkpt>
      <trkpt lat="45.87029" lon="3.03263">
        <ele>552.17065429688</ele>
        <time>2020-07-07T17:17:46.582Z</time>
      </trkpt>
      <trkpt lat="45.87028" lon="3.03248">
        <ele>553.501953125</ele>
        <time>2020-07-07T17:17:46.799Z</time>
      </trkpt>
      <trkpt lat="45.87016" lon="3.03228">
        <ele>554.65856933594</ele>
        <time>2020-07-07T17:17:47.020Z</time>
      </trkpt>
      <trkpt lat="45.87011" lon="3.03218">
        <ele>555.23449707031</ele>
        <time>2020-07-07T17:17:47.243Z</time>
      </trkpt>
      <trkpt lat="45.87012" lon="3.03199">
        <ele>557.09735107422</ele>
        <time>2020-07-07T17:17:47.468Z</time>
      </trkpt>
      <trkpt lat="45.87013" lon="3.0318">
        <ele>558.9833984375</ele>
        <time>2020-07-07T17:17:47.696Z</time>
      </trkpt>
      <trkpt lat="45.87015" lon="3.0316">
        <ele>560.42321777344</ele>
        <time>2020-07-07T17:17:47.927Z</time>
      </trkpt>
      <trkpt lat="45.87018" lon="3.03141">
        <ele>561.81500244141</ele>
        <time>2020-07-07T17:17:48.161Z</time>
      </trkpt>
      <trkpt lat="45.87023" lon="3.03112">
        <ele>562.72503662109</ele>
        <time>2020-07-07T17:17:48.399Z</time>
      </trkpt>
      <trkpt lat="45.87027" lon="3.03083">
        <ele>563.94818115234</ele>
        <time>2020-07-07T17:17:48.641Z</time>
      </trkpt>
      <trkpt lat="45.87033" lon="3.03061">
        <ele>565.20385742188</ele>
        <time>2020-07-07T17:17:48.886Z</time>
      </trkpt>
      <trkpt lat="45.87041" lon="3.03037">
        <ele>565.20983886719</ele>
        <time>2020-07-07T17:17:49.135Z</time>
      </trkpt>
      <trkpt lat="45.87051" lon="3.03007">
        <ele>565.33087158203</ele>
        <time>2020-07-07T17:17:49.388Z</time>
      </trkpt>
      <trkpt lat="45.87062" lon="3.02979">
        <ele>567.13092041016</ele>
        <time>2020-07-07T17:17:49.646Z</time>
      </trkpt>
      <trkpt lat="45.87068" lon="3.02956">
        <ele>568.89465332031</ele>
        <time>2020-07-07T17:17:49.907Z</time>
      </trkpt>
      <trkpt lat="45.87075" lon="3.02936">
        <ele>570.76538085938</ele>
        <time>2020-07-07T17:17:50.171Z</time>
      </trkpt>
      <trkpt lat="45.8708" lon="3.02916">
        <ele>572.53454589844</ele>
        <time>2020-07-07T17:17:50.439Z</time>
      </trkpt>
      <trkpt lat="45.87085" lon="3.02892">
        <ele>573.57354736328</ele>
        <time>2020-07-07T17:17:50.710Z</time>
      </trkpt>
      <trkpt lat="45.87094" lon="3.02863">
        <ele>574.89300537109</ele>
        <time>2020-07-07T17:17:50.985Z</time>
      </trkpt>
      <trkpt lat="45.87112" lon="3.02864">
        <ele>576.37719726562</ele>
        <time>2020-07-07T17:17:51.264Z</time>
      </trkpt>
      <trkpt lat="45.8712" lon="3.02867">
        <ele>577.0478515625</ele>
        <time>2020-07-07T17:17:51.545Z</time>
      </trkpt>
      <trkpt lat="45.87134" lon="3.02869">
        <ele>578.21527099609</ele>
        <time>2020-07-07T17:17:51.829Z</time>
      </trkpt>
      <trkpt lat="45.87141" lon="3.02869">
        <ele>578.79315185547</ele>
        <time>2020-07-07T17:17:52.114Z</time>
      </trkpt>
      <trkpt lat="45.87155" lon="3.02878">
        <ele>579.64862060547</ele>
        <time>2020-07-07T17:17:52.402Z</time>
      </trkpt>
      <trkpt lat="45.87163" lon="3.02883">
        <ele>580.20288085938</ele>
        <time>2020-07-07T17:17:52.692Z</time>
      </trkpt>
      <trkpt lat="45.87175" lon="3.02887">
        <ele>581.00799560547</ele>
        <time>2020-07-07T17:17:52.984Z</time>
      </trkpt>
      <trkpt lat="45.87186" lon="3.02892">
        <ele>581.70623779297</ele>
        <time>2020-07-07T17:17:53.278Z</time>
      </trkpt>
      <trkpt lat="45.87193" lon="3.02904">
        <ele>582.11059570312</ele>
        <time>2020-07-07T17:17:53.575Z</time>
      </trkpt>
      <trkpt lat="45.87202" lon="3.02912">
        <ele>582.64807128906</ele>
        <time>2020-07-07T17:17:53.874Z</time>
      </trkpt>
      <trkpt lat="45.87214" lon="3.02926">
        <ele>583.32073974609</ele>
        <time>2020-07-07T17:17:54.176Z</time>
      </trkpt>
      <trkpt lat="45.87227" lon="3.02936">
        <ele>583.56817626953</ele>
        <time>2020-07-07T17:17:54.481Z</time>
      </trkpt>
      <trkpt lat="45.87242" lon="3.02949">
        <ele>583.55017089844</ele>
        <time>2020-07-07T17:17:54.789Z</time>
      </trkpt>
      <trkpt lat="45.87252" lon="3.02974">
        <ele>582.52313232422</ele>
        <time>2020-07-07T17:17:55.101Z</time>
      </trkpt>
      <trkpt lat="45.87265" lon="3.03001">
        <ele>581.48895263672</ele>
        <time>2020-07-07T17:17:55.418Z</time>
      </trkpt>
      <trkpt lat="45.87276" lon="3.03026">
        <ele>580.93371582031</ele>
        <time>2020-07-07T17:17:55.739Z</time>
      </trkpt>
      <trkpt lat="45.87284" lon="3.03061">
        <ele>580.06982421875</ele>
        <time>2020-07-07T17:17:56.065Z</time>
      </trkpt>
      <trkpt lat="45.87294" lon="3.03096">
        <ele>578.68487548828</ele>
        <time>2020-07-07T17:17:56.397Z</time>
      </trkpt>
      <trkpt lat="45.87301" lon="3.03125">
        <ele>578.36090087891</ele>
        <time>2020-07-07T17:17:56.733Z</time>
      </trkpt>
      <trkpt lat="45.8731" lon="3.03144">
        <ele>578.26605224609</ele>
        <time>2020-07-07T17:17:57.072Z</time>
      </trkpt>
      <trkpt lat="45.8732" lon="3.03174">
        <ele>577.55694580078</ele>
        <time>2020-07-07T17:17:57.416Z</time>
      </trkpt>
      <trkpt lat="45.8733" lon="3.03185">
        <ele>578.64727783203</ele>
        <time>2020-07-07T17:17:57.762Z</time>
      </trkpt>
      <trkpt lat="45.87344" lon="3.03199">
        <ele>580.33416748047</ele>
        <time>2020-07-07T17:17:58.112Z</time>
      </trkpt>
      <trkpt lat="45.87357" lon="3.03208">
        <ele>581.50518798828</ele>
        <time>2020-07-07T17:17:58.464Z</time>
      </trkpt>
      <trkpt lat="45.87366" lon="3.03212">
        <ele>582.18670654297</ele>
        <time>2020-07-07T17:17:58.818Z</time>
      </trkpt>
      <trkpt lat="45.87384" lon="3.03215">
        <ele>583.10333251953</ele>
        <time>2020-07-07T17:17:59.176Z</time>
      </trkpt>
      <trkpt lat="45.87398" lon="3.03219">
        <ele>584.73937988281</ele>
        <time>2020-07-07T17:17:59.537Z</time>
      </trkpt>
      <trkpt lat="45.87412" lon="3.0321">
        <ele>585.58282470703</ele>
        <time>2020-07-07T17:17:59.901Z</time>
      </trkpt>
      <trkpt lat="45.87423" lon="3.032">
        <ele>585.62475585938</ele>
        <time>2020-07-07T17:18:00.268Z</time>
      </trkpt>
      <trkpt lat="45.87431" lon="3.03194">
        <ele>585.39916992188</ele>
        <time>2020-07-07T17:18:00.637Z</time>
      </trkpt>
      <trkpt lat="45.87442" lon="3.03182">
        <ele>584.59051513672</ele>
        <time>2020-07-07T17:18:01.008Z</time>
      </trkpt>
      <trkpt lat="45.87459" lon="3.03172">
        <ele>584.98834228516</ele>
        <time>2020-07-07T17:18:01.383Z</time>
      </trkpt>
      <trkpt lat="45.87469" lon="3.03163">
        <ele>585.40661621094</ele>
        <time>2020-07-07T17:18:01.760Z</time>
      </trkpt>
      <trkpt lat="45.87481" lon="3.03153">
        <ele>586.56158447266</ele>
        <time>2020-07-07T17:18:02.140Z</time>
      </trkpt>
      <trkpt lat="45.8749" lon="3.03144">
        <ele>587.85375976562</ele>
        <time>2020-07-07T17:18:02.522Z</time>
      </trkpt>
      <trkpt lat="45.87504" lon="3.03128">
        <ele>589.81182861328</ele>
        <time>2020-07-07T17:18:02.908Z</time>
      </trkpt>
      <trkpt lat="45.87514" lon="3.031">
        <ele>590.29376220703</ele>
        <time>2020-07-07T17:18:03.298Z</time>
      </trkpt>
      <trkpt lat="45.87524" lon="3.03067">
        <ele>591.18951416016</ele>
        <time>2020-07-07T17:18:03.693Z</time>
      </trkpt>
      <trkpt lat="45.87529" lon="3.03049">
        <ele>592.76153564453</ele>
        <time>2020-07-07T17:18:04.091Z</time>
      </trkpt>
      <trkpt lat="45.87528" lon="3.03037">
        <ele>593.10589599609</ele>
        <time>2020-07-07T17:18:04.491Z</time>
      </trkpt>
      <trkpt lat="45.8753" lon="3.03012">
        <ele>594.71960449219</ele>
        <time>2020-07-07T17:18:04.894Z</time>
      </trkpt>
      <trkpt lat="45.87527" lon="3.02983">
        <ele>595.58709716797</ele>
        <time>2020-07-07T17:18:05.301Z</time>
      </trkpt>
      <trkpt lat="45.87524" lon="3.02969">
        <ele>596.19329833984</ele>
        <time>2020-07-07T17:18:05.710Z</time>
      </trkpt>
      <trkpt lat="45.87521" lon="3.02951">
        <ele>597.29711914062</ele>
        <time>2020-07-07T17:18:06.122Z</time>
      </trkpt>
      <trkpt lat="45.87513" lon="3.02931">
        <ele>597.4951171875</ele>
        <time>2020-07-07T17:18:06.537Z</time>
      </trkpt>
      <trkpt lat="45.87502" lon="3.02898">
        <ele>596.78045654297</ele>
        <time>2020-07-07T17:18:06.957Z</time>
      </trkpt>
      <trkpt lat="45.87493" lon="3.02872">
        <ele>595.92498779297</ele>
        <time>2020-07-07T17:18:07.381Z</time>
      </trkpt>
      <trkpt lat="45.87482" lon="3.02839">
        <ele>594.96276855469</ele>
        <time>2020-07-07T17:18:07.810Z</time>
      </trkpt>
      <trkpt lat="45.87471" lon="3.0281">
        <ele>594.17034912109</ele>
        <time>2020-07-07T17:18:08.244Z</time>
      </trkpt>
      <trkpt lat="45.87464" lon="3.02785">
        <ele>595.35211181641</ele>
        <time>2020-07-07T17:18:08.682Z</time>
      </trkpt>
      <trkpt lat="45.87456" lon="3.02765">
        <ele>596.12359619141</ele>
        <time>2020-07-07T17:18:09.123Z</time>
      </trkpt>
      <trkpt lat="45.87451" lon="3.02753">
        <ele>596.39483642578</ele>
        <time>2020-07-07T17:18:09.566Z</time>
      </trkpt>
      <trkpt lat="45.87451" lon="3.02727">
        <ele>597.22424316406</ele>
        <time>2020-07-07T17:18:10.013Z</time>
      </trkpt>
      <trkpt lat="45.87458" lon="3.02707">
        <ele>597.46899414062</ele>
        <time>2020-07-07T17:18:10.463Z</time>
      </trkpt>
      <trkpt lat="45.87467" lon="3.02706">
        <ele>597.77490234375</ele>
        <time>2020-07-07T17:18:10.914Z</time>
      </trkpt>
      <trkpt lat="45.87475" lon="3.02702">
        <ele>598.21734619141</ele>
        <time>2020-07-07T17:18:11.367Z</time>
      </trkpt>
      <trkpt lat="45.87483" lon="3.02705">
        <ele>599.29956054688</ele>
        <time>2020-07-07T17:18:11.822Z</time>
      </trkpt>
      <trkpt lat="45.87494" lon="3.02708">
        <ele>600.77777099609</ele>
        <time>2020-07-07T17:18:12.279Z</time>
      </trkpt>
      <trkpt lat="45.87502" lon="3.02711">
        <ele>601.85998535156</ele>
        <time>2020-07-07T17:18:12.738Z</time>
      </trkpt>
      <trkpt lat="45.87513" lon="3.02705">
        <ele>602.09069824219</ele>
        <time>2020-07-07T17:18:13.199Z</time>
      </trkpt>
      <trkpt lat="45.87527" lon="3.02699">
        <ele>601.85559082031</ele>
        <time>2020-07-07T17:18:13.663Z</time>
      </trkpt>
      <trkpt lat="45.87537" lon="3.02695">
        <ele>601.63360595703</ele>
        <time>2020-07-07T17:18:14.129Z</time>
      </trkpt>
      <trkpt lat="45.8755" lon="3.02673">
        <ele>599.95196533203</ele>
        <time>2020-07-07T17:18:14.599Z</time>
      </trkpt>
      <trkpt lat="45.87563" lon="3.02656">
        <ele>600.6142578125</ele>
        <time>2020-07-07T17:18:15.072Z</time>
      </trkpt>
      <trkpt lat="45.8757" lon="3.02641">
        <ele>601.33416748047</ele>
        <time>2020-07-07T17:18:15.548Z</time>
      </trkpt>
      <trkpt lat="45.87578" lon="3.02624">
        <ele>602.08282470703</ele>
        <time>2020-07-07T17:18:16.027Z</time>
      </trkpt>
      <trkpt lat="45.87583" lon="3.02604">
        <ele>602.69116210938</ele>
        <time>2020-07-07T17:18:16.509Z</time>
      </trkpt>
      <trkpt lat="45.87592" lon="3.02585">
        <ele>603.97613525391</ele>
        <time>2020-07-07T17:18:16.994Z</time>
      </trkpt>
      <trkpt lat="45.87597" lon="3.02562">
        <ele>605.12078857422</ele>
        <time>2020-07-07T17:18:17.482Z</time>
      </trkpt>
      <trkpt lat="45.87601" lon="3.02545">
        <ele>606.32440185547</ele>
        <time>2020-07-07T17:18:17.973Z</time>
      </trkpt>
      <trkpt lat="45.87609" lon="3.02523">
        <ele>609.28552246094</ele>
        <time>2020-07-07T17:18:18.467Z</time>
      </trkpt>
      <trkpt lat="45.87615" lon="3.02507">
        <ele>611.15563964844</ele>
        <time>2020-07-07T17:18:18.964Z</time>
      </trkpt>
      <trkpt lat="45.87616" lon="3.02482">
        <ele>611.36090087891</ele>
        <time>2020-07-07T17:18:19.464Z</time>
      </trkpt>
      <trkpt lat="45.87618" lon="3.02452">
        <ele>611.97998046875</ele>
        <time>2020-07-07T17:18:19.969Z</time>
      </trkpt>
      <trkpt lat="45.8762" lon="3.02404">
        <ele>613.51934814453</ele>
        <time>2020-07-07T17:18:20.480Z</time>
      </trkpt>
      <trkpt lat="45.87621" lon="3.02367">
        <ele>612.33154296875</ele>
        <time>2020-07-07T17:18:20.997Z</time>
      </trkpt>
      <trkpt lat="45.87623" lon="3.02334">
        <ele>611.79168701172</ele>
        <time>2020-07-07T17:18:21.518Z</time>
      </trkpt>
      <trkpt lat="45.87628" lon="3.02301">
        <ele>610.86688232422</ele>
        <time>2020-07-07T17:18:22.044Z</time>
      </trkpt>
      <trkpt lat="45.87634" lon="3.02284">
        <ele>610.16137695312</ele>
        <time>2020-07-07T17:18:22.572Z</time>
      </trkpt>
      <trkpt lat="45.87641" lon="3.02272">
        <ele>609.93170166016</ele>
        <time>2020-07-07T17:18:23.103Z</time>
      </trkpt>
      <trkpt lat="45.87653" lon="3.02254">
        <ele>610.42791748047</ele>
        <time>2020-07-07T17:18:23.637Z</time>
      </trkpt>
      <trkpt lat="45.87661" lon="3.02249">
        <ele>611.18255615234</ele>
        <time>2020-07-07T17:18:24.173Z</time>
      </trkpt>
      <trkpt lat="45.87676" lon="3.02237">
        <ele>612.44116210938</ele>
        <time>2020-07-07T17:18:24.712Z</time>
      </trkpt>
      <trkpt lat="45.87681" lon="3.02232">
        <ele>612.89227294922</ele>
        <time>2020-07-07T17:18:25.253Z</time>
      </trkpt>
      <trkpt lat="45.87699" lon="3.02225">
        <ele>614.05212402344</ele>
        <time>2020-07-07T17:18:25.797Z</time>
      </trkpt>
      <trkpt lat="45.87711" lon="3.02219">
        <ele>613.72583007812</ele>
        <time>2020-07-07T17:18:26.344Z</time>
      </trkpt>
      <trkpt lat="45.87723" lon="3.0221">
        <ele>613.03948974609</ele>
        <time>2020-07-07T17:18:26.894Z</time>
      </trkpt>
      <trkpt lat="45.87736" lon="3.02203">
        <ele>612.56921386719</ele>
        <time>2020-07-07T17:18:27.446Z</time>
      </trkpt>
      <trkpt lat="45.87748" lon="3.02186">
        <ele>611.42083740234</ele>
        <time>2020-07-07T17:18:28.002Z</time>
      </trkpt>
      <trkpt lat="45.87757" lon="3.02174">
        <ele>611.29278564453</ele>
        <time>2020-07-07T17:18:28.560Z</time>
      </trkpt>
      <trkpt lat="45.87766" lon="3.02157">
        <ele>612.07983398438</ele>
        <time>2020-07-07T17:18:29.121Z</time>
      </trkpt>
      <trkpt lat="45.87774" lon="3.02144">
        <ele>612.9052734375</ele>
        <time>2020-07-07T17:18:29.685Z</time>
      </trkpt>
      <trkpt lat="45.87778" lon="3.02125">
        <ele>612.70556640625</ele>
        <time>2020-07-07T17:18:30.251Z</time>
      </trkpt>
      <trkpt lat="45.87781" lon="3.02109">
        <ele>612.59759521484</ele>
        <time>2020-07-07T17:18:30.820Z</time>
      </trkpt>
      <trkpt lat="45.87779" lon="3.02069">
        <ele>615.34588623047</ele>
        <time>2020-07-07T17:18:31.394Z</time>
      </trkpt>
      <trkpt lat="45.87777" lon="3.02053">
        <ele>618.03948974609</ele>
        <time>2020-07-07T17:18:31.971Z</time>
      </trkpt>
      <trkpt lat="45.87772" lon="3.02041">
        <ele>619.716796875</ele>
        <time>2020-07-07T17:18:32.550Z</time>
      </trkpt>
      <trkpt lat="45.87763" lon="3.02024">
        <ele>621.95086669922</ele>
        <time>2020-07-07T17:18:33.132Z</time>
      </trkpt>
      <trkpt lat="45.87759" lon="3.0201">
        <ele>624.07928466797</ele>
        <time>2020-07-07T17:18:33.716Z</time>
      </trkpt>
      <trkpt lat="45.87745" lon="3.01993">
        <ele>626.11108398438</ele>
        <time>2020-07-07T17:18:34.303Z</time>
      </trkpt>
      <trkpt lat="45.87733" lon="3.01971">
        <ele>629.36254882812</ele>
        <time>2020-07-07T17:18:34.894Z</time>
      </trkpt>
      <trkpt lat="45.87718" lon="3.01953">
        <ele>630.69390869141</ele>
        <time>2020-07-07T17:18:35.489Z</time>
      </trkpt>
      <trkpt lat="45.87706" lon="3.01935">
        <ele>631.205078125</ele>
        <time>2020-07-07T17:18:36.088Z</time>
      </trkpt>
      <trkpt lat="45.87701" lon="3.01928">
        <ele>631.17144775391</ele>
        <time>2020-07-07T17:18:36.688Z</time>
      </trkpt>
      <trkpt lat="45.87691" lon="3.01918">
        <ele>629.73089599609</ele>
        <time>2020-07-07T17:18:37.290Z</time>
      </trkpt>
      <trkpt lat="45.87675" lon="3.01907">
        <ele>626.33905029297</ele>
        <time>2020-07-07T17:18:37.896Z</time>
      </trkpt>
      <trkpt lat="45.87656" lon="3.01891">
        <ele>622.44812011719</ele>
        <time>2020-07-07T17:18:38.506Z</time>
      </trkpt>
      <trkpt lat="45.87644" lon="3.01878">
        <ele>620.17810058594</ele>
        <time>2020-07-07T17:18:39.119Z</time>
      </trkpt>
      <trkpt lat="45.87632" lon="3.01876">
        <ele>620.68676757812</ele>
        <time>2020-07-07T17:18:39.735Z</time>
      </trkpt>
      <trkpt lat="45.87618" lon="3.01872">
        <ele>623.94183349609</ele>
        <time>2020-07-07T17:18:40.354Z</time>
      </trkpt>
      <trkpt lat="45.87609" lon="3.01874">
        <ele>625.52197265625</ele>
        <time>2020-07-07T17:18:40.974Z</time>
      </trkpt>
      <trkpt lat="45.87594" lon="3.01883">
        <ele>627.41729736328</ele>
        <time>2020-07-07T17:18:41.598Z</time>
      </trkpt>
      <trkpt lat="45.87581" lon="3.01893">
        <ele>626.52581787109</ele>
        <time>2020-07-07T17:18:42.225Z</time>
      </trkpt>
      <trkpt lat="45.8757" lon="3.019">
        <ele>626.03869628906</ele>
        <time>2020-07-07T17:18:42.854Z</time>
      </trkpt>
      <trkpt lat="45.87558" lon="3.01914">
        <ele>624.11419677734</ele>
        <time>2020-07-07T17:18:43.486Z</time>
      </trkpt>
      <trkpt lat="45.87546" lon="3.01929">
        <ele>624.83087158203</ele>
        <time>2020-07-07T17:18:44.121Z</time>
      </trkpt>
      <trkpt lat="45.87533" lon="3.01943">
        <ele>626.79132080078</ele>
        <time>2020-07-07T17:18:44.760Z</time>
      </trkpt>
      <trkpt lat="45.87524" lon="3.01951">
        <ele>628.34631347656</ele>
        <time>2020-07-07T17:18:45.401Z</time>
      </trkpt>
      <trkpt lat="45.8751" lon="3.01958">
        <ele>631.55694580078</ele>
        <time>2020-07-07T17:18:46.045Z</time>
      </trkpt>
      <trkpt lat="45.87495" lon="3.01965">
        <ele>632.52429199219</ele>
        <time>2020-07-07T17:18:46.692Z</time>
      </trkpt>
      <trkpt lat="45.87476" lon="3.01977">
        <ele>631.73126220703</ele>
        <time>2020-07-07T17:18:47.343Z</time>
      </trkpt>
      <trkpt lat="45.87465" lon="3.01982">
        <ele>631.25225830078</ele>
        <time>2020-07-07T17:18:47.996Z</time>
      </trkpt>
      <trkpt lat="45.87453" lon="3.01985">
        <ele>631.10107421875</ele>
        <time>2020-07-07T17:18:48.652Z</time>
      </trkpt>
      <trkpt lat="45.87437" lon="3.01981">
        <ele>633.74237060547</ele>
        <time>2020-07-07T17:18:49.311Z</time>
      </trkpt>
      <trkpt lat="45.87416" lon="3.0198">
        <ele>636.287109375</ele>
        <time>2020-07-07T17:18:49.974Z</time>
      </trkpt>
      <trkpt lat="45.87404" lon="3.01973">
        <ele>639.76055908203</ele>
        <time>2020-07-07T17:18:50.640Z</time>
      </trkpt>
      <trkpt lat="45.87389" lon="3.01972">
        <ele>641.4921875</ele>
        <time>2020-07-07T17:18:51.309Z</time>
      </trkpt>
      <trkpt lat="45.87372" lon="3.01969">
        <ele>641.73693847656</ele>
        <time>2020-07-07T17:18:51.981Z</time>
      </trkpt>
      <trkpt lat="45.87332" lon="3.01955">
        <ele>643.76300048828</ele>
        <time>2020-07-07T17:18:52.662Z</time>
      </trkpt>
      <trkpt lat="45.87308" lon="3.01937">
        <ele>647.51232910156</ele>
        <time>2020-07-07T17:18:53.348Z</time>
      </trkpt>
      <trkpt lat="45.87265" lon="3.0191">
        <ele>646.59222412109</ele>
        <time>2020-07-07T17:18:54.043Z</time>
      </trkpt>
      <trkpt lat="45.87243" lon="3.01898">
        <ele>645.11645507812</ele>
        <time>2020-07-07T17:18:54.743Z</time>
      </trkpt>
      <trkpt lat="45.87229" lon="3.01889">
        <ele>644.60174560547</ele>
        <time>2020-07-07T17:18:55.446Z</time>
      </trkpt>
      <trkpt lat="45.87222" lon="3.0188">
        <ele>645.13702392578</ele>
        <time>2020-07-07T17:18:56.151Z</time>
      </trkpt>
      <trkpt lat="45.87209" lon="3.01864">
        <ele>646.38482666016</ele>
        <time>2020-07-07T17:18:56.859Z</time>
      </trkpt>
      <trkpt lat="45.87205" lon="3.01859">
        <ele>646.8779296875</ele>
        <time>2020-07-07T17:18:57.568Z</time>
      </trkpt>
      <trkpt lat="45.87197" lon="3.01839">
        <ele>649.63836669922</ele>
        <time>2020-07-07T17:18:58.281Z</time>
      </trkpt>
      <trkpt lat="45.8719" lon="3.01829">
        <ele>649.23883056641</ele>
        <time>2020-07-07T17:18:58.996Z</time>
      </trkpt>
      <trkpt lat="45.87187" lon="3.01819">
        <ele>649.55560302734</ele>
        <time>2020-07-07T17:18:59.712Z</time>
      </trkpt>
      <trkpt lat="45.87183" lon="3.01809">
        <ele>649.56036376953</ele>
        <time>2020-07-07T17:19:00.430Z</time>
      </trkpt>
      <trkpt lat="45.87179" lon="3.018">
        <ele>649.65875244141</ele>
        <time>2020-07-07T17:19:01.149Z</time>
      </trkpt>
      <trkpt lat="45.87175" lon="3.01781">
        <ele>650.55383300781</ele>
        <time>2020-07-07T17:19:01.871Z</time>
      </trkpt>
      <trkpt lat="45.8717" lon="3.01761">
        <ele>651.25091552734</ele>
        <time>2020-07-07T17:19:02.596Z</time>
      </trkpt>
      <trkpt lat="45.87163" lon="3.01749">
        <ele>650.89300537109</ele>
        <time>2020-07-07T17:19:03.323Z</time>
      </trkpt>
      <trkpt lat="45.87154" lon="3.01734">
        <ele>650.42504882812</ele>
        <time>2020-07-07T17:19:04.053Z</time>
      </trkpt>
      <trkpt lat="45.87149" lon="3.01722">
        <ele>650.23071289062</ele>
        <time>2020-07-07T17:19:04.785Z</time>
      </trkpt>
      <trkpt lat="45.87143" lon="3.01715">
        <ele>649.79156494141</ele>
        <time>2020-07-07T17:19:05.518Z</time>
      </trkpt>
      <trkpt lat="45.87152" lon="3.01691">
        <ele>653.11743164062</ele>
        <time>2020-07-07T17:19:06.255Z</time>
      </trkpt>
      <trkpt lat="45.87158" lon="3.01675">
        <ele>653.15631103516</ele>
        <time>2020-07-07T17:19:06.995Z</time>
      </trkpt>
      <trkpt lat="45.87165" lon="3.0166">
        <ele>654.62603759766</ele>
        <time>2020-07-07T17:19:07.737Z</time>
      </trkpt>
      <trkpt lat="45.8717" lon="3.01644">
        <ele>656.06103515625</ele>
        <time>2020-07-07T17:19:08.482Z</time>
      </trkpt>
      <trkpt lat="45.87177" lon="3.01635">
        <ele>657.15405273438</ele>
        <time>2020-07-07T17:19:09.229Z</time>
      </trkpt>
      <trkpt lat="45.87186" lon="3.01626">
        <ele>657.5888671875</ele>
        <time>2020-07-07T17:19:09.978Z</time>
      </trkpt>
      <trkpt lat="45.87195" lon="3.01619">
        <ele>657.67889404297</ele>
        <time>2020-07-07T17:19:10.729Z</time>
      </trkpt>
      <trkpt lat="45.87206" lon="3.01611">
        <ele>657.76885986328</ele>
        <time>2020-07-07T17:19:11.482Z</time>
      </trkpt>
      <trkpt lat="45.87213" lon="3.01609">
        <ele>657.80126953125</ele>
        <time>2020-07-07T17:19:12.237Z</time>
      </trkpt>
      <trkpt lat="45.87218" lon="3.01592">
        <ele>658.00128173828</ele>
        <time>2020-07-07T17:19:12.994Z</time>
      </trkpt>
      <trkpt lat="45.87225" lon="3.01568">
        <ele>658.93670654297</ele>
        <time>2020-07-07T17:19:13.755Z</time>
      </trkpt>
      <trkpt lat="45.87231" lon="3.01552">
        <ele>659.73217773438</ele>
        <time>2020-07-07T17:19:14.518Z</time>
      </trkpt>
      <trkpt lat="45.8724" lon="3.01511">
        <ele>660.81793212891</ele>
        <time>2020-07-07T17:19:15.287Z</time>
      </trkpt>
      <trkpt lat="45.8724" lon="3.01486">
        <ele>660.79016113281</ele>
        <time>2020-07-07T17:19:16.060Z</time>
      </trkpt>
      <trkpt lat="45.8724" lon="3.01464">
        <ele>660.79498291016</ele>
        <time>2020-07-07T17:19:16.836Z</time>
      </trkpt>
      <trkpt lat="45.8724" lon="3.01441">
        <ele>660.84124755859</ele>
        <time>2020-07-07T17:19:17.615Z</time>
      </trkpt>
      <trkpt lat="45.8724" lon="3.01417">
        <ele>661.498046875</ele>
        <time>2020-07-07T17:19:18.398Z</time>
      </trkpt>
      <trkpt lat="45.87232" lon="3.01387">
        <ele>662.48791503906</ele>
        <time>2020-07-07T17:19:19.185Z</time>
      </trkpt>
      <trkpt lat="45.87222" lon="3.01359">
        <ele>663.33709716797</ele>
        <time>2020-07-07T17:19:19.976Z</time>
      </trkpt>
      <trkpt lat="45.87215" lon="3.01331">
        <ele>664.21667480469</ele>
        <time>2020-07-07T17:19:20.772Z</time>
      </trkpt>
      <trkpt lat="45.87212" lon="3.01322">
        <ele>664.46264648438</ele>
        <time>2020-07-07T17:19:21.569Z</time>
      </trkpt>
      <trkpt lat="45.87209" lon="3.01291">
        <ele>665.51123046875</ele>
        <time>2020-07-07T17:19:22.370Z</time>
      </trkpt>
      <trkpt lat="45.87209" lon="3.01271">
        <ele>666.20715332031</ele>
        <time>2020-07-07T17:19:23.174Z</time>
      </trkpt>
      <trkpt lat="45.87209" lon="3.01254">
        <ele>666.88195800781</ele>
        <time>2020-07-07T17:19:23.981Z</time>
      </trkpt>
      <trkpt lat="45.87208" lon="3.01241">
        <ele>667.42102050781</ele>
        <time>2020-07-07T17:19:24.789Z</time>
      </trkpt>
      <trkpt lat="45.87203" lon="3.01214">
        <ele>668.07611083984</ele>
        <time>2020-07-07T17:19:25.601Z</time>
      </trkpt>
      <trkpt lat="45.872" lon="3.01197">
        <ele>668.47448730469</ele>
        <time>2020-07-07T17:19:26.416Z</time>
      </trkpt>
      <trkpt lat="45.87197" lon="3.01184">
        <ele>668.79840087891</ele>
        <time>2020-07-07T17:19:27.233Z</time>
      </trkpt>
      <trkpt lat="45.87193" lon="3.01172">
        <ele>669.16314697266</ele>
        <time>2020-07-07T17:19:28.052Z</time>
      </trkpt>
      <trkpt lat="45.87187" lon="3.0116">
        <ele>669.72943115234</ele>
        <time>2020-07-07T17:19:28.873Z</time>
      </trkpt>
      <trkpt lat="45.87184" lon="3.01153">
        <ele>670.08935546875</ele>
        <time>2020-07-07T17:19:29.695Z</time>
      </trkpt>
      <trkpt lat="45.87181" lon="3.01139">
        <ele>670.73248291016</ele>
        <time>2020-07-07T17:19:30.519Z</time>
      </trkpt>
      <trkpt lat="45.87176" lon="3.01131">
        <ele>671.11639404297</ele>
        <time>2020-07-07T17:19:31.344Z</time>
      </trkpt>
      <trkpt lat="45.87172" lon="3.01125">
        <ele>671.39953613281</ele>
        <time>2020-07-07T17:19:32.170Z</time>
      </trkpt>
      <trkpt lat="45.8717" lon="3.01119">
        <ele>671.79278564453</ele>
        <time>2020-07-07T17:19:32.997Z</time>
      </trkpt>
      <trkpt lat="45.87167" lon="3.01102">
        <ele>672.92541503906</ele>
        <time>2020-07-07T17:19:33.827Z</time>
      </trkpt>
      <trkpt lat="45.87164" lon="3.01095">
        <ele>673.38372802734</ele>
        <time>2020-07-07T17:19:34.658Z</time>
      </trkpt>
      <trkpt lat="45.87161" lon="3.01079">
        <ele>674.11920166016</ele>
        <time>2020-07-07T17:19:35.491Z</time>
      </trkpt>
      <trkpt lat="45.87159" lon="3.01069">
        <ele>674.54388427734</ele>
        <time>2020-07-07T17:19:36.326Z</time>
      </trkpt>
      <trkpt lat="45.87158" lon="3.01058">
        <ele>675.05981445312</ele>
        <time>2020-07-07T17:19:37.162Z</time>
      </trkpt>
      <trkpt lat="45.87158" lon="3.01047">
        <ele>675.60211181641</ele>
        <time>2020-07-07T17:19:38.000Z</time>
      </trkpt>
      <trkpt lat="45.87155" lon="3.01023">
        <ele>676.70043945312</ele>
        <time>2020-07-07T17:19:38.841Z</time>
      </trkpt>
      <trkpt lat="45.87153" lon="3.00992">
        <ele>678.68615722656</ele>
        <time>2020-07-07T17:19:39.687Z</time>
      </trkpt>
      <trkpt lat="45.87149" lon="3.0097">
        <ele>680.15112304688</ele>
        <time>2020-07-07T17:19:40.536Z</time>
      </trkpt>
      <trkpt lat="45.87145" lon="3.00934">
        <ele>682.57348632812</ele>
        <time>2020-07-07T17:19:41.390Z</time>
      </trkpt>
      <trkpt lat="45.87142" lon="3.00913">
        <ele>683.48046875</ele>
        <time>2020-07-07T17:19:42.247Z</time>
      </trkpt>
      <trkpt lat="45.87138" lon="3.00879">
        <ele>684.67895507812</ele>
        <time>2020-07-07T17:19:43.109Z</time>
      </trkpt>
      <trkpt lat="45.87134" lon="3.00855">
        <ele>685.57763671875</ele>
        <time>2020-07-07T17:19:43.974Z</time>
      </trkpt>
      <trkpt lat="45.87128" lon="3.00827">
        <ele>686.86450195312</ele>
        <time>2020-07-07T17:19:44.843Z</time>
      </trkpt>
      <trkpt lat="45.87125" lon="3.00811">
        <ele>687.86029052734</ele>
        <time>2020-07-07T17:19:45.715Z</time>
      </trkpt>
      <trkpt lat="45.87122" lon="3.00792">
        <ele>689.01812744141</ele>
        <time>2020-07-07T17:19:46.589Z</time>
      </trkpt>
      <trkpt lat="45.87113" lon="3.00779">
        <ele>689.75598144531</ele>
        <time>2020-07-07T17:19:47.466Z</time>
      </trkpt>
      <trkpt lat="45.87105" lon="3.00767">
        <ele>690.4638671875</ele>
        <time>2020-07-07T17:19:48.345Z</time>
      </trkpt>
      <trkpt lat="45.87098" lon="3.00768">
        <ele>690.40386962891</ele>
        <time>2020-07-07T17:19:49.225Z</time>
      </trkpt>
      <trkpt lat="45.87088" lon="3.00768">
        <ele>690.43389892578</ele>
        <time>2020-07-07T17:19:50.107Z</time>
      </trkpt>
      <trkpt lat="45.87074" lon="3.00765">
        <ele>690.62585449219</ele>
        <time>2020-07-07T17:19:50.992Z</time>
      </trkpt>
      <trkpt lat="45.87057" lon="3.0076">
        <ele>690.92163085938</ele>
        <time>2020-07-07T17:19:51.881Z</time>
      </trkpt>
      <trkpt lat="45.87053" lon="3.0075">
        <ele>692.06140136719</ele>
        <time>2020-07-07T17:19:52.771Z</time>
      </trkpt>
      <trkpt lat="45.87048" lon="3.00738">
        <ele>693.60437011719</ele>
        <time>2020-07-07T17:19:53.663Z</time>
      </trkpt>
      <trkpt lat="45.87044" lon="3.00732">
        <ele>694.46099853516</ele>
        <time>2020-07-07T17:19:54.556Z</time>
      </trkpt>
      <trkpt lat="45.87044" lon="3.00717">
        <ele>696.27270507812</ele>
        <time>2020-07-07T17:19:55.452Z</time>
      </trkpt>
      <trkpt lat="45.87044" lon="3.00692">
        <ele>699.24102783203</ele>
        <time>2020-07-07T17:19:56.351Z</time>
      </trkpt>
      <trkpt lat="45.87043" lon="3.00672">
        <ele>701.58264160156</ele>
        <time>2020-07-07T17:19:57.253Z</time>
      </trkpt>
      <trkpt lat="45.87044" lon="3.0065">
        <ele>703.52990722656</ele>
        <time>2020-07-07T17:19:58.158Z</time>
      </trkpt>
      <trkpt lat="45.87043" lon="3.00637">
        <ele>704.72613525391</ele>
        <time>2020-07-07T17:19:59.065Z</time>
      </trkpt>
      <trkpt lat="45.87042" lon="3.00623">
        <ele>705.91632080078</ele>
        <time>2020-07-07T17:19:59.974Z</time>
      </trkpt>
      <trkpt lat="45.87048" lon="3.00613">
        <ele>706.46466064453</ele>
        <time>2020-07-07T17:20:00.884Z</time>
      </trkpt>
      <trkpt lat="45.87057" lon="3.00601">
        <ele>707.20709228516</ele>
        <time>2020-07-07T17:20:01.797Z</time>
      </trkpt>
      <trkpt lat="45.87059" lon="3.00599">
        <ele>707.34631347656</ele>
        <time>2020-07-07T17:20:02.710Z</time>
      </trkpt>
      <trkpt lat="45.87071" lon="3.00588">
        <ele>708.51666259766</ele>
        <time>2020-07-07T17:20:03.626Z</time>
      </trkpt>
      <trkpt lat="45.87076" lon="3.00585">
        <ele>708.81060791016</ele>
        <time>2020-07-07T17:20:04.543Z</time>
      </trkpt>
      <trkpt lat="45.87083" lon="3.00579">
        <ele>709.43334960938</ele>
        <time>2020-07-07T17:20:05.462Z</time>
      </trkpt>
      <trkpt lat="45.87089" lon="3.00561">
        <ele>710.94506835938</ele>
        <time>2020-07-07T17:20:06.384Z</time>
      </trkpt>
      <trkpt lat="45.87092" lon="3.00553">
        <ele>711.70336914062</ele>
        <time>2020-07-07T17:20:07.307Z</time>
      </trkpt>
      <trkpt lat="45.87094" lon="3.00535">
        <ele>713.41314697266</ele>
        <time>2020-07-07T17:20:08.233Z</time>
      </trkpt>
      <trkpt lat="45.87097" lon="3.00516">
        <ele>715.21282958984</ele>
        <time>2020-07-07T17:20:09.161Z</time>
      </trkpt>
      <trkpt lat="45.87094" lon="3.00483">
        <ele>716.83123779297</ele>
        <time>2020-07-07T17:20:10.094Z</time>
      </trkpt>
      <trkpt lat="45.87092" lon="3.00432">
        <ele>718.95440673828</ele>
        <time>2020-07-07T17:20:11.034Z</time>
      </trkpt>
      <trkpt lat="45.87089" lon="3.00387">
        <ele>719.18359375</ele>
        <time>2020-07-07T17:20:11.980Z</time>
      </trkpt>
      <trkpt lat="45.87085" lon="3.00344">
        <ele>719.37811279297</ele>
        <time>2020-07-07T17:20:12.932Z</time>
      </trkpt>
      <trkpt lat="45.87086" lon="3.00331">
        <ele>719.67236328125</ele>
        <time>2020-07-07T17:20:13.886Z</time>
      </trkpt>
      <trkpt lat="45.87085" lon="3.003">
        <ele>720.36584472656</ele>
        <time>2020-07-07T17:20:14.845Z</time>
      </trkpt>
      <trkpt lat="45.87085" lon="3.00255">
        <ele>721.21142578125</ele>
        <time>2020-07-07T17:20:15.810Z</time>
      </trkpt>
      <trkpt lat="45.87084" lon="3.00208">
        <ele>723.40948486328</ele>
        <time>2020-07-07T17:20:16.781Z</time>
      </trkpt>
      <trkpt lat="45.87083" lon="3.00177">
        <ele>724.28375244141</ele>
        <time>2020-07-07T17:20:17.757Z</time>
      </trkpt>
      <trkpt lat="45.87083" lon="3.00138">
        <ele>725.21716308594</ele>
        <time>2020-07-07T17:20:18.738Z</time>
      </trkpt>
      <trkpt lat="45.87082" lon="3.00124">
        <ele>725.54833984375</ele>
        <time>2020-07-07T17:20:19.721Z</time>
      </trkpt>
      <trkpt lat="45.87085" lon="3.00098">
        <ele>726.45977783203</ele>
        <time>2020-07-07T17:20:20.708Z</time>
      </trkpt>
      <trkpt lat="45.87088" lon="3.00055">
        <ele>729.85333251953</ele>
        <time>2020-07-07T17:20:21.701Z</time>
      </trkpt>
      <trkpt lat="45.87087" lon="3.00019">
        <ele>732.125</ele>
        <time>2020-07-07T17:20:22.699Z</time>
      </trkpt>
      <trkpt lat="45.87083" lon="2.99951">
        <ele>736.09887695312</ele>
        <time>2020-07-07T17:20:23.706Z</time>
      </trkpt>
      <trkpt lat="45.87081" lon="2.99899">
        <ele>739.84222412109</ele>
        <time>2020-07-07T17:20:24.721Z</time>
      </trkpt>
      <trkpt lat="45.87079" lon="2.99863">
        <ele>742.46978759766</ele>
        <time>2020-07-07T17:20:25.741Z</time>
      </trkpt>
      <trkpt lat="45.87079" lon="2.9984">
        <ele>744.05969238281</ele>
        <time>2020-07-07T17:20:26.764Z</time>
      </trkpt>
      <trkpt lat="45.87079" lon="2.99815">
        <ele>745.29791259766</ele>
        <time>2020-07-07T17:20:27.791Z</time>
      </trkpt>
      <trkpt lat="45.87079" lon="2.99793">
        <ele>746.32489013672</ele>
        <time>2020-07-07T17:20:28.821Z</time>
      </trkpt>
      <trkpt lat="45.87078" lon="2.99745">
        <ele>748.64294433594</ele>
        <time>2020-07-07T17:20:29.857Z</time>
      </trkpt>
      <trkpt lat="45.87079" lon="2.99713">
        <ele>750.18829345703</ele>
        <time>2020-07-07T17:20:30.898Z</time>
      </trkpt>
      <trkpt lat="45.87081" lon="2.99681">
        <ele>752.43664550781</ele>
        <time>2020-07-07T17:20:31.943Z</time>
      </trkpt>
      <trkpt lat="45.87082" lon="2.99646">
        <ele>754.69708251953</ele>
        <time>2020-07-07T17:20:32.993Z</time>
      </trkpt>
      <trkpt lat="45.87082" lon="2.99624">
        <ele>755.97247314453</ele>
        <time>2020-07-07T17:20:34.046Z</time>
      </trkpt>
      <trkpt lat="45.87081" lon="2.99593">
        <ele>757.82855224609</ele>
        <time>2020-07-07T17:20:35.104Z</time>
      </trkpt>
      <trkpt lat="45.8708" lon="2.99559">
        <ele>760.6181640625</ele>
        <time>2020-07-07T17:20:36.166Z</time>
      </trkpt>
      <trkpt lat="45.87082" lon="2.99533">
        <ele>762.90618896484</ele>
        <time>2020-07-07T17:20:37.232Z</time>
      </trkpt>
      <trkpt lat="45.87084" lon="2.99523">
        <ele>763.77484130859</ele>
        <time>2020-07-07T17:20:38.299Z</time>
      </trkpt>
      <trkpt lat="45.87084" lon="2.99508">
        <ele>764.99261474609</ele>
        <time>2020-07-07T17:20:39.368Z</time>
      </trkpt>
      <trkpt lat="45.87087" lon="2.99483">
        <ele>767.83508300781</ele>
        <time>2020-07-07T17:20:40.441Z</time>
      </trkpt>
      <trkpt lat="45.87088" lon="2.99468">
        <ele>769.46557617188</ele>
        <time>2020-07-07T17:20:41.516Z</time>
      </trkpt>
      <trkpt lat="45.87087" lon="2.99447">
        <ele>771.39520263672</ele>
        <time>2020-07-07T17:20:42.594Z</time>
      </trkpt>
      <trkpt lat="45.87085" lon="2.99439">
        <ele>772.01434326172</ele>
        <time>2020-07-07T17:20:43.673Z</time>
      </trkpt>
      <trkpt lat="45.87081" lon="2.99427">
        <ele>772.86376953125</ele>
        <time>2020-07-07T17:20:44.754Z</time>
      </trkpt>
      <trkpt lat="45.87079" lon="2.9942">
        <ele>773.48675537109</ele>
        <time>2020-07-07T17:20:45.836Z</time>
      </trkpt>
      <trkpt lat="45.87103" lon="2.99408">
        <ele>774.84729003906</ele>
        <time>2020-07-07T17:20:46.923Z</time>
      </trkpt>
      <trkpt lat="45.87125" lon="2.99398">
        <ele>775.18902587891</ele>
        <time>2020-07-07T17:20:48.015Z</time>
      </trkpt>
      <trkpt lat="45.87138" lon="2.99379">
        <ele>775.30902099609</ele>
        <time>2020-07-07T17:20:49.111Z</time>
      </trkpt>
      <trkpt lat="45.87158" lon="2.99353">
        <ele>776.64758300781</ele>
        <time>2020-07-07T17:20:50.212Z</time>
      </trkpt>
      <trkpt lat="45.87164" lon="2.9933">
        <ele>777.13012695312</ele>
        <time>2020-07-07T17:20:51.317Z</time>
      </trkpt>
      <trkpt lat="45.87163" lon="2.993">
        <ele>778.23394775391</ele>
        <time>2020-07-07T17:20:52.426Z</time>
      </trkpt>
      <trkpt lat="45.87152" lon="2.99253">
        <ele>779.75549316406</ele>
        <time>2020-07-07T17:20:53.542Z</time>
      </trkpt>
      <trkpt lat="45.87138" lon="2.99235">
        <ele>781.39093017578</ele>
        <time>2020-07-07T17:20:54.661Z</time>
      </trkpt>
      <trkpt lat="45.8713" lon="2.99225">
        <ele>782.11560058594</ele>
        <time>2020-07-07T17:20:55.782Z</time>
      </trkpt>
      <trkpt lat="45.87121" lon="2.99192">
        <ele>784.22125244141</ele>
        <time>2020-07-07T17:20:56.908Z</time>
      </trkpt>
      <trkpt lat="45.87113" lon="2.9917">
        <ele>785.64978027344</ele>
        <time>2020-07-07T17:20:58.038Z</time>
      </trkpt>
      <trkpt lat="45.87116" lon="2.99139">
        <ele>787.68823242188</ele>
        <time>2020-07-07T17:20:59.172Z</time>
      </trkpt>
      <trkpt lat="45.87121" lon="2.99118">
        <ele>788.83166503906</ele>
        <time>2020-07-07T17:21:00.309Z</time>
      </trkpt>
      <trkpt lat="45.87138" lon="2.99097">
        <ele>789.69189453125</ele>
        <time>2020-07-07T17:21:01.451Z</time>
      </trkpt>
      <trkpt lat="45.8715" lon="2.99077">
        <ele>789.51031494141</ele>
        <time>2020-07-07T17:21:02.597Z</time>
      </trkpt>
      <trkpt lat="45.87163" lon="2.99052">
        <ele>788.98120117188</ele>
        <time>2020-07-07T17:21:03.747Z</time>
      </trkpt>
      <trkpt lat="45.87186" lon="2.99035">
        <ele>787.17779541016</ele>
        <time>2020-07-07T17:21:04.902Z</time>
      </trkpt>
      <trkpt lat="45.87204" lon="2.99022">
        <ele>785.6552734375</ele>
        <time>2020-07-07T17:21:06.061Z</time>
      </trkpt>
      <trkpt lat="45.87215" lon="2.99013">
        <ele>784.68701171875</ele>
        <time>2020-07-07T17:21:07.223Z</time>
      </trkpt>
      <trkpt lat="45.87225" lon="2.99005">
        <ele>784.09008789062</ele>
        <time>2020-07-07T17:21:08.387Z</time>
      </trkpt>
      <trkpt lat="45.87241" lon="2.99012">
        <ele>783.57312011719</ele>
        <time>2020-07-07T17:21:09.554Z</time>
      </trkpt>
      <trkpt lat="45.8725" lon="2.99026">
        <ele>783.3427734375</ele>
        <time>2020-07-07T17:21:10.724Z</time>
      </trkpt>
      <trkpt lat="45.87266" lon="2.99034">
        <ele>782.96124267578</ele>
        <time>2020-07-07T17:21:11.897Z</time>
      </trkpt>
      <trkpt lat="45.87268" lon="2.99018">
        <ele>782.90844726562</ele>
        <time>2020-07-07T17:21:13.073Z</time>
      </trkpt>
      <trkpt lat="45.87268" lon="2.98996">
        <ele>783.47821044922</ele>
        <time>2020-07-07T17:21:14.252Z</time>
      </trkpt>
      <trkpt lat="45.87265" lon="2.98978">
        <ele>784.43084716797</ele>
        <time>2020-07-07T17:21:15.433Z</time>
      </trkpt>
      <trkpt lat="45.87263" lon="2.98957">
        <ele>785.12847900391</ele>
        <time>2020-07-07T17:21:16.617Z</time>
      </trkpt>
      <trkpt lat="45.87261" lon="2.98937">
        <ele>785.29406738281</ele>
        <time>2020-07-07T17:21:17.804Z</time>
      </trkpt>
      <trkpt lat="45.87262" lon="2.98905">
        <ele>785.44195556641</ele>
        <time>2020-07-07T17:21:18.996Z</time>
      </trkpt>
      <trkpt lat="45.87264" lon="2.9887">
        <ele>785.55749511719</ele>
        <time>2020-07-07T17:21:20.193Z</time>
      </trkpt>
      <trkpt lat="45.87266" lon="2.98844">
        <ele>785.36437988281</ele>
        <time>2020-07-07T17:21:21.393Z</time>
      </trkpt>
      <trkpt lat="45.87267" lon="2.98812">
        <ele>785.62805175781</ele>
        <time>2020-07-07T17:21:22.598Z</time>
      </trkpt>
      <trkpt lat="45.8727" lon="2.98772">
        <ele>787.09844970703</ele>
        <time>2020-07-07T17:21:23.808Z</time>
      </trkpt>
      <trkpt lat="45.87266" lon="2.98746">
        <ele>788.36267089844</ele>
        <time>2020-07-07T17:21:25.022Z</time>
      </trkpt>
      <trkpt lat="45.87266" lon="2.98726">
        <ele>789.06457519531</ele>
        <time>2020-07-07T17:21:26.239Z</time>
      </trkpt>
      <trkpt lat="45.87265" lon="2.98695">
        <ele>790.52917480469</ele>
        <time>2020-07-07T17:21:27.460Z</time>
      </trkpt>
      <trkpt lat="45.8727" lon="2.98667">
        <ele>791.50622558594</ele>
        <time>2020-07-07T17:21:28.685Z</time>
      </trkpt>
      <trkpt lat="45.87269" lon="2.98635">
        <ele>792.23516845703</ele>
        <time>2020-07-07T17:21:29.915Z</time>
      </trkpt>
      <trkpt lat="45.87275" lon="2.98616">
        <ele>791.86322021484</ele>
        <time>2020-07-07T17:21:31.148Z</time>
      </trkpt>
      <trkpt lat="45.87285" lon="2.98587">
        <ele>791.33093261719</ele>
        <time>2020-07-07T17:21:32.385Z</time>
      </trkpt>
      <trkpt lat="45.87291" lon="2.98566">
        <ele>791.3330078125</ele>
        <time>2020-07-07T17:21:33.625Z</time>
      </trkpt>
      <trkpt lat="45.87275" lon="2.98549">
        <ele>792.50646972656</ele>
        <time>2020-07-07T17:21:34.869Z</time>
      </trkpt>
      <trkpt lat="45.87267" lon="2.98539">
        <ele>793.14715576172</ele>
        <time>2020-07-07T17:21:36.115Z</time>
      </trkpt>
      <trkpt lat="45.87256" lon="2.98526">
        <ele>793.99420166016</ele>
        <time>2020-07-07T17:21:37.364Z</time>
      </trkpt>
      <trkpt lat="45.87246" lon="2.98514">
        <ele>794.7548828125</ele>
        <time>2020-07-07T17:21:38.616Z</time>
      </trkpt>
      <trkpt lat="45.87247" lon="2.98492">
        <ele>795.61126708984</ele>
        <time>2020-07-07T17:21:39.871Z</time>
      </trkpt>
      <trkpt lat="45.87253" lon="2.98461">
        <ele>796.85900878906</ele>
        <time>2020-07-07T17:21:41.130Z</time>
      </trkpt>
      <trkpt lat="45.87254" lon="2.98447">
        <ele>797.78631591797</ele>
        <time>2020-07-07T17:21:42.391Z</time>
      </trkpt>
      <trkpt lat="45.87244" lon="2.98432">
        <ele>799.14331054688</ele>
        <time>2020-07-07T17:21:43.655Z</time>
      </trkpt>
      <trkpt lat="45.87228" lon="2.98413">
        <ele>800.21710205078</ele>
        <time>2020-07-07T17:21:44.923Z</time>
      </trkpt>
      <trkpt lat="45.87222" lon="2.98404">
        <ele>800.61663818359</ele>
        <time>2020-07-07T17:21:46.193Z</time>
      </trkpt>
      <trkpt lat="45.87225" lon="2.98378">
        <ele>801.10736083984</ele>
        <time>2020-07-07T17:21:47.467Z</time>
      </trkpt>
      <trkpt lat="45.87225" lon="2.98348">
        <ele>801.80444335938</ele>
        <time>2020-07-07T17:21:48.745Z</time>
      </trkpt>
      <trkpt lat="45.87225" lon="2.98319">
        <ele>802.35827636719</ele>
        <time>2020-07-07T17:21:50.027Z</time>
      </trkpt>
      <trkpt lat="45.87221" lon="2.98298">
        <ele>802.71490478516</ele>
        <time>2020-07-07T17:21:51.312Z</time>
      </trkpt>
      <trkpt lat="45.87215" lon="2.98273">
        <ele>803.61236572266</ele>
        <time>2020-07-07T17:21:52.601Z</time>
      </trkpt>
      <trkpt lat="45.87209" lon="2.9824">
        <ele>804.35723876953</ele>
        <time>2020-07-07T17:21:53.894Z</time>
      </trkpt>
      <trkpt lat="45.87205" lon="2.98217">
        <ele>805.59539794922</ele>
        <time>2020-07-07T17:21:55.191Z</time>
      </trkpt>
      <trkpt lat="45.87199" lon="2.982">
        <ele>806.61761474609</ele>
        <time>2020-07-07T17:21:56.490Z</time>
      </trkpt>
      <trkpt lat="45.87188" lon="2.98174">
        <ele>808.25299072266</ele>
        <time>2020-07-07T17:21:57.794Z</time>
      </trkpt>
      <trkpt lat="45.87173" lon="2.98154">
        <ele>808.78570556641</ele>
        <time>2020-07-07T17:21:59.102Z</time>
      </trkpt>
      <trkpt lat="45.8716" lon="2.98126">
        <ele>809.27520751953</ele>
        <time>2020-07-07T17:22:00.415Z</time>
      </trkpt>
      <trkpt lat="45.8715" lon="2.98111">
        <ele>809.63879394531</ele>
        <time>2020-07-07T17:22:01.731Z</time>
      </trkpt>
      <trkpt lat="45.87142" lon="2.98104">
        <ele>809.92669677734</ele>
        <time>2020-07-07T17:22:03.048Z</time>
      </trkpt>
      <trkpt lat="45.87128" lon="2.98098">
        <ele>810.86846923828</ele>
        <time>2020-07-07T17:22:04.368Z</time>
      </trkpt>
      <trkpt lat="45.87122" lon="2.98067">
        <ele>811.65002441406</ele>
        <time>2020-07-07T17:22:05.693Z</time>
      </trkpt>
      <trkpt lat="45.87116" lon="2.9804">
        <ele>812.66748046875</ele>
        <time>2020-07-07T17:22:07.022Z</time>
      </trkpt>
      <trkpt lat="45.87111" lon="2.9801">
        <ele>813.65966796875</ele>
        <time>2020-07-07T17:22:08.355Z</time>
      </trkpt>
      <trkpt lat="45.87108" lon="2.97978">
        <ele>814.62432861328</ele>
        <time>2020-07-07T17:22:09.693Z</time>
      </trkpt>
      <trkpt lat="45.87103" lon="2.97957">
        <ele>815.75073242188</ele>
        <time>2020-07-07T17:22:11.034Z</time>
      </trkpt>
      <trkpt lat="45.87099" lon="2.97928">
        <ele>817.31884765625</ele>
        <time>2020-07-07T17:22:12.379Z</time>
      </trkpt>
      <trkpt lat="45.87095" lon="2.97893">
        <ele>819.11614990234</ele>
        <time>2020-07-07T17:22:13.729Z</time>
      </trkpt>
      <trkpt lat="45.87098" lon="2.97868">
        <ele>820.04125976562</ele>
        <time>2020-07-07T17:22:15.082Z</time>
      </trkpt>
      <trkpt lat="45.87097" lon="2.97841">
        <ele>821.05737304688</ele>
        <time>2020-07-07T17:22:16.439Z</time>
      </trkpt>
      <trkpt lat="45.87092" lon="2.97817">
        <ele>821.83966064453</ele>
        <time>2020-07-07T17:22:17.799Z</time>
      </trkpt>
      <trkpt lat="45.87089" lon="2.97795">
        <ele>822.5283203125</ele>
        <time>2020-07-07T17:22:19.163Z</time>
      </trkpt>
      <trkpt lat="45.87086" lon="2.97754">
        <ele>822.490234375</ele>
        <time>2020-07-07T17:22:20.532Z</time>
      </trkpt>
      <trkpt lat="45.87083" lon="2.97703">
        <ele>822.72540283203</ele>
        <time>2020-07-07T17:22:21.909Z</time>
      </trkpt>
      <trkpt lat="45.87086" lon="2.97681">
        <ele>823.09130859375</ele>
        <time>2020-07-07T17:22:23.289Z</time>
      </trkpt>
      <trkpt lat="45.87087" lon="2.97649">
        <ele>822.52062988281</ele>
        <time>2020-07-07T17:22:24.673Z</time>
      </trkpt>
      <trkpt lat="45.87089" lon="2.97639">
        <ele>822.18591308594</ele>
        <time>2020-07-07T17:22:26.059Z</time>
      </trkpt>
      <trkpt lat="45.87075" lon="2.97624">
        <ele>822.62982177734</ele>
        <time>2020-07-07T17:22:27.448Z</time>
      </trkpt>
      <trkpt lat="45.87064" lon="2.97605">
        <ele>822.85900878906</ele>
        <time>2020-07-07T17:22:28.841Z</time>
      </trkpt>
      <trkpt lat="45.87053" lon="2.97589">
        <ele>823.30999755859</ele>
        <time>2020-07-07T17:22:30.237Z</time>
      </trkpt>
      <trkpt lat="45.87044" lon="2.97576">
        <ele>824.22668457031</ele>
        <time>2020-07-07T17:22:31.635Z</time>
      </trkpt>
      <trkpt lat="45.87035" lon="2.97558">
        <ele>825.31127929688</ele>
        <time>2020-07-07T17:22:33.036Z</time>
      </trkpt>
      <trkpt lat="45.87058" lon="2.9754">
        <ele>824.20886230469</ele>
        <time>2020-07-07T17:22:34.442Z</time>
      </trkpt>
      <trkpt lat="45.87071" lon="2.97522">
        <ele>824.46435546875</ele>
        <time>2020-07-07T17:22:35.852Z</time>
      </trkpt>
      <trkpt lat="45.87088" lon="2.97512">
        <ele>824.17401123047</ele>
        <time>2020-07-07T17:22:37.266Z</time>
      </trkpt>
      <trkpt lat="45.87098" lon="2.97501">
        <ele>824.34155273438</ele>
        <time>2020-07-07T17:22:38.682Z</time>
      </trkpt>
      <trkpt lat="45.87117" lon="2.97494">
        <ele>824.216796875</ele>
        <time>2020-07-07T17:22:40.102Z</time>
      </trkpt>
      <trkpt lat="45.87124" lon="2.97483">
        <ele>824.05255126953</ele>
        <time>2020-07-07T17:22:41.524Z</time>
      </trkpt>
      <trkpt lat="45.87135" lon="2.97463">
        <ele>822.85876464844</ele>
        <time>2020-07-07T17:22:42.950Z</time>
      </trkpt>
      <trkpt lat="45.87149" lon="2.97451">
        <ele>822.19903564453</ele>
        <time>2020-07-07T17:22:44.379Z</time>
      </trkpt>
      <trkpt lat="45.87156" lon="2.97435">
        <ele>821.93267822266</ele>
        <time>2020-07-07T17:22:45.811Z</time>
      </trkpt>
      <trkpt lat="45.8717" lon="2.97413">
        <ele>821.77252197266</ele>
        <time>2020-07-07T17:22:47.247Z</time>
      </trkpt>
      <trkpt lat="45.87176" lon="2.97393">
        <ele>821.94049072266</ele>
        <time>2020-07-07T17:22:48.686Z</time>
      </trkpt>
      <trkpt lat="45.87181" lon="2.97369">
        <ele>821.83459472656</ele>
        <time>2020-07-07T17:22:50.128Z</time>
      </trkpt>
      <trkpt lat="45.87193" lon="2.97349">
        <ele>821.16625976562</ele>
        <time>2020-07-07T17:22:51.574Z</time>
      </trkpt>
      <trkpt lat="45.87202" lon="2.9733">
        <ele>821.58966064453</ele>
        <time>2020-07-07T17:22:53.023Z</time>
      </trkpt>
      <trkpt lat="45.87214" lon="2.97302">
        <ele>821.73651123047</ele>
        <time>2020-07-07T17:22:54.477Z</time>
      </trkpt>
      <trkpt lat="45.87225" lon="2.97286">
        <ele>821.21539306641</ele>
        <time>2020-07-07T17:22:55.934Z</time>
      </trkpt>
      <trkpt lat="45.87219" lon="2.97255">
        <ele>822.40026855469</ele>
        <time>2020-07-07T17:22:57.396Z</time>
      </trkpt>
      <trkpt lat="45.87211" lon="2.97238">
        <ele>823.42651367188</ele>
        <time>2020-07-07T17:22:58.861Z</time>
      </trkpt>
      <trkpt lat="45.87189" lon="2.97187">
        <ele>826.56640625</ele>
        <time>2020-07-07T17:23:00.334Z</time>
      </trkpt>
      <trkpt lat="45.87177" lon="2.97164">
        <ele>827.73620605469</ele>
        <time>2020-07-07T17:23:01.811Z</time>
      </trkpt>
      <trkpt lat="45.8716" lon="2.97123">
        <ele>828.75604248047</ele>
        <time>2020-07-07T17:23:03.295Z</time>
      </trkpt>
      <trkpt lat="45.87145" lon="2.97089">
        <ele>829.87957763672</ele>
        <time>2020-07-07T17:23:04.784Z</time>
      </trkpt>
      <trkpt lat="45.87129" lon="2.9706">
        <ele>831.23614501953</ele>
        <time>2020-07-07T17:23:06.278Z</time>
      </trkpt>
      <trkpt lat="45.8712" lon="2.97039">
        <ele>832.20556640625</ele>
        <time>2020-07-07T17:23:07.776Z</time>
      </trkpt>
      <trkpt lat="45.87112" lon="2.97024">
        <ele>832.95904541016</ele>
        <time>2020-07-07T17:23:09.277Z</time>
      </trkpt>
      <trkpt lat="45.87107" lon="2.97011">
        <ele>833.48693847656</ele>
        <time>2020-07-07T17:23:10.780Z</time>
      </trkpt>
      <trkpt lat="45.871" lon="2.96999">
        <ele>833.99517822266</ele>
        <time>2020-07-07T17:23:12.285Z</time>
      </trkpt>
      <trkpt lat="45.87094" lon="2.96967">
        <ele>834.66107177734</ele>
        <time>2020-07-07T17:23:13.794Z</time>
      </trkpt>
      <trkpt lat="45.87091" lon="2.96937">
        <ele>836.00634765625</ele>
        <time>2020-07-07T17:23:15.308Z</time>
      </trkpt>
      <trkpt lat="45.87083" lon="2.96905">
        <ele>837.14398193359</ele>
        <time>2020-07-07T17:23:16.826Z</time>
      </trkpt>
      <trkpt lat="45.87079" lon="2.96872">
        <ele>837.99700927734</ele>
        <time>2020-07-07T17:23:18.349Z</time>
      </trkpt>
      <trkpt lat="45.87069" lon="2.96818">
        <ele>839.537109375</ele>
        <time>2020-07-07T17:23:19.880Z</time>
      </trkpt>
      <trkpt lat="45.87061" lon="2.96768">
        <ele>841.53594970703</ele>
        <time>2020-07-07T17:23:21.418Z</time>
      </trkpt>
      <trkpt lat="45.87055" lon="2.96726">
        <ele>842.40087890625</ele>
        <time>2020-07-07T17:23:22.962Z</time>
      </trkpt>
      <trkpt lat="45.87047" lon="2.96677">
        <ele>843.08715820312</ele>
        <time>2020-07-07T17:23:24.513Z</time>
      </trkpt>
      <trkpt lat="45.87042" lon="2.96635">
        <ele>843.6474609375</ele>
        <time>2020-07-07T17:23:26.070Z</time>
      </trkpt>
      <trkpt lat="45.87029" lon="2.96551">
        <ele>844.34149169922</ele>
        <time>2020-07-07T17:23:27.639Z</time>
      </trkpt>
      <trkpt lat="45.87022" lon="2.96495">
        <ele>843.78558349609</ele>
        <time>2020-07-07T17:23:29.216Z</time>
      </trkpt>
      <trkpt lat="45.87015" lon="2.96446">
        <ele>844.96301269531</ele>
        <time>2020-07-07T17:23:30.800Z</time>
      </trkpt>
      <trkpt lat="45.87006" lon="2.96391">
        <ele>847.03515625</ele>
        <time>2020-07-07T17:23:32.392Z</time>
      </trkpt>
      <trkpt lat="45.87" lon="2.96354">
        <ele>848.57214355469</ele>
        <time>2020-07-07T17:23:33.989Z</time>
      </trkpt>
      <trkpt lat="45.86994" lon="2.96316">
        <ele>849.54370117188</ele>
        <time>2020-07-07T17:23:35.592Z</time>
      </trkpt>
      <trkpt lat="45.86983" lon="2.96289">
        <ele>850.27557373047</ele>
        <time>2020-07-07T17:23:37.199Z</time>
      </trkpt>
      <trkpt lat="45.86971" lon="2.96256">
        <ele>850.99450683594</ele>
        <time>2020-07-07T17:23:38.811Z</time>
      </trkpt>
      <trkpt lat="45.86956" lon="2.96216">
        <ele>851.89422607422</ele>
        <time>2020-07-07T17:23:40.429Z</time>
      </trkpt>
      <trkpt lat="45.86944" lon="2.96182">
        <ele>852.69689941406</ele>
        <time>2020-07-07T17:23:42.053Z</time>
      </trkpt>
      <trkpt lat="45.8693" lon="2.9615">
        <ele>852.73248291016</ele>
        <time>2020-07-07T17:23:43.682Z</time>
      </trkpt>
      <trkpt lat="45.86919" lon="2.96126">
        <ele>852.65447998047</ele>
        <time>2020-07-07T17:23:45.315Z</time>
      </trkpt>
      <trkpt lat="45.86911" lon="2.96108">
        <ele>852.66040039062</ele>
        <time>2020-07-07T17:23:46.951Z</time>
      </trkpt>
      <trkpt lat="45.86907" lon="2.96102">
        <ele>852.62683105469</ele>
        <time>2020-07-07T17:23:48.588Z</time>
      </trkpt>
      <trkpt lat="45.86902" lon="2.96097">
        <ele>852.54760742188</ele>
        <time>2020-07-07T17:23:50.226Z</time>
      </trkpt>
      <trkpt lat="45.86903" lon="2.96072">
        <ele>853.50268554688</ele>
        <time>2020-07-07T17:23:51.868Z</time>
      </trkpt>
      <trkpt lat="45.86905" lon="2.96053">
        <ele>854.31134033203</ele>
        <time>2020-07-07T17:23:53.513Z</time>
      </trkpt>
      <trkpt lat="45.86905" lon="2.96034">
        <ele>854.98803710938</ele>
        <time>2020-07-07T17:23:55.160Z</time>
      </trkpt>
      <trkpt lat="45.86907" lon="2.96026">
        <ele>855.40795898438</ele>
        <time>2020-07-07T17:23:56.808Z</time>
      </trkpt>
      <trkpt lat="45.86907" lon="2.96026">
        <ele>855.408203125</ele>
        <time>2020-07-07T17:23:58.456Z</time>
      </trkpt>
      <trkpt lat="45.86913" lon="2.96009">
        <ele>856.36297607422</ele>
        <time>2020-07-07T17:24:00.107Z</time>
      </trkpt>
      <trkpt lat="45.86918" lon="2.96001">
        <ele>857.55767822266</ele>
        <time>2020-07-07T17:24:01.760Z</time>
      </trkpt>
      <trkpt lat="45.8693" lon="2.95986">
        <ele>860.33038330078</ele>
        <time>2020-07-07T17:24:03.416Z</time>
      </trkpt>
      <trkpt lat="45.86945" lon="2.9597">
        <ele>862.94708251953</ele>
        <time>2020-07-07T17:24:05.076Z</time>
      </trkpt>
      <trkpt lat="45.86969" lon="2.95951">
        <ele>865.38031005859</ele>
        <time>2020-07-07T17:24:06.741Z</time>
      </trkpt>
      <trkpt lat="45.8699" lon="2.95935">
        <ele>869.60638427734</ele>
        <time>2020-07-07T17:24:08.411Z</time>
      </trkpt>
      <trkpt lat="45.87016" lon="2.95909">
        <ele>877.69177246094</ele>
        <time>2020-07-07T17:24:10.087Z</time>
      </trkpt>
      <trkpt lat="45.87038" lon="2.95891">
        <ele>882.91613769531</ele>
        <time>2020-07-07T17:24:11.768Z</time>
      </trkpt>
      <trkpt lat="45.87059" lon="2.9587">
        <ele>886.37286376953</ele>
        <time>2020-07-07T17:24:13.454Z</time>
      </trkpt>
      <trkpt lat="45.87079" lon="2.95851">
        <ele>890.90832519531</ele>
        <time>2020-07-07T17:24:15.145Z</time>
      </trkpt>
      <trkpt lat="45.87098" lon="2.95833">
        <ele>893.13983154297</ele>
        <time>2020-07-07T17:24:16.841Z</time>
      </trkpt>
      <trkpt lat="45.87118" lon="2.95815">
        <ele>897.10705566406</ele>
        <time>2020-07-07T17:24:18.541Z</time>
      </trkpt>
      <trkpt lat="45.87132" lon="2.95802">
        <ele>896.74951171875</ele>
        <time>2020-07-07T17:24:20.245Z</time>
      </trkpt>
      <trkpt lat="45.87149" lon="2.95784">
        <ele>898.72308349609</ele>
        <time>2020-07-07T17:24:21.953Z</time>
      </trkpt>
      <trkpt lat="45.87165" lon="2.95767">
        <ele>899.63787841797</ele>
        <time>2020-07-07T17:24:23.665Z</time>
      </trkpt>
      <trkpt lat="45.87177" lon="2.9575">
        <ele>899.33367919922</ele>
        <time>2020-07-07T17:24:25.380Z</time>
      </trkpt>
      <trkpt lat="45.87195" lon="2.95736">
        <ele>901.56048583984</ele>
        <time>2020-07-07T17:24:27.099Z</time>
      </trkpt>
      <trkpt lat="45.87206" lon="2.95725">
        <ele>900.12536621094</ele>
        <time>2020-07-07T17:24:28.821Z</time>
      </trkpt>
      <trkpt lat="45.87222" lon="2.9571">
        <ele>896.11926269531</ele>
        <time>2020-07-07T17:24:30.547Z</time>
      </trkpt>
      <trkpt lat="45.87237" lon="2.95696">
        <ele>895.18841552734</ele>
        <time>2020-07-07T17:24:32.276Z</time>
      </trkpt>
      <trkpt lat="45.87249" lon="2.95679">
        <ele>892.45611572266</ele>
        <time>2020-07-07T17:24:34.009Z</time>
      </trkpt>
      <trkpt lat="45.87265" lon="2.95655">
        <ele>891.224609375</ele>
        <time>2020-07-07T17:24:35.746Z</time>
      </trkpt>
      <trkpt lat="45.87279" lon="2.9563">
        <ele>890.06689453125</ele>
        <time>2020-07-07T17:24:37.488Z</time>
      </trkpt>
      <trkpt lat="45.87297" lon="2.95595">
        <ele>887.05419921875</ele>
        <time>2020-07-07T17:24:39.236Z</time>
      </trkpt>
      <trkpt lat="45.87302" lon="2.95577">
        <ele>886.92541503906</ele>
        <time>2020-07-07T17:24:40.987Z</time>
      </trkpt>
      <trkpt lat="45.87311" lon="2.95557">
        <ele>887.98840332031</ele>
        <time>2020-07-07T17:24:42.741Z</time>
      </trkpt>
      <trkpt lat="45.87317" lon="2.95525">
        <ele>890.24523925781</ele>
        <time>2020-07-07T17:24:44.500Z</time>
      </trkpt>
      <trkpt lat="45.87321" lon="2.95497">
        <ele>892.77160644531</ele>
        <time>2020-07-07T17:24:46.263Z</time>
      </trkpt>
      <trkpt lat="45.87322" lon="2.95471">
        <ele>893.96899414062</ele>
        <time>2020-07-07T17:24:48.029Z</time>
      </trkpt>
      <trkpt lat="45.87324" lon="2.95454">
        <ele>895.06799316406</ele>
        <time>2020-07-07T17:24:49.798Z</time>
      </trkpt>
      <trkpt lat="45.87324" lon="2.9544">
        <ele>895.40875244141</ele>
        <time>2020-07-07T17:24:51.569Z</time>
      </trkpt>
      <trkpt lat="45.8732" lon="2.9542">
        <ele>895.13250732422</ele>
        <time>2020-07-07T17:24:53.343Z</time>
      </trkpt>
      <trkpt lat="45.87316" lon="2.95393">
        <ele>894.10668945312</ele>
        <time>2020-07-07T17:24:55.120Z</time>
      </trkpt>
      <trkpt lat="45.87311" lon="2.9537">
        <ele>893.17205810547</ele>
        <time>2020-07-07T17:24:56.901Z</time>
      </trkpt>
      <trkpt lat="45.87307" lon="2.95341">
        <ele>892.05505371094</ele>
        <time>2020-07-07T17:24:58.686Z</time>
      </trkpt>
      <trkpt lat="45.87308" lon="2.95322">
        <ele>889.96252441406</ele>
        <time>2020-07-07T17:25:00.474Z</time>
      </trkpt>
      <trkpt lat="45.87307" lon="2.95303">
        <ele>887.66491699219</ele>
        <time>2020-07-07T17:25:02.264Z</time>
      </trkpt>
      <trkpt lat="45.87307" lon="2.95283">
        <ele>885.21734619141</ele>
        <time>2020-07-07T17:25:04.057Z</time>
      </trkpt>
      <trkpt lat="45.87309" lon="2.95254">
        <ele>882.20056152344</ele>
        <time>2020-07-07T17:25:05.854Z</time>
      </trkpt>
      <trkpt lat="45.87311" lon="2.95226">
        <ele>881.43389892578</ele>
        <time>2020-07-07T17:25:07.655Z</time>
      </trkpt>
      <trkpt lat="45.87316" lon="2.95198">
        <ele>881.11114501953</ele>
        <time>2020-07-07T17:25:09.460Z</time>
      </trkpt>
      <trkpt lat="45.87318" lon="2.95178">
        <ele>879.86065673828</ele>
        <time>2020-07-07T17:25:11.268Z</time>
      </trkpt>
      <trkpt lat="45.8732" lon="2.95158">
        <ele>879.67095947266</ele>
        <time>2020-07-07T17:25:13.079Z</time>
      </trkpt>
      <trkpt lat="45.87319" lon="2.95149">
        <ele>879.75134277344</ele>
        <time>2020-07-07T17:25:14.891Z</time>
      </trkpt>
      <trkpt lat="45.87315" lon="2.95134">
        <ele>879.79815673828</ele>
        <time>2020-07-07T17:25:16.705Z</time>
      </trkpt>
      <trkpt lat="45.87313" lon="2.95126">
        <ele>879.81616210938</ele>
        <time>2020-07-07T17:25:18.520Z</time>
      </trkpt>
      <trkpt lat="45.87305" lon="2.95115">
        <ele>879.74530029297</ele>
        <time>2020-07-07T17:25:20.338Z</time>
      </trkpt>
      <trkpt lat="45.87295" lon="2.95101">
        <ele>880.14239501953</ele>
        <time>2020-07-07T17:25:22.158Z</time>
      </trkpt>
      <trkpt lat="45.87289" lon="2.95092">
        <ele>880.40637207031</ele>
        <time>2020-07-07T17:25:23.980Z</time>
      </trkpt>
      <trkpt lat="45.87269" lon="2.95064">
        <ele>880.88928222656</ele>
        <time>2020-07-07T17:25:25.808Z</time>
      </trkpt>
      <trkpt lat="45.87258" lon="2.95044">
        <ele>881.15081787109</ele>
        <time>2020-07-07T17:25:27.639Z</time>
      </trkpt>
      <trkpt lat="45.87249" lon="2.9503">
        <ele>881.27093505859</ele>
        <time>2020-07-07T17:25:29.473Z</time>
      </trkpt>
      <trkpt lat="45.87243" lon="2.95015">
        <ele>881.22534179688</ele>
        <time>2020-07-07T17:25:31.310Z</time>
      </trkpt>
      <trkpt lat="45.87237" lon="2.94994">
        <ele>881.65753173828</ele>
        <time>2020-07-07T17:25:33.150Z</time>
      </trkpt>
      <trkpt lat="45.87231" lon="2.94977">
        <ele>882.33898925781</ele>
        <time>2020-07-07T17:25:34.992Z</time>
      </trkpt>
      <trkpt lat="45.87242" lon="2.94963">
        <ele>882.13500976562</ele>
        <time>2020-07-07T17:25:36.837Z</time>
      </trkpt>
      <trkpt lat="45.87252" lon="2.94949">
        <ele>881.85620117188</ele>
        <time>2020-07-07T17:25:38.685Z</time>
      </trkpt>
      <trkpt lat="45.8726" lon="2.94931">
        <ele>880.98876953125</ele>
        <time>2020-07-07T17:25:40.536Z</time>
      </trkpt>
      <trkpt lat="45.87269" lon="2.94911">
        <ele>879.81823730469</ele>
        <time>2020-07-07T17:25:42.390Z</time>
      </trkpt>
      <trkpt lat="45.87277" lon="2.94892">
        <ele>878.75524902344</ele>
        <time>2020-07-07T17:25:44.247Z</time>
      </trkpt>
      <trkpt lat="45.87288" lon="2.94875">
        <ele>878.08331298828</ele>
        <time>2020-07-07T17:25:46.108Z</time>
      </trkpt>
      <trkpt lat="45.87298" lon="2.9486">
        <ele>877.50140380859</ele>
        <time>2020-07-07T17:25:47.972Z</time>
      </trkpt>
      <trkpt lat="45.87302" lon="2.94852">
        <ele>877.25549316406</ele>
        <time>2020-07-07T17:25:49.837Z</time>
      </trkpt>
      <trkpt lat="45.87307" lon="2.94826">
        <ele>877.18420410156</ele>
        <time>2020-07-07T17:25:51.706Z</time>
      </trkpt>
      <trkpt lat="45.8731" lon="2.94808">
        <ele>877.43853759766</ele>
        <time>2020-07-07T17:25:53.577Z</time>
      </trkpt>
      <trkpt lat="45.87314" lon="2.94788">
        <ele>877.71929931641</ele>
        <time>2020-07-07T17:25:55.451Z</time>
      </trkpt>
      <trkpt lat="45.87317" lon="2.94764">
        <ele>878.05401611328</ele>
        <time>2020-07-07T17:25:57.329Z</time>
      </trkpt>
      <trkpt lat="45.87323" lon="2.94741">
        <ele>878.39361572266</ele>
        <time>2020-07-07T17:25:59.210Z</time>
      </trkpt>
      <trkpt lat="45.87326" lon="2.94723">
        <ele>878.65753173828</ele>
        <time>2020-07-07T17:26:01.094Z</time>
      </trkpt>
      <trkpt lat="45.87332" lon="2.94699">
        <ele>878.99688720703</ele>
        <time>2020-07-07T17:26:02.981Z</time>
      </trkpt>
      <trkpt lat="45.87334" lon="2.94684">
        <ele>878.78936767578</ele>
        <time>2020-07-07T17:26:04.870Z</time>
      </trkpt>
      <trkpt lat="45.87344" lon="2.94664">
        <ele>878.044921875</ele>
        <time>2020-07-07T17:26:06.763Z</time>
      </trkpt>
      <trkpt lat="45.87355" lon="2.94637">
        <ele>876.47985839844</ele>
        <time>2020-07-07T17:26:08.660Z</time>
      </trkpt>
      <trkpt lat="45.87366" lon="2.94614">
        <ele>873.66632080078</ele>
        <time>2020-07-07T17:26:10.561Z</time>
      </trkpt>
      <trkpt lat="45.87378" lon="2.94589">
        <ele>870.57214355469</ele>
        <time>2020-07-07T17:26:12.466Z</time>
      </trkpt>
      <trkpt lat="45.87389" lon="2.94567">
        <ele>868.06304931641</ele>
        <time>2020-07-07T17:26:14.375Z</time>
      </trkpt>
      <trkpt lat="45.87395" lon="2.94554">
        <ele>866.69262695312</ele>
        <time>2020-07-07T17:26:16.286Z</time>
      </trkpt>
      <trkpt lat="45.87404" lon="2.94538">
        <ele>864.91333007812</ele>
        <time>2020-07-07T17:26:18.200Z</time>
      </trkpt>
      <trkpt lat="45.87415" lon="2.9452">
        <ele>862.98425292969</ele>
        <time>2020-07-07T17:26:20.117Z</time>
      </trkpt>
      <trkpt lat="45.87433" lon="2.94493">
        <ele>860.37829589844</ele>
        <time>2020-07-07T17:26:22.040Z</time>
      </trkpt>
      <trkpt lat="45.87446" lon="2.94472">
        <ele>858.60662841797</ele>
        <time>2020-07-07T17:26:23.967Z</time>
      </trkpt>
      <trkpt lat="45.87459" lon="2.94449">
        <ele>857.34564208984</ele>
        <time>2020-07-07T17:26:25.898Z</time>
      </trkpt>
      <trkpt lat="45.87469" lon="2.94435">
        <ele>856.58618164062</ele>
        <time>2020-07-07T17:26:27.831Z</time>
      </trkpt>
      <trkpt lat="45.87475" lon="2.94422">
        <ele>855.82348632812</ele>
        <time>2020-07-07T17:26:29.767Z</time>
      </trkpt>
      <trkpt lat="45.87484" lon="2.94405">
        <ele>854.814453125</ele>
        <time>2020-07-07T17:26:31.706Z</time>
      </trkpt>
      <trkpt lat="45.87493" lon="2.94388">
        <ele>853.76342773438</ele>
        <time>2020-07-07T17:26:33.648Z</time>
      </trkpt>
      <trkpt lat="45.87499" lon="2.94378">
        <ele>853.10833740234</ele>
        <time>2020-07-07T17:26:35.591Z</time>
      </trkpt>
      <trkpt lat="45.87502" lon="2.94367">
        <ele>852.607421875</ele>
        <time>2020-07-07T17:26:37.536Z</time>
      </trkpt>
      <trkpt lat="45.87513" lon="2.94349">
        <ele>852.14306640625</ele>
        <time>2020-07-07T17:26:39.484Z</time>
      </trkpt>
      <trkpt lat="45.87513" lon="2.94344">
        <ele>852.06872558594</ele>
        <time>2020-07-07T17:26:41.433Z</time>
      </trkpt>
      <trkpt lat="45.8752" lon="2.9432">
        <ele>851.87585449219</ele>
        <time>2020-07-07T17:26:43.386Z</time>
      </trkpt>
      <trkpt lat="45.87527" lon="2.94296">
        <ele>851.53961181641</ele>
        <time>2020-07-07T17:26:45.342Z</time>
      </trkpt>
      <trkpt lat="45.87535" lon="2.94266">
        <ele>850.88330078125</ele>
        <time>2020-07-07T17:26:47.303Z</time>
      </trkpt>
      <trkpt lat="45.8754" lon="2.94242">
        <ele>850.392578125</ele>
        <time>2020-07-07T17:26:49.267Z</time>
      </trkpt>
      <trkpt lat="45.87546" lon="2.94222">
        <ele>849.94622802734</ele>
        <time>2020-07-07T17:26:51.234Z</time>
      </trkpt>
      <trkpt lat="45.87549" lon="2.94213">
        <ele>849.73510742188</ele>
        <time>2020-07-07T17:26:53.203Z</time>
      </trkpt>
      <trkpt lat="45.87552" lon="2.94201">
        <ele>849.49395751953</ele>
        <time>2020-07-07T17:26:55.174Z</time>
      </trkpt>
      <trkpt lat="45.87552" lon="2.9419">
        <ele>849.35833740234</ele>
        <time>2020-07-07T17:26:57.146Z</time>
      </trkpt>
      <trkpt lat="45.87554" lon="2.94171">
        <ele>849.06640625</ele>
        <time>2020-07-07T17:26:59.121Z</time>
      </trkpt>
      <trkpt lat="45.87556" lon="2.94158">
        <ele>848.65490722656</ele>
        <time>2020-07-07T17:27:01.098Z</time>
      </trkpt>
      <trkpt lat="45.87555" lon="2.94143">
        <ele>848.33453369141</ele>
        <time>2020-07-07T17:27:03.077Z</time>
      </trkpt>
      <trkpt lat="45.87556" lon="2.94135">
        <ele>848.11254882812</ele>
        <time>2020-07-07T17:27:05.057Z</time>
      </trkpt>
      <trkpt lat="45.87549" lon="2.94119">
        <ele>848.14019775391</ele>
        <time>2020-07-07T17:27:07.039Z</time>
      </trkpt>
      <trkpt lat="45.87541" lon="2.94101">
        <ele>848.14135742188</ele>
        <time>2020-07-07T17:27:09.024Z</time>
      </trkpt>
      <trkpt lat="45.87538" lon="2.9408">
        <ele>847.71081542969</ele>
        <time>2020-07-07T17:27:11.012Z</time>
      </trkpt>
      <trkpt lat="45.87536" lon="2.9405">
        <ele>847.02197265625</ele>
        <time>2020-07-07T17:27:13.005Z</time>
      </trkpt>
      <trkpt lat="45.87533" lon="2.94028">
        <ele>846.62603759766</ele>
        <time>2020-07-07T17:27:15.001Z</time>
      </trkpt>
      <trkpt lat="45.87531" lon="2.94013">
        <ele>846.33807373047</ele>
        <time>2020-07-07T17:27:16.999Z</time>
      </trkpt>
      <trkpt lat="45.8753" lon="2.93998">
        <ele>846.47668457031</ele>
        <time>2020-07-07T17:27:18.999Z</time>
      </trkpt>
      <trkpt lat="45.87534" lon="2.93988">
        <ele>846.5390625</ele>
        <time>2020-07-07T17:27:21.001Z</time>
      </trkpt>
      <trkpt lat="45.87536" lon="2.93972">
        <ele>847.17346191406</ele>
        <time>2020-07-07T17:27:23.005Z</time>
      </trkpt>
      <trkpt lat="45.87541" lon="2.9396">
        <ele>847.63421630859</ele>
        <time>2020-07-07T17:27:25.011Z</time>
      </trkpt>
      <trkpt lat="45.87549" lon="2.93946">
        <ele>848.11169433594</ele>
        <time>2020-07-07T17:27:27.019Z</time>
      </trkpt>
      <trkpt lat="45.87554" lon="2.93934">
        <ele>848.56286621094</ele>
        <time>2020-07-07T17:27:29.029Z</time>
      </trkpt>
      <trkpt lat="45.8756" lon="2.93925">
        <ele>848.98168945312</ele>
        <time>2020-07-07T17:27:31.041Z</time>
      </trkpt>
      <trkpt lat="45.87566" lon="2.93914">
        <ele>849.97814941406</ele>
        <time>2020-07-07T17:27:33.055Z</time>
      </trkpt>
      <trkpt lat="45.87578" lon="2.93895">
        <ele>851.78265380859</ele>
        <time>2020-07-07T17:27:35.072Z</time>
      </trkpt>
      <trkpt lat="45.87586" lon="2.93874">
        <ele>853.84631347656</ele>
        <time>2020-07-07T17:27:37.093Z</time>
      </trkpt>
      <trkpt lat="45.87601" lon="2.93848">
        <ele>856.26513671875</ele>
        <time>2020-07-07T17:27:39.119Z</time>
      </trkpt>
      <trkpt lat="45.87617" lon="2.93818">
        <ele>860.28894042969</ele>
        <time>2020-07-07T17:27:41.150Z</time>
      </trkpt>
      <trkpt lat="45.87641" lon="2.93777">
        <ele>866.21850585938</ele>
        <time>2020-07-07T17:27:43.188Z</time>
      </trkpt>
      <trkpt lat="45.87672" lon="2.93721">
        <ele>874.53546142578</ele>
        <time>2020-07-07T17:27:45.236Z</time>
      </trkpt>
      <trkpt lat="45.87694" lon="2.93679">
        <ele>878.8798828125</ele>
        <time>2020-07-07T17:27:47.292Z</time>
      </trkpt>
      <trkpt lat="45.87714" lon="2.93642">
        <ele>879.96569824219</ele>
        <time>2020-07-07T17:27:49.354Z</time>
      </trkpt>
      <trkpt lat="45.8773" lon="2.9361">
        <ele>880.79626464844</ele>
        <time>2020-07-07T17:27:51.422Z</time>
      </trkpt>
      <trkpt lat="45.8775" lon="2.93569">
        <ele>881.38165283203</ele>
        <time>2020-07-07T17:27:53.497Z</time>
      </trkpt>
      <trkpt lat="45.87762" lon="2.93543">
        <ele>881.39678955078</ele>
        <time>2020-07-07T17:27:55.576Z</time>
      </trkpt>
      <trkpt lat="45.87774" lon="2.93516">
        <ele>881.83947753906</ele>
        <time>2020-07-07T17:27:57.659Z</time>
      </trkpt>
      <trkpt lat="45.87795" lon="2.93472">
        <ele>882.60614013672</ele>
        <time>2020-07-07T17:27:59.750Z</time>
      </trkpt>
      <trkpt lat="45.87816" lon="2.93426">
        <ele>883.35845947266</ele>
        <time>2020-07-07T17:28:01.849Z</time>
      </trkpt>
      <trkpt lat="45.87845" lon="2.93368">
        <ele>886.13940429688</ele>
        <time>2020-07-07T17:28:03.958Z</time>
      </trkpt>
      <trkpt lat="45.87866" lon="2.93323">
        <ele>887.33587646484</ele>
        <time>2020-07-07T17:28:06.074Z</time>
      </trkpt>
      <trkpt lat="45.87888" lon="2.93278">
        <ele>887.78045654297</ele>
        <time>2020-07-07T17:28:08.198Z</time>
      </trkpt>
      <trkpt lat="45.879" lon="2.93254">
        <ele>888.75219726562</ele>
        <time>2020-07-07T17:28:10.326Z</time>
      </trkpt>
      <trkpt lat="45.8791" lon="2.9323">
        <ele>890.18957519531</ele>
        <time>2020-07-07T17:28:12.458Z</time>
      </trkpt>
      <trkpt lat="45.87893" lon="2.93228">
        <ele>889.25494384766</ele>
        <time>2020-07-07T17:28:14.593Z</time>
      </trkpt>
      <trkpt lat="45.87881" lon="2.93227">
        <ele>889.19293212891</ele>
        <time>2020-07-07T17:28:16.731Z</time>
      </trkpt>
      <trkpt lat="45.87861" lon="2.93214">
        <ele>889.91284179688</ele>
        <time>2020-07-07T17:28:18.873Z</time>
      </trkpt>
      <trkpt lat="45.87841" lon="2.93199">
        <ele>890.67712402344</ele>
        <time>2020-07-07T17:28:21.020Z</time>
      </trkpt>
      <trkpt lat="45.87823" lon="2.93188">
        <ele>891.29138183594</ele>
        <time>2020-07-07T17:28:23.170Z</time>
      </trkpt>
      <trkpt lat="45.87803" lon="2.93175">
        <ele>891.83526611328</ele>
        <time>2020-07-07T17:28:25.325Z</time>
      </trkpt>
      <trkpt lat="45.87778" lon="2.93156">
        <ele>891.60491943359</ele>
        <time>2020-07-07T17:28:27.486Z</time>
      </trkpt>
      <trkpt lat="45.87765" lon="2.93149">
        <ele>891.40698242188</ele>
        <time>2020-07-07T17:28:29.649Z</time>
      </trkpt>
      <trkpt lat="45.8775" lon="2.93141">
        <ele>891.14422607422</ele>
        <time>2020-07-07T17:28:31.816Z</time>
      </trkpt>
      <trkpt lat="45.87741" lon="2.93138">
        <ele>890.91741943359</ele>
        <time>2020-07-07T17:28:33.984Z</time>
      </trkpt>
      <trkpt lat="45.87728" lon="2.93134">
        <ele>890.59710693359</ele>
        <time>2020-07-07T17:28:36.155Z</time>
      </trkpt>
      <trkpt lat="45.8771" lon="2.93133">
        <ele>889.72015380859</ele>
        <time>2020-07-07T17:28:38.330Z</time>
      </trkpt>
      <trkpt lat="45.87692" lon="2.93123">
        <ele>888.98950195312</ele>
        <time>2020-07-07T17:28:40.509Z</time>
      </trkpt>
      <trkpt lat="45.87677" lon="2.9311">
        <ele>888.53234863281</ele>
        <time>2020-07-07T17:28:42.691Z</time>
      </trkpt>
      <trkpt lat="45.87662" lon="2.93093">
        <ele>888.25164794922</ele>
        <time>2020-07-07T17:28:44.877Z</time>
      </trkpt>
      <trkpt lat="45.87644" lon="2.9307">
        <ele>887.98767089844</ele>
        <time>2020-07-07T17:28:47.068Z</time>
      </trkpt>
      <trkpt lat="45.87628" lon="2.93045">
        <ele>887.54083251953</ele>
        <time>2020-07-07T17:28:49.263Z</time>
      </trkpt>
      <trkpt lat="45.87615" lon="2.93034">
        <ele>886.63018798828</ele>
        <time>2020-07-07T17:28:51.461Z</time>
      </trkpt>
      <trkpt lat="45.87595" lon="2.93036">
        <ele>884.68890380859</ele>
        <time>2020-07-07T17:28:53.663Z</time>
      </trkpt>
      <trkpt lat="45.87574" lon="2.93039">
        <ele>882.91632080078</ele>
        <time>2020-07-07T17:28:55.870Z</time>
      </trkpt>
      <trkpt lat="45.87561" lon="2.93037">
        <ele>881.94207763672</ele>
        <time>2020-07-07T17:28:58.079Z</time>
      </trkpt>
      <trkpt lat="45.87555" lon="2.93034">
        <ele>881.52691650391</ele>
        <time>2020-07-07T17:29:00.290Z</time>
      </trkpt>
      <trkpt lat="45.87548" lon="2.93013">
        <ele>881.25457763672</ele>
        <time>2020-07-07T17:29:02.504Z</time>
      </trkpt>
      <trkpt lat="45.87546" lon="2.9298">
        <ele>881.92694091797</ele>
        <time>2020-07-07T17:29:04.722Z</time>
      </trkpt>
      <trkpt lat="45.87544" lon="2.92955">
        <ele>882.68286132812</ele>
        <time>2020-07-07T17:29:06.944Z</time>
      </trkpt>
      <trkpt lat="45.87542" lon="2.92932">
        <ele>883.31036376953</ele>
        <time>2020-07-07T17:29:09.169Z</time>
      </trkpt>
      <trkpt lat="45.87534" lon="2.92925">
        <ele>882.84240722656</ele>
        <time>2020-07-07T17:29:11.396Z</time>
      </trkpt>
      <trkpt lat="45.87522" lon="2.9292">
        <ele>881.53472900391</ele>
        <time>2020-07-07T17:29:13.625Z</time>
      </trkpt>
      <trkpt lat="45.87507" lon="2.92916">
        <ele>879.80816650391</ele>
        <time>2020-07-07T17:29:15.858Z</time>
      </trkpt>
      <trkpt lat="45.87492" lon="2.92909">
        <ele>877.91967773438</ele>
        <time>2020-07-07T17:29:18.094Z</time>
      </trkpt>
      <trkpt lat="45.87481" lon="2.92901">
        <ele>876.3935546875</ele>
        <time>2020-07-07T17:29:20.332Z</time>
      </trkpt>
      <trkpt lat="45.87472" lon="2.92887">
        <ele>874.72845458984</ele>
        <time>2020-07-07T17:29:22.573Z</time>
      </trkpt>
      <trkpt lat="45.87455" lon="2.92857">
        <ele>872.56518554688</ele>
        <time>2020-07-07T17:29:24.819Z</time>
      </trkpt>
      <trkpt lat="45.87442" lon="2.9283">
        <ele>871.12677001953</ele>
        <time>2020-07-07T17:29:27.070Z</time>
      </trkpt>
      <trkpt lat="45.87413" lon="2.92786">
        <ele>869.91735839844</ele>
        <time>2020-07-07T17:29:29.329Z</time>
      </trkpt>
      <trkpt lat="45.87398" lon="2.92761">
        <ele>869.19360351562</ele>
        <time>2020-07-07T17:29:31.593Z</time>
      </trkpt>
      <trkpt lat="45.87383" lon="2.92737">
        <ele>869.47088623047</ele>
        <time>2020-07-07T17:29:33.861Z</time>
      </trkpt>
      <trkpt lat="45.87373" lon="2.92707">
        <ele>870.18115234375</ele>
        <time>2020-07-07T17:29:36.134Z</time>
      </trkpt>
      <trkpt lat="45.87361" lon="2.92668">
        <ele>871.24139404297</ele>
        <time>2020-07-07T17:29:38.413Z</time>
      </trkpt>
      <trkpt lat="45.87349" lon="2.92625">
        <ele>873.23901367188</ele>
        <time>2020-07-07T17:29:40.699Z</time>
      </trkpt>
      <trkpt lat="45.87337" lon="2.92597">
        <ele>874.67163085938</ele>
        <time>2020-07-07T17:29:42.989Z</time>
      </trkpt>
      <trkpt lat="45.87324" lon="2.92565">
        <ele>875.97778320312</ele>
        <time>2020-07-07T17:29:45.284Z</time>
      </trkpt>
      <trkpt lat="45.87311" lon="2.92529">
        <ele>877.32513427734</ele>
        <time>2020-07-07T17:29:47.585Z</time>
      </trkpt>
      <trkpt lat="45.87293" lon="2.92492">
        <ele>878.52355957031</ele>
        <time>2020-07-07T17:29:49.892Z</time>
      </trkpt>
      <trkpt lat="45.8728" lon="2.92462">
        <ele>879.40655517578</ele>
        <time>2020-07-07T17:29:52.204Z</time>
      </trkpt>
      <trkpt lat="45.87273" lon="2.92449">
        <ele>879.79412841797</ele>
        <time>2020-07-07T17:29:54.518Z</time>
      </trkpt>
      <trkpt lat="45.87272" lon="2.92434">
        <ele>880.17443847656</ele>
        <time>2020-07-07T17:29:56.835Z</time>
      </trkpt>
      <trkpt lat="45.87273" lon="2.92413">
        <ele>880.28094482422</ele>
        <time>2020-07-07T17:29:59.154Z</time>
      </trkpt>
      <trkpt lat="45.87274" lon="2.92394">
        <ele>880.01940917969</ele>
        <time>2020-07-07T17:30:01.476Z</time>
      </trkpt>
      <trkpt lat="45.8728" lon="2.92368">
        <ele>880</ele>
        <time>2020-07-07T17:30:03.802Z</time>
      </trkpt>
      <trkpt lat="45.87285" lon="2.92334">
        <ele>879.84655761719</ele>
        <time>2020-07-07T17:30:06.133Z</time>
      </trkpt>
      <trkpt lat="45.87291" lon="2.9231">
        <ele>879.26586914062</ele>
        <time>2020-07-07T17:30:08.467Z</time>
      </trkpt>
      <trkpt lat="45.87295" lon="2.92288">
        <ele>878.73797607422</ele>
        <time>2020-07-07T17:30:10.805Z</time>
      </trkpt>
      <trkpt lat="45.87296" lon="2.92264">
        <ele>878.17163085938</ele>
        <time>2020-07-07T17:30:13.146Z</time>
      </trkpt>
      <trkpt lat="45.87154" lon="2.92248">
        <ele>878</ele>
        <time>2020-07-07T17:30:15.515Z</time>
      </trkpt>
      <trkpt lat="45.86988" lon="2.92228">
        <ele>874.82824707031</ele>
        <time>2020-07-07T17:30:17.918Z</time>
      </trkpt>
      <trkpt lat="45.86856" lon="2.92211">
        <ele>874.29125976562</ele>
        <time>2020-07-07T17:30:20.347Z</time>
      </trkpt>
      <trkpt lat="45.86698" lon="2.92186">
        <ele>877.28527832031</ele>
        <time>2020-07-07T17:30:22.808Z</time>
      </trkpt>
      <trkpt lat="45.86591" lon="2.92174">
        <ele>875.99639892578</ele>
        <time>2020-07-07T17:30:25.290Z</time>
      </trkpt>
      <trkpt lat="45.86535" lon="2.92154">
        <ele>875.62292480469</ele>
        <time>2020-07-07T17:30:27.784Z</time>
      </trkpt>
      <trkpt lat="45.86561" lon="2.92139">
        <ele>874.75463867188</ele>
        <time>2020-07-07T17:30:30.284Z</time>
      </trkpt>
      <trkpt lat="45.86588" lon="2.92142">
        <ele>874.84460449219</ele>
        <time>2020-07-07T17:30:32.789Z</time>
      </trkpt>
      <trkpt lat="45.86605" lon="2.92102">
        <ele>872.97631835938</ele>
        <time>2020-07-07T17:30:35.301Z</time>
      </trkpt>
      <trkpt lat="45.86636" lon="2.92045">
        <ele>872.49755859375</ele>
        <time>2020-07-07T17:30:37.823Z</time>
      </trkpt>
      <trkpt lat="45.86677" lon="2.92004">
        <ele>872.09490966797</ele>
        <time>2020-07-07T17:30:40.355Z</time>
      </trkpt>
      <trkpt lat="45.86706" lon="2.91964">
        <ele>871.07653808594</ele>
        <time>2020-07-07T17:30:42.895Z</time>
      </trkpt>
      <trkpt lat="45.86724" lon="2.91937">
        <ele>870.16815185547</ele>
        <time>2020-07-07T17:30:45.440Z</time>
      </trkpt>
      <trkpt lat="45.86742" lon="2.91925">
        <ele>870.91430664062</ele>
        <time>2020-07-07T17:30:47.989Z</time>
      </trkpt>
      <trkpt lat="45.86765" lon="2.91927">
        <ele>871.92694091797</ele>
        <time>2020-07-07T17:30:50.542Z</time>
      </trkpt>
      <trkpt lat="45.86782" lon="2.91927">
        <ele>872.75238037109</ele>
        <time>2020-07-07T17:30:53.099Z</time>
      </trkpt>
      <trkpt lat="45.86784" lon="2.91907">
        <ele>872.91656494141</ele>
        <time>2020-07-07T17:30:55.659Z</time>
      </trkpt>
      <trkpt lat="45.86778" lon="2.91885">
        <ele>872.79516601562</ele>
        <time>2020-07-07T17:30:58.222Z</time>
      </trkpt>
      <trkpt lat="45.86792" lon="2.9187">
        <ele>873.80059814453</ele>
        <time>2020-07-07T17:31:00.788Z</time>
      </trkpt>
      <trkpt lat="45.86806" lon="2.91846">
        <ele>874.91760253906</ele>
        <time>2020-07-07T17:31:03.359Z</time>
      </trkpt>
      <trkpt lat="45.86823" lon="2.91831">
        <ele>875.90362548828</ele>
        <time>2020-07-07T17:31:05.934Z</time>
      </trkpt>
      <trkpt lat="45.86844" lon="2.91819">
        <ele>876.99182128906</ele>
        <time>2020-07-07T17:31:08.513Z</time>
      </trkpt>
      <trkpt lat="45.86851" lon="2.91797">
        <ele>877.24829101562</ele>
        <time>2020-07-07T17:31:11.096Z</time>
      </trkpt>
      <trkpt lat="45.86858" lon="2.91754">
        <ele>878.45245361328</ele>
        <time>2020-07-07T17:31:13.685Z</time>
      </trkpt>
      <trkpt lat="45.8687" lon="2.91724">
        <ele>879.49914550781</ele>
        <time>2020-07-07T17:31:16.279Z</time>
      </trkpt>
      <trkpt lat="45.86878" lon="2.91701">
        <ele>879.26397705078</ele>
        <time>2020-07-07T17:31:18.876Z</time>
      </trkpt>
      <trkpt lat="45.86886" lon="2.91661">
        <ele>879.11450195312</ele>
        <time>2020-07-07T17:31:21.479Z</time>
      </trkpt>
      <trkpt lat="45.86899" lon="2.916">
        <ele>881.08721923828</ele>
        <time>2020-07-07T17:31:24.091Z</time>
      </trkpt>
      <trkpt lat="45.86901" lon="2.91556">
        <ele>881.27301025391</ele>
        <time>2020-07-07T17:31:26.709Z</time>
      </trkpt>
      <trkpt lat="45.86899" lon="2.91501">
        <ele>880.79406738281</ele>
        <time>2020-07-07T17:31:29.335Z</time>
      </trkpt>
      <trkpt lat="45.8689" lon="2.91413">
        <ele>877.22772216797</ele>
        <time>2020-07-07T17:31:31.973Z</time>
      </trkpt>
      <trkpt lat="45.86882" lon="2.91377">
        <ele>875.12249755859</ele>
        <time>2020-07-07T17:31:34.617Z</time>
      </trkpt>
      <trkpt lat="45.86877" lon="2.91322">
        <ele>871.2998046875</ele>
        <time>2020-07-07T17:31:37.268Z</time>
      </trkpt>
      <trkpt lat="45.8687" lon="2.91264">
        <ele>866.38543701172</ele>
        <time>2020-07-07T17:31:39.927Z</time>
      </trkpt>
      <trkpt lat="45.86866" lon="2.91216">
        <ele>862.08532714844</ele>
        <time>2020-07-07T17:31:42.593Z</time>
      </trkpt>
      <trkpt lat="45.86858" lon="2.91198">
        <ele>860.92395019531</ele>
        <time>2020-07-07T17:31:45.262Z</time>
      </trkpt>
      <trkpt lat="45.86838" lon="2.91172">
        <ele>860.21960449219</ele>
        <time>2020-07-07T17:31:47.937Z</time>
      </trkpt>
      <trkpt lat="45.86827" lon="2.91156">
        <ele>860.19445800781</ele>
        <time>2020-07-07T17:31:50.615Z</time>
      </trkpt>
      <trkpt lat="45.86823" lon="2.9112">
        <ele>858.32873535156</ele>
        <time>2020-07-07T17:31:53.298Z</time>
      </trkpt>
      <trkpt lat="45.8683" lon="2.91094">
        <ele>856.44879150391</ele>
        <time>2020-07-07T17:31:55.985Z</time>
      </trkpt>
      <trkpt lat="45.86839" lon="2.91052">
        <ele>853.30786132812</ele>
        <time>2020-07-07T17:31:58.678Z</time>
      </trkpt>
      <trkpt lat="45.86849" lon="2.91025">
        <ele>851.32415771484</ele>
        <time>2020-07-07T17:32:01.375Z</time>
      </trkpt>
      <trkpt lat="45.86857" lon="2.90998">
        <ele>849.29797363281</ele>
        <time>2020-07-07T17:32:04.076Z</time>
      </trkpt>
      <trkpt lat="45.86844" lon="2.90991">
        <ele>849.56915283203</ele>
        <time>2020-07-07T17:32:06.780Z</time>
      </trkpt>
      <trkpt lat="45.86814" lon="2.90961">
        <ele>849.1923828125</ele>
        <time>2020-07-07T17:32:09.491Z</time>
      </trkpt>
      <trkpt lat="45.86801" lon="2.90956">
        <ele>849.54815673828</ele>
        <time>2020-07-07T17:32:12.205Z</time>
      </trkpt>
      <trkpt lat="45.86776" lon="2.90946">
        <ele>849.69573974609</ele>
        <time>2020-07-07T17:32:14.924Z</time>
      </trkpt>
      <trkpt lat="45.86758" lon="2.90934">
        <ele>849.50134277344</ele>
        <time>2020-07-07T17:32:17.647Z</time>
      </trkpt>
      <trkpt lat="45.86745" lon="2.9093">
        <ele>849.65972900391</ele>
        <time>2020-07-07T17:32:20.373Z</time>
      </trkpt>
      <trkpt lat="45.86738" lon="2.90919">
        <ele>849.00134277344</ele>
        <time>2020-07-07T17:32:23.101Z</time>
      </trkpt>
      <trkpt lat="45.86729" lon="2.90887">
        <ele>845.86987304688</ele>
        <time>2020-07-07T17:32:25.834Z</time>
      </trkpt>
      <trkpt lat="45.86714" lon="2.90867">
        <ele>844.25524902344</ele>
        <time>2020-07-07T17:32:28.571Z</time>
      </trkpt>
      <trkpt lat="45.86702" lon="2.90844">
        <ele>842.38598632812</ele>
        <time>2020-07-07T17:32:31.312Z</time>
      </trkpt>
      <trkpt lat="45.86687" lon="2.90816">
        <ele>839.80590820312</ele>
        <time>2020-07-07T17:32:34.058Z</time>
      </trkpt>
      <trkpt lat="45.86676" lon="2.90796">
        <ele>837.99182128906</ele>
        <time>2020-07-07T17:32:36.807Z</time>
      </trkpt>
      <trkpt lat="45.86655" lon="2.90775">
        <ele>836.37927246094</ele>
        <time>2020-07-07T17:32:39.561Z</time>
      </trkpt>
      <trkpt lat="45.86642" lon="2.90741">
        <ele>834.52545166016</ele>
        <time>2020-07-07T17:32:42.321Z</time>
      </trkpt>
      <trkpt lat="45.8664" lon="2.90708">
        <ele>833.81280517578</ele>
        <time>2020-07-07T17:32:45.085Z</time>
      </trkpt>
      <trkpt lat="45.86647" lon="2.90689">
        <ele>833.11212158203</ele>
        <time>2020-07-07T17:32:47.852Z</time>
      </trkpt>
      <trkpt lat="45.8666" lon="2.90653">
        <ele>830.53668212891</ele>
        <time>2020-07-07T17:32:50.625Z</time>
      </trkpt>
      <trkpt lat="45.86663" lon="2.90622">
        <ele>828.80651855469</ele>
        <time>2020-07-07T17:32:53.403Z</time>
      </trkpt>
      <trkpt lat="45.86666" lon="2.90588">
        <ele>827.50750732422</ele>
        <time>2020-07-07T17:32:56.185Z</time>
      </trkpt>
      <trkpt lat="45.86663" lon="2.90547">
        <ele>823.19061279297</ele>
        <time>2020-07-07T17:32:58.973Z</time>
      </trkpt>
      <trkpt lat="45.86642" lon="2.90503">
        <ele>819.83581542969</ele>
        <time>2020-07-07T17:33:01.768Z</time>
      </trkpt>
      <trkpt lat="45.86618" lon="2.9047">
        <ele>818.92517089844</ele>
        <time>2020-07-07T17:33:04.570Z</time>
      </trkpt>
      <trkpt lat="45.86605" lon="2.9045">
        <ele>818.37329101562</ele>
        <time>2020-07-07T17:33:07.376Z</time>
      </trkpt>
      <trkpt lat="45.86596" lon="2.9043">
        <ele>817.74334716797</ele>
        <time>2020-07-07T17:33:10.185Z</time>
      </trkpt>
      <trkpt lat="45.86597" lon="2.90411">
        <ele>817.20953369141</ele>
        <time>2020-07-07T17:33:12.997Z</time>
      </trkpt>
      <trkpt lat="45.86605" lon="2.90393">
        <ele>816.67205810547</ele>
        <time>2020-07-07T17:33:15.812Z</time>
      </trkpt>
      <trkpt lat="45.86611" lon="2.90364">
        <ele>817.02935791016</ele>
        <time>2020-07-07T17:33:18.631Z</time>
      </trkpt>
      <trkpt lat="45.86615" lon="2.90333">
        <ele>817.24072265625</ele>
        <time>2020-07-07T17:33:21.455Z</time>
      </trkpt>
      <trkpt lat="45.86613" lon="2.90303">
        <ele>816.34350585938</ele>
        <time>2020-07-07T17:33:24.283Z</time>
      </trkpt>
      <trkpt lat="45.86607" lon="2.90273">
        <ele>815.20013427734</ele>
        <time>2020-07-07T17:33:27.115Z</time>
      </trkpt>
      <trkpt lat="45.86608" lon="2.90247">
        <ele>813.89904785156</ele>
        <time>2020-07-07T17:33:29.951Z</time>
      </trkpt>
      <trkpt lat="45.86609" lon="2.90213">
        <ele>812.15368652344</ele>
        <time>2020-07-07T17:33:32.792Z</time>
      </trkpt>
      <trkpt lat="45.86605" lon="2.90193">
        <ele>811.36901855469</ele>
        <time>2020-07-07T17:33:35.636Z</time>
      </trkpt>
      <trkpt lat="45.86595" lon="2.90158">
        <ele>809.59893798828</ele>
        <time>2020-07-07T17:33:38.485Z</time>
      </trkpt>
      <trkpt lat="45.86585" lon="2.90131">
        <ele>807.65045166016</ele>
        <time>2020-07-07T17:33:41.338Z</time>
      </trkpt>
      <trkpt lat="45.86578" lon="2.90108">
        <ele>806.27276611328</ele>
        <time>2020-07-07T17:33:44.195Z</time>
      </trkpt>
      <trkpt lat="45.86571" lon="2.90092">
        <ele>805.28411865234</ele>
        <time>2020-07-07T17:33:47.054Z</time>
      </trkpt>
      <trkpt lat="45.86561" lon="2.90078">
        <ele>804.73791503906</ele>
        <time>2020-07-07T17:33:49.916Z</time>
      </trkpt>
      <trkpt lat="45.86556" lon="2.90065">
        <ele>804.57635498047</ele>
        <time>2020-07-07T17:33:52.780Z</time>
      </trkpt>
      <trkpt lat="45.86552" lon="2.90049">
        <ele>804.67474365234</ele>
        <time>2020-07-07T17:33:55.646Z</time>
      </trkpt>
      <trkpt lat="45.86557" lon="2.90033">
        <ele>805.41217041016</ele>
        <time>2020-07-07T17:33:58.515Z</time>
      </trkpt>
      <trkpt lat="45.86559" lon="2.90013">
        <ele>806.08166503906</ele>
        <time>2020-07-07T17:34:01.387Z</time>
      </trkpt>
      <trkpt lat="45.86554" lon="2.89997">
        <ele>805.88403320312</ele>
        <time>2020-07-07T17:34:04.261Z</time>
      </trkpt>
      <trkpt lat="45.86552" lon="2.89985">
        <ele>805.74005126953</ele>
        <time>2020-07-07T17:34:07.137Z</time>
      </trkpt>
      <trkpt lat="45.86549" lon="2.89963">
        <ele>805.59002685547</ele>
        <time>2020-07-07T17:34:10.016Z</time>
      </trkpt>
      <trkpt lat="45.8655" lon="2.89943">
        <ele>805.63806152344</ele>
        <time>2020-07-07T17:34:12.898Z</time>
      </trkpt>
      <trkpt lat="45.86533" lon="2.89928">
        <ele>804.63018798828</ele>
        <time>2020-07-07T17:34:15.784Z</time>
      </trkpt>
      <trkpt lat="45.86518" lon="2.8991">
        <ele>803.0693359375</ele>
        <time>2020-07-07T17:34:18.674Z</time>
      </trkpt>
      <trkpt lat="45.86509" lon="2.89893">
        <ele>801.66314697266</ele>
        <time>2020-07-07T17:34:21.567Z</time>
      </trkpt>
      <trkpt lat="45.86497" lon="2.89874">
        <ele>800.10821533203</ele>
        <time>2020-07-07T17:34:24.463Z</time>
      </trkpt>
      <trkpt lat="45.86488" lon="2.89857">
        <ele>798.70684814453</ele>
        <time>2020-07-07T17:34:27.362Z</time>
      </trkpt>
      <trkpt lat="45.86478" lon="2.89841">
        <ele>797.51989746094</ele>
        <time>2020-07-07T17:34:30.264Z</time>
      </trkpt>
      <trkpt lat="45.86465" lon="2.89814">
        <ele>795.35723876953</ele>
        <time>2020-07-07T17:34:33.171Z</time>
      </trkpt>
      <trkpt lat="45.86457" lon="2.89794">
        <ele>793.84423828125</ele>
        <time>2020-07-07T17:34:36.081Z</time>
      </trkpt>
      <trkpt lat="45.86527" lon="2.89793">
        <ele>800.6728515625</ele>
        <time>2020-07-07T17:34:39.005Z</time>
      </trkpt>
      <trkpt lat="45.86554" lon="2.89761">
        <ele>802.91528320312</ele>
        <time>2020-07-07T17:34:41.936Z</time>
      </trkpt>
      <trkpt lat="45.86605" lon="2.89697">
        <ele>806.396484375</ele>
        <time>2020-07-07T17:34:44.881Z</time>
      </trkpt>
      <trkpt lat="45.8663" lon="2.89629">
        <ele>808.64172363281</ele>
        <time>2020-07-07T17:34:47.836Z</time>
      </trkpt>
      <trkpt lat="45.86699" lon="2.89573">
        <ele>815.26342773438</ele>
        <time>2020-07-07T17:34:50.807Z</time>
      </trkpt>
      <trkpt lat="45.86777" lon="2.89549">
        <ele>818.43377685547</ele>
        <time>2020-07-07T17:34:53.794Z</time>
      </trkpt>
      <trkpt lat="45.86822" lon="2.89505">
        <ele>820.78210449219</ele>
        <time>2020-07-07T17:34:56.792Z</time>
      </trkpt>
      <trkpt lat="45.86881" lon="2.89417">
        <ele>821.89294433594</ele>
        <time>2020-07-07T17:34:59.807Z</time>
      </trkpt>
      <trkpt lat="45.86931" lon="2.89353">
        <ele>820.56524658203</ele>
        <time>2020-07-07T17:35:02.836Z</time>
      </trkpt>
      <trkpt lat="45.86995" lon="2.89136">
        <ele>813.21356201172</ele>
        <time>2020-07-07T17:35:05.897Z</time>
      </trkpt>
      <trkpt lat="45.87051" lon="2.89064">
        <ele>811.13458251953</ele>
        <time>2020-07-07T17:35:08.973Z</time>
      </trkpt>
      <trkpt lat="45.87098" lon="2.88992">
        <ele>807.48327636719</ele>
        <time>2020-07-07T17:35:12.063Z</time>
      </trkpt>
      <trkpt lat="45.87154" lon="2.88908">
        <ele>800.70257568359</ele>
        <time>2020-07-07T17:35:15.169Z</time>
      </trkpt>
      <trkpt lat="45.87204" lon="2.8882">
        <ele>793.96405029297</ele>
        <time>2020-07-07T17:35:18.291Z</time>
      </trkpt>
      <trkpt lat="45.87227" lon="2.8879">
        <ele>790.75085449219</ele>
        <time>2020-07-07T17:35:21.420Z</time>
      </trkpt>
      <trkpt lat="45.87239" lon="2.88737">
        <ele>789.62176513672</ele>
        <time>2020-07-07T17:35:24.556Z</time>
      </trkpt>
      <trkpt lat="45.8724" lon="2.88702">
        <ele>788.9462890625</ele>
        <time>2020-07-07T17:35:27.697Z</time>
      </trkpt>
      <trkpt lat="45.8724" lon="2.8866">
        <ele>789.35180664062</ele>
        <time>2020-07-07T17:35:30.844Z</time>
      </trkpt>
      <trkpt lat="45.87243" lon="2.88623">
        <ele>788.97503662109</ele>
        <time>2020-07-07T17:35:33.996Z</time>
      </trkpt>
      <trkpt lat="45.87252" lon="2.88581">
        <ele>788.14508056641</ele>
        <time>2020-07-07T17:35:37.154Z</time>
      </trkpt>
      <trkpt lat="45.87261" lon="2.88548">
        <ele>787.349609375</ele>
        <time>2020-07-07T17:35:40.317Z</time>
      </trkpt>
      <trkpt lat="45.87276" lon="2.88515">
        <ele>785.68804931641</ele>
        <time>2020-07-07T17:35:43.486Z</time>
      </trkpt>
      <trkpt lat="45.87297" lon="2.8849">
        <ele>784.12329101562</ele>
        <time>2020-07-07T17:35:46.660Z</time>
      </trkpt>
      <trkpt lat="45.87323" lon="2.88467">
        <ele>781.77087402344</ele>
        <time>2020-07-07T17:35:49.840Z</time>
      </trkpt>
      <trkpt lat="45.87352" lon="2.88438">
        <ele>779.35009765625</ele>
        <time>2020-07-07T17:35:53.027Z</time>
      </trkpt>
      <trkpt lat="45.87367" lon="2.88424">
        <ele>777.22528076172</ele>
        <time>2020-07-07T17:35:56.218Z</time>
      </trkpt>
      <trkpt lat="45.87385" lon="2.88387">
        <ele>774.39624023438</ele>
        <time>2020-07-07T17:35:59.415Z</time>
      </trkpt>
      <trkpt lat="45.87407" lon="2.88352">
        <ele>773.01794433594</ele>
        <time>2020-07-07T17:36:02.619Z</time>
      </trkpt>
      <trkpt lat="45.87425" lon="2.88325">
        <ele>773.19445800781</ele>
        <time>2020-07-07T17:36:05.828Z</time>
      </trkpt>
      <trkpt lat="45.87464" lon="2.88269">
        <ele>769.48681640625</ele>
        <time>2020-07-07T17:36:09.048Z</time>
      </trkpt>
      <trkpt lat="45.87494" lon="2.88224">
        <ele>767.61773681641</ele>
        <time>2020-07-07T17:36:12.277Z</time>
      </trkpt>
      <trkpt lat="45.8753" lon="2.88171">
        <ele>764.95727539062</ele>
        <time>2020-07-07T17:36:15.516Z</time>
      </trkpt>
      <trkpt lat="45.87556" lon="2.8813">
        <ele>762.54132080078</ele>
        <time>2020-07-07T17:36:18.763Z</time>
      </trkpt>
      <trkpt lat="45.87575" lon="2.88107">
        <ele>763.17901611328</ele>
        <time>2020-07-07T17:36:22.015Z</time>
      </trkpt>
      <trkpt lat="45.87596" lon="2.88071">
        <ele>765.81622314453</ele>
        <time>2020-07-07T17:36:25.274Z</time>
      </trkpt>
      <trkpt lat="45.87612" lon="2.88052">
        <ele>766.95495605469</ele>
        <time>2020-07-07T17:36:28.537Z</time>
      </trkpt>
      <trkpt lat="45.87621" lon="2.88043">
        <ele>766.86254882812</ele>
        <time>2020-07-07T17:36:31.802Z</time>
      </trkpt>
      <trkpt lat="45.87628" lon="2.88032">
        <ele>766.63580322266</ele>
        <time>2020-07-07T17:36:35.069Z</time>
      </trkpt>
      <trkpt lat="45.87628" lon="2.8802">
        <ele>766.22906494141</ele>
        <time>2020-07-07T17:36:38.338Z</time>
      </trkpt>
      <trkpt lat="45.87639" lon="2.88">
        <ele>766.11071777344</ele>
        <time>2020-07-07T17:36:41.610Z</time>
      </trkpt>
      <trkpt lat="45.8765" lon="2.87985">
        <ele>765.86462402344</ele>
        <time>2020-07-07T17:36:44.885Z</time>
      </trkpt>
      <trkpt lat="45.87661" lon="2.87968">
        <ele>765.79498291016</ele>
        <time>2020-07-07T17:36:48.164Z</time>
      </trkpt>
      <trkpt lat="45.87668" lon="2.87958">
        <ele>765.76141357422</ele>
        <time>2020-07-07T17:36:51.445Z</time>
      </trkpt>
      <trkpt lat="45.87679" lon="2.87946">
        <ele>765.15753173828</ele>
        <time>2020-07-07T17:36:54.728Z</time>
      </trkpt>
      <trkpt lat="45.87686" lon="2.8793">
        <ele>764.24810791016</ele>
        <time>2020-07-07T17:36:58.014Z</time>
      </trkpt>
      <trkpt lat="45.87696" lon="2.8791">
        <ele>765.21600341797</ele>
        <time>2020-07-07T17:37:01.303Z</time>
      </trkpt>
      <trkpt lat="45.87704" lon="2.87899">
        <ele>765.63647460938</ele>
        <time>2020-07-07T17:37:04.595Z</time>
      </trkpt>
      <trkpt lat="45.87711" lon="2.87883">
        <ele>763.99035644531</ele>
        <time>2020-07-07T17:37:07.889Z</time>
      </trkpt>
      <trkpt lat="45.87719" lon="2.87876">
        <ele>762.5673828125</ele>
        <time>2020-07-07T17:37:11.185Z</time>
      </trkpt>
      <trkpt lat="45.87723" lon="2.87865">
        <ele>761.67236328125</ele>
        <time>2020-07-07T17:37:14.483Z</time>
      </trkpt>
      <trkpt lat="45.87723" lon="2.87865">
        <ele>761.671875</ele>
        <time>2020-07-07T17:37:17.781Z</time>
      </trkpt>
      <trkpt lat="45.87723" lon="2.87855">
        <ele>761.43957519531</ele>
        <time>2020-07-07T17:37:21.080Z</time>
      </trkpt>
      <trkpt lat="45.87725" lon="2.87849">
        <ele>761.14031982422</ele>
        <time>2020-07-07T17:37:24.380Z</time>
      </trkpt>
      <trkpt lat="45.8773" lon="2.87841">
        <ele>760.67724609375</ele>
        <time>2020-07-07T17:37:27.681Z</time>
      </trkpt>
      <trkpt lat="45.87736" lon="2.87832">
        <ele>760.96789550781</ele>
        <time>2020-07-07T17:37:30.984Z</time>
      </trkpt>
      <trkpt lat="45.87744" lon="2.87824">
        <ele>761.26782226562</ele>
        <time>2020-07-07T17:37:34.289Z</time>
      </trkpt>
      <trkpt lat="45.87754" lon="2.87802">
        <ele>762.79760742188</ele>
        <time>2020-07-07T17:37:37.598Z</time>
      </trkpt>
      <trkpt lat="45.87761" lon="2.87788">
        <ele>763.18017578125</ele>
        <time>2020-07-07T17:37:40.909Z</time>
      </trkpt>
      <trkpt lat="45.87764" lon="2.87779">
        <ele>763.05541992188</ele>
        <time>2020-07-07T17:37:44.222Z</time>
      </trkpt>
      <trkpt lat="45.87768" lon="2.87759">
        <ele>762.97741699219</ele>
        <time>2020-07-07T17:37:47.538Z</time>
      </trkpt>
      <trkpt lat="45.87775" lon="2.87737">
        <ele>765.67639160156</ele>
        <time>2020-07-07T17:37:50.857Z</time>
      </trkpt>
      <trkpt lat="45.87779" lon="2.87718">
        <ele>768.12872314453</ele>
        <time>2020-07-07T17:37:54.179Z</time>
      </trkpt>
      <trkpt lat="45.87785" lon="2.87703">
        <ele>769.64166259766</ele>
        <time>2020-07-07T17:37:57.503Z</time>
      </trkpt>
      <trkpt lat="45.87794" lon="2.87667">
        <ele>774.03948974609</ele>
        <time>2020-07-07T17:38:00.833Z</time>
      </trkpt>
      <trkpt lat="45.878" lon="2.87658">
        <ele>774.17797851562</ele>
        <time>2020-07-07T17:38:04.164Z</time>
      </trkpt>
      <trkpt lat="45.87807" lon="2.87638">
        <ele>774.31768798828</ele>
        <time>2020-07-07T17:38:07.498Z</time>
      </trkpt>
      <trkpt lat="45.87814" lon="2.87618">
        <ele>774.91644287109</ele>
        <time>2020-07-07T17:38:10.836Z</time>
      </trkpt>
      <trkpt lat="45.8782" lon="2.87604">
        <ele>775.25238037109</ele>
        <time>2020-07-07T17:38:14.176Z</time>
      </trkpt>
      <trkpt lat="45.87823" lon="2.87585">
        <ele>774.66058349609</ele>
        <time>2020-07-07T17:38:17.518Z</time>
      </trkpt>
      <trkpt lat="45.87826" lon="2.87567">
        <ele>774.16027832031</ele>
        <time>2020-07-07T17:38:20.863Z</time>
      </trkpt>
      <trkpt lat="45.87825" lon="2.87544">
        <ele>774.76019287109</ele>
        <time>2020-07-07T17:38:24.211Z</time>
      </trkpt>
      <trkpt lat="45.87823" lon="2.87522">
        <ele>775.38616943359</ele>
        <time>2020-07-07T17:38:27.562Z</time>
      </trkpt>
      <trkpt lat="45.87821" lon="2.87505">
        <ele>775.80426025391</ele>
        <time>2020-07-07T17:38:30.916Z</time>
      </trkpt>
      <trkpt lat="45.87816" lon="2.87488">
        <ele>776.68731689453</ele>
        <time>2020-07-07T17:38:34.272Z</time>
      </trkpt>
      <trkpt lat="45.87813" lon="2.87479">
        <ele>777.34716796875</ele>
        <time>2020-07-07T17:38:37.630Z</time>
      </trkpt>
      <trkpt lat="45.87807" lon="2.87474">
        <ele>778.92852783203</ele>
        <time>2020-07-07T17:38:40.989Z</time>
      </trkpt>
      <trkpt lat="45.87799" lon="2.87464">
        <ele>781.16015625</ele>
        <time>2020-07-07T17:38:44.350Z</time>
      </trkpt>
      <trkpt lat="45.8779" lon="2.87456">
        <ele>783.55975341797</ele>
        <time>2020-07-07T17:38:47.713Z</time>
      </trkpt>
      <trkpt lat="45.87781" lon="2.87444">
        <ele>785.8681640625</ele>
        <time>2020-07-07T17:38:51.079Z</time>
      </trkpt>
      <trkpt lat="45.87776" lon="2.87438">
        <ele>787.22393798828</ele>
        <time>2020-07-07T17:38:54.446Z</time>
      </trkpt>
      <trkpt lat="45.87769" lon="2.87432">
        <ele>788.99963378906</ele>
        <time>2020-07-07T17:38:57.815Z</time>
      </trkpt>
      <trkpt lat="45.87765" lon="2.87448">
        <ele>790.43701171875</ele>
        <time>2020-07-07T17:39:01.186Z</time>
      </trkpt>
      <trkpt lat="45.87761" lon="2.87465">
        <ele>792.29260253906</ele>
        <time>2020-07-07T17:39:04.560Z</time>
      </trkpt>
      <trkpt lat="45.87754" lon="2.87481">
        <ele>795.58850097656</ele>
        <time>2020-07-07T17:39:07.936Z</time>
      </trkpt>
      <trkpt lat="45.87752" lon="2.87491">
        <ele>796.78588867188</ele>
        <time>2020-07-07T17:39:11.314Z</time>
      </trkpt>
      <trkpt lat="45.87746" lon="2.87505">
        <ele>799.56341552734</ele>
        <time>2020-07-07T17:39:14.694Z</time>
      </trkpt>
      <trkpt lat="45.87738" lon="2.87516">
        <ele>801.92974853516</ele>
        <time>2020-07-07T17:39:18.076Z</time>
      </trkpt>
      <trkpt lat="45.87729" lon="2.87516">
        <ele>804.62646484375</ele>
        <time>2020-07-07T17:39:21.460Z</time>
      </trkpt>
      <trkpt lat="45.87724" lon="2.87513">
        <ele>806.15502929688</ele>
        <time>2020-07-07T17:39:24.845Z</time>
      </trkpt>
      <trkpt lat="45.87719" lon="2.87506">
        <ele>807.80584716797</ele>
        <time>2020-07-07T17:39:28.232Z</time>
      </trkpt>
      <trkpt lat="45.87708" lon="2.87496">
        <ele>809.64514160156</ele>
        <time>2020-07-07T17:39:31.621Z</time>
      </trkpt>
      <trkpt lat="45.87698" lon="2.87484">
        <ele>811.30328369141</ele>
        <time>2020-07-07T17:39:35.013Z</time>
      </trkpt>
      <trkpt lat="45.87689" lon="2.87476">
        <ele>812.75384521484</ele>
        <time>2020-07-07T17:39:38.407Z</time>
      </trkpt>
      <trkpt lat="45.87682" lon="2.87466">
        <ele>813.86242675781</ele>
        <time>2020-07-07T17:39:41.803Z</time>
      </trkpt>
      <trkpt lat="45.87671" lon="2.87454">
        <ele>815.71203613281</ele>
        <time>2020-07-07T17:39:45.202Z</time>
      </trkpt>
      <trkpt lat="45.87662" lon="2.8744">
        <ele>816.87701416016</ele>
        <time>2020-07-07T17:39:48.603Z</time>
      </trkpt>
      <trkpt lat="45.87652" lon="2.87422">
        <ele>818.26800537109</ele>
        <time>2020-07-07T17:39:52.007Z</time>
      </trkpt>
      <trkpt lat="45.87642" lon="2.87412">
        <ele>820.35083007812</ele>
        <time>2020-07-07T17:39:55.414Z</time>
      </trkpt>
      <trkpt lat="45.8764" lon="2.87402">
        <ele>820.57641601562</ele>
        <time>2020-07-07T17:39:58.822Z</time>
      </trkpt>
      <trkpt lat="45.87637" lon="2.87384">
        <ele>820.88323974609</ele>
        <time>2020-07-07T17:40:02.233Z</time>
      </trkpt>
      <trkpt lat="45.87635" lon="2.87364">
        <ele>820.83160400391</ele>
        <time>2020-07-07T17:40:05.647Z</time>
      </trkpt>
      <trkpt lat="45.87633" lon="2.87344">
        <ele>820.81481933594</ele>
        <time>2020-07-07T17:40:09.063Z</time>
      </trkpt>
      <trkpt lat="45.87632" lon="2.87331">
        <ele>821.13726806641</ele>
        <time>2020-07-07T17:40:12.481Z</time>
      </trkpt>
      <trkpt lat="45.87632" lon="2.87321">
        <ele>820.96453857422</ele>
        <time>2020-07-07T17:40:15.901Z</time>
      </trkpt>
      <trkpt lat="45.87631" lon="2.87298">
        <ele>820.60821533203</ele>
        <time>2020-07-07T17:40:19.324Z</time>
      </trkpt>
      <trkpt lat="45.87633" lon="2.87277">
        <ele>819.71075439453</ele>
        <time>2020-07-07T17:40:22.750Z</time>
      </trkpt>
      <trkpt lat="45.87637" lon="2.8726">
        <ele>818.62854003906</ele>
        <time>2020-07-07T17:40:26.178Z</time>
      </trkpt>
      <trkpt lat="45.87632" lon="2.87245">
        <ele>819.29870605469</ele>
        <time>2020-07-07T17:40:29.609Z</time>
      </trkpt>
      <trkpt lat="45.87627" lon="2.87221">
        <ele>819.94305419922</ele>
        <time>2020-07-07T17:40:33.043Z</time>
      </trkpt>
      <trkpt lat="45.8762" lon="2.87213">
        <ele>821.21600341797</ele>
        <time>2020-07-07T17:40:36.479Z</time>
      </trkpt>
      <trkpt lat="45.8761" lon="2.87195">
        <ele>822.92333984375</ele>
        <time>2020-07-07T17:40:39.918Z</time>
      </trkpt>
      <trkpt lat="45.87595" lon="2.87172">
        <ele>825.67364501953</ele>
        <time>2020-07-07T17:40:43.362Z</time>
      </trkpt>
      <trkpt lat="45.87586" lon="2.87161">
        <ele>827.46612548828</ele>
        <time>2020-07-07T17:40:46.808Z</time>
      </trkpt>
      <trkpt lat="45.87578" lon="2.87139">
        <ele>829.16265869141</ele>
        <time>2020-07-07T17:40:50.257Z</time>
      </trkpt>
      <trkpt lat="45.87571" lon="2.87113">
        <ele>830.84118652344</ele>
        <time>2020-07-07T17:40:53.710Z</time>
      </trkpt>
      <trkpt lat="45.87567" lon="2.87096">
        <ele>831.72192382812</ele>
        <time>2020-07-07T17:40:57.166Z</time>
      </trkpt>
      <trkpt lat="45.87562" lon="2.8707">
        <ele>831.74713134766</ele>
        <time>2020-07-07T17:41:00.626Z</time>
      </trkpt>
      <trkpt lat="45.87558" lon="2.87046">
        <ele>831.5947265625</ele>
        <time>2020-07-07T17:41:04.089Z</time>
      </trkpt>
      <trkpt lat="45.87555" lon="2.87025">
        <ele>830.98278808594</ele>
        <time>2020-07-07T17:41:07.555Z</time>
      </trkpt>
      <trkpt lat="45.8755" lon="2.87009">
        <ele>830.34814453125</ele>
        <time>2020-07-07T17:41:11.024Z</time>
      </trkpt>
      <trkpt lat="45.87546" lon="2.86998">
        <ele>829.86975097656</ele>
        <time>2020-07-07T17:41:14.494Z</time>
      </trkpt>
      <trkpt lat="45.87538" lon="2.86984">
        <ele>828.99664306641</ele>
        <time>2020-07-07T17:41:17.967Z</time>
      </trkpt>
      <trkpt lat="45.87529" lon="2.86971">
        <ele>828.13519287109</ele>
        <time>2020-07-07T17:41:21.442Z</time>
      </trkpt>
      <trkpt lat="45.87524" lon="2.86959">
        <ele>827.03375244141</ele>
        <time>2020-07-07T17:41:24.919Z</time>
      </trkpt>
      <trkpt lat="45.87519" lon="2.86937">
        <ele>824.14227294922</ele>
        <time>2020-07-07T17:41:28.400Z</time>
      </trkpt>
      <trkpt lat="45.87516" lon="2.86918">
        <ele>822.16668701172</ele>
        <time>2020-07-07T17:41:31.883Z</time>
      </trkpt>
      <trkpt lat="45.87511" lon="2.86892">
        <ele>821.83557128906</ele>
        <time>2020-07-07T17:41:35.370Z</time>
      </trkpt>
      <trkpt lat="45.87508" lon="2.86874">
        <ele>821.564453125</ele>
        <time>2020-07-07T17:41:38.860Z</time>
      </trkpt>
      <trkpt lat="45.87506" lon="2.86857">
        <ele>820.55780029297</ele>
        <time>2020-07-07T17:41:42.352Z</time>
      </trkpt>
      <trkpt lat="45.87505" lon="2.86848">
        <ele>819.96752929688</ele>
        <time>2020-07-07T17:41:45.845Z</time>
      </trkpt>
      <trkpt lat="45.87506" lon="2.86834">
        <ele>819.05639648438</ele>
        <time>2020-07-07T17:41:49.340Z</time>
      </trkpt>
      <trkpt lat="45.87508" lon="2.86816">
        <ele>818.49609375</ele>
        <time>2020-07-07T17:41:52.838Z</time>
      </trkpt>
      <trkpt lat="45.87509" lon="2.86801">
        <ele>817.9921875</ele>
        <time>2020-07-07T17:41:56.338Z</time>
      </trkpt>
      <trkpt lat="45.87514" lon="2.86774">
        <ele>816.58032226562</ele>
        <time>2020-07-07T17:41:59.842Z</time>
      </trkpt>
      <trkpt lat="45.87516" lon="2.86749">
        <ele>815.70239257812</ele>
        <time>2020-07-07T17:42:03.349Z</time>
      </trkpt>
      <trkpt lat="45.87516" lon="2.86726">
        <ele>815.29205322266</ele>
        <time>2020-07-07T17:42:06.860Z</time>
      </trkpt>
      <trkpt lat="45.87518" lon="2.86701">
        <ele>814.63098144531</ele>
        <time>2020-07-07T17:42:10.374Z</time>
      </trkpt>
      <trkpt lat="45.87519" lon="2.86682">
        <ele>814.26501464844</ele>
        <time>2020-07-07T17:42:13.891Z</time>
      </trkpt>
      <trkpt lat="45.87523" lon="2.86656">
        <ele>812.83770751953</ele>
        <time>2020-07-07T17:42:17.411Z</time>
      </trkpt>
      <trkpt lat="45.87526" lon="2.86642">
        <ele>811.72924804688</ele>
        <time>2020-07-07T17:42:20.934Z</time>
      </trkpt>
      <trkpt lat="45.8753" lon="2.86625">
        <ele>811.69323730469</ele>
        <time>2020-07-07T17:42:24.459Z</time>
      </trkpt>
      <trkpt lat="45.87531" lon="2.86613">
        <ele>811.71362304688</ele>
        <time>2020-07-07T17:42:27.986Z</time>
      </trkpt>
      <trkpt lat="45.87533" lon="2.86595">
        <ele>811.96557617188</ele>
        <time>2020-07-07T17:42:31.515Z</time>
      </trkpt>
      <trkpt lat="45.87534" lon="2.86577">
        <ele>811.85150146484</ele>
        <time>2020-07-07T17:42:35.047Z</time>
      </trkpt>
      <trkpt lat="45.87528" lon="2.86535">
        <ele>813.03460693359</ele>
        <time>2020-07-07T17:42:38.585Z</time>
      </trkpt>
      <trkpt lat="45.87522" lon="2.86514">
        <ele>814.07360839844</ele>
        <time>2020-07-07T17:42:42.126Z</time>
      </trkpt>
      <trkpt lat="45.87522" lon="2.86494">
        <ele>813.80798339844</ele>
        <time>2020-07-07T17:42:45.670Z</time>
      </trkpt>
      <trkpt lat="45.87522" lon="2.86485">
        <ele>813.51879882812</ele>
        <time>2020-07-07T17:42:49.215Z</time>
      </trkpt>
      <trkpt lat="45.87515" lon="2.8647">
        <ele>813.66040039062</ele>
        <time>2020-07-07T17:42:52.762Z</time>
      </trkpt>
      <trkpt lat="45.87504" lon="2.86455">
        <ele>814.17510986328</ele>
        <time>2020-07-07T17:42:56.312Z</time>
      </trkpt>
      <trkpt lat="45.87491" lon="2.86434">
        <ele>814.75927734375</ele>
        <time>2020-07-07T17:42:59.866Z</time>
      </trkpt>
      <trkpt lat="45.87479" lon="2.86415">
        <ele>815.107421875</ele>
        <time>2020-07-07T17:43:03.424Z</time>
      </trkpt>
      <trkpt lat="45.87466" lon="2.86398">
        <ele>815.70446777344</ele>
        <time>2020-07-07T17:43:06.986Z</time>
      </trkpt>
      <trkpt lat="45.87453" lon="2.86384">
        <ele>816.56109619141</ele>
        <time>2020-07-07T17:43:10.551Z</time>
      </trkpt>
      <trkpt lat="45.87439" lon="2.86371">
        <ele>817.62170410156</ele>
        <time>2020-07-07T17:43:14.119Z</time>
      </trkpt>
      <trkpt lat="45.87425" lon="2.8636">
        <ele>818.78314208984</ele>
        <time>2020-07-07T17:43:17.690Z</time>
      </trkpt>
      <trkpt lat="45.87413" lon="2.86353">
        <ele>819.90374755859</ele>
        <time>2020-07-07T17:43:21.264Z</time>
      </trkpt>
      <trkpt lat="45.87406" lon="2.86338">
        <ele>819.98773193359</ele>
        <time>2020-07-07T17:43:24.840Z</time>
      </trkpt>
      <trkpt lat="45.87401" lon="2.8633">
        <ele>820.18688964844</ele>
        <time>2020-07-07T17:43:28.418Z</time>
      </trkpt>
      <trkpt lat="45.87404" lon="2.86309">
        <ele>818.77593994141</ele>
        <time>2020-07-07T17:43:31.999Z</time>
      </trkpt>
      <trkpt lat="45.87406" lon="2.86285">
        <ele>817.4345703125</ele>
        <time>2020-07-07T17:43:35.583Z</time>
      </trkpt>
      <trkpt lat="45.87408" lon="2.86278">
        <ele>816.85864257812</ele>
        <time>2020-07-07T17:43:39.168Z</time>
      </trkpt>
      <trkpt lat="45.87389" lon="2.86283">
        <ele>819.29614257812</ele>
        <time>2020-07-07T17:43:42.757Z</time>
      </trkpt>
      <trkpt lat="45.87367" lon="2.86287">
        <ele>820.32318115234</ele>
        <time>2020-07-07T17:43:46.351Z</time>
      </trkpt>
      <trkpt lat="45.87317" lon="2.86297">
        <ele>822.22351074219</ele>
        <time>2020-07-07T17:43:49.955Z</time>
      </trkpt>
      <trkpt lat="45.8728" lon="2.86305">
        <ele>823.39813232422</ele>
        <time>2020-07-07T17:43:53.566Z</time>
      </trkpt>
      <trkpt lat="45.87256" lon="2.86312">
        <ele>823.67010498047</ele>
        <time>2020-07-07T17:43:57.182Z</time>
      </trkpt>
      <trkpt lat="45.87244" lon="2.86301">
        <ele>823.53454589844</ele>
        <time>2020-07-07T17:44:00.801Z</time>
      </trkpt>
      <trkpt lat="45.87233" lon="2.86291">
        <ele>823.41815185547</ele>
        <time>2020-07-07T17:44:04.423Z</time>
      </trkpt>
      <trkpt lat="45.87223" lon="2.86273">
        <ele>823.19927978516</ele>
        <time>2020-07-07T17:44:08.048Z</time>
      </trkpt>
      <trkpt lat="45.87215" lon="2.86252">
        <ele>822.48669433594</ele>
        <time>2020-07-07T17:44:11.676Z</time>
      </trkpt>
      <trkpt lat="45.87209" lon="2.86233">
        <ele>821.58245849609</ele>
        <time>2020-07-07T17:44:15.307Z</time>
      </trkpt>
      <trkpt lat="45.8721" lon="2.86216">
        <ele>821.27166748047</ele>
        <time>2020-07-07T17:44:18.941Z</time>
      </trkpt>
      <trkpt lat="45.87217" lon="2.86186">
        <ele>820.98376464844</ele>
        <time>2020-07-07T17:44:22.579Z</time>
      </trkpt>
      <trkpt lat="45.87224" lon="2.86151">
        <ele>819.90380859375</ele>
        <time>2020-07-07T17:44:26.222Z</time>
      </trkpt>
      <trkpt lat="45.87221" lon="2.86106">
        <ele>817.68322753906</ele>
        <time>2020-07-07T17:44:29.871Z</time>
      </trkpt>
      <trkpt lat="45.87216" lon="2.86066">
        <ele>815.43347167969</ele>
        <time>2020-07-07T17:44:33.526Z</time>
      </trkpt>
      <trkpt lat="45.87212" lon="2.86037">
        <ele>813.84252929688</ele>
        <time>2020-07-07T17:44:37.185Z</time>
      </trkpt>
      <trkpt lat="45.87227" lon="2.8598">
        <ele>812.00415039062</ele>
        <time>2020-07-07T17:44:40.853Z</time>
      </trkpt>
      <trkpt lat="45.87247" lon="2.85901">
        <ele>808.88031005859</ele>
        <time>2020-07-07T17:44:44.532Z</time>
      </trkpt>
      <trkpt lat="45.87298" lon="2.85897">
        <ele>806.77825927734</ele>
        <time>2020-07-07T17:44:48.222Z</time>
      </trkpt>
      <trkpt lat="45.87324" lon="2.85895">
        <ele>804.62384033203</ele>
        <time>2020-07-07T17:44:51.917Z</time>
      </trkpt>
      <trkpt lat="45.87353" lon="2.85893">
        <ele>801.81872558594</ele>
        <time>2020-07-07T17:44:55.618Z</time>
      </trkpt>
      <trkpt lat="45.8736" lon="2.85893">
        <ele>801.10968017578</ele>
        <time>2020-07-07T17:44:59.320Z</time>
      </trkpt>
      <trkpt lat="45.87379" lon="2.85881">
        <ele>799.74188232422</ele>
        <time>2020-07-07T17:45:03.026Z</time>
      </trkpt>
      <trkpt lat="45.87409" lon="2.85858">
        <ele>798.07403564453</ele>
        <time>2020-07-07T17:45:06.739Z</time>
      </trkpt>
      <trkpt lat="45.87437" lon="2.85839">
        <ele>796.70123291016</ele>
        <time>2020-07-07T17:45:10.458Z</time>
      </trkpt>
      <trkpt lat="45.87461" lon="2.85819">
        <ele>794.89770507812</ele>
        <time>2020-07-07T17:45:14.183Z</time>
      </trkpt>
      <trkpt lat="45.87482" lon="2.85806">
        <ele>792.583984375</ele>
        <time>2020-07-07T17:45:17.912Z</time>
      </trkpt>
      <trkpt lat="45.87502" lon="2.85793">
        <ele>790.30194091797</ele>
        <time>2020-07-07T17:45:21.646Z</time>
      </trkpt>
      <trkpt lat="45.87527" lon="2.85773">
        <ele>788.61175537109</ele>
        <time>2020-07-07T17:45:25.385Z</time>
      </trkpt>
      <trkpt lat="45.8755" lon="2.85767">
        <ele>787.41320800781</ele>
        <time>2020-07-07T17:45:29.129Z</time>
      </trkpt>
      <trkpt lat="45.87575" lon="2.85757">
        <ele>785.85418701172</ele>
        <time>2020-07-07T17:45:32.878Z</time>
      </trkpt>
      <trkpt lat="45.87589" lon="2.85753">
        <ele>784.98956298828</ele>
        <time>2020-07-07T17:45:36.630Z</time>
      </trkpt>
      <trkpt lat="45.87593" lon="2.85712">
        <ele>784.24212646484</ele>
        <time>2020-07-07T17:45:40.388Z</time>
      </trkpt>
      <trkpt lat="45.87596" lon="2.85663">
        <ele>785.64147949219</ele>
        <time>2020-07-07T17:45:44.153Z</time>
      </trkpt>
      <trkpt lat="45.87599" lon="2.85631">
        <ele>785.94256591797</ele>
        <time>2020-07-07T17:45:47.922Z</time>
      </trkpt>
      <trkpt lat="45.87603" lon="2.85586">
        <ele>784.68273925781</ele>
        <time>2020-07-07T17:45:51.698Z</time>
      </trkpt>
      <trkpt lat="45.87606" lon="2.85551">
        <ele>783.75073242188</ele>
        <time>2020-07-07T17:45:55.479Z</time>
      </trkpt>
      <trkpt lat="45.8761" lon="2.855">
        <ele>783.05993652344</ele>
        <time>2020-07-07T17:45:59.267Z</time>
      </trkpt>
      <trkpt lat="45.87622" lon="2.85443">
        <ele>783.17242431641</ele>
        <time>2020-07-07T17:46:03.063Z</time>
      </trkpt>
      <trkpt lat="45.87626" lon="2.85414">
        <ele>783.21502685547</ele>
        <time>2020-07-07T17:46:06.863Z</time>
      </trkpt>
      <trkpt lat="45.87642" lon="2.85382">
        <ele>782.88885498047</ele>
        <time>2020-07-07T17:46:10.669Z</time>
      </trkpt>
      <trkpt lat="45.87661" lon="2.8534">
        <ele>781.73107910156</ele>
        <time>2020-07-07T17:46:14.482Z</time>
      </trkpt>
      <trkpt lat="45.87681" lon="2.8529">
        <ele>781.80645751953</ele>
        <time>2020-07-07T17:46:18.303Z</time>
      </trkpt>
      <trkpt lat="45.87693" lon="2.85263">
        <ele>782.17602539062</ele>
        <time>2020-07-07T17:46:22.128Z</time>
      </trkpt>
      <trkpt lat="45.877" lon="2.85232">
        <ele>781.27825927734</ele>
        <time>2020-07-07T17:46:25.958Z</time>
      </trkpt>
      <trkpt lat="45.87707" lon="2.85195">
        <ele>781.18951416016</ele>
        <time>2020-07-07T17:46:29.793Z</time>
      </trkpt>
      <trkpt lat="45.87712" lon="2.85146">
        <ele>779.37103271484</ele>
        <time>2020-07-07T17:46:33.635Z</time>
      </trkpt>
      <trkpt lat="45.87714" lon="2.85097">
        <ele>777.72369384766</ele>
        <time>2020-07-07T17:46:37.484Z</time>
      </trkpt>
      <trkpt lat="45.87716" lon="2.85056">
        <ele>776.22064208984</ele>
        <time>2020-07-07T17:46:41.339Z</time>
      </trkpt>
      <trkpt lat="45.8771" lon="2.85009">
        <ele>774.19775390625</ele>
        <time>2020-07-07T17:46:45.200Z</time>
      </trkpt>
      <trkpt lat="45.87703" lon="2.84971">
        <ele>773.21368408203</ele>
        <time>2020-07-07T17:46:49.067Z</time>
      </trkpt>
      <trkpt lat="45.87698" lon="2.84926">
        <ele>771.6875</ele>
        <time>2020-07-07T17:46:52.940Z</time>
      </trkpt>
      <trkpt lat="45.87719" lon="2.84902">
        <ele>773.0166015625</ele>
        <time>2020-07-07T17:46:56.819Z</time>
      </trkpt>
      <trkpt lat="45.87729" lon="2.84879">
        <ele>771.84429931641</ele>
        <time>2020-07-07T17:47:00.701Z</time>
      </trkpt>
      <trkpt lat="45.87746" lon="2.84865">
        <ele>770.98046875</ele>
        <time>2020-07-07T17:47:04.587Z</time>
      </trkpt>
      <trkpt lat="45.87759" lon="2.84858">
        <ele>769.26605224609</ele>
        <time>2020-07-07T17:47:08.476Z</time>
      </trkpt>
      <trkpt lat="45.8775" lon="2.84805">
        <ele>766.55932617188</ele>
        <time>2020-07-07T17:47:12.373Z</time>
      </trkpt>
      <trkpt lat="45.87738" lon="2.84753">
        <ele>764.23126220703</ele>
        <time>2020-07-07T17:47:16.278Z</time>
      </trkpt>
      <trkpt lat="45.8773" lon="2.84713">
        <ele>763.65057373047</ele>
        <time>2020-07-07T17:47:20.188Z</time>
      </trkpt>
      <trkpt lat="45.87718" lon="2.84679">
        <ele>763.47857666016</ele>
        <time>2020-07-07T17:47:24.104Z</time>
      </trkpt>
      <trkpt lat="45.87704" lon="2.84654">
        <ele>763.00885009766</ele>
        <time>2020-07-07T17:47:28.024Z</time>
      </trkpt>
      <trkpt lat="45.8769" lon="2.84641">
        <ele>763.07360839844</ele>
        <time>2020-07-07T17:47:31.948Z</time>
      </trkpt>
      <trkpt lat="45.87675" lon="2.84628">
        <ele>763.13842773438</ele>
        <time>2020-07-07T17:47:35.875Z</time>
      </trkpt>
      <trkpt lat="45.87686" lon="2.84598">
        <ele>763</ele>
        <time>2020-07-07T17:47:39.807Z</time>
      </trkpt>
      <trkpt lat="45.87705" lon="2.84573">
        <ele>763</ele>
        <time>2020-07-07T17:47:43.744Z</time>
      </trkpt>
      <trkpt lat="45.87727" lon="2.84548">
        <ele>763.30151367188</ele>
        <time>2020-07-07T17:47:47.687Z</time>
      </trkpt>
      <trkpt lat="45.87762" lon="2.84521">
        <ele>759.72564697266</ele>
        <time>2020-07-07T17:47:51.637Z</time>
      </trkpt>
      <trkpt lat="45.87798" lon="2.84497">
        <ele>757.88684082031</ele>
        <time>2020-07-07T17:47:55.595Z</time>
      </trkpt>
      <trkpt lat="45.87818" lon="2.84488">
        <ele>755.76483154297</ele>
        <time>2020-07-07T17:47:59.557Z</time>
      </trkpt>
      <trkpt lat="45.8783" lon="2.84474">
        <ele>754.09466552734</ele>
        <time>2020-07-07T17:48:03.523Z</time>
      </trkpt>
      <trkpt lat="45.87874" lon="2.84462">
        <ele>746.81109619141</ele>
        <time>2020-07-07T17:48:07.498Z</time>
      </trkpt>
      <trkpt lat="45.87911" lon="2.84452">
        <ele>742.21557617188</ele>
        <time>2020-07-07T17:48:11.480Z</time>
      </trkpt>
      <trkpt lat="45.87948" lon="2.84454">
        <ele>738.33044433594</ele>
        <time>2020-07-07T17:48:15.470Z</time>
      </trkpt>
      <trkpt lat="45.87977" lon="2.84443">
        <ele>735.34411621094</ele>
        <time>2020-07-07T17:48:19.465Z</time>
      </trkpt>
      <trkpt lat="45.87989" lon="2.8444">
        <ele>734.07952880859</ele>
        <time>2020-07-07T17:48:23.463Z</time>
      </trkpt>
      <trkpt lat="45.88011" lon="2.8446">
        <ele>731.49877929688</ele>
        <time>2020-07-07T17:48:27.466Z</time>
      </trkpt>
      <trkpt lat="45.88038" lon="2.84488">
        <ele>728.23052978516</ele>
        <time>2020-07-07T17:48:31.476Z</time>
      </trkpt>
      <trkpt lat="45.8806" lon="2.84518">
        <ele>724.01092529297</ele>
        <time>2020-07-07T17:48:35.492Z</time>
      </trkpt>
      <trkpt lat="45.88083" lon="2.84547">
        <ele>714.97882080078</ele>
        <time>2020-07-07T17:48:39.514Z</time>
      </trkpt>
      <trkpt lat="45.88103" lon="2.8455">
        <ele>708.58081054688</ele>
        <time>2020-07-07T17:48:43.540Z</time>
      </trkpt>
      <trkpt lat="45.88116" lon="2.84532">
        <ele>704.19439697266</ele>
        <time>2020-07-07T17:48:47.570Z</time>
      </trkpt>
      <trkpt lat="45.88125" lon="2.84511">
        <ele>701.27526855469</ele>
        <time>2020-07-07T17:48:51.603Z</time>
      </trkpt>
      <trkpt lat="45.88121" lon="2.84452">
        <ele>697.24249267578</ele>
        <time>2020-07-07T17:48:55.644Z</time>
      </trkpt>
      <trkpt lat="45.88119" lon="2.84405">
        <ele>691.72540283203</ele>
        <time>2020-07-07T17:48:59.692Z</time>
      </trkpt>
      <trkpt lat="45.88122" lon="2.84387">
        <ele>689.62921142578</ele>
        <time>2020-07-07T17:49:03.743Z</time>
      </trkpt>
      <trkpt lat="45.88131" lon="2.84359">
        <ele>685.43951416016</ele>
        <time>2020-07-07T17:49:07.798Z</time>
      </trkpt>
      <trkpt lat="45.88146" lon="2.84324">
        <ele>684.15161132812</ele>
        <time>2020-07-07T17:49:11.859Z</time>
      </trkpt>
      <trkpt lat="45.88151" lon="2.84297">
        <ele>686.28247070312</ele>
        <time>2020-07-07T17:49:15.923Z</time>
      </trkpt>
      <trkpt lat="45.88149" lon="2.84274">
        <ele>685.78094482422</ele>
        <time>2020-07-07T17:49:19.991Z</time>
      </trkpt>
      <trkpt lat="45.88139" lon="2.8426">
        <ele>682.94378662109</ele>
        <time>2020-07-07T17:49:24.061Z</time>
      </trkpt>
      <trkpt lat="45.88135" lon="2.84247">
        <ele>684.1767578125</ele>
        <time>2020-07-07T17:49:28.134Z</time>
      </trkpt>
      <trkpt lat="45.88119" lon="2.84237">
        <ele>683.2197265625</ele>
        <time>2020-07-07T17:49:32.210Z</time>
      </trkpt>
      <trkpt lat="45.88107" lon="2.84228">
        <ele>683.330078125</ele>
        <time>2020-07-07T17:49:36.289Z</time>
      </trkpt>
      <trkpt lat="45.88126" lon="2.84212">
        <ele>690.26690673828</ele>
        <time>2020-07-07T17:49:40.372Z</time>
      </trkpt>
      <trkpt lat="45.8814" lon="2.84202">
        <ele>696.1298828125</ele>
        <time>2020-07-07T17:49:44.459Z</time>
      </trkpt>
      <trkpt lat="45.88142" lon="2.84182">
        <ele>701.38500976562</ele>
        <time>2020-07-07T17:49:48.548Z</time>
      </trkpt>
      <trkpt lat="45.88143" lon="2.84171">
        <ele>704.38824462891</ele>
        <time>2020-07-07T17:49:52.639Z</time>
      </trkpt>
      <trkpt lat="45.88117" lon="2.84185">
        <ele>694.8837890625</ele>
        <time>2020-07-07T17:49:56.736Z</time>
      </trkpt>
      <trkpt lat="45.88105" lon="2.8419">
        <ele>690.78045654297</ele>
        <time>2020-07-07T17:50:00.835Z</time>
      </trkpt>
      <trkpt lat="45.88099" lon="2.84172">
        <ele>693.71636962891</ele>
        <time>2020-07-07T17:50:04.937Z</time>
      </trkpt>
      <trkpt lat="45.88087" lon="2.84136">
        <ele>698.24200439453</ele>
        <time>2020-07-07T17:50:09.045Z</time>
      </trkpt>
      <trkpt lat="45.88079" lon="2.8409">
        <ele>706.80548095703</ele>
        <time>2020-07-07T17:50:13.159Z</time>
      </trkpt>
      <trkpt lat="45.88074" lon="2.84067">
        <ele>708.39636230469</ele>
        <time>2020-07-07T17:50:17.276Z</time>
      </trkpt>
      <trkpt lat="45.8807" lon="2.8405">
        <ele>709.36822509766</ele>
        <time>2020-07-07T17:50:21.396Z</time>
      </trkpt>
      <trkpt lat="45.88071" lon="2.84019">
        <ele>713.50885009766</ele>
        <time>2020-07-07T17:50:25.520Z</time>
      </trkpt>
      <trkpt lat="45.88079" lon="2.83975">
        <ele>718.51135253906</ele>
        <time>2020-07-07T17:50:29.651Z</time>
      </trkpt>
      <trkpt lat="45.88079" lon="2.83936">
        <ele>719.83947753906</ele>
        <time>2020-07-07T17:50:33.787Z</time>
      </trkpt>
      <trkpt lat="45.88076" lon="2.83903">
        <ele>720.66125488281</ele>
        <time>2020-07-07T17:50:37.928Z</time>
      </trkpt>
      <trkpt lat="45.88071" lon="2.83866">
        <ele>722.77288818359</ele>
        <time>2020-07-07T17:50:42.074Z</time>
      </trkpt>
      <trkpt lat="45.88062" lon="2.83832">
        <ele>722.65185546875</ele>
        <time>2020-07-07T17:50:46.225Z</time>
      </trkpt>
      <trkpt lat="45.8805" lon="2.83792">
        <ele>722.15289306641</ele>
        <time>2020-07-07T17:50:50.382Z</time>
      </trkpt>
      <trkpt lat="45.88039" lon="2.83754">
        <ele>721.32696533203</ele>
        <time>2020-07-07T17:50:54.545Z</time>
      </trkpt>
      <trkpt lat="45.88028" lon="2.83726">
        <ele>723.62286376953</ele>
        <time>2020-07-07T17:50:58.713Z</time>
      </trkpt>
      <trkpt lat="45.88038" lon="2.83692">
        <ele>723.56768798828</ele>
        <time>2020-07-07T17:51:02.886Z</time>
      </trkpt>
      <trkpt lat="45.88062" lon="2.83708">
        <ele>724.24200439453</ele>
        <time>2020-07-07T17:51:07.064Z</time>
      </trkpt>
      <trkpt lat="45.88087" lon="2.83731">
        <ele>723.62530517578</ele>
        <time>2020-07-07T17:51:11.248Z</time>
      </trkpt>
      <trkpt lat="45.88093" lon="2.8371">
        <ele>723.13336181641</ele>
        <time>2020-07-07T17:51:15.435Z</time>
      </trkpt>
      <trkpt lat="45.88089" lon="2.83674">
        <ele>722.10754394531</ele>
        <time>2020-07-07T17:51:19.627Z</time>
      </trkpt>
      <trkpt lat="45.88083" lon="2.83634">
        <ele>722.84820556641</ele>
        <time>2020-07-07T17:51:23.825Z</time>
      </trkpt>
      <trkpt lat="45.88079" lon="2.83581">
        <ele>724.83227539062</ele>
        <time>2020-07-07T17:51:28.030Z</time>
      </trkpt>
      <trkpt lat="45.88082" lon="2.83527">
        <ele>725.79608154297</ele>
        <time>2020-07-07T17:51:32.243Z</time>
      </trkpt>
      <trkpt lat="45.88082" lon="2.83474">
        <ele>728.96667480469</ele>
        <time>2020-07-07T17:51:36.463Z</time>
      </trkpt>
      <trkpt lat="45.88079" lon="2.83408">
        <ele>729.59802246094</ele>
        <time>2020-07-07T17:51:40.692Z</time>
      </trkpt>
      <trkpt lat="45.88079" lon="2.83343">
        <ele>727.01232910156</ele>
        <time>2020-07-07T17:51:44.931Z</time>
      </trkpt>
      <trkpt lat="45.88077" lon="2.8328">
        <ele>723.88806152344</ele>
        <time>2020-07-07T17:51:49.178Z</time>
      </trkpt>
      <trkpt lat="45.88072" lon="2.83232">
        <ele>721.26629638672</ele>
        <time>2020-07-07T17:51:53.432Z</time>
      </trkpt>
      <trkpt lat="45.88063" lon="2.83161">
        <ele>717.72003173828</ele>
        <time>2020-07-07T17:51:57.696Z</time>
      </trkpt>
      <trkpt lat="45.88047" lon="2.83104">
        <ele>717.41412353516</ele>
        <time>2020-07-07T17:52:01.969Z</time>
      </trkpt>
      <trkpt lat="45.88039" lon="2.83074">
        <ele>717.06555175781</ele>
        <time>2020-07-07T17:52:06.246Z</time>
      </trkpt>
      <trkpt lat="45.88003" lon="2.83063">
        <ele>717.67987060547</ele>
        <time>2020-07-07T17:52:10.531Z</time>
      </trkpt>
      <trkpt lat="45.87976" lon="2.8305">
        <ele>717.98461914062</ele>
        <time>2020-07-07T17:52:14.821Z</time>
      </trkpt>
      <trkpt lat="45.87963" lon="2.83062">
        <ele>717.65234375</ele>
        <time>2020-07-07T17:52:19.115Z</time>
      </trkpt>
      <trkpt lat="45.87938" lon="2.83071">
        <ele>716.03021240234</ele>
        <time>2020-07-07T17:52:23.414Z</time>
      </trkpt>
      <trkpt lat="45.87906" lon="2.83063">
        <ele>713.58984375</ele>
        <time>2020-07-07T17:52:27.719Z</time>
      </trkpt>
      <trkpt lat="45.87877" lon="2.83053">
        <ele>709.82006835938</ele>
        <time>2020-07-07T17:52:32.030Z</time>
      </trkpt>
      <trkpt lat="45.87864" lon="2.83045">
        <ele>707.32208251953</ele>
        <time>2020-07-07T17:52:36.344Z</time>
      </trkpt>
      <trkpt lat="45.87856" lon="2.83015">
        <ele>705.16479492188</ele>
        <time>2020-07-07T17:52:40.663Z</time>
      </trkpt>
      <trkpt lat="45.87854" lon="2.82976">
        <ele>701.80743408203</ele>
        <time>2020-07-07T17:52:44.987Z</time>
      </trkpt>
      <trkpt lat="45.87859" lon="2.82931">
        <ele>696.26361083984</ele>
        <time>2020-07-07T17:52:49.317Z</time>
      </trkpt>
      <trkpt lat="45.87872" lon="2.8292">
        <ele>696.48132324219</ele>
        <time>2020-07-07T17:52:53.650Z</time>
      </trkpt>
      <trkpt lat="45.87875" lon="2.82905">
        <ele>695.78698730469</ele>
        <time>2020-07-07T17:52:57.986Z</time>
      </trkpt>
      <trkpt lat="45.87891" lon="2.82891">
        <ele>696.46545410156</ele>
        <time>2020-07-07T17:53:02.325Z</time>
      </trkpt>
      <trkpt lat="45.87925" lon="2.82887">
        <ele>698.18713378906</ele>
        <time>2020-07-07T17:53:06.671Z</time>
      </trkpt>
      <trkpt lat="45.8795" lon="2.82861">
        <ele>693.34606933594</ele>
        <time>2020-07-07T17:53:11.023Z</time>
      </trkpt>
      <trkpt lat="45.87942" lon="2.82828">
        <ele>688.29815673828</ele>
        <time>2020-07-07T17:53:15.380Z</time>
      </trkpt>
      <trkpt lat="45.87952" lon="2.8283">
        <ele>688.04742431641</ele>
        <time>2020-07-07T17:53:19.739Z</time>
      </trkpt>
      <trkpt lat="45.87944" lon="2.82777">
        <ele>678.39361572266</ele>
        <time>2020-07-07T17:53:24.106Z</time>
      </trkpt>
      <trkpt lat="45.87974" lon="2.82751">
        <ele>666.40765380859</ele>
        <time>2020-07-07T17:53:28.480Z</time>
      </trkpt>
      <trkpt lat="45.87978" lon="2.82699">
        <ele>652.72991943359</ele>
        <time>2020-07-07T17:53:32.861Z</time>
      </trkpt>
      <trkpt lat="45.87986" lon="2.82672">
        <ele>642.63244628906</ele>
        <time>2020-07-07T17:53:37.246Z</time>
      </trkpt>
      <trkpt lat="45.87974" lon="2.82646">
        <ele>640.52215576172</ele>
        <time>2020-07-07T17:53:41.636Z</time>
      </trkpt>
      <trkpt lat="45.87965" lon="2.82613">
        <ele>633.05865478516</ele>
        <time>2020-07-07T17:53:46.031Z</time>
      </trkpt>
      <trkpt lat="45.87965" lon="2.82591">
        <ele>627.01525878906</ele>
        <time>2020-07-07T17:53:50.429Z</time>
      </trkpt>
      <trkpt lat="45.87946" lon="2.82569">
        <ele>622.54779052734</ele>
        <time>2020-07-07T17:53:54.832Z</time>
      </trkpt>
      <trkpt lat="45.87926" lon="2.8257">
        <ele>626.41235351562</ele>
        <time>2020-07-07T17:53:59.239Z</time>
      </trkpt>
      <trkpt lat="45.87909" lon="2.82564">
        <ele>627.45977783203</ele>
        <time>2020-07-07T17:54:03.649Z</time>
      </trkpt>
      <trkpt lat="45.8788" lon="2.82563">
        <ele>630.33654785156</ele>
        <time>2020-07-07T17:54:08.065Z</time>
      </trkpt>
      <trkpt lat="45.87855" lon="2.82564">
        <ele>629.88421630859</ele>
        <time>2020-07-07T17:54:12.486Z</time>
      </trkpt>
      <trkpt lat="45.87835" lon="2.82571">
        <ele>630.59692382812</ele>
        <time>2020-07-07T17:54:16.911Z</time>
      </trkpt>
      <trkpt lat="45.87822" lon="2.82574">
        <ele>630.3857421875</ele>
        <time>2020-07-07T17:54:21.339Z</time>
      </trkpt>
      <trkpt lat="45.8785" lon="2.8254">
        <ele>621.41723632812</ele>
        <time>2020-07-07T17:54:25.774Z</time>
      </trkpt>
      <trkpt lat="45.87885" lon="2.82513">
        <ele>611.57409667969</ele>
        <time>2020-07-07T17:54:30.217Z</time>
      </trkpt>
      <trkpt lat="45.87916" lon="2.82486">
        <ele>600.67907714844</ele>
        <time>2020-07-07T17:54:34.667Z</time>
      </trkpt>
      <trkpt lat="45.87931" lon="2.82471">
        <ele>594.72088623047</ele>
        <time>2020-07-07T17:54:39.121Z</time>
      </trkpt>
      <trkpt lat="45.8794" lon="2.82461">
        <ele>592.45471191406</ele>
        <time>2020-07-07T17:54:43.577Z</time>
      </trkpt>
      <trkpt lat="45.87953" lon="2.82461">
        <ele>593.06903076172</ele>
        <time>2020-07-07T17:54:48.036Z</time>
      </trkpt>
      <trkpt lat="45.87964" lon="2.82463">
        <ele>593.96527099609</ele>
        <time>2020-07-07T17:54:52.497Z</time>
      </trkpt>
      <trkpt lat="45.87979" lon="2.8248">
        <ele>596.26824951172</ele>
        <time>2020-07-07T17:54:56.962Z</time>
      </trkpt>
      <trkpt lat="45.87989" lon="2.82498">
        <ele>597.68640136719</ele>
        <time>2020-07-07T17:55:01.430Z</time>
      </trkpt>
      <trkpt lat="45.87999" lon="2.82511">
        <ele>597.89239501953</ele>
        <time>2020-07-07T17:55:05.901Z</time>
      </trkpt>
      <trkpt lat="45.88014" lon="2.82509">
        <ele>595.85394287109</ele>
        <time>2020-07-07T17:55:10.375Z</time>
      </trkpt>
      <trkpt lat="45.8803" lon="2.82508">
        <ele>593.67034912109</ele>
        <time>2020-07-07T17:55:14.852Z</time>
      </trkpt>
      <trkpt lat="45.88049" lon="2.8248">
        <ele>592.99475097656</ele>
        <time>2020-07-07T17:55:19.334Z</time>
      </trkpt>
      <trkpt lat="45.88063" lon="2.82462">
        <ele>598.82836914062</ele>
        <time>2020-07-07T17:55:23.820Z</time>
      </trkpt>
      <trkpt lat="45.88059" lon="2.82441">
        <ele>601.97784423828</ele>
        <time>2020-07-07T17:55:28.309Z</time>
      </trkpt>
      <trkpt lat="45.88046" lon="2.82401">
        <ele>608.36956787109</ele>
        <time>2020-07-07T17:55:32.804Z</time>
      </trkpt>
      <trkpt lat="45.88027" lon="2.82383">
        <ele>608.35034179688</ele>
        <time>2020-07-07T17:55:37.304Z</time>
      </trkpt>
      <trkpt lat="45.87998" lon="2.82332">
        <ele>615.41564941406</ele>
        <time>2020-07-07T17:55:41.813Z</time>
      </trkpt>
      <trkpt lat="45.87971" lon="2.82299">
        <ele>617.52142333984</ele>
        <time>2020-07-07T17:55:46.329Z</time>
      </trkpt>
      <trkpt lat="45.87954" lon="2.82288">
        <ele>616.20642089844</ele>
        <time>2020-07-07T17:55:50.849Z</time>
      </trkpt>
      <trkpt lat="45.87934" lon="2.82286">
        <ele>611.6171875</ele>
        <time>2020-07-07T17:55:55.373Z</time>
      </trkpt>
      <trkpt lat="45.87911" lon="2.82288">
        <ele>606.03552246094</ele>
        <time>2020-07-07T17:55:59.901Z</time>
      </trkpt>
      <trkpt lat="45.87895" lon="2.82279">
        <ele>605.30603027344</ele>
        <time>2020-07-07T17:56:04.433Z</time>
      </trkpt>
      <trkpt lat="45.87897" lon="2.82257">
        <ele>610.30102539062</ele>
        <time>2020-07-07T17:56:08.968Z</time>
      </trkpt>
      <trkpt lat="45.87904" lon="2.82231">
        <ele>614.546875</ele>
        <time>2020-07-07T17:56:13.507Z</time>
      </trkpt>
      <trkpt lat="45.879" lon="2.82182">
        <ele>617.23028564453</ele>
        <time>2020-07-07T17:56:18.053Z</time>
      </trkpt>
      <trkpt lat="45.87909" lon="2.82133">
        <ele>621.09185791016</ele>
        <time>2020-07-07T17:56:22.606Z</time>
      </trkpt>
      <trkpt lat="45.8792" lon="2.82079">
        <ele>624.39477539062</ele>
        <time>2020-07-07T17:56:27.167Z</time>
      </trkpt>
      <trkpt lat="45.87933" lon="2.82">
        <ele>616.45581054688</ele>
        <time>2020-07-07T17:56:31.739Z</time>
      </trkpt>
      <trkpt lat="45.87955" lon="2.81945">
        <ele>614.568359375</ele>
        <time>2020-07-07T17:56:36.320Z</time>
      </trkpt>
      <trkpt lat="45.87978" lon="2.8188">
        <ele>607.86810302734</ele>
        <time>2020-07-07T17:56:40.911Z</time>
      </trkpt>
      <trkpt lat="45.88003" lon="2.81816">
        <ele>606.39794921875</ele>
        <time>2020-07-07T17:56:45.512Z</time>
      </trkpt>
      <trkpt lat="45.88017" lon="2.81763">
        <ele>603.13446044922</ele>
        <time>2020-07-07T17:56:50.121Z</time>
      </trkpt>
      <trkpt lat="45.88034" lon="2.81715">
        <ele>603.75311279297</ele>
        <time>2020-07-07T17:56:54.738Z</time>
      </trkpt>
      <trkpt lat="45.88041" lon="2.81654">
        <ele>599.17279052734</ele>
        <time>2020-07-07T17:56:59.363Z</time>
      </trkpt>
      <trkpt lat="45.88048" lon="2.81593">
        <ele>587.45672607422</ele>
        <time>2020-07-07T17:57:03.997Z</time>
      </trkpt>
      <trkpt lat="45.88063" lon="2.81577">
        <ele>588.13488769531</ele>
        <time>2020-07-07T17:57:08.635Z</time>
      </trkpt>
      <trkpt lat="45.88073" lon="2.8154">
        <ele>584.55828857422</ele>
        <time>2020-07-07T17:57:13.278Z</time>
      </trkpt>
      <trkpt lat="45.88083" lon="2.81526">
        <ele>583.24243164062</ele>
        <time>2020-07-07T17:57:17.924Z</time>
      </trkpt>
      <trkpt lat="45.88106" lon="2.81533">
        <ele>584.45666503906</ele>
        <time>2020-07-07T17:57:22.575Z</time>
      </trkpt>
      <trkpt lat="45.88136" lon="2.81539">
        <ele>585.25091552734</ele>
        <time>2020-07-07T17:57:27.232Z</time>
      </trkpt>
      <trkpt lat="45.88162" lon="2.81544">
        <ele>587.13311767578</ele>
        <time>2020-07-07T17:57:31.894Z</time>
      </trkpt>
      <trkpt lat="45.88202" lon="2.8153">
        <ele>585.09680175781</ele>
        <time>2020-07-07T17:57:36.564Z</time>
      </trkpt>
      <trkpt lat="45.88225" lon="2.81525">
        <ele>584.86315917969</ele>
        <time>2020-07-07T17:57:41.239Z</time>
      </trkpt>
      <trkpt lat="45.8824" lon="2.81535">
        <ele>590.23468017578</ele>
        <time>2020-07-07T17:57:45.917Z</time>
      </trkpt>
      <trkpt lat="45.88257" lon="2.81526">
        <ele>590.19787597656</ele>
        <time>2020-07-07T17:57:50.599Z</time>
      </trkpt>
      <trkpt lat="45.88301" lon="2.81512">
        <ele>588.99688720703</ele>
        <time>2020-07-07T17:57:55.290Z</time>
      </trkpt>
      <trkpt lat="45.88325" lon="2.81502">
        <ele>591.09429931641</ele>
        <time>2020-07-07T17:57:59.986Z</time>
      </trkpt>
      <trkpt lat="45.88349" lon="2.81479">
        <ele>590.99114990234</ele>
        <time>2020-07-07T17:58:04.688Z</time>
      </trkpt>
      <trkpt lat="45.88371" lon="2.81467">
        <ele>592.88482666016</ele>
        <time>2020-07-07T17:58:09.394Z</time>
      </trkpt>
      <trkpt lat="45.88398" lon="2.81401">
        <ele>583.04010009766</ele>
        <time>2020-07-07T17:58:14.111Z</time>
      </trkpt>
      <trkpt lat="45.88418" lon="2.81356">
        <ele>584.04156494141</ele>
        <time>2020-07-07T17:58:18.836Z</time>
      </trkpt>
      <trkpt lat="45.88432" lon="2.81307">
        <ele>583.91595458984</ele>
        <time>2020-07-07T17:58:23.568Z</time>
      </trkpt>
      <trkpt lat="45.88453" lon="2.81286">
        <ele>585.97991943359</ele>
        <time>2020-07-07T17:58:28.305Z</time>
      </trkpt>
      <trkpt lat="45.88453" lon="2.81242">
        <ele>579.89617919922</ele>
        <time>2020-07-07T17:58:33.048Z</time>
      </trkpt>
      <trkpt lat="45.88463" lon="2.81209">
        <ele>576.77410888672</ele>
        <time>2020-07-07T17:58:37.796Z</time>
      </trkpt>
      <trkpt lat="45.88486" lon="2.81174">
        <ele>579.6572265625</ele>
        <time>2020-07-07T17:58:42.551Z</time>
      </trkpt>
      <trkpt lat="45.88496" lon="2.81143">
        <ele>583.18249511719</ele>
        <time>2020-07-07T17:58:47.311Z</time>
      </trkpt>
      <trkpt lat="45.88496" lon="2.8108">
        <ele>579.40570068359</ele>
        <time>2020-07-07T17:58:52.080Z</time>
      </trkpt>
      <trkpt lat="45.88494" lon="2.81024">
        <ele>579.59167480469</ele>
        <time>2020-07-07T17:58:56.856Z</time>
      </trkpt>
      <trkpt lat="45.88483" lon="2.81002">
        <ele>575.72406005859</ele>
        <time>2020-07-07T17:59:01.636Z</time>
      </trkpt>
      <trkpt lat="45.88468" lon="2.80967">
        <ele>577.40228271484</ele>
        <time>2020-07-07T17:59:06.422Z</time>
      </trkpt>
      <trkpt lat="45.88453" lon="2.8095">
        <ele>576.49761962891</ele>
        <time>2020-07-07T17:59:11.212Z</time>
      </trkpt>
      <trkpt lat="45.88426" lon="2.80899">
        <ele>577.55682373047</ele>
        <time>2020-07-07T17:59:16.011Z</time>
      </trkpt>
      <trkpt lat="45.88403" lon="2.80868">
        <ele>575.20520019531</ele>
        <time>2020-07-07T17:59:20.816Z</time>
      </trkpt>
      <trkpt lat="45.8839" lon="2.8085">
        <ele>574.091796875</ele>
        <time>2020-07-07T17:59:25.625Z</time>
      </trkpt>
      <trkpt lat="45.88356" lon="2.80833">
        <ele>569.13934326172</ele>
        <time>2020-07-07T17:59:30.441Z</time>
      </trkpt>
      <trkpt lat="45.88327" lon="2.80787">
        <ele>565.57232666016</ele>
        <time>2020-07-07T17:59:35.265Z</time>
      </trkpt>
      <trkpt lat="45.88313" lon="2.80791">
        <ele>562.20928955078</ele>
        <time>2020-07-07T17:59:40.092Z</time>
      </trkpt>
      <trkpt lat="45.88291" lon="2.80821">
        <ele>557.77453613281</ele>
        <time>2020-07-07T17:59:44.925Z</time>
      </trkpt>
      <trkpt lat="45.88278" lon="2.80829">
        <ele>556.83441162109</ele>
        <time>2020-07-07T17:59:49.761Z</time>
      </trkpt>
      <trkpt lat="45.88269" lon="2.80828">
        <ele>556.46728515625</ele>
        <time>2020-07-07T17:59:54.599Z</time>
      </trkpt>
      <trkpt lat="45.88255" lon="2.80812">
        <ele>556.14813232422</ele>
        <time>2020-07-07T17:59:59.441Z</time>
      </trkpt>
      <trkpt lat="45.88244" lon="2.80793">
        <ele>556.08093261719</ele>
        <time>2020-07-07T18:00:04.286Z</time>
      </trkpt>
      <trkpt lat="45.88235" lon="2.80768">
        <ele>556.25854492188</ele>
        <time>2020-07-07T18:00:09.135Z</time>
      </trkpt>
      <trkpt lat="45.88225" lon="2.80746">
        <ele>558.26629638672</ele>
        <time>2020-07-07T18:00:13.988Z</time>
      </trkpt>
      <trkpt lat="45.88211" lon="2.80732">
        <ele>563.29125976562</ele>
        <time>2020-07-07T18:00:18.844Z</time>
      </trkpt>
      <trkpt lat="45.88191" lon="2.80714">
        <ele>570.54046630859</ele>
        <time>2020-07-07T18:00:23.705Z</time>
      </trkpt>
      <trkpt lat="45.88159" lon="2.80711">
        <ele>574.7939453125</ele>
        <time>2020-07-07T18:00:28.572Z</time>
      </trkpt>
      <trkpt lat="45.88145" lon="2.807">
        <ele>579.11926269531</ele>
        <time>2020-07-07T18:00:33.442Z</time>
      </trkpt>
      <trkpt lat="45.88123" lon="2.80714">
        <ele>573.57452392578</ele>
        <time>2020-07-07T18:00:38.317Z</time>
      </trkpt>
      <trkpt lat="45.88102" lon="2.80732">
        <ele>567.38604736328</ele>
        <time>2020-07-07T18:00:43.197Z</time>
      </trkpt>
      <trkpt lat="45.88065" lon="2.80749">
        <ele>563.43865966797</ele>
        <time>2020-07-07T18:00:48.085Z</time>
      </trkpt>
      <trkpt lat="45.88048" lon="2.80763">
        <ele>563.09130859375</ele>
        <time>2020-07-07T18:00:52.977Z</time>
      </trkpt>
      <trkpt lat="45.88039" lon="2.80791">
        <ele>563.71643066406</ele>
        <time>2020-07-07T18:00:57.873Z</time>
      </trkpt>
      <trkpt lat="45.88032" lon="2.80805">
        <ele>564.24072265625</ele>
        <time>2020-07-07T18:01:02.771Z</time>
      </trkpt>
      <trkpt lat="45.88026" lon="2.80829">
        <ele>562.87969970703</ele>
        <time>2020-07-07T18:01:07.673Z</time>
      </trkpt>
      <trkpt lat="45.88012" lon="2.80841">
        <ele>563.63000488281</ele>
        <time>2020-07-07T18:01:12.578Z</time>
      </trkpt>
      <trkpt lat="45.87994" lon="2.80852">
        <ele>566.63488769531</ele>
        <time>2020-07-07T18:01:17.487Z</time>
      </trkpt>
      <trkpt lat="45.87989" lon="2.80855">
        <ele>567.36138916016</ele>
        <time>2020-07-07T18:01:22.397Z</time>
      </trkpt>
      <trkpt lat="45.87987" lon="2.80856">
        <ele>566.97833251953</ele>
        <time>2020-07-07T18:01:27.308Z</time>
      </trkpt>
      <trkpt lat="45.87975" lon="2.80866">
        <ele>564.58905029297</ele>
        <time>2020-07-07T18:01:32.222Z</time>
      </trkpt>
      <trkpt lat="45.87958" lon="2.80875">
        <ele>567.3193359375</ele>
        <time>2020-07-07T18:01:37.139Z</time>
      </trkpt>
      <trkpt lat="45.87943" lon="2.80872">
        <ele>571.66741943359</ele>
        <time>2020-07-07T18:01:42.059Z</time>
      </trkpt>
      <trkpt lat="45.87926" lon="2.80871">
        <ele>576.21466064453</ele>
        <time>2020-07-07T18:01:46.983Z</time>
      </trkpt>
      <trkpt lat="45.879" lon="2.80898">
        <ele>572.93249511719</ele>
        <time>2020-07-07T18:01:51.913Z</time>
      </trkpt>
      <trkpt lat="45.87883" lon="2.80917">
        <ele>571.61267089844</ele>
        <time>2020-07-07T18:01:56.847Z</time>
      </trkpt>
      <trkpt lat="45.8787" lon="2.80933">
        <ele>574.89025878906</ele>
        <time>2020-07-07T18:02:01.785Z</time>
      </trkpt>
      <trkpt lat="45.87862" lon="2.80958">
        <ele>574.86865234375</ele>
        <time>2020-07-07T18:02:06.727Z</time>
      </trkpt>
      <trkpt lat="45.87855" lon="2.80985">
        <ele>573.55786132812</ele>
        <time>2020-07-07T18:02:11.673Z</time>
      </trkpt>
      <trkpt lat="45.87855" lon="2.80985">
        <ele>573.55627441406</ele>
        <time>2020-07-07T18:02:16.619Z</time>
      </trkpt>
      <trkpt lat="45.87856" lon="2.81023">
        <ele>570.81408691406</ele>
        <time>2020-07-07T18:02:21.570Z</time>
      </trkpt>
      <trkpt lat="45.87859" lon="2.81072">
        <ele>570.84777832031</ele>
        <time>2020-07-07T18:02:26.528Z</time>
      </trkpt>
      <trkpt lat="45.87877" lon="2.81146">
        <ele>567.00708007812</ele>
        <time>2020-07-07T18:02:31.497Z</time>
      </trkpt>
      <trkpt lat="45.87874" lon="2.81203">
        <ele>567.73944091797</ele>
        <time>2020-07-07T18:02:36.474Z</time>
      </trkpt>
      <trkpt lat="45.87867" lon="2.81319">
        <ele>567.06304931641</ele>
        <time>2020-07-07T18:02:41.467Z</time>
      </trkpt>
      <trkpt lat="45.8787" lon="2.81366">
        <ele>566.53082275391</ele>
        <time>2020-07-07T18:02:46.467Z</time>
      </trkpt>
      <trkpt lat="45.87884" lon="2.81437">
        <ele>563.54541015625</ele>
        <time>2020-07-07T18:02:51.477Z</time>
      </trkpt>
      <trkpt lat="45.87871" lon="2.81474">
        <ele>570.08190917969</ele>
        <time>2020-07-07T18:02:56.493Z</time>
      </trkpt>
      <trkpt lat="45.87861" lon="2.81512">
        <ele>573.72528076172</ele>
        <time>2020-07-07T18:03:01.514Z</time>
      </trkpt>
      <trkpt lat="45.87839" lon="2.81526">
        <ele>580.17419433594</ele>
        <time>2020-07-07T18:03:06.540Z</time>
      </trkpt>
      <trkpt lat="45.87829" lon="2.8152">
        <ele>583.23370361328</ele>
        <time>2020-07-07T18:03:11.568Z</time>
      </trkpt>
      <trkpt lat="45.8781" lon="2.81549">
        <ele>588.05120849609</ele>
        <time>2020-07-07T18:03:16.602Z</time>
      </trkpt>
      <trkpt lat="45.87784" lon="2.81585">
        <ele>594.00286865234</ele>
        <time>2020-07-07T18:03:21.643Z</time>
      </trkpt>
      <trkpt lat="45.8776" lon="2.81622">
        <ele>600.28503417969</ele>
        <time>2020-07-07T18:03:26.691Z</time>
      </trkpt>
      <trkpt lat="45.87745" lon="2.8165">
        <ele>604.63421630859</ele>
        <time>2020-07-07T18:03:31.744Z</time>
      </trkpt>
      <trkpt lat="45.87711" lon="2.81664">
        <ele>612.63568115234</ele>
        <time>2020-07-07T18:03:36.804Z</time>
      </trkpt>
      <trkpt lat="45.87696" lon="2.8163">
        <ele>614.01019287109</ele>
        <time>2020-07-07T18:03:41.870Z</time>
      </trkpt>
      <trkpt lat="45.87693" lon="2.81604">
        <ele>614.14697265625</ele>
        <time>2020-07-07T18:03:46.940Z</time>
      </trkpt>
      <trkpt lat="45.87689" lon="2.81569">
        <ele>613.10540771484</ele>
        <time>2020-07-07T18:03:52.015Z</time>
      </trkpt>
      <trkpt lat="45.87649" lon="2.81575">
        <ele>618.79968261719</ele>
        <time>2020-07-07T18:03:57.098Z</time>
      </trkpt>
      <trkpt lat="45.87615" lon="2.81578">
        <ele>622.11016845703</ele>
        <time>2020-07-07T18:04:02.187Z</time>
      </trkpt>
      <trkpt lat="45.8759" lon="2.81567">
        <ele>623.19720458984</ele>
        <time>2020-07-07T18:04:07.282Z</time>
      </trkpt>
      <trkpt lat="45.87559" lon="2.81556">
        <ele>624.62255859375</ele>
        <time>2020-07-07T18:04:12.383Z</time>
      </trkpt>
      <trkpt lat="45.87528" lon="2.81543">
        <ele>627.77203369141</ele>
        <time>2020-07-07T18:04:17.491Z</time>
      </trkpt>
      <trkpt lat="45.8752" lon="2.81543">
        <ele>628.71990966797</ele>
        <time>2020-07-07T18:04:22.600Z</time>
      </trkpt>
      <trkpt lat="45.87485" lon="2.81569">
        <ele>629.54193115234</ele>
        <time>2020-07-07T18:04:27.717Z</time>
      </trkpt>
      <trkpt lat="45.87461" lon="2.81567">
        <ele>631.05383300781</ele>
        <time>2020-07-07T18:04:32.839Z</time>
      </trkpt>
      <trkpt lat="45.87444" lon="2.81559">
        <ele>632.87512207031</ele>
        <time>2020-07-07T18:04:37.964Z</time>
      </trkpt>
      <trkpt lat="45.87421" lon="2.81556">
        <ele>632.03332519531</ele>
        <time>2020-07-07T18:04:43.094Z</time>
      </trkpt>
      <trkpt lat="45.87395" lon="2.81543">
        <ele>632.81317138672</ele>
        <time>2020-07-07T18:04:48.229Z</time>
      </trkpt>
      <trkpt lat="45.8736" lon="2.81536">
        <ele>633.0234375</ele>
        <time>2020-07-07T18:04:53.372Z</time>
      </trkpt>
      <trkpt lat="45.87313" lon="2.81531">
        <ele>631.71063232422</ele>
        <time>2020-07-07T18:04:58.524Z</time>
      </trkpt>
      <trkpt lat="45.8728" lon="2.81526">
        <ele>630.88415527344</ele>
        <time>2020-07-07T18:05:03.683Z</time>
      </trkpt>
      <trkpt lat="45.87231" lon="2.81521">
        <ele>629.72735595703</ele>
        <time>2020-07-07T18:05:08.851Z</time>
      </trkpt>
      <trkpt lat="45.87188" lon="2.8151">
        <ele>632.05255126953</ele>
        <time>2020-07-07T18:05:14.028Z</time>
      </trkpt>
      <trkpt lat="45.87168" lon="2.81516">
        <ele>630.72674560547</ele>
        <time>2020-07-07T18:05:19.209Z</time>
      </trkpt>
      <trkpt lat="45.87126" lon="2.81531">
        <ele>628.55419921875</ele>
        <time>2020-07-07T18:05:24.399Z</time>
      </trkpt>
      <trkpt lat="45.87079" lon="2.81541">
        <ele>629.68109130859</ele>
        <time>2020-07-07T18:05:29.598Z</time>
      </trkpt>
      <trkpt lat="45.87062" lon="2.81553">
        <ele>629.00201416016</ele>
        <time>2020-07-07T18:05:34.801Z</time>
      </trkpt>
      <trkpt lat="45.87034" lon="2.81569">
        <ele>628.955078125</ele>
        <time>2020-07-07T18:05:40.010Z</time>
      </trkpt>
      <trkpt lat="45.87002" lon="2.81583">
        <ele>628.19201660156</ele>
        <time>2020-07-07T18:05:45.226Z</time>
      </trkpt>
      <trkpt lat="45.8698" lon="2.81598">
        <ele>626.76348876953</ele>
        <time>2020-07-07T18:05:50.447Z</time>
      </trkpt>
      <trkpt lat="45.86972" lon="2.81613">
        <ele>626.77020263672</ele>
        <time>2020-07-07T18:05:55.670Z</time>
      </trkpt>
      <trkpt lat="45.86959" lon="2.81665">
        <ele>624.88171386719</ele>
        <time>2020-07-07T18:06:00.901Z</time>
      </trkpt>
      <trkpt lat="45.8695" lon="2.81697">
        <ele>623.50366210938</ele>
        <time>2020-07-07T18:06:06.137Z</time>
      </trkpt>
      <trkpt lat="45.86945" lon="2.81744">
        <ele>619.09576416016</ele>
        <time>2020-07-07T18:06:11.380Z</time>
      </trkpt>
      <trkpt lat="45.86934" lon="2.81792">
        <ele>617.99774169922</ele>
        <time>2020-07-07T18:06:16.630Z</time>
      </trkpt>
      <trkpt lat="45.86926" lon="2.8184">
        <ele>616.78118896484</ele>
        <time>2020-07-07T18:06:21.887Z</time>
      </trkpt>
      <trkpt lat="45.86913" lon="2.819">
        <ele>618.62579345703</ele>
        <time>2020-07-07T18:06:27.152Z</time>
      </trkpt>
      <trkpt lat="45.86917" lon="2.8192">
        <ele>615.68267822266</ele>
        <time>2020-07-07T18:06:32.420Z</time>
      </trkpt>
      <trkpt lat="45.86918" lon="2.81992">
        <ele>611.88366699219</ele>
        <time>2020-07-07T18:06:37.698Z</time>
      </trkpt>
      <trkpt lat="45.86927" lon="2.8202">
        <ele>608.9619140625</ele>
        <time>2020-07-07T18:06:42.981Z</time>
      </trkpt>
      <trkpt lat="45.86915" lon="2.82057">
        <ele>611.22717285156</ele>
        <time>2020-07-07T18:06:48.269Z</time>
      </trkpt>
      <trkpt lat="45.86895" lon="2.82069">
        <ele>613.81878662109</ele>
        <time>2020-07-07T18:06:53.562Z</time>
      </trkpt>
      <trkpt lat="45.86871" lon="2.82053">
        <ele>615.56506347656</ele>
        <time>2020-07-07T18:06:58.860Z</time>
      </trkpt>
      <trkpt lat="45.86849" lon="2.82021">
        <ele>617.51354980469</ele>
        <time>2020-07-07T18:07:04.164Z</time>
      </trkpt>
      <trkpt lat="45.86836" lon="2.81992">
        <ele>620.61901855469</ele>
        <time>2020-07-07T18:07:09.473Z</time>
      </trkpt>
      <trkpt lat="45.86821" lon="2.81965">
        <ele>624.55194091797</ele>
        <time>2020-07-07T18:07:14.787Z</time>
      </trkpt>
      <trkpt lat="45.86812" lon="2.8193">
        <ele>629.91986083984</ele>
        <time>2020-07-07T18:07:20.106Z</time>
      </trkpt>
      <trkpt lat="45.86797" lon="2.81897">
        <ele>633.20196533203</ele>
        <time>2020-07-07T18:07:25.431Z</time>
      </trkpt>
      <trkpt lat="45.86778" lon="2.81864">
        <ele>634.41491699219</ele>
        <time>2020-07-07T18:07:30.762Z</time>
      </trkpt>
      <trkpt lat="45.86762" lon="2.81842">
        <ele>634.20977783203</ele>
        <time>2020-07-07T18:07:36.097Z</time>
      </trkpt>
      <trkpt lat="45.86741" lon="2.81807">
        <ele>635.39929199219</ele>
        <time>2020-07-07T18:07:41.438Z</time>
      </trkpt>
      <trkpt lat="45.86711" lon="2.81761">
        <ele>637.44458007812</ele>
        <time>2020-07-07T18:07:46.788Z</time>
      </trkpt>
      <trkpt lat="45.86666" lon="2.8173">
        <ele>635.92907714844</ele>
        <time>2020-07-07T18:07:52.148Z</time>
      </trkpt>
      <trkpt lat="45.8665" lon="2.81732">
        <ele>632.17248535156</ele>
        <time>2020-07-07T18:07:57.511Z</time>
      </trkpt>
      <trkpt lat="45.86644" lon="2.81739">
        <ele>629.05902099609</ele>
        <time>2020-07-07T18:08:02.876Z</time>
      </trkpt>
      <trkpt lat="45.86639" lon="2.81749">
        <ele>625.52178955078</ele>
        <time>2020-07-07T18:08:08.243Z</time>
      </trkpt>
      <trkpt lat="45.86638" lon="2.81766">
        <ele>624.85125732422</ele>
        <time>2020-07-07T18:08:13.612Z</time>
      </trkpt>
      <trkpt lat="45.8664" lon="2.81779">
        <ele>625.66900634766</ele>
        <time>2020-07-07T18:08:18.983Z</time>
      </trkpt>
      <trkpt lat="45.86649" lon="2.81791">
        <ele>625.87054443359</ele>
        <time>2020-07-07T18:08:24.356Z</time>
      </trkpt>
      <trkpt lat="45.86654" lon="2.81804">
        <ele>626.45367431641</ele>
        <time>2020-07-07T18:08:29.731Z</time>
      </trkpt>
      <trkpt lat="45.86669" lon="2.81818">
        <ele>626.41766357422</ele>
        <time>2020-07-07T18:08:35.110Z</time>
      </trkpt>
      <trkpt lat="45.86679" lon="2.81836">
        <ele>626.94317626953</ele>
        <time>2020-07-07T18:08:40.492Z</time>
      </trkpt>
      <trkpt lat="45.86686" lon="2.81848">
        <ele>625.86419677734</ele>
        <time>2020-07-07T18:08:45.876Z</time>
      </trkpt>
      <trkpt lat="45.86699" lon="2.81878">
        <ele>622.37158203125</ele>
        <time>2020-07-07T18:08:51.265Z</time>
      </trkpt>
      <trkpt lat="45.8671" lon="2.81906">
        <ele>619.2724609375</ele>
        <time>2020-07-07T18:08:56.659Z</time>
      </trkpt>
      <trkpt lat="45.86714" lon="2.81922">
        <ele>618.59741210938</ele>
        <time>2020-07-07T18:09:02.055Z</time>
      </trkpt>
      <trkpt lat="45.86718" lon="2.81957">
        <ele>616.97485351562</ele>
        <time>2020-07-07T18:09:07.456Z</time>
      </trkpt>
      <trkpt lat="45.86717" lon="2.81971">
        <ele>616.96282958984</ele>
        <time>2020-07-07T18:09:12.859Z</time>
      </trkpt>
      <trkpt lat="45.8671" lon="2.81992">
        <ele>617.61309814453</ele>
        <time>2020-07-07T18:09:18.265Z</time>
      </trkpt>
      <trkpt lat="45.86702" lon="2.81999">
        <ele>618.09967041016</ele>
        <time>2020-07-07T18:09:23.673Z</time>
      </trkpt>
      <trkpt lat="45.86688" lon="2.82003">
        <ele>619.34625244141</ele>
        <time>2020-07-07T18:09:29.084Z</time>
      </trkpt>
      <trkpt lat="45.86664" lon="2.81997">
        <ele>622.75964355469</ele>
        <time>2020-07-07T18:09:34.500Z</time>
      </trkpt>
      <trkpt lat="45.86647" lon="2.81987">
        <ele>625.58160400391</ele>
        <time>2020-07-07T18:09:39.920Z</time>
      </trkpt>
      <trkpt lat="45.86632" lon="2.81984">
        <ele>628.04028320312</ele>
        <time>2020-07-07T18:09:45.343Z</time>
      </trkpt>
      <trkpt lat="45.86619" lon="2.81985">
        <ele>630.19201660156</ele>
        <time>2020-07-07T18:09:50.768Z</time>
      </trkpt>
      <trkpt lat="45.86609" lon="2.8199">
        <ele>630.28082275391</ele>
        <time>2020-07-07T18:09:56.195Z</time>
      </trkpt>
      <trkpt lat="45.86602" lon="2.81997">
        <ele>629.92565917969</ele>
        <time>2020-07-07T18:10:01.624Z</time>
      </trkpt>
      <trkpt lat="45.86602" lon="2.82008">
        <ele>628.66864013672</ele>
        <time>2020-07-07T18:10:07.055Z</time>
      </trkpt>
      <trkpt lat="45.86601" lon="2.82021">
        <ele>629.09576416016</ele>
        <time>2020-07-07T18:10:12.487Z</time>
      </trkpt>
      <trkpt lat="45.86604" lon="2.82033">
        <ele>629.02374267578</ele>
        <time>2020-07-07T18:10:17.921Z</time>
      </trkpt>
      <trkpt lat="45.86624" lon="2.82047">
        <ele>627.49523925781</ele>
        <time>2020-07-07T18:10:23.360Z</time>
      </trkpt>
      <trkpt lat="45.86633" lon="2.82049">
        <ele>626.65777587891</ele>
        <time>2020-07-07T18:10:28.801Z</time>
      </trkpt>
      <trkpt lat="45.86642" lon="2.82056">
        <ele>625.75152587891</ele>
        <time>2020-07-07T18:10:34.244Z</time>
      </trkpt>
      <trkpt lat="45.86647" lon="2.82063">
        <ele>625.10717773438</ele>
        <time>2020-07-07T18:10:39.688Z</time>
      </trkpt>
      <trkpt lat="45.86659" lon="2.82097">
        <ele>623.86218261719</ele>
        <time>2020-07-07T18:10:45.137Z</time>
      </trkpt>
      <trkpt lat="45.86661" lon="2.82108">
        <ele>624.03253173828</ele>
        <time>2020-07-07T18:10:50.588Z</time>
      </trkpt>
      <trkpt lat="45.86663" lon="2.8213">
        <ele>625.00909423828</ele>
        <time>2020-07-07T18:10:56.042Z</time>
      </trkpt>
      <trkpt lat="45.86666" lon="2.82163">
        <ele>626.34808349609</ele>
        <time>2020-07-07T18:11:01.501Z</time>
      </trkpt>
      <trkpt lat="45.86664" lon="2.82192">
        <ele>628.45251464844</ele>
        <time>2020-07-07T18:11:06.964Z</time>
      </trkpt>
      <trkpt lat="45.86663" lon="2.82225">
        <ele>630.27685546875</ele>
        <time>2020-07-07T18:11:12.431Z</time>
      </trkpt>
      <trkpt lat="45.86662" lon="2.82253">
        <ele>631.90979003906</ele>
        <time>2020-07-07T18:11:17.902Z</time>
      </trkpt>
      <trkpt lat="45.8666" lon="2.82293">
        <ele>632.73809814453</ele>
        <time>2020-07-07T18:11:23.379Z</time>
      </trkpt>
      <trkpt lat="45.86658" lon="2.82336">
        <ele>633.59600830078</ele>
        <time>2020-07-07T18:11:28.862Z</time>
      </trkpt>
      <trkpt lat="45.86652" lon="2.8237">
        <ele>635.96478271484</ele>
        <time>2020-07-07T18:11:34.350Z</time>
      </trkpt>
      <trkpt lat="45.86646" lon="2.82403">
        <ele>637.62530517578</ele>
        <time>2020-07-07T18:11:39.843Z</time>
      </trkpt>
      <trkpt lat="45.86643" lon="2.82441">
        <ele>639.94201660156</ele>
        <time>2020-07-07T18:11:45.341Z</time>
      </trkpt>
      <trkpt lat="45.86635" lon="2.8247">
        <ele>642.5</ele>
        <time>2020-07-07T18:11:50.843Z</time>
      </trkpt>
      <trkpt lat="45.86583" lon="2.82515">
        <ele>647.63970947266</ele>
        <time>2020-07-07T18:11:56.357Z</time>
      </trkpt>
      <trkpt lat="45.86543" lon="2.82534">
        <ele>649.09252929688</ele>
        <time>2020-07-07T18:12:01.880Z</time>
      </trkpt>
      <trkpt lat="45.86486" lon="2.8257">
        <ele>651.62890625</ele>
        <time>2020-07-07T18:12:07.415Z</time>
      </trkpt>
      <trkpt lat="45.86458" lon="2.82596">
        <ele>653.76416015625</ele>
        <time>2020-07-07T18:12:12.957Z</time>
      </trkpt>
      <trkpt lat="45.86414" lon="2.82666">
        <ele>655.76794433594</ele>
        <time>2020-07-07T18:12:18.512Z</time>
      </trkpt>
      <trkpt lat="45.86379" lon="2.82723">
        <ele>658.62756347656</ele>
        <time>2020-07-07T18:12:24.078Z</time>
      </trkpt>
      <trkpt lat="45.86338" lon="2.82785">
        <ele>663.47253417969</ele>
        <time>2020-07-07T18:12:29.656Z</time>
      </trkpt>
      <trkpt lat="45.86297" lon="2.8286">
        <ele>665.44049072266</ele>
        <time>2020-07-07T18:12:35.247Z</time>
      </trkpt>
      <trkpt lat="45.86264" lon="2.82928">
        <ele>666.13665771484</ele>
        <time>2020-07-07T18:12:40.849Z</time>
      </trkpt>
      <trkpt lat="45.86233" lon="2.83009">
        <ele>657.66033935547</ele>
        <time>2020-07-07T18:12:46.464Z</time>
      </trkpt>
      <trkpt lat="45.862" lon="2.83107">
        <ele>649.15258789062</ele>
        <time>2020-07-07T18:12:52.095Z</time>
      </trkpt>
      <trkpt lat="45.86193" lon="2.83164">
        <ele>645.90631103516</ele>
        <time>2020-07-07T18:12:57.734Z</time>
      </trkpt>
      <trkpt lat="45.86192" lon="2.83172">
        <ele>645.74493408203</ele>
        <time>2020-07-07T18:13:03.374Z</time>
      </trkpt>
      <trkpt lat="45.86191" lon="2.83244">
        <ele>644.15509033203</ele>
        <time>2020-07-07T18:13:09.024Z</time>
      </trkpt>
      <trkpt lat="45.86186" lon="2.83292">
        <ele>645.06335449219</ele>
        <time>2020-07-07T18:13:14.681Z</time>
      </trkpt>
      <trkpt lat="45.86185" lon="2.83349">
        <ele>644.18359375</ele>
        <time>2020-07-07T18:13:20.346Z</time>
      </trkpt>
      <trkpt lat="45.86191" lon="2.83383">
        <ele>641.869140625</ele>
        <time>2020-07-07T18:13:26.016Z</time>
      </trkpt>
      <trkpt lat="45.86199" lon="2.83419">
        <ele>639.34234619141</ele>
        <time>2020-07-07T18:13:31.691Z</time>
      </trkpt>
      <trkpt lat="45.86199" lon="2.8344">
        <ele>635.921875</ele>
        <time>2020-07-07T18:13:37.369Z</time>
      </trkpt>
      <trkpt lat="45.86194" lon="2.8347">
        <ele>630.86468505859</ele>
        <time>2020-07-07T18:13:43.051Z</time>
      </trkpt>
      <trkpt lat="45.86198" lon="2.835">
        <ele>626.33764648438</ele>
        <time>2020-07-07T18:13:48.737Z</time>
      </trkpt>
      <trkpt lat="45.86201" lon="2.83539">
        <ele>621.69696044922</ele>
        <time>2020-07-07T18:13:54.429Z</time>
      </trkpt>
      <trkpt lat="45.86204" lon="2.83564">
        <ele>618.69506835938</ele>
        <time>2020-07-07T18:14:00.124Z</time>
      </trkpt>
      <trkpt lat="45.86207" lon="2.83595">
        <ele>615.51007080078</ele>
        <time>2020-07-07T18:14:05.824Z</time>
      </trkpt>
      <trkpt lat="45.86198" lon="2.83645">
        <ele>612.97369384766</ele>
        <time>2020-07-07T18:14:11.531Z</time>
      </trkpt>
      <trkpt lat="45.86209" lon="2.83696">
        <ele>609.21124267578</ele>
        <time>2020-07-07T18:14:17.245Z</time>
      </trkpt>
      <trkpt lat="45.86223" lon="2.83779">
        <ele>605.15631103516</ele>
        <time>2020-07-07T18:14:22.971Z</time>
      </trkpt>
      <trkpt lat="45.86236" lon="2.83876">
        <ele>611.33453369141</ele>
        <time>2020-07-07T18:14:28.711Z</time>
      </trkpt>
      <trkpt lat="45.86241" lon="2.83897">
        <ele>613.90209960938</ele>
        <time>2020-07-07T18:14:34.454Z</time>
      </trkpt>
      <trkpt lat="45.86245" lon="2.83923">
        <ele>617.35009765625</ele>
        <time>2020-07-07T18:14:40.201Z</time>
      </trkpt>
      <trkpt lat="45.86268" lon="2.83938">
        <ele>615.79754638672</ele>
        <time>2020-07-07T18:14:45.953Z</time>
      </trkpt>
      <trkpt lat="45.86303" lon="2.83964">
        <ele>614.1669921875</ele>
        <time>2020-07-07T18:14:51.713Z</time>
      </trkpt>
      <trkpt lat="45.8632" lon="2.83967">
        <ele>613.71014404297</ele>
        <time>2020-07-07T18:14:57.476Z</time>
      </trkpt>
      <trkpt lat="45.86343" lon="2.83967">
        <ele>612.89306640625</ele>
        <time>2020-07-07T18:15:03.244Z</time>
      </trkpt>
      <trkpt lat="45.86364" lon="2.83969">
        <ele>612.06524658203</ele>
        <time>2020-07-07T18:15:09.016Z</time>
      </trkpt>
      <trkpt lat="45.86394" lon="2.83966">
        <ele>609.34777832031</ele>
        <time>2020-07-07T18:15:14.794Z</time>
      </trkpt>
      <trkpt lat="45.86457" lon="2.83951">
        <ele>604.23919677734</ele>
        <time>2020-07-07T18:15:20.585Z</time>
      </trkpt>
      <trkpt lat="45.86492" lon="2.8394">
        <ele>599.73376464844</ele>
        <time>2020-07-07T18:15:26.383Z</time>
      </trkpt>
      <trkpt lat="45.86525" lon="2.83926">
        <ele>597.45654296875</ele>
        <time>2020-07-07T18:15:32.188Z</time>
      </trkpt>
      <trkpt lat="45.86559" lon="2.83913">
        <ele>595.66375732422</ele>
        <time>2020-07-07T18:15:38.000Z</time>
      </trkpt>
      <trkpt lat="45.86599" lon="2.839">
        <ele>590.30303955078</ele>
        <time>2020-07-07T18:15:43.820Z</time>
      </trkpt>
      <trkpt lat="45.86642" lon="2.83909">
        <ele>589.31494140625</ele>
        <time>2020-07-07T18:15:49.649Z</time>
      </trkpt>
      <trkpt lat="45.86659" lon="2.83923">
        <ele>591.85095214844</ele>
        <time>2020-07-07T18:15:55.482Z</time>
      </trkpt>
      <trkpt lat="45.86661" lon="2.83948">
        <ele>589.70147705078</ele>
        <time>2020-07-07T18:16:01.318Z</time>
      </trkpt>
      <trkpt lat="45.86668" lon="2.83985">
        <ele>591.33319091797</ele>
        <time>2020-07-07T18:16:07.160Z</time>
      </trkpt>
      <trkpt lat="45.86674" lon="2.84026">
        <ele>590.96655273438</ele>
        <time>2020-07-07T18:16:13.007Z</time>
      </trkpt>
      <trkpt lat="45.86686" lon="2.84057">
        <ele>589.45001220703</ele>
        <time>2020-07-07T18:16:18.859Z</time>
      </trkpt>
      <trkpt lat="45.86695" lon="2.84094">
        <ele>590.38720703125</ele>
        <time>2020-07-07T18:16:24.717Z</time>
      </trkpt>
      <trkpt lat="45.86711" lon="2.84096">
        <ele>587.9072265625</ele>
        <time>2020-07-07T18:16:30.578Z</time>
      </trkpt>
      <trkpt lat="45.86729" lon="2.84101">
        <ele>587.12725830078</ele>
        <time>2020-07-07T18:16:36.443Z</time>
      </trkpt>
      <trkpt lat="45.86747" lon="2.84102">
        <ele>590.99383544922</ele>
        <time>2020-07-07T18:16:42.311Z</time>
      </trkpt>
      <trkpt lat="45.86747" lon="2.84115">
        <ele>590.60186767578</ele>
        <time>2020-07-07T18:16:48.181Z</time>
      </trkpt>
      <trkpt lat="45.86734" lon="2.84133">
        <ele>588.22143554688</ele>
        <time>2020-07-07T18:16:54.055Z</time>
      </trkpt>
      <trkpt lat="45.86729" lon="2.84167">
        <ele>587.12725830078</ele>
        <time>2020-07-07T18:16:59.934Z</time>
      </trkpt>
      <trkpt lat="45.86729" lon="2.84206">
        <ele>587.05676269531</ele>
        <time>2020-07-07T18:17:05.818Z</time>
      </trkpt>
      <trkpt lat="45.86727" lon="2.84245">
        <ele>586.66082763672</ele>
        <time>2020-07-07T18:17:11.707Z</time>
      </trkpt>
      <trkpt lat="45.8674" lon="2.84252">
        <ele>589.09045410156</ele>
        <time>2020-07-07T18:17:17.599Z</time>
      </trkpt>
      <trkpt lat="45.8676" lon="2.84247">
        <ele>592.76184082031</ele>
        <time>2020-07-07T18:17:23.495Z</time>
      </trkpt>
      <trkpt lat="45.86774" lon="2.84252">
        <ele>595.20941162109</ele>
        <time>2020-07-07T18:17:29.394Z</time>
      </trkpt>
      <trkpt lat="45.8679" lon="2.84275">
        <ele>598.52178955078</ele>
        <time>2020-07-07T18:17:35.298Z</time>
      </trkpt>
      <trkpt lat="45.86801" lon="2.84281">
        <ele>600.71136474609</ele>
        <time>2020-07-07T18:17:41.204Z</time>
      </trkpt>
      <trkpt lat="45.86819" lon="2.84281">
        <ele>605.22863769531</ele>
        <time>2020-07-07T18:17:47.114Z</time>
      </trkpt>
      <trkpt lat="45.86837" lon="2.84294">
        <ele>610.53533935547</ele>
        <time>2020-07-07T18:17:53.028Z</time>
      </trkpt>
      <trkpt lat="45.86841" lon="2.84294">
        <ele>611.50836181641</ele>
        <time>2020-07-07T18:17:58.943Z</time>
      </trkpt>
      <trkpt lat="45.86838" lon="2.84301">
        <ele>610.84851074219</ele>
        <time>2020-07-07T18:18:04.859Z</time>
      </trkpt>
      <trkpt lat="45.86834" lon="2.84313">
        <ele>609.98583984375</ele>
        <time>2020-07-07T18:18:10.776Z</time>
      </trkpt>
      <trkpt lat="45.8683" lon="2.84321">
        <ele>609.13159179688</ele>
        <time>2020-07-07T18:18:16.695Z</time>
      </trkpt>
      <trkpt lat="45.86826" lon="2.84327">
        <ele>608.07092285156</ele>
        <time>2020-07-07T18:18:22.615Z</time>
      </trkpt>
      <trkpt lat="45.86825" lon="2.84343">
        <ele>608.23651123047</ele>
        <time>2020-07-07T18:18:28.537Z</time>
      </trkpt>
      <trkpt lat="45.86826" lon="2.84357">
        <ele>608.77880859375</ele>
        <time>2020-07-07T18:18:34.461Z</time>
      </trkpt>
      <trkpt lat="45.86826" lon="2.84372">
        <ele>609.07019042969</ele>
        <time>2020-07-07T18:18:40.387Z</time>
      </trkpt>
      <trkpt lat="45.86824" lon="2.84389">
        <ele>608.84344482422</ele>
        <time>2020-07-07T18:18:46.316Z</time>
      </trkpt>
      <trkpt lat="45.86823" lon="2.84405">
        <ele>608.52551269531</ele>
        <time>2020-07-07T18:18:52.247Z</time>
      </trkpt>
      <trkpt lat="45.86823" lon="2.84419">
        <ele>608.69226074219</ele>
        <time>2020-07-07T18:18:58.180Z</time>
      </trkpt>
      <trkpt lat="45.86825" lon="2.84432">
        <ele>608.65582275391</ele>
        <time>2020-07-07T18:19:04.115Z</time>
      </trkpt>
      <trkpt lat="45.86833" lon="2.84442">
        <ele>610.04516601562</ele>
        <time>2020-07-07T18:19:10.052Z</time>
      </trkpt>
      <trkpt lat="45.86842" lon="2.84454">
        <ele>611.53051757812</ele>
        <time>2020-07-07T18:19:15.991Z</time>
      </trkpt>
      <trkpt lat="45.86856" lon="2.84471">
        <ele>614.19647216797</ele>
        <time>2020-07-07T18:19:21.934Z</time>
      </trkpt>
      <trkpt lat="45.8687" lon="2.84479">
        <ele>617.44793701172</ele>
        <time>2020-07-07T18:19:27.880Z</time>
      </trkpt>
      <trkpt lat="45.86887" lon="2.84497">
        <ele>621.07971191406</ele>
        <time>2020-07-07T18:19:33.830Z</time>
      </trkpt>
      <trkpt lat="45.86909" lon="2.84517">
        <ele>626.43188476562</ele>
        <time>2020-07-07T18:19:39.786Z</time>
      </trkpt>
      <trkpt lat="45.86915" lon="2.8452">
        <ele>628.42114257812</ele>
        <time>2020-07-07T18:19:45.743Z</time>
      </trkpt>
      <trkpt lat="45.86919" lon="2.84528">
        <ele>628.78588867188</ele>
        <time>2020-07-07T18:19:51.701Z</time>
      </trkpt>
      <trkpt lat="45.86922" lon="2.84538">
        <ele>628.51953125</ele>
        <time>2020-07-07T18:19:57.661Z</time>
      </trkpt>
      <trkpt lat="45.86921" lon="2.84544">
        <ele>628.74688720703</ele>
        <time>2020-07-07T18:20:03.622Z</time>
      </trkpt>
      <trkpt lat="45.86918" lon="2.8455">
        <ele>628.59448242188</ele>
        <time>2020-07-07T18:20:09.584Z</time>
      </trkpt>
      <trkpt lat="45.86911" lon="2.84551">
        <ele>627.62866210938</ele>
        <time>2020-07-07T18:20:15.547Z</time>
      </trkpt>
      <trkpt lat="45.86907" lon="2.84552">
        <ele>626.99877929688</ele>
        <time>2020-07-07T18:20:21.511Z</time>
      </trkpt>
      <trkpt lat="45.86897" lon="2.84547">
        <ele>625.10424804688</ele>
        <time>2020-07-07T18:20:27.477Z</time>
      </trkpt>
      <trkpt lat="45.86887" lon="2.84546">
        <ele>623.48309326172</ele>
        <time>2020-07-07T18:20:33.445Z</time>
      </trkpt>
      <trkpt lat="45.86878" lon="2.84545">
        <ele>621.82495117188</ele>
        <time>2020-07-07T18:20:39.415Z</time>
      </trkpt>
      <trkpt lat="45.86861" lon="2.84545">
        <ele>619.00299072266</ele>
        <time>2020-07-07T18:20:45.388Z</time>
      </trkpt>
      <trkpt lat="45.86856" lon="2.84548">
        <ele>618.47747802734</ele>
        <time>2020-07-07T18:20:51.362Z</time>
      </trkpt>
      <trkpt lat="45.86855" lon="2.84551">
        <ele>618.36950683594</ele>
        <time>2020-07-07T18:20:57.337Z</time>
      </trkpt>
      <trkpt lat="45.86853" lon="2.84557">
        <ele>618.73425292969</ele>
        <time>2020-07-07T18:21:03.313Z</time>
      </trkpt>
      <trkpt lat="45.86855" lon="2.84562">
        <ele>619.72772216797</ele>
        <time>2020-07-07T18:21:09.290Z</time>
      </trkpt>
      <trkpt lat="45.8686" lon="2.84568">
        <ele>621.05828857422</ele>
        <time>2020-07-07T18:21:15.268Z</time>
      </trkpt>
      <trkpt lat="45.86864" lon="2.84569">
        <ele>621.62341308594</ele>
        <time>2020-07-07T18:21:21.247Z</time>
      </trkpt>
      <trkpt lat="45.8687" lon="2.84567">
        <ele>622.20886230469</ele>
        <time>2020-07-07T18:21:27.227Z</time>
      </trkpt>
      <trkpt lat="45.86876" lon="2.84572">
        <ele>623.50225830078</ele>
        <time>2020-07-07T18:21:33.208Z</time>
      </trkpt>
      <trkpt lat="45.86879" lon="2.84573">
        <ele>623.9677734375</ele>
        <time>2020-07-07T18:21:39.190Z</time>
      </trkpt>
      <trkpt lat="45.8688" lon="2.84577">
        <ele>624.529296875</ele>
        <time>2020-07-07T18:21:45.173Z</time>
      </trkpt>
      <trkpt lat="45.86882" lon="2.84591">
        <ele>626.55322265625</ele>
        <time>2020-07-07T18:21:51.158Z</time>
      </trkpt>
      <trkpt lat="45.86881" lon="2.846">
        <ele>628.21136474609</ele>
        <time>2020-07-07T18:21:57.144Z</time>
      </trkpt>
      <trkpt lat="45.86884" lon="2.84614">
        <ele>631.34765625</ele>
        <time>2020-07-07T18:22:03.132Z</time>
      </trkpt>
      <trkpt lat="45.86887" lon="2.84615">
        <ele>631.99792480469</ele>
        <time>2020-07-07T18:22:09.120Z</time>
      </trkpt>
      <trkpt lat="45.86894" lon="2.84619">
        <ele>633.02166748047</ele>
        <time>2020-07-07T18:22:15.110Z</time>
      </trkpt>
      <trkpt lat="45.869" lon="2.84624">
        <ele>634.03546142578</ele>
        <time>2020-07-07T18:22:21.101Z</time>
      </trkpt>
      <trkpt lat="45.86907" lon="2.84629">
        <ele>634.92572021484</ele>
        <time>2020-07-07T18:22:27.094Z</time>
      </trkpt>
      <trkpt lat="45.86915" lon="2.84637">
        <ele>636.48785400391</ele>
        <time>2020-07-07T18:22:33.089Z</time>
      </trkpt>
      <trkpt lat="45.86922" lon="2.84646">
        <ele>638.15197753906</ele>
        <time>2020-07-07T18:22:39.086Z</time>
      </trkpt>
      <trkpt lat="45.86927" lon="2.84654">
        <ele>639.84851074219</ele>
        <time>2020-07-07T18:22:45.084Z</time>
      </trkpt>
      <trkpt lat="45.86931" lon="2.84665">
        <ele>641.88336181641</ele>
        <time>2020-07-07T18:22:51.084Z</time>
      </trkpt>
      <trkpt lat="45.86931" lon="2.84675">
        <ele>644.01721191406</ele>
        <time>2020-07-07T18:22:57.085Z</time>
      </trkpt>
      <trkpt lat="45.86932" lon="2.84686">
        <ele>646.84399414062</ele>
        <time>2020-07-07T18:23:03.088Z</time>
      </trkpt>
      <trkpt lat="45.86931" lon="2.84697">
        <ele>649.29638671875</ele>
        <time>2020-07-07T18:23:09.092Z</time>
      </trkpt>
      <trkpt lat="45.86935" lon="2.84706">
        <ele>651.46319580078</ele>
        <time>2020-07-07T18:23:15.098Z</time>
      </trkpt>
      <trkpt lat="45.86938" lon="2.84712">
        <ele>652.95452880859</ele>
        <time>2020-07-07T18:23:21.105Z</time>
      </trkpt>
      <trkpt lat="45.86941" lon="2.84714">
        <ele>653.43084716797</ele>
        <time>2020-07-07T18:23:27.113Z</time>
      </trkpt>
      <trkpt lat="45.86939" lon="2.84723">
        <ele>655.38549804688</ele>
        <time>2020-07-07T18:23:33.122Z</time>
      </trkpt>
      <trkpt lat="45.86941" lon="2.84731">
        <ele>656.73651123047</ele>
        <time>2020-07-07T18:23:39.132Z</time>
      </trkpt>
      <trkpt lat="45.86947" lon="2.84752">
        <ele>660.22430419922</ele>
        <time>2020-07-07T18:23:45.145Z</time>
      </trkpt>
      <trkpt lat="45.86951" lon="2.84771">
        <ele>664.64105224609</ele>
        <time>2020-07-07T18:23:51.161Z</time>
      </trkpt>
      <trkpt lat="45.86954" lon="2.84783">
        <ele>667.52777099609</ele>
        <time>2020-07-07T18:23:57.179Z</time>
      </trkpt>
      <trkpt lat="45.86957" lon="2.84795">
        <ele>670.51647949219</ele>
        <time>2020-07-07T18:24:03.199Z</time>
      </trkpt>
      <trkpt lat="45.86959" lon="2.84811">
        <ele>674.37982177734</ele>
        <time>2020-07-07T18:24:09.221Z</time>
      </trkpt>
      <trkpt lat="45.86961" lon="2.84827">
        <ele>678.15441894531</ele>
        <time>2020-07-07T18:24:15.245Z</time>
      </trkpt>
      <trkpt lat="45.86961" lon="2.84837">
        <ele>679.41619873047</ele>
        <time>2020-07-07T18:24:21.270Z</time>
      </trkpt>
      <trkpt lat="45.8696" lon="2.84852">
        <ele>681.69610595703</ele>
        <time>2020-07-07T18:24:27.298Z</time>
      </trkpt>
      <trkpt lat="45.86959" lon="2.84861">
        <ele>683.02069091797</ele>
        <time>2020-07-07T18:24:33.327Z</time>
      </trkpt>
      <trkpt lat="45.86956" lon="2.84876">
        <ele>684.95721435547</ele>
        <time>2020-07-07T18:24:39.358Z</time>
      </trkpt>
      <trkpt lat="45.86951" lon="2.84901">
        <ele>688.09637451172</ele>
        <time>2020-07-07T18:24:45.393Z</time>
      </trkpt>
      <trkpt lat="45.86948" lon="2.84918">
        <ele>689.91766357422</ele>
        <time>2020-07-07T18:24:51.430Z</time>
      </trkpt>
      <trkpt lat="45.86945" lon="2.84935">
        <ele>690.92858886719</ele>
        <time>2020-07-07T18:24:57.470Z</time>
      </trkpt>
      <trkpt lat="45.86941" lon="2.84953">
        <ele>691.68084716797</ele>
        <time>2020-07-07T18:25:03.512Z</time>
      </trkpt>
      <trkpt lat="45.86938" lon="2.84972">
        <ele>692.70690917969</ele>
        <time>2020-07-07T18:25:09.557Z</time>
      </trkpt>
      <trkpt lat="45.86939" lon="2.84984">
        <ele>694.74176025391</ele>
        <time>2020-07-07T18:25:15.604Z</time>
      </trkpt>
      <trkpt lat="45.86939" lon="2.84991">
        <ele>696.00158691406</ele>
        <time>2020-07-07T18:25:21.652Z</time>
      </trkpt>
      <trkpt lat="45.86939" lon="2.85">
        <ele>697.44610595703</ele>
        <time>2020-07-07T18:25:27.701Z</time>
      </trkpt>
      <trkpt lat="45.86936" lon="2.85002">
        <ele>697.41973876953</ele>
        <time>2020-07-07T18:25:33.751Z</time>
      </trkpt>
      <trkpt lat="45.8693" lon="2.85003">
        <ele>696.90142822266</ele>
        <time>2020-07-07T18:25:39.802Z</time>
      </trkpt>
      <trkpt lat="45.86924" lon="2.85004">
        <ele>696.20190429688</ele>
        <time>2020-07-07T18:25:45.854Z</time>
      </trkpt>
      <trkpt lat="45.86918" lon="2.85004">
        <ele>695.32604980469</ele>
        <time>2020-07-07T18:25:51.907Z</time>
      </trkpt>
      <trkpt lat="45.86909" lon="2.85">
        <ele>693.60076904297</ele>
        <time>2020-07-07T18:25:57.962Z</time>
      </trkpt>
      <trkpt lat="45.86897" lon="2.84989">
        <ele>690.17175292969</ele>
        <time>2020-07-07T18:26:04.020Z</time>
      </trkpt>
      <trkpt lat="45.86889" lon="2.84982">
        <ele>687.90386962891</ele>
        <time>2020-07-07T18:26:10.080Z</time>
      </trkpt>
      <trkpt lat="45.86885" lon="2.84977">
        <ele>687.03399658203</ele>
        <time>2020-07-07T18:26:16.141Z</time>
      </trkpt>
      <trkpt lat="45.8688" lon="2.84972">
        <ele>685.95056152344</ele>
        <time>2020-07-07T18:26:22.203Z</time>
      </trkpt>
      <trkpt lat="45.8687" lon="2.84962">
        <ele>683.84851074219</ele>
        <time>2020-07-07T18:26:28.268Z</time>
      </trkpt>
      <trkpt lat="45.86865" lon="2.84956">
        <ele>682.78192138672</ele>
        <time>2020-07-07T18:26:34.334Z</time>
      </trkpt>
      <trkpt lat="45.86853" lon="2.84951">
        <ele>681.55572509766</ele>
        <time>2020-07-07T18:26:40.402Z</time>
      </trkpt>
      <trkpt lat="45.86849" lon="2.84951">
        <ele>681.38293457031</ele>
        <time>2020-07-07T18:26:46.471Z</time>
      </trkpt>
      <trkpt lat="45.86841" lon="2.84959">
        <ele>682.18048095703</ele>
        <time>2020-07-07T18:26:52.542Z</time>
      </trkpt>
      <trkpt lat="45.86839" lon="2.84965">
        <ele>682.02331542969</ele>
        <time>2020-07-07T18:26:58.614Z</time>
      </trkpt>
      <trkpt lat="45.86843" lon="2.84978">
        <ele>683.12713623047</ele>
        <time>2020-07-07T18:27:04.688Z</time>
      </trkpt>
      <trkpt lat="45.86846" lon="2.84985">
        <ele>683.92858886719</ele>
        <time>2020-07-07T18:27:10.763Z</time>
      </trkpt>
      <trkpt lat="45.86851" lon="2.84993">
        <ele>685.04443359375</ele>
        <time>2020-07-07T18:27:16.839Z</time>
      </trkpt>
      <trkpt lat="45.8685" lon="2.85009">
        <ele>685.89093017578</ele>
        <time>2020-07-07T18:27:22.918Z</time>
      </trkpt>
      <trkpt lat="45.86853" lon="2.85028">
        <ele>689.01525878906</ele>
        <time>2020-07-07T18:27:28.999Z</time>
      </trkpt>
      <trkpt lat="45.86857" lon="2.85046">
        <ele>692.271484375</ele>
        <time>2020-07-07T18:27:35.083Z</time>
      </trkpt>
      <trkpt lat="45.86862" lon="2.85067">
        <ele>695.41442871094</ele>
        <time>2020-07-07T18:27:41.170Z</time>
      </trkpt>
      <trkpt lat="45.86869" lon="2.85096">
        <ele>697.94671630859</ele>
        <time>2020-07-07T18:27:47.261Z</time>
      </trkpt>
      <trkpt lat="45.86876" lon="2.85115">
        <ele>701.05902099609</ele>
        <time>2020-07-07T18:27:53.355Z</time>
      </trkpt>
      <trkpt lat="45.86885" lon="2.85131">
        <ele>704.66796875</ele>
        <time>2020-07-07T18:27:59.452Z</time>
      </trkpt>
      <trkpt lat="45.86894" lon="2.85153">
        <ele>707.88519287109</ele>
        <time>2020-07-07T18:28:05.553Z</time>
      </trkpt>
      <trkpt lat="45.86902" lon="2.85174">
        <ele>710.56207275391</ele>
        <time>2020-07-07T18:28:11.657Z</time>
      </trkpt>
      <trkpt lat="45.86914" lon="2.85203">
        <ele>716.38616943359</ele>
        <time>2020-07-07T18:28:17.766Z</time>
      </trkpt>
      <trkpt lat="45.86924" lon="2.85229">
        <ele>719.97955322266</ele>
        <time>2020-07-07T18:28:23.879Z</time>
      </trkpt>
      <trkpt lat="45.86929" lon="2.85253">
        <ele>721.72045898438</ele>
        <time>2020-07-07T18:28:29.996Z</time>
      </trkpt>
      <trkpt lat="45.86933" lon="2.85281">
        <ele>724.30914306641</ele>
        <time>2020-07-07T18:28:36.117Z</time>
      </trkpt>
      <trkpt lat="45.86935" lon="2.85303">
        <ele>726.03344726562</ele>
        <time>2020-07-07T18:28:42.241Z</time>
      </trkpt>
      <trkpt lat="45.86938" lon="2.85331">
        <ele>727.74438476562</ele>
        <time>2020-07-07T18:28:48.369Z</time>
      </trkpt>
      <trkpt lat="45.8694" lon="2.85359">
        <ele>728.59808349609</ele>
        <time>2020-07-07T18:28:54.501Z</time>
      </trkpt>
      <trkpt lat="45.86941" lon="2.85373">
        <ele>728.73724365234</ele>
        <time>2020-07-07T18:29:00.635Z</time>
      </trkpt>
      <trkpt lat="45.86942" lon="2.85395">
        <ele>729.38134765625</ele>
        <time>2020-07-07T18:29:06.772Z</time>
      </trkpt>
      <trkpt lat="45.86946" lon="2.85418">
        <ele>731.49182128906</ele>
        <time>2020-07-07T18:29:12.912Z</time>
      </trkpt>
      <trkpt lat="45.86944" lon="2.85428">
        <ele>731.27526855469</ele>
        <time>2020-07-07T18:29:19.053Z</time>
      </trkpt>
      <trkpt lat="45.86939" lon="2.8546">
        <ele>731.52484130859</ele>
        <time>2020-07-07T18:29:25.199Z</time>
      </trkpt>
      <trkpt lat="45.86935" lon="2.85489">
        <ele>733.40301513672</ele>
        <time>2020-07-07T18:29:31.349Z</time>
      </trkpt>
      <trkpt lat="45.86937" lon="2.85507">
        <ele>735.94812011719</ele>
        <time>2020-07-07T18:29:37.502Z</time>
      </trkpt>
      <trkpt lat="45.86938" lon="2.85521">
        <ele>736.91754150391</ele>
        <time>2020-07-07T18:29:43.657Z</time>
      </trkpt>
      <trkpt lat="45.86943" lon="2.85536">
        <ele>738.85162353516</ele>
        <time>2020-07-07T18:29:49.814Z</time>
      </trkpt>
      <trkpt lat="45.86947" lon="2.85548">
        <ele>740.37536621094</ele>
        <time>2020-07-07T18:29:55.973Z</time>
      </trkpt>
      <trkpt lat="45.86949" lon="2.85564">
        <ele>741.70239257812</ele>
        <time>2020-07-07T18:30:02.134Z</time>
      </trkpt>
      <trkpt lat="45.86949" lon="2.85578">
        <ele>743.07019042969</ele>
        <time>2020-07-07T18:30:08.297Z</time>
      </trkpt>
      <trkpt lat="45.86948" lon="2.85594">
        <ele>744.48669433594</ele>
        <time>2020-07-07T18:30:14.462Z</time>
      </trkpt>
      <trkpt lat="45.86945" lon="2.85613">
        <ele>746.27197265625</ele>
        <time>2020-07-07T18:30:20.630Z</time>
      </trkpt>
      <trkpt lat="45.86941" lon="2.85623">
        <ele>746.45678710938</ele>
        <time>2020-07-07T18:30:26.800Z</time>
      </trkpt>
      <trkpt lat="45.86935" lon="2.85644">
        <ele>747.974609375</ele>
        <time>2020-07-07T18:30:32.973Z</time>
      </trkpt>
      <trkpt lat="45.86931" lon="2.85661">
        <ele>749.83911132812</ele>
        <time>2020-07-07T18:30:39.148Z</time>
      </trkpt>
      <trkpt lat="45.86927" lon="2.85675">
        <ele>751.01306152344</ele>
        <time>2020-07-07T18:30:45.325Z</time>
      </trkpt>
      <trkpt lat="45.86922" lon="2.85683">
        <ele>751.02386474609</ele>
        <time>2020-07-07T18:30:51.504Z</time>
      </trkpt>
      <trkpt lat="45.86917" lon="2.85691">
        <ele>750.95190429688</ele>
        <time>2020-07-07T18:30:57.684Z</time>
      </trkpt>
      <trkpt lat="45.86907" lon="2.85692">
        <ele>749.37915039062</ele>
        <time>2020-07-07T18:31:03.866Z</time>
      </trkpt>
      <trkpt lat="45.86899" lon="2.8569">
        <ele>747.82421875</ele>
        <time>2020-07-07T18:31:10.050Z</time>
      </trkpt>
      <trkpt lat="45.86889" lon="2.85692">
        <ele>746.78503417969</ele>
        <time>2020-07-07T18:31:16.236Z</time>
      </trkpt>
      <trkpt lat="45.86879" lon="2.85692">
        <ele>748.68548583984</ele>
        <time>2020-07-07T18:31:22.424Z</time>
      </trkpt>
      <trkpt lat="45.86865" lon="2.85696">
        <ele>751.41381835938</ele>
        <time>2020-07-07T18:31:28.615Z</time>
      </trkpt>
      <trkpt lat="45.86849" lon="2.85704">
        <ele>755.40679931641</ele>
        <time>2020-07-07T18:31:34.809Z</time>
      </trkpt>
      <trkpt lat="45.86833" lon="2.85711">
        <ele>758.38952636719</ele>
        <time>2020-07-07T18:31:41.007Z</time>
      </trkpt>
      <trkpt lat="45.86812" lon="2.85721">
        <ele>761.40942382812</ele>
        <time>2020-07-07T18:31:47.209Z</time>
      </trkpt>
      <trkpt lat="45.86803" lon="2.85725">
        <ele>762.66589355469</ele>
        <time>2020-07-07T18:31:53.413Z</time>
      </trkpt>
      <trkpt lat="45.86805" lon="2.85738">
        <ele>763.64373779297</ele>
        <time>2020-07-07T18:31:59.619Z</time>
      </trkpt>
      <trkpt lat="45.86808" lon="2.85747">
        <ele>764.02856445312</ele>
        <time>2020-07-07T18:32:05.826Z</time>
      </trkpt>
      <trkpt lat="45.86808" lon="2.85752">
        <ele>764.55767822266</ele>
        <time>2020-07-07T18:32:12.034Z</time>
      </trkpt>
      <trkpt lat="45.86804" lon="2.85763">
        <ele>765.64154052734</ele>
        <time>2020-07-07T18:32:18.244Z</time>
      </trkpt>
      <trkpt lat="45.86807" lon="2.85786">
        <ele>767.09600830078</ele>
        <time>2020-07-07T18:32:24.457Z</time>
      </trkpt>
      <trkpt lat="45.86811" lon="2.85803">
        <ele>768.11224365234</ele>
        <time>2020-07-07T18:32:30.672Z</time>
      </trkpt>
      <trkpt lat="45.86816" lon="2.85834">
        <ele>770.03912353516</ele>
        <time>2020-07-07T18:32:36.892Z</time>
      </trkpt>
      <trkpt lat="45.86821" lon="2.85863">
        <ele>772.02575683594</ele>
        <time>2020-07-07T18:32:43.116Z</time>
      </trkpt>
      <trkpt lat="45.8683" lon="2.8589">
        <ele>773.11639404297</ele>
        <time>2020-07-07T18:32:49.344Z</time>
      </trkpt>
      <trkpt lat="45.86841" lon="2.85933">
        <ele>775.01544189453</ele>
        <time>2020-07-07T18:32:55.579Z</time>
      </trkpt>
      <trkpt lat="45.86849" lon="2.85948">
        <ele>776.01373291016</ele>
        <time>2020-07-07T18:33:01.816Z</time>
      </trkpt>
      <trkpt lat="45.86856" lon="2.85961">
        <ele>776.86437988281</ele>
        <time>2020-07-07T18:33:08.055Z</time>
      </trkpt>
      <trkpt lat="45.86864" lon="2.85966">
        <ele>777.28192138672</ele>
        <time>2020-07-07T18:33:14.296Z</time>
      </trkpt>
      <trkpt lat="45.86878" lon="2.85972">
        <ele>777.84100341797</ele>
        <time>2020-07-07T18:33:20.540Z</time>
      </trkpt>
      <trkpt lat="45.86895" lon="2.85976">
        <ele>778.5166015625</ele>
        <time>2020-07-07T18:33:26.788Z</time>
      </trkpt>
      <trkpt lat="45.86914" lon="2.85983">
        <ele>780.06433105469</ele>
        <time>2020-07-07T18:33:33.040Z</time>
      </trkpt>
      <trkpt lat="45.86935" lon="2.85993">
        <ele>781.94201660156</ele>
        <time>2020-07-07T18:33:39.296Z</time>
      </trkpt>
      <trkpt lat="45.86947" lon="2.85994">
        <ele>782.71588134766</ele>
        <time>2020-07-07T18:33:45.554Z</time>
      </trkpt>
      <trkpt lat="45.86955" lon="2.86">
        <ele>783.53179931641</ele>
        <time>2020-07-07T18:33:51.814Z</time>
      </trkpt>
      <trkpt lat="45.86964" lon="2.8601">
        <ele>784.69555664062</ele>
        <time>2020-07-07T18:33:58.076Z</time>
      </trkpt>
      <trkpt lat="45.8697" lon="2.8602">
        <ele>785.64343261719</ele>
        <time>2020-07-07T18:34:04.340Z</time>
      </trkpt>
      <trkpt lat="45.86976" lon="2.86037">
        <ele>787.24694824219</ele>
        <time>2020-07-07T18:34:10.607Z</time>
      </trkpt>
      <trkpt lat="45.86976" lon="2.86048">
        <ele>787.92486572266</ele>
        <time>2020-07-07T18:34:16.875Z</time>
      </trkpt>
      <trkpt lat="45.86978" lon="2.86075">
        <ele>789.79656982422</ele>
        <time>2020-07-07T18:34:23.147Z</time>
      </trkpt>
      <trkpt lat="45.86983" lon="2.86108">
        <ele>791.11596679688</ele>
        <time>2020-07-07T18:34:29.424Z</time>
      </trkpt>
      <trkpt lat="45.86991" lon="2.86118">
        <ele>792.27856445312</ele>
        <time>2020-07-07T18:34:35.703Z</time>
      </trkpt>
      <trkpt lat="45.86992" lon="2.86126">
        <ele>792.18499755859</ele>
        <time>2020-07-07T18:34:41.983Z</time>
      </trkpt>
      <trkpt lat="45.87003" lon="2.86141">
        <ele>793.55633544922</ele>
        <time>2020-07-07T18:34:48.266Z</time>
      </trkpt>
      <trkpt lat="45.87009" lon="2.86149">
        <ele>794.32659912109</ele>
        <time>2020-07-07T18:34:54.551Z</time>
      </trkpt>
      <trkpt lat="45.87013" lon="2.86158">
        <ele>794.79095458984</ele>
        <time>2020-07-07T18:35:00.838Z</time>
      </trkpt>
      <trkpt lat="45.87019" lon="2.8617">
        <ele>795.3740234375</ele>
        <time>2020-07-07T18:35:07.127Z</time>
      </trkpt>
      <trkpt lat="45.87026" lon="2.86192">
        <ele>796.86181640625</ele>
        <time>2020-07-07T18:35:13.419Z</time>
      </trkpt>
      <trkpt lat="45.87026" lon="2.86204">
        <ele>796.93743896484</ele>
        <time>2020-07-07T18:35:19.713Z</time>
      </trkpt>
      <trkpt lat="45.87028" lon="2.86227">
        <ele>797.478515625</ele>
        <time>2020-07-07T18:35:26.010Z</time>
      </trkpt>
      <trkpt lat="45.87029" lon="2.86252">
        <ele>796.64886474609</ele>
        <time>2020-07-07T18:35:32.310Z</time>
      </trkpt>
      <trkpt lat="45.87021" lon="2.86282">
        <ele>795.21533203125</ele>
        <time>2020-07-07T18:35:38.615Z</time>
      </trkpt>
      <trkpt lat="45.87014" lon="2.86308">
        <ele>794.14270019531</ele>
        <time>2020-07-07T18:35:44.924Z</time>
      </trkpt>
      <trkpt lat="45.87011" lon="2.86323">
        <ele>793.68676757812</ele>
        <time>2020-07-07T18:35:51.235Z</time>
      </trkpt>
      <trkpt lat="45.86994" lon="2.86341">
        <ele>790.16680908203</ele>
        <time>2020-07-07T18:35:57.550Z</time>
      </trkpt>
      <trkpt lat="45.86975" lon="2.86366">
        <ele>787.73785400391</ele>
        <time>2020-07-07T18:36:03.870Z</time>
      </trkpt>
      <trkpt lat="45.86953" lon="2.86393">
        <ele>786.64624023438</ele>
        <time>2020-07-07T18:36:10.196Z</time>
      </trkpt>
      <trkpt lat="45.86941" lon="2.86411">
        <ele>787.08038330078</ele>
        <time>2020-07-07T18:36:16.526Z</time>
      </trkpt>
      <trkpt lat="45.8693" lon="2.86426">
        <ele>787.72277832031</ele>
        <time>2020-07-07T18:36:22.858Z</time>
      </trkpt>
      <trkpt lat="45.86913" lon="2.86455">
        <ele>788.89880371094</ele>
        <time>2020-07-07T18:36:29.196Z</time>
      </trkpt>
      <trkpt lat="45.86899" lon="2.86477">
        <ele>789.40270996094</ele>
        <time>2020-07-07T18:36:35.538Z</time>
      </trkpt>
      <trkpt lat="45.86892" lon="2.86504">
        <ele>791.12322998047</ele>
        <time>2020-07-07T18:36:41.884Z</time>
      </trkpt>
      <trkpt lat="45.86886" lon="2.86539">
        <ele>791.80096435547</ele>
        <time>2020-07-07T18:36:48.235Z</time>
      </trkpt>
      <trkpt lat="45.8688" lon="2.86573">
        <ele>792.48004150391</ele>
        <time>2020-07-07T18:36:54.591Z</time>
      </trkpt>
      <trkpt lat="45.86879" lon="2.86605">
        <ele>792.57336425781</ele>
        <time>2020-07-07T18:37:00.951Z</time>
      </trkpt>
      <trkpt lat="45.8688" lon="2.86622">
        <ele>792.2685546875</ele>
        <time>2020-07-07T18:37:07.314Z</time>
      </trkpt>
      <trkpt lat="45.86883" lon="2.8664">
        <ele>792.15582275391</ele>
        <time>2020-07-07T18:37:13.679Z</time>
      </trkpt>
      <trkpt lat="45.86885" lon="2.86655">
        <ele>792.01904296875</ele>
        <time>2020-07-07T18:37:20.047Z</time>
      </trkpt>
      <trkpt lat="45.86892" lon="2.86667">
        <ele>792.45257568359</ele>
        <time>2020-07-07T18:37:26.417Z</time>
      </trkpt>
      <trkpt lat="45.86894" lon="2.86679">
        <ele>792.54010009766</ele>
        <time>2020-07-07T18:37:32.788Z</time>
      </trkpt>
      <trkpt lat="45.869" lon="2.86707">
        <ele>793.55511474609</ele>
        <time>2020-07-07T18:37:39.164Z</time>
      </trkpt>
      <trkpt lat="45.86903" lon="2.86734">
        <ele>794.15740966797</ele>
        <time>2020-07-07T18:37:45.543Z</time>
      </trkpt>
      <trkpt lat="45.86904" lon="2.86746">
        <ele>794.46099853516</ele>
        <time>2020-07-07T18:37:51.924Z</time>
      </trkpt>
      <trkpt lat="45.86902" lon="2.86763">
        <ele>794.30413818359</ele>
        <time>2020-07-07T18:37:58.307Z</time>
      </trkpt>
      <trkpt lat="45.86899" lon="2.86778">
        <ele>794.48028564453</ele>
        <time>2020-07-07T18:38:04.693Z</time>
      </trkpt>
      <trkpt lat="45.86894" lon="2.86797">
        <ele>794.78979492188</ele>
        <time>2020-07-07T18:38:11.082Z</time>
      </trkpt>
      <trkpt lat="45.86889" lon="2.8683">
        <ele>795.65447998047</ele>
        <time>2020-07-07T18:38:17.475Z</time>
      </trkpt>
      <trkpt lat="45.86885" lon="2.86843">
        <ele>795.77099609375</ele>
        <time>2020-07-07T18:38:23.870Z</time>
      </trkpt>
      <trkpt lat="45.86886" lon="2.86862">
        <ele>796.31567382812</ele>
        <time>2020-07-07T18:38:30.268Z</time>
      </trkpt>
      <trkpt lat="45.86886" lon="2.86892">
        <ele>797.03558349609</ele>
        <time>2020-07-07T18:38:36.670Z</time>
      </trkpt>
      <trkpt lat="45.86886" lon="2.86915">
        <ele>797.52508544922</ele>
        <time>2020-07-07T18:38:43.075Z</time>
      </trkpt>
      <trkpt lat="45.86884" lon="2.86952">
        <ele>797.92901611328</ele>
        <time>2020-07-07T18:38:49.486Z</time>
      </trkpt>
      <trkpt lat="45.86883" lon="2.86973">
        <ele>798.21453857422</ele>
        <time>2020-07-07T18:38:55.899Z</time>
      </trkpt>
      <trkpt lat="45.86879" lon="2.87003">
        <ele>798.37530517578</ele>
        <time>2020-07-07T18:39:02.317Z</time>
      </trkpt>
      <trkpt lat="45.86878" lon="2.87027">
        <ele>798.54656982422</ele>
        <time>2020-07-07T18:39:08.738Z</time>
      </trkpt>
      <trkpt lat="45.86874" lon="2.87048">
        <ele>798.32336425781</ele>
        <time>2020-07-07T18:39:15.162Z</time>
      </trkpt>
      <trkpt lat="45.86874" lon="2.87072">
        <ele>798.55493164062</ele>
        <time>2020-07-07T18:39:21.589Z</time>
      </trkpt>
      <trkpt lat="45.86876" lon="2.87088">
        <ele>799.39373779297</ele>
        <time>2020-07-07T18:39:28.019Z</time>
      </trkpt>
      <trkpt lat="45.86874" lon="2.87105">
        <ele>799.74572753906</ele>
        <time>2020-07-07T18:39:34.451Z</time>
      </trkpt>
      <trkpt lat="45.86869" lon="2.87124">
        <ele>799.57775878906</ele>
        <time>2020-07-07T18:39:40.886Z</time>
      </trkpt>
      <trkpt lat="45.86862" lon="2.8714">
        <ele>799.28503417969</ele>
        <time>2020-07-07T18:39:47.324Z</time>
      </trkpt>
      <trkpt lat="45.86855" lon="2.87152">
        <ele>799.27862548828</ele>
        <time>2020-07-07T18:39:53.764Z</time>
      </trkpt>
      <trkpt lat="45.86841" lon="2.87168">
        <ele>799.22222900391</ele>
        <time>2020-07-07T18:40:00.207Z</time>
      </trkpt>
      <trkpt lat="45.86834" lon="2.87176">
        <ele>799.25305175781</ele>
        <time>2020-07-07T18:40:06.652Z</time>
      </trkpt>
      <trkpt lat="45.86827" lon="2.8718">
        <ele>799.07427978516</ele>
        <time>2020-07-07T18:40:13.099Z</time>
      </trkpt>
      <trkpt lat="45.86814" lon="2.87175">
        <ele>797.75689697266</ele>
        <time>2020-07-07T18:40:19.548Z</time>
      </trkpt>
      <trkpt lat="45.86803" lon="2.87168">
        <ele>796.7509765625</ele>
        <time>2020-07-07T18:40:26.000Z</time>
      </trkpt>
      <trkpt lat="45.86792" lon="2.87162">
        <ele>796.68316650391</ele>
        <time>2020-07-07T18:40:32.454Z</time>
      </trkpt>
      <trkpt lat="45.86783" lon="2.87158">
        <ele>796.91833496094</ele>
        <time>2020-07-07T18:40:38.910Z</time>
      </trkpt>
      <trkpt lat="45.86773" lon="2.87158">
        <ele>797.64538574219</ele>
        <time>2020-07-07T18:40:45.368Z</time>
      </trkpt>
      <trkpt lat="45.86758" lon="2.87158">
        <ele>798.64599609375</ele>
        <time>2020-07-07T18:40:51.829Z</time>
      </trkpt>
      <trkpt lat="45.86734" lon="2.8716">
        <ele>800.63049316406</ele>
        <time>2020-07-07T18:40:58.295Z</time>
      </trkpt>
      <trkpt lat="45.86718" lon="2.87162">
        <ele>801.88568115234</ele>
        <time>2020-07-07T18:41:04.764Z</time>
      </trkpt>
      <trkpt lat="45.86692" lon="2.87164">
        <ele>802.55126953125</ele>
        <time>2020-07-07T18:41:11.238Z</time>
      </trkpt>
      <trkpt lat="45.86679" lon="2.87164">
        <ele>802.70843505859</ele>
        <time>2020-07-07T18:41:17.715Z</time>
      </trkpt>
      <trkpt lat="45.86668" lon="2.87165">
        <ele>802.93402099609</ele>
        <time>2020-07-07T18:41:24.194Z</time>
      </trkpt>
      <trkpt lat="45.86657" lon="2.8717">
        <ele>803.47631835938</ele>
        <time>2020-07-07T18:41:30.675Z</time>
      </trkpt>
      <trkpt lat="45.86651" lon="2.87176">
        <ele>804.05621337891</ele>
        <time>2020-07-07T18:41:37.158Z</time>
      </trkpt>
      <trkpt lat="45.86646" lon="2.87186">
        <ele>804.89129638672</ele>
        <time>2020-07-07T18:41:43.643Z</time>
      </trkpt>
      <trkpt lat="45.86644" lon="2.87189">
        <ele>805.10125732422</ele>
        <time>2020-07-07T18:41:50.128Z</time>
      </trkpt>
      <trkpt lat="45.86642" lon="2.872">
        <ele>805.94232177734</ele>
        <time>2020-07-07T18:41:56.615Z</time>
      </trkpt>
      <trkpt lat="45.86641" lon="2.87223">
        <ele>807.61364746094</ele>
        <time>2020-07-07T18:42:03.105Z</time>
      </trkpt>
      <trkpt lat="45.86642" lon="2.87247">
        <ele>809.33050537109</ele>
        <time>2020-07-07T18:42:09.598Z</time>
      </trkpt>
      <trkpt lat="45.86645" lon="2.87282">
        <ele>811.36999511719</ele>
        <time>2020-07-07T18:42:16.096Z</time>
      </trkpt>
      <trkpt lat="45.86648" lon="2.87323">
        <ele>813.39526367188</ele>
        <time>2020-07-07T18:42:22.600Z</time>
      </trkpt>
      <trkpt lat="45.86654" lon="2.87372">
        <ele>815.90045166016</ele>
        <time>2020-07-07T18:42:29.111Z</time>
      </trkpt>
      <trkpt lat="45.86657" lon="2.87411">
        <ele>817.82495117188</ele>
        <time>2020-07-07T18:42:35.627Z</time>
      </trkpt>
      <trkpt lat="45.8666" lon="2.87447">
        <ele>820.28735351562</ele>
        <time>2020-07-07T18:42:42.148Z</time>
      </trkpt>
      <trkpt lat="45.86667" lon="2.87476">
        <ele>821.27722167969</ele>
        <time>2020-07-07T18:42:48.674Z</time>
      </trkpt>
      <trkpt lat="45.86676" lon="2.87524">
        <ele>823.40490722656</ele>
        <time>2020-07-07T18:42:55.207Z</time>
      </trkpt>
      <trkpt lat="45.86684" lon="2.87562">
        <ele>825.19940185547</ele>
        <time>2020-07-07T18:43:01.745Z</time>
      </trkpt>
      <trkpt lat="45.86692" lon="2.87597">
        <ele>826.14483642578</ele>
        <time>2020-07-07T18:43:08.288Z</time>
      </trkpt>
      <trkpt lat="45.86693" lon="2.87666">
        <ele>825.56970214844</ele>
        <time>2020-07-07T18:43:14.841Z</time>
      </trkpt>
      <trkpt lat="45.86694" lon="2.87718">
        <ele>824.43292236328</ele>
        <time>2020-07-07T18:43:21.401Z</time>
      </trkpt>
      <trkpt lat="45.86696" lon="2.87752">
        <ele>824.19091796875</ele>
        <time>2020-07-07T18:43:27.966Z</time>
      </trkpt>
      <trkpt lat="45.86695" lon="2.87797">
        <ele>823.57904052734</ele>
        <time>2020-07-07T18:43:34.537Z</time>
      </trkpt>
      <trkpt lat="45.86697" lon="2.87816">
        <ele>823.62542724609</ele>
        <time>2020-07-07T18:43:41.111Z</time>
      </trkpt>
      <trkpt lat="45.86693" lon="2.87851">
        <ele>823.64892578125</ele>
        <time>2020-07-07T18:43:47.690Z</time>
      </trkpt>
      <trkpt lat="45.86692" lon="2.87882">
        <ele>824.2236328125</ele>
        <time>2020-07-07T18:43:54.273Z</time>
      </trkpt>
      <trkpt lat="45.8668" lon="2.87953">
        <ele>825.0126953125</ele>
        <time>2020-07-07T18:44:00.867Z</time>
      </trkpt>
      <trkpt lat="45.8668" lon="2.87953">
        <ele>825.01257324219</ele>
        <time>2020-07-07T18:44:07.461Z</time>
      </trkpt>
      <trkpt lat="45.8667" lon="2.87998">
        <ele>825.86059570312</ele>
        <time>2020-07-07T18:44:14.061Z</time>
      </trkpt>
      <trkpt lat="45.86651" lon="2.88038">
        <ele>824.65014648438</ele>
        <time>2020-07-07T18:44:20.668Z</time>
      </trkpt>
      <trkpt lat="45.8665" lon="2.88086">
        <ele>825.11566162109</ele>
        <time>2020-07-07T18:44:27.282Z</time>
      </trkpt>
      <trkpt lat="45.86657" lon="2.88142">
        <ele>825.69940185547</ele>
        <time>2020-07-07T18:44:33.903Z</time>
      </trkpt>
      <trkpt lat="45.86655" lon="2.88158">
        <ele>824.92193603516</ele>
        <time>2020-07-07T18:44:40.527Z</time>
      </trkpt>
      <trkpt lat="45.86626" lon="2.88216">
        <ele>820.58752441406</ele>
        <time>2020-07-07T18:44:47.161Z</time>
      </trkpt>
      <trkpt lat="45.86609" lon="2.88255">
        <ele>817.35522460938</ele>
        <time>2020-07-07T18:44:53.801Z</time>
      </trkpt>
      <trkpt lat="45.86587" lon="2.88236">
        <ele>814.77081298828</ele>
        <time>2020-07-07T18:45:00.446Z</time>
      </trkpt>
      <trkpt lat="45.8654" lon="2.88208">
        <ele>809.61328125</ele>
        <time>2020-07-07T18:45:07.102Z</time>
      </trkpt>
      <trkpt lat="45.86535" lon="2.88229">
        <ele>807.98516845703</ele>
        <time>2020-07-07T18:45:13.761Z</time>
      </trkpt>
      <trkpt lat="45.86539" lon="2.88275">
        <ele>806.68902587891</ele>
        <time>2020-07-07T18:45:20.426Z</time>
      </trkpt>
      <trkpt lat="45.86548" lon="2.88298">
        <ele>806.36383056641</ele>
        <time>2020-07-07T18:45:27.095Z</time>
      </trkpt>
      <trkpt lat="45.86562" lon="2.88322">
        <ele>806.8193359375</ele>
        <time>2020-07-07T18:45:33.768Z</time>
      </trkpt>
      <trkpt lat="45.86577" lon="2.88356">
        <ele>808.63543701172</ele>
        <time>2020-07-07T18:45:40.447Z</time>
      </trkpt>
      <trkpt lat="45.86578" lon="2.88392">
        <ele>808.14447021484</ele>
        <time>2020-07-07T18:45:47.131Z</time>
      </trkpt>
      <trkpt lat="45.8658" lon="2.88434">
        <ele>807.60095214844</ele>
        <time>2020-07-07T18:45:53.821Z</time>
      </trkpt>
      <trkpt lat="45.86569" lon="2.8848">
        <ele>804.20196533203</ele>
        <time>2020-07-07T18:46:00.517Z</time>
      </trkpt>
      <trkpt lat="45.86553" lon="2.8853">
        <ele>800.88531494141</ele>
        <time>2020-07-07T18:46:07.221Z</time>
      </trkpt>
      <trkpt lat="45.86526" lon="2.88551">
        <ele>797.87506103516</ele>
        <time>2020-07-07T18:46:13.931Z</time>
      </trkpt>
      <trkpt lat="45.86485" lon="2.88571">
        <ele>793.85290527344</ele>
        <time>2020-07-07T18:46:20.650Z</time>
      </trkpt>
      <trkpt lat="45.86442" lon="2.88597">
        <ele>789.56848144531</ele>
        <time>2020-07-07T18:46:27.378Z</time>
      </trkpt>
      <trkpt lat="45.86414" lon="2.88616">
        <ele>786.30944824219</ele>
        <time>2020-07-07T18:46:34.113Z</time>
      </trkpt>
      <trkpt lat="45.86394" lon="2.88654">
        <ele>784.46655273438</ele>
        <time>2020-07-07T18:46:40.854Z</time>
      </trkpt>
      <trkpt lat="45.8638" lon="2.88677">
        <ele>783.60900878906</ele>
        <time>2020-07-07T18:46:47.599Z</time>
      </trkpt>
      <trkpt lat="45.86338" lon="2.88714">
        <ele>782.05523681641</ele>
        <time>2020-07-07T18:46:54.354Z</time>
      </trkpt>
      <trkpt lat="45.86306" lon="2.88751">
        <ele>778.12170410156</ele>
        <time>2020-07-07T18:47:01.117Z</time>
      </trkpt>
      <trkpt lat="45.86216" lon="2.88856">
        <ele>768.20343017578</ele>
        <time>2020-07-07T18:47:07.904Z</time>
      </trkpt>
      <trkpt lat="45.86177" lon="2.88897">
        <ele>762.17083740234</ele>
        <time>2020-07-07T18:47:14.700Z</time>
      </trkpt>
      <trkpt lat="45.8613" lon="2.8896">
        <ele>756.12298583984</ele>
        <time>2020-07-07T18:47:21.509Z</time>
      </trkpt>
      <trkpt lat="45.86052" lon="2.88919">
        <ele>753.49237060547</ele>
        <time>2020-07-07T18:47:28.335Z</time>
      </trkpt>
      <trkpt lat="45.8599" lon="2.88934">
        <ele>760.14428710938</ele>
        <time>2020-07-07T18:47:35.174Z</time>
      </trkpt>
      <trkpt lat="45.85922" lon="2.88927">
        <ele>766.75091552734</ele>
        <time>2020-07-07T18:47:42.026Z</time>
      </trkpt>
      <trkpt lat="45.85878" lon="2.88964">
        <ele>771.68872070312</ele>
        <time>2020-07-07T18:47:48.888Z</time>
      </trkpt>
      <trkpt lat="45.85842" lon="2.89009">
        <ele>773.12579345703</ele>
        <time>2020-07-07T18:47:55.760Z</time>
      </trkpt>
      <trkpt lat="45.85792" lon="2.89039">
        <ele>776.43817138672</ele>
        <time>2020-07-07T18:48:02.643Z</time>
      </trkpt>
      <trkpt lat="45.85735" lon="2.89039">
        <ele>783.96612548828</ele>
        <time>2020-07-07T18:48:09.537Z</time>
      </trkpt>
      <trkpt lat="45.85686" lon="2.89065">
        <ele>786.20544433594</ele>
        <time>2020-07-07T18:48:16.442Z</time>
      </trkpt>
      <trkpt lat="45.85633" lon="2.89106">
        <ele>791.04565429688</ele>
        <time>2020-07-07T18:48:23.359Z</time>
      </trkpt>
      <trkpt lat="45.8554" lon="2.89166">
        <ele>793.31555175781</ele>
        <time>2020-07-07T18:48:30.296Z</time>
      </trkpt>
      <trkpt lat="45.85462" lon="2.892">
        <ele>797.39324951172</ele>
        <time>2020-07-07T18:48:37.249Z</time>
      </trkpt>
      <trkpt lat="45.85397" lon="2.89237">
        <ele>797.93890380859</ele>
        <time>2020-07-07T18:48:44.217Z</time>
      </trkpt>
      <trkpt lat="45.85256" lon="2.89233">
        <ele>803.1142578125</ele>
        <time>2020-07-07T18:48:51.213Z</time>
      </trkpt>
      <trkpt lat="45.85215" lon="2.89241">
        <ele>805.06085205078</ele>
        <time>2020-07-07T18:48:58.217Z</time>
      </trkpt>
      <trkpt lat="45.85136" lon="2.8927">
        <ele>809.46826171875</ele>
        <time>2020-07-07T18:49:05.237Z</time>
      </trkpt>
      <trkpt lat="45.85097" lon="2.89308">
        <ele>812.00378417969</ele>
        <time>2020-07-07T18:49:12.267Z</time>
      </trkpt>
      <trkpt lat="45.85053" lon="2.89349">
        <ele>812.95635986328</ele>
        <time>2020-07-07T18:49:19.307Z</time>
      </trkpt>
      <trkpt lat="45.8504" lon="2.89319">
        <ele>813.75268554688</ele>
        <time>2020-07-07T18:49:26.352Z</time>
      </trkpt>
      <trkpt lat="45.84967" lon="2.8936">
        <ele>814.64080810547</ele>
        <time>2020-07-07T18:49:33.413Z</time>
      </trkpt>
      <trkpt lat="45.84918" lon="2.89375">
        <ele>815.54895019531</ele>
        <time>2020-07-07T18:49:40.484Z</time>
      </trkpt>
      <trkpt lat="45.84887" lon="2.89386">
        <ele>816.41815185547</ele>
        <time>2020-07-07T18:49:47.561Z</time>
      </trkpt>
      <trkpt lat="45.84883" lon="2.8942">
        <ele>815.96343994141</ele>
        <time>2020-07-07T18:49:54.643Z</time>
      </trkpt>
      <trkpt lat="45.84873" lon="2.89472">
        <ele>815.21832275391</ele>
        <time>2020-07-07T18:50:01.733Z</time>
      </trkpt>
      <trkpt lat="45.84857" lon="2.89507">
        <ele>814.60748291016</ele>
        <time>2020-07-07T18:50:08.828Z</time>
      </trkpt>
      <trkpt lat="45.84846" lon="2.89567">
        <ele>813.02380371094</ele>
        <time>2020-07-07T18:50:15.932Z</time>
      </trkpt>
      <trkpt lat="45.8483" lon="2.89616">
        <ele>811.60784912109</ele>
        <time>2020-07-07T18:50:23.044Z</time>
      </trkpt>
      <trkpt lat="45.84825" lon="2.89657">
        <ele>809.46740722656</ele>
        <time>2020-07-07T18:50:30.162Z</time>
      </trkpt>
      <trkpt lat="45.8483" lon="2.89704">
        <ele>808.87316894531</ele>
        <time>2020-07-07T18:50:37.286Z</time>
      </trkpt>
      <trkpt lat="45.84834" lon="2.89746">
        <ele>808.99554443359</ele>
        <time>2020-07-07T18:50:44.416Z</time>
      </trkpt>
      <trkpt lat="45.84836" lon="2.89758">
        <ele>809.17730712891</ele>
        <time>2020-07-07T18:50:51.548Z</time>
      </trkpt>
      <trkpt lat="45.84808" lon="2.89773">
        <ele>809.21826171875</ele>
        <time>2020-07-07T18:50:58.686Z</time>
      </trkpt>
      <trkpt lat="45.84764" lon="2.89795">
        <ele>809.25616455078</ele>
        <time>2020-07-07T18:51:05.833Z</time>
      </trkpt>
      <trkpt lat="45.84743" lon="2.89817">
        <ele>809.63690185547</ele>
        <time>2020-07-07T18:51:12.985Z</time>
      </trkpt>
      <trkpt lat="45.84723" lon="2.8986">
        <ele>811.71893310547</ele>
        <time>2020-07-07T18:51:20.145Z</time>
      </trkpt>
      <trkpt lat="45.84714" lon="2.89878">
        <ele>813.05548095703</ele>
        <time>2020-07-07T18:51:27.308Z</time>
      </trkpt>
      <trkpt lat="45.84702" lon="2.89893">
        <ele>814.17730712891</ele>
        <time>2020-07-07T18:51:34.474Z</time>
      </trkpt>
      <trkpt lat="45.84687" lon="2.89912">
        <ele>817.06341552734</ele>
        <time>2020-07-07T18:51:41.644Z</time>
      </trkpt>
      <trkpt lat="45.84674" lon="2.89929">
        <ele>819.4443359375</ele>
        <time>2020-07-07T18:51:48.817Z</time>
      </trkpt>
      <trkpt lat="45.84677" lon="2.89955">
        <ele>819.94348144531</ele>
        <time>2020-07-07T18:51:55.994Z</time>
      </trkpt>
      <trkpt lat="45.84678" lon="2.89979">
        <ele>820.87506103516</ele>
        <time>2020-07-07T18:52:03.174Z</time>
      </trkpt>
      <trkpt lat="45.84674" lon="2.90004">
        <ele>822.40838623047</ele>
        <time>2020-07-07T18:52:10.358Z</time>
      </trkpt>
      <trkpt lat="45.84663" lon="2.90028">
        <ele>824.04339599609</ele>
        <time>2020-07-07T18:52:17.546Z</time>
      </trkpt>
      <trkpt lat="45.84653" lon="2.90049">
        <ele>824.14892578125</ele>
        <time>2020-07-07T18:52:24.738Z</time>
      </trkpt>
      <trkpt lat="45.84645" lon="2.9007">
        <ele>824.10217285156</ele>
        <time>2020-07-07T18:52:31.933Z</time>
      </trkpt>
      <trkpt lat="45.84649" lon="2.9009">
        <ele>823.77459716797</ele>
        <time>2020-07-07T18:52:39.131Z</time>
      </trkpt>
      <trkpt lat="45.84607" lon="2.90117">
        <ele>826.19989013672</ele>
        <time>2020-07-07T18:52:46.338Z</time>
      </trkpt>
      <trkpt lat="45.84584" lon="2.90137">
        <ele>827.55822753906</ele>
        <time>2020-07-07T18:52:53.550Z</time>
      </trkpt>
      <trkpt lat="45.84561" lon="2.90152">
        <ele>828.54571533203</ele>
        <time>2020-07-07T18:53:00.767Z</time>
      </trkpt>
      <trkpt lat="45.8457" lon="2.90184">
        <ele>828.86804199219</ele>
        <time>2020-07-07T18:53:07.989Z</time>
      </trkpt>
      <trkpt lat="45.84583" lon="2.90229">
        <ele>829.34112548828</ele>
        <time>2020-07-07T18:53:15.218Z</time>
      </trkpt>
      <trkpt lat="45.84595" lon="2.90266">
        <ele>830.1982421875</ele>
        <time>2020-07-07T18:53:22.453Z</time>
      </trkpt>
      <trkpt lat="45.84606" lon="2.90297">
        <ele>832.26666259766</ele>
        <time>2020-07-07T18:53:29.692Z</time>
      </trkpt>
      <trkpt lat="45.8462" lon="2.90329">
        <ele>834.60955810547</ele>
        <time>2020-07-07T18:53:36.937Z</time>
      </trkpt>
      <trkpt lat="45.84625" lon="2.90352">
        <ele>835.95336914062</ele>
        <time>2020-07-07T18:53:44.185Z</time>
      </trkpt>
      <trkpt lat="45.84632" lon="2.90384">
        <ele>836.82440185547</ele>
        <time>2020-07-07T18:53:51.438Z</time>
      </trkpt>
      <trkpt lat="45.84633" lon="2.90412">
        <ele>837.82147216797</ele>
        <time>2020-07-07T18:53:58.695Z</time>
      </trkpt>
      <trkpt lat="45.84637" lon="2.9046">
        <ele>839.89282226562</ele>
        <time>2020-07-07T18:54:05.958Z</time>
      </trkpt>
      <trkpt lat="45.8464" lon="2.90497">
        <ele>841.51794433594</ele>
        <time>2020-07-07T18:54:13.227Z</time>
      </trkpt>
      <trkpt lat="45.84633" lon="2.90535">
        <ele>843.52465820312</ele>
        <time>2020-07-07T18:54:20.501Z</time>
      </trkpt>
      <trkpt lat="45.84625" lon="2.90566">
        <ele>845.21398925781</ele>
        <time>2020-07-07T18:54:27.780Z</time>
      </trkpt>
      <trkpt lat="45.84618" lon="2.90597">
        <ele>846.24829101562</ele>
        <time>2020-07-07T18:54:35.063Z</time>
      </trkpt>
      <trkpt lat="45.84615" lon="2.90619">
        <ele>847.04016113281</ele>
        <time>2020-07-07T18:54:42.349Z</time>
      </trkpt>
      <trkpt lat="45.84619" lon="2.90648">
        <ele>848.08038330078</ele>
        <time>2020-07-07T18:54:49.640Z</time>
      </trkpt>
      <trkpt lat="45.84628" lon="2.90682">
        <ele>849.6298828125</ele>
        <time>2020-07-07T18:54:56.936Z</time>
      </trkpt>
      <trkpt lat="45.84628" lon="2.90698">
        <ele>850.59576416016</ele>
        <time>2020-07-07T18:55:04.234Z</time>
      </trkpt>
      <trkpt lat="45.84624" lon="2.90721">
        <ele>852.05590820312</ele>
        <time>2020-07-07T18:55:11.535Z</time>
      </trkpt>
      <trkpt lat="45.8462" lon="2.90747">
        <ele>853.30303955078</ele>
        <time>2020-07-07T18:55:18.840Z</time>
      </trkpt>
      <trkpt lat="45.84618" lon="2.90772">
        <ele>854.03735351562</ele>
        <time>2020-07-07T18:55:26.148Z</time>
      </trkpt>
      <trkpt lat="45.84624" lon="2.90809">
        <ele>855.53472900391</ele>
        <time>2020-07-07T18:55:33.462Z</time>
      </trkpt>
      <trkpt lat="45.84637" lon="2.90859">
        <ele>857.13635253906</ele>
        <time>2020-07-07T18:55:40.783Z</time>
      </trkpt>
      <trkpt lat="45.84646" lon="2.90882">
        <ele>858.03332519531</ele>
        <time>2020-07-07T18:55:48.108Z</time>
      </trkpt>
      <trkpt lat="45.84643" lon="2.90926">
        <ele>858.40777587891</ele>
        <time>2020-07-07T18:55:55.439Z</time>
      </trkpt>
      <trkpt lat="45.84641" lon="2.90983">
        <ele>858.85583496094</ele>
        <time>2020-07-07T18:56:02.778Z</time>
      </trkpt>
      <trkpt lat="45.84638" lon="2.91019">
        <ele>859.08544921875</ele>
        <time>2020-07-07T18:56:10.122Z</time>
      </trkpt>
      <trkpt lat="45.84634" lon="2.91055">
        <ele>859.39019775391</ele>
        <time>2020-07-07T18:56:17.471Z</time>
      </trkpt>
      <trkpt lat="45.84631" lon="2.9107">
        <ele>859.45617675781</ele>
        <time>2020-07-07T18:56:24.822Z</time>
      </trkpt>
      <trkpt lat="45.84627" lon="2.91089">
        <ele>859.54614257812</ele>
        <time>2020-07-07T18:56:32.176Z</time>
      </trkpt>
      <trkpt lat="45.84621" lon="2.91109">
        <ele>859.79827880859</ele>
        <time>2020-07-07T18:56:39.533Z</time>
      </trkpt>
      <trkpt lat="45.84611" lon="2.91146">
        <ele>860.33337402344</ele>
        <time>2020-07-07T18:56:46.896Z</time>
      </trkpt>
      <trkpt lat="45.84601" lon="2.91182">
        <ele>860.58038330078</ele>
        <time>2020-07-07T18:56:54.264Z</time>
      </trkpt>
      <trkpt lat="45.84595" lon="2.91211">
        <ele>861.64581298828</ele>
        <time>2020-07-07T18:57:01.636Z</time>
      </trkpt>
      <trkpt lat="45.8459" lon="2.91228">
        <ele>862.279296875</ele>
        <time>2020-07-07T18:57:09.011Z</time>
      </trkpt>
      <trkpt lat="45.84586" lon="2.9126">
        <ele>863.74884033203</ele>
        <time>2020-07-07T18:57:16.390Z</time>
      </trkpt>
      <trkpt lat="45.84583" lon="2.91298">
        <ele>866.56018066406</ele>
        <time>2020-07-07T18:57:23.775Z</time>
      </trkpt>
      <trkpt lat="45.8458" lon="2.91319">
        <ele>867.31365966797</ele>
        <time>2020-07-07T18:57:31.163Z</time>
      </trkpt>
      <trkpt lat="45.84572" lon="2.91333">
        <ele>867.18890380859</ele>
        <time>2020-07-07T18:57:38.553Z</time>
      </trkpt>
      <trkpt lat="45.84563" lon="2.91344">
        <ele>866.94860839844</ele>
        <time>2020-07-07T18:57:45.946Z</time>
      </trkpt>
      <trkpt lat="45.84554" lon="2.9135">
        <ele>866.41058349609</ele>
        <time>2020-07-07T18:57:53.341Z</time>
      </trkpt>
      <trkpt lat="45.84542" lon="2.9136">
        <ele>867.0380859375</ele>
        <time>2020-07-07T18:58:00.738Z</time>
      </trkpt>
      <trkpt lat="45.84533" lon="2.91375">
        <ele>867.79150390625</ele>
        <time>2020-07-07T18:58:08.138Z</time>
      </trkpt>
      <trkpt lat="45.84521" lon="2.91393">
        <ele>868.63317871094</ele>
        <time>2020-07-07T18:58:15.542Z</time>
      </trkpt>
      <trkpt lat="45.84509" lon="2.91422">
        <ele>868.98114013672</ele>
        <time>2020-07-07T18:58:22.950Z</time>
      </trkpt>
      <trkpt lat="45.84501" lon="2.91448">
        <ele>869.59332275391</ele>
        <time>2020-07-07T18:58:30.362Z</time>
      </trkpt>
      <trkpt lat="45.84489" lon="2.9149">
        <ele>869.98468017578</ele>
        <time>2020-07-07T18:58:37.781Z</time>
      </trkpt>
      <trkpt lat="45.8448" lon="2.91521">
        <ele>870.24609375</ele>
        <time>2020-07-07T18:58:45.204Z</time>
      </trkpt>
      <trkpt lat="45.84466" lon="2.91566">
        <ele>871.19616699219</ele>
        <time>2020-07-07T18:58:52.634Z</time>
      </trkpt>
      <trkpt lat="45.84455" lon="2.91601">
        <ele>872.5341796875</ele>
        <time>2020-07-07T18:59:00.070Z</time>
      </trkpt>
      <trkpt lat="45.84445" lon="2.91628">
        <ele>875.02496337891</ele>
        <time>2020-07-07T18:59:07.510Z</time>
      </trkpt>
      <trkpt lat="45.84436" lon="2.91651">
        <ele>876.04766845703</ele>
        <time>2020-07-07T18:59:14.954Z</time>
      </trkpt>
      <trkpt lat="45.8443" lon="2.9167">
        <ele>875.80529785156</ele>
        <time>2020-07-07T18:59:22.401Z</time>
      </trkpt>
      <trkpt lat="45.84425" lon="2.91698">
        <ele>875.55474853516</ele>
        <time>2020-07-07T18:59:29.852Z</time>
      </trkpt>
      <trkpt lat="45.84418" lon="2.91727">
        <ele>875.38305664062</ele>
        <time>2020-07-07T18:59:37.307Z</time>
      </trkpt>
      <trkpt lat="45.84413" lon="2.91749">
        <ele>875.35064697266</ele>
        <time>2020-07-07T18:59:44.765Z</time>
      </trkpt>
      <trkpt lat="45.84404" lon="2.91765">
        <ele>874.65148925781</ele>
        <time>2020-07-07T18:59:52.226Z</time>
      </trkpt>
      <trkpt lat="45.84399" lon="2.91777">
        <ele>873.97552490234</ele>
        <time>2020-07-07T18:59:59.689Z</time>
      </trkpt>
      <trkpt lat="45.84393" lon="2.91821">
        <ele>872.67370605469</ele>
        <time>2020-07-07T19:00:07.158Z</time>
      </trkpt>
      <trkpt lat="45.84386" lon="2.91864">
        <ele>871.46331787109</ele>
        <time>2020-07-07T19:00:14.633Z</time>
      </trkpt>
      <trkpt lat="45.84377" lon="2.91915">
        <ele>870.27239990234</ele>
        <time>2020-07-07T19:00:22.116Z</time>
      </trkpt>
      <trkpt lat="45.84373" lon="2.91949">
        <ele>870.29864501953</ele>
        <time>2020-07-07T19:00:29.604Z</time>
      </trkpt>
      <trkpt lat="45.84369" lon="2.91964">
        <ele>870.03588867188</ele>
        <time>2020-07-07T19:00:37.094Z</time>
      </trkpt>
      <trkpt lat="45.84361" lon="2.91998">
        <ele>869.89318847656</ele>
        <time>2020-07-07T19:00:44.589Z</time>
      </trkpt>
      <trkpt lat="45.84351" lon="2.92041">
        <ele>870</ele>
        <time>2020-07-07T19:00:52.090Z</time>
      </trkpt>
      <trkpt lat="45.84341" lon="2.92087">
        <ele>871.08111572266</ele>
        <time>2020-07-07T19:00:59.598Z</time>
      </trkpt>
      <trkpt lat="45.84337" lon="2.921">
        <ele>871.46502685547</ele>
        <time>2020-07-07T19:01:07.108Z</time>
      </trkpt>
      <trkpt lat="45.84336" lon="2.92134">
        <ele>872.32171630859</ele>
        <time>2020-07-07T19:01:14.623Z</time>
      </trkpt>
      <trkpt lat="45.84333" lon="2.92183">
        <ele>873.58148193359</ele>
        <time>2020-07-07T19:01:22.145Z</time>
      </trkpt>
      <trkpt lat="45.84333" lon="2.92207">
        <ele>874.14782714844</ele>
        <time>2020-07-07T19:01:29.670Z</time>
      </trkpt>
      <trkpt lat="45.84326" lon="2.92246">
        <ele>875.24920654297</ele>
        <time>2020-07-07T19:01:37.200Z</time>
      </trkpt>
      <trkpt lat="45.84319" lon="2.92295">
        <ele>876.44732666016</ele>
        <time>2020-07-07T19:01:44.737Z</time>
      </trkpt>
      <trkpt lat="45.84312" lon="2.92326">
        <ele>877.43475341797</ele>
        <time>2020-07-07T19:01:52.279Z</time>
      </trkpt>
      <trkpt lat="45.84308" lon="2.92357">
        <ele>877.91162109375</ele>
        <time>2020-07-07T19:01:59.825Z</time>
      </trkpt>
      <trkpt lat="45.84304" lon="2.92382">
        <ele>877.97290039062</ele>
        <time>2020-07-07T19:02:07.375Z</time>
      </trkpt>
      <trkpt lat="45.84302" lon="2.92413">
        <ele>877.95489501953</ele>
        <time>2020-07-07T19:02:14.929Z</time>
      </trkpt>
      <trkpt lat="45.84303" lon="2.92445">
        <ele>877.50189208984</ele>
        <time>2020-07-07T19:02:22.488Z</time>
      </trkpt>
      <trkpt lat="45.84305" lon="2.92475">
        <ele>876.76995849609</ele>
        <time>2020-07-07T19:02:30.051Z</time>
      </trkpt>
      <trkpt lat="45.84306" lon="2.92498">
        <ele>876.22717285156</ele>
        <time>2020-07-07T19:02:37.617Z</time>
      </trkpt>
      <trkpt lat="45.84299" lon="2.92526">
        <ele>876.16217041016</ele>
        <time>2020-07-07T19:02:45.187Z</time>
      </trkpt>
      <trkpt lat="45.84289" lon="2.92549">
        <ele>876.41174316406</ele>
        <time>2020-07-07T19:02:52.761Z</time>
      </trkpt>
      <trkpt lat="45.84277" lon="2.92565">
        <ele>876.60552978516</ele>
        <time>2020-07-07T19:03:00.338Z</time>
      </trkpt>
      <trkpt lat="45.84257" lon="2.92599">
        <ele>876</ele>
        <time>2020-07-07T19:03:07.922Z</time>
      </trkpt>
      <trkpt lat="45.84242" lon="2.92622">
        <ele>876.13891601562</ele>
        <time>2020-07-07T19:03:15.510Z</time>
      </trkpt>
      <trkpt lat="45.84221" lon="2.9266">
        <ele>876.82983398438</ele>
        <time>2020-07-07T19:03:23.105Z</time>
      </trkpt>
      <trkpt lat="45.84203" lon="2.92688">
        <ele>877.63037109375</ele>
        <time>2020-07-07T19:03:30.705Z</time>
      </trkpt>
      <trkpt lat="45.84181" lon="2.92721">
        <ele>878.61639404297</ele>
        <time>2020-07-07T19:03:38.311Z</time>
      </trkpt>
      <trkpt lat="45.84168" lon="2.92742">
        <ele>879.59301757812</ele>
        <time>2020-07-07T19:03:45.921Z</time>
      </trkpt>
      <trkpt lat="45.84155" lon="2.92758">
        <ele>880.47467041016</ele>
        <time>2020-07-07T19:03:53.535Z</time>
      </trkpt>
      <trkpt lat="45.84131" lon="2.92768">
        <ele>881.58355712891</ele>
        <time>2020-07-07T19:04:01.154Z</time>
      </trkpt>
      <trkpt lat="45.84113" lon="2.92774">
        <ele>882.22784423828</ele>
        <time>2020-07-07T19:04:08.777Z</time>
      </trkpt>
      <trkpt lat="45.84111" lon="2.92793">
        <ele>882.97894287109</ele>
        <time>2020-07-07T19:04:16.402Z</time>
      </trkpt>
      <trkpt lat="45.84106" lon="2.92814">
        <ele>883.75537109375</ele>
        <time>2020-07-07T19:04:24.030Z</time>
      </trkpt>
      <trkpt lat="45.84104" lon="2.9283">
        <ele>884.17407226562</ele>
        <time>2020-07-07T19:04:31.661Z</time>
      </trkpt>
      <trkpt lat="45.84106" lon="2.92853">
        <ele>885.31860351562</ele>
        <time>2020-07-07T19:04:39.295Z</time>
      </trkpt>
      <trkpt lat="45.84106" lon="2.92881">
        <ele>887.31866455078</ele>
        <time>2020-07-07T19:04:46.933Z</time>
      </trkpt>
      <trkpt lat="45.84114" lon="2.92902">
        <ele>888.73370361328</ele>
        <time>2020-07-07T19:04:54.574Z</time>
      </trkpt>
      <trkpt lat="45.84119" lon="2.92924">
        <ele>890.49114990234</ele>
        <time>2020-07-07T19:05:02.218Z</time>
      </trkpt>
      <trkpt lat="45.84127" lon="2.92944">
        <ele>892.26202392578</ele>
        <time>2020-07-07T19:05:09.866Z</time>
      </trkpt>
      <trkpt lat="45.84132" lon="2.92969">
        <ele>894.52484130859</ele>
        <time>2020-07-07T19:05:17.517Z</time>
      </trkpt>
      <trkpt lat="45.84135" lon="2.92978">
        <ele>895.25915527344</ele>
        <time>2020-07-07T19:05:25.170Z</time>
      </trkpt>
      <trkpt lat="45.84151" lon="2.92984">
        <ele>895.92993164062</ele>
        <time>2020-07-07T19:05:32.826Z</time>
      </trkpt>
      <trkpt lat="45.84155" lon="2.92996">
        <ele>897.10693359375</ele>
        <time>2020-07-07T19:05:40.484Z</time>
      </trkpt>
      <trkpt lat="45.84165" lon="2.93011">
        <ele>898.68225097656</ele>
        <time>2020-07-07T19:05:48.145Z</time>
      </trkpt>
      <trkpt lat="45.84173" lon="2.93017">
        <ele>899.33734130859</ele>
        <time>2020-07-07T19:05:55.807Z</time>
      </trkpt>
      <trkpt lat="45.84183" lon="2.93031">
        <ele>900.84069824219</ele>
        <time>2020-07-07T19:06:03.472Z</time>
      </trkpt>
      <trkpt lat="45.84195" lon="2.93057">
        <ele>903.46105957031</ele>
        <time>2020-07-07T19:06:11.142Z</time>
      </trkpt>
      <trkpt lat="45.84204" lon="2.93078">
        <ele>905.46002197266</ele>
        <time>2020-07-07T19:06:18.815Z</time>
      </trkpt>
      <trkpt lat="45.84211" lon="2.93096">
        <ele>907.15893554688</ele>
        <time>2020-07-07T19:06:26.491Z</time>
      </trkpt>
      <trkpt lat="45.84218" lon="2.93117">
        <ele>909.13500976562</ele>
        <time>2020-07-07T19:06:34.170Z</time>
      </trkpt>
      <trkpt lat="45.84228" lon="2.93144">
        <ele>911.27612304688</ele>
        <time>2020-07-07T19:06:41.853Z</time>
      </trkpt>
      <trkpt lat="45.84238" lon="2.93176">
        <ele>913.57092285156</ele>
        <time>2020-07-07T19:06:49.541Z</time>
      </trkpt>
      <trkpt lat="45.84246" lon="2.932">
        <ele>915.00347900391</ele>
        <time>2020-07-07T19:06:57.233Z</time>
      </trkpt>
      <trkpt lat="45.84255" lon="2.93226">
        <ele>916.53326416016</ele>
        <time>2020-07-07T19:07:04.929Z</time>
      </trkpt>
      <trkpt lat="45.8427" lon="2.93273">
        <ele>919.97741699219</ele>
        <time>2020-07-07T19:07:12.632Z</time>
      </trkpt>
      <trkpt lat="45.84278" lon="2.93294">
        <ele>922.00384521484</ele>
        <time>2020-07-07T19:07:20.339Z</time>
      </trkpt>
      <trkpt lat="45.84285" lon="2.93318">
        <ele>924.30749511719</ele>
        <time>2020-07-07T19:07:28.049Z</time>
      </trkpt>
      <trkpt lat="45.84291" lon="2.93337">
        <ele>925.61773681641</ele>
        <time>2020-07-07T19:07:35.762Z</time>
      </trkpt>
      <trkpt lat="45.84299" lon="2.93363">
        <ele>927.25549316406</ele>
        <time>2020-07-07T19:07:43.479Z</time>
      </trkpt>
      <trkpt lat="45.84304" lon="2.93401">
        <ele>929.59747314453</ele>
        <time>2020-07-07T19:07:51.202Z</time>
      </trkpt>
      <trkpt lat="45.84316" lon="2.93461">
        <ele>931.75280761719</ele>
        <time>2020-07-07T19:07:58.933Z</time>
      </trkpt>
      <trkpt lat="45.84322" lon="2.9349">
        <ele>932.38146972656</ele>
        <time>2020-07-07T19:08:06.668Z</time>
      </trkpt>
      <trkpt lat="45.84325" lon="2.93518">
        <ele>932.9052734375</ele>
        <time>2020-07-07T19:08:14.408Z</time>
      </trkpt>
      <trkpt lat="45.8433" lon="2.93557">
        <ele>933.60955810547</ele>
        <time>2020-07-07T19:08:22.153Z</time>
      </trkpt>
      <trkpt lat="45.8433" lon="2.93584">
        <ele>934.25506591797</ele>
        <time>2020-07-07T19:08:29.902Z</time>
      </trkpt>
      <trkpt lat="45.84328" lon="2.93628">
        <ele>935.44750976562</ele>
        <time>2020-07-07T19:08:37.657Z</time>
      </trkpt>
      <trkpt lat="45.84329" lon="2.93668">
        <ele>935.923828125</ele>
        <time>2020-07-07T19:08:45.418Z</time>
      </trkpt>
      <trkpt lat="45.84327" lon="2.93678">
        <ele>936.22497558594</ele>
        <time>2020-07-07T19:08:53.180Z</time>
      </trkpt>
      <trkpt lat="45.8433" lon="2.93702">
        <ele>937.63708496094</ele>
        <time>2020-07-07T19:09:00.945Z</time>
      </trkpt>
      <trkpt lat="45.84335" lon="2.93722">
        <ele>938.67486572266</ele>
        <time>2020-07-07T19:09:08.713Z</time>
      </trkpt>
      <trkpt lat="45.84343" lon="2.93746">
        <ele>939.90106201172</ele>
        <time>2020-07-07T19:09:16.485Z</time>
      </trkpt>
      <trkpt lat="45.84353" lon="2.9378">
        <ele>942.21795654297</ele>
        <time>2020-07-07T19:09:24.262Z</time>
      </trkpt>
      <trkpt lat="45.84359" lon="2.93818">
        <ele>944.93237304688</ele>
        <time>2020-07-07T19:09:32.045Z</time>
      </trkpt>
      <trkpt lat="45.84367" lon="2.93855">
        <ele>946.47912597656</ele>
        <time>2020-07-07T19:09:39.833Z</time>
      </trkpt>
      <trkpt lat="45.84373" lon="2.93883">
        <ele>946.60632324219</ele>
        <time>2020-07-07T19:09:47.625Z</time>
      </trkpt>
      <trkpt lat="45.84377" lon="2.93906">
        <ele>946.7119140625</ele>
        <time>2020-07-07T19:09:55.421Z</time>
      </trkpt>
      <trkpt lat="45.84381" lon="2.9393">
        <ele>947.07690429688</ele>
        <time>2020-07-07T19:10:03.220Z</time>
      </trkpt>
      <trkpt lat="45.84387" lon="2.9395">
        <ele>947.30847167969</ele>
        <time>2020-07-07T19:10:11.022Z</time>
      </trkpt>
      <trkpt lat="45.84393" lon="2.93974">
        <ele>947.65393066406</ele>
        <time>2020-07-07T19:10:18.828Z</time>
      </trkpt>
      <trkpt lat="45.84403" lon="2.94003">
        <ele>948.10748291016</ele>
        <time>2020-07-07T19:10:26.638Z</time>
      </trkpt>
      <trkpt lat="45.84413" lon="2.94044">
        <ele>948.57336425781</ele>
        <time>2020-07-07T19:10:34.454Z</time>
      </trkpt>
      <trkpt lat="45.84424" lon="2.94086">
        <ele>948.83489990234</ele>
        <time>2020-07-07T19:10:42.276Z</time>
      </trkpt>
      <trkpt lat="45.84435" lon="2.94134">
        <ele>950.140625</ele>
        <time>2020-07-07T19:10:50.106Z</time>
      </trkpt>
      <trkpt lat="45.84441" lon="2.94171">
        <ele>950.17712402344</ele>
        <time>2020-07-07T19:10:57.941Z</time>
      </trkpt>
      <trkpt lat="45.8445" lon="2.94204">
        <ele>950.62902832031</ele>
        <time>2020-07-07T19:11:05.781Z</time>
      </trkpt>
      <trkpt lat="45.84459" lon="2.94243">
        <ele>951.1689453125</ele>
        <time>2020-07-07T19:11:13.626Z</time>
      </trkpt>
      <trkpt lat="45.84468" lon="2.94276">
        <ele>952.05352783203</ele>
        <time>2020-07-07T19:11:21.476Z</time>
      </trkpt>
      <trkpt lat="45.84471" lon="2.94313">
        <ele>952.6162109375</ele>
        <time>2020-07-07T19:11:29.332Z</time>
      </trkpt>
      <trkpt lat="45.84475" lon="2.94342">
        <ele>953.39849853516</ele>
        <time>2020-07-07T19:11:37.192Z</time>
      </trkpt>
      <trkpt lat="45.84479" lon="2.94371">
        <ele>954.57366943359</ele>
        <time>2020-07-07T19:11:45.056Z</time>
      </trkpt>
      <trkpt lat="45.84479" lon="2.9439">
        <ele>955.02239990234</ele>
        <time>2020-07-07T19:11:52.923Z</time>
      </trkpt>
      <trkpt lat="45.84476" lon="2.94415">
        <ele>955.23358154297</ele>
        <time>2020-07-07T19:12:00.793Z</time>
      </trkpt>
      <trkpt lat="45.84484" lon="2.9445">
        <ele>956.58471679688</ele>
        <time>2020-07-07T19:12:08.668Z</time>
      </trkpt>
      <trkpt lat="45.84488" lon="2.94472">
        <ele>957.44378662109</ele>
        <time>2020-07-07T19:12:16.546Z</time>
      </trkpt>
      <trkpt lat="45.8449" lon="2.94509">
        <ele>958.40942382812</ele>
        <time>2020-07-07T19:12:24.430Z</time>
      </trkpt>
      <trkpt lat="45.84495" lon="2.94545">
        <ele>958.32257080078</ele>
        <time>2020-07-07T19:12:32.319Z</time>
      </trkpt>
      <trkpt lat="45.84497" lon="2.94567">
        <ele>958.45458984375</ele>
        <time>2020-07-07T19:12:40.211Z</time>
      </trkpt>
      <trkpt lat="45.84496" lon="2.94585">
        <ele>958.38861083984</ele>
        <time>2020-07-07T19:12:48.105Z</time>
      </trkpt>
      <trkpt lat="45.84498" lon="2.94603">
        <ele>958.50256347656</ele>
        <time>2020-07-07T19:12:56.002Z</time>
      </trkpt>
      <trkpt lat="45.84498" lon="2.94618">
        <ele>958.54455566406</ele>
        <time>2020-07-07T19:13:03.901Z</time>
      </trkpt>
      <trkpt lat="45.84501" lon="2.94642">
        <ele>958.72454833984</ele>
        <time>2020-07-07T19:13:11.803Z</time>
      </trkpt>
      <trkpt lat="45.84501" lon="2.94658">
        <ele>958.72454833984</ele>
        <time>2020-07-07T19:13:19.708Z</time>
      </trkpt>
      <trkpt lat="45.84501" lon="2.94681">
        <ele>958.72454833984</ele>
        <time>2020-07-07T19:13:27.616Z</time>
      </trkpt>
      <trkpt lat="45.84499" lon="2.947">
        <ele>958.59252929688</ele>
        <time>2020-07-07T19:13:35.527Z</time>
      </trkpt>
      <trkpt lat="45.845" lon="2.94721">
        <ele>959.10815429688</ele>
        <time>2020-07-07T19:13:43.441Z</time>
      </trkpt>
      <trkpt lat="45.84501" lon="2.94743">
        <ele>959.67565917969</ele>
        <time>2020-07-07T19:13:51.358Z</time>
      </trkpt>
      <trkpt lat="45.845" lon="2.94758">
        <ele>960.03424072266</ele>
        <time>2020-07-07T19:13:59.277Z</time>
      </trkpt>
      <trkpt lat="45.84502" lon="2.94774">
        <ele>961.45477294922</ele>
        <time>2020-07-07T19:14:07.198Z</time>
      </trkpt>
      <trkpt lat="45.84504" lon="2.9479">
        <ele>962.84436035156</ele>
        <time>2020-07-07T19:14:15.121Z</time>
      </trkpt>
      <trkpt lat="45.84515" lon="2.94826">
        <ele>965.669921875</ele>
        <time>2020-07-07T19:14:23.050Z</time>
      </trkpt>
      <trkpt lat="45.84518" lon="2.94842">
        <ele>966.80383300781</ele>
        <time>2020-07-07T19:14:30.981Z</time>
      </trkpt>
      <trkpt lat="45.84523" lon="2.94854">
        <ele>967.69293212891</ele>
        <time>2020-07-07T19:14:38.914Z</time>
      </trkpt>
      <trkpt lat="45.84529" lon="2.94864">
        <ele>968.48956298828</ele>
        <time>2020-07-07T19:14:46.849Z</time>
      </trkpt>
      <trkpt lat="45.84534" lon="2.94872">
        <ele>969.21423339844</ele>
        <time>2020-07-07T19:14:54.785Z</time>
      </trkpt>
      <trkpt lat="45.84541" lon="2.94889">
        <ele>970.41284179688</ele>
        <time>2020-07-07T19:15:02.724Z</time>
      </trkpt>
      <trkpt lat="45.84546" lon="2.94906">
        <ele>971.55029296875</ele>
        <time>2020-07-07T19:15:10.666Z</time>
      </trkpt>
      <trkpt lat="45.84555" lon="2.94927">
        <ele>972.94549560547</ele>
        <time>2020-07-07T19:15:18.611Z</time>
      </trkpt>
      <trkpt lat="45.84563" lon="2.9494">
        <ele>973.78051757812</ele>
        <time>2020-07-07T19:15:26.558Z</time>
      </trkpt>
      <trkpt lat="45.84573" lon="2.94957">
        <ele>975.08709716797</ele>
        <time>2020-07-07T19:15:34.509Z</time>
      </trkpt>
      <trkpt lat="45.84581" lon="2.9499">
        <ele>975.86218261719</ele>
        <time>2020-07-07T19:15:42.465Z</time>
      </trkpt>
      <trkpt lat="45.84593" lon="2.95025">
        <ele>978.22430419922</ele>
        <time>2020-07-07T19:15:50.426Z</time>
      </trkpt>
      <trkpt lat="45.84601" lon="2.95047">
        <ele>980.33117675781</ele>
        <time>2020-07-07T19:15:58.390Z</time>
      </trkpt>
      <trkpt lat="45.84608" lon="2.95071">
        <ele>982.57238769531</ele>
        <time>2020-07-07T19:16:06.358Z</time>
      </trkpt>
      <trkpt lat="45.84612" lon="2.951">
        <ele>984.57843017578</ele>
        <time>2020-07-07T19:16:14.330Z</time>
      </trkpt>
      <trkpt lat="45.84619" lon="2.95129">
        <ele>986.87725830078</ele>
        <time>2020-07-07T19:16:22.307Z</time>
      </trkpt>
      <trkpt lat="45.84618" lon="2.95151">
        <ele>987.80352783203</ele>
        <time>2020-07-07T19:16:30.287Z</time>
      </trkpt>
      <trkpt lat="45.84618" lon="2.95167">
        <ele>988.65777587891</ele>
        <time>2020-07-07T19:16:38.269Z</time>
      </trkpt>
      <trkpt lat="45.84624" lon="2.95191">
        <ele>989.65234375</ele>
        <time>2020-07-07T19:16:46.254Z</time>
      </trkpt>
      <trkpt lat="45.84637" lon="2.95244">
        <ele>990.83654785156</ele>
        <time>2020-07-07T19:16:54.247Z</time>
      </trkpt>
      <trkpt lat="45.84645" lon="2.95262">
        <ele>991.26696777344</ele>
        <time>2020-07-07T19:17:02.243Z</time>
      </trkpt>
      <trkpt lat="45.84657" lon="2.95291">
        <ele>990.93707275391</ele>
        <time>2020-07-07T19:17:10.244Z</time>
      </trkpt>
      <trkpt lat="45.84669" lon="2.95312">
        <ele>990.87945556641</ele>
        <time>2020-07-07T19:17:18.249Z</time>
      </trkpt>
      <trkpt lat="45.84676" lon="2.95333">
        <ele>990.47271728516</ele>
        <time>2020-07-07T19:17:26.257Z</time>
      </trkpt>
      <trkpt lat="45.84688" lon="2.95359">
        <ele>990.67687988281</ele>
        <time>2020-07-07T19:17:34.269Z</time>
      </trkpt>
      <trkpt lat="45.84702" lon="2.95387">
        <ele>991.19995117188</ele>
        <time>2020-07-07T19:17:42.286Z</time>
      </trkpt>
      <trkpt lat="45.84725" lon="2.95426">
        <ele>991.99493408203</ele>
        <time>2020-07-07T19:17:50.310Z</time>
      </trkpt>
      <trkpt lat="45.84739" lon="2.95452">
        <ele>991.27868652344</ele>
        <time>2020-07-07T19:17:58.339Z</time>
      </trkpt>
      <trkpt lat="45.84755" lon="2.95478">
        <ele>990.60076904297</ele>
        <time>2020-07-07T19:18:06.373Z</time>
      </trkpt>
      <trkpt lat="45.84771" lon="2.95518">
        <ele>989.62457275391</ele>
        <time>2020-07-07T19:18:14.413Z</time>
      </trkpt>
      <trkpt lat="45.84786" lon="2.95549">
        <ele>989.76977539062</ele>
        <time>2020-07-07T19:18:22.458Z</time>
      </trkpt>
      <trkpt lat="45.84796" lon="2.95575">
        <ele>989.84173583984</ele>
        <time>2020-07-07T19:18:30.508Z</time>
      </trkpt>
      <trkpt lat="45.84802" lon="2.95595">
        <ele>989.89819335938</ele>
        <time>2020-07-07T19:18:38.561Z</time>
      </trkpt>
      <trkpt lat="45.84822" lon="2.95691">
        <ele>991.18481445312</ele>
        <time>2020-07-07T19:18:46.628Z</time>
      </trkpt>
      <trkpt lat="45.84836" lon="2.95761">
        <ele>992.24468994141</ele>
        <time>2020-07-07T19:18:54.705Z</time>
      </trkpt>
      <trkpt lat="45.84855" lon="2.95851">
        <ele>996.29779052734</ele>
        <time>2020-07-07T19:19:02.795Z</time>
      </trkpt>
      <trkpt lat="45.8487" lon="2.95924">
        <ele>1000.0347290039</ele>
        <time>2020-07-07T19:19:10.895Z</time>
      </trkpt>
      <trkpt lat="45.84886" lon="2.9601">
        <ele>1002.0675048828</ele>
        <time>2020-07-07T19:19:19.008Z</time>
      </trkpt>
      <trkpt lat="45.84903" lon="2.96046">
        <ele>1004.3281860352</ele>
        <time>2020-07-07T19:19:27.127Z</time>
      </trkpt>
      <trkpt lat="45.8492" lon="2.96077">
        <ele>1006.4014282227</ele>
        <time>2020-07-07T19:19:35.251Z</time>
      </trkpt>
      <trkpt lat="45.84946" lon="2.96106">
        <ele>1008.9423828125</ele>
        <time>2020-07-07T19:19:43.382Z</time>
      </trkpt>
      <trkpt lat="45.84972" lon="2.96135">
        <ele>1011.6179199219</ele>
        <time>2020-07-07T19:19:51.520Z</time>
      </trkpt>
      <trkpt lat="45.85008" lon="2.96169">
        <ele>1017.51953125</ele>
        <time>2020-07-07T19:19:59.666Z</time>
      </trkpt>
      <trkpt lat="45.85024" lon="2.96181">
        <ele>1019.8455200195</ele>
        <time>2020-07-07T19:20:07.816Z</time>
      </trkpt>
      <trkpt lat="45.85045" lon="2.96208">
        <ele>1023.4917602539</ele>
        <time>2020-07-07T19:20:15.972Z</time>
      </trkpt>
      <trkpt lat="45.85069" lon="2.96256">
        <ele>1029.3239746094</ele>
        <time>2020-07-07T19:20:24.136Z</time>
      </trkpt>
      <trkpt lat="45.85083" lon="2.96287">
        <ele>1030.8487548828</ele>
        <time>2020-07-07T19:20:32.305Z</time>
      </trkpt>
      <trkpt lat="45.85102" lon="2.96328">
        <ele>1035.9622802734</ele>
        <time>2020-07-07T19:20:40.481Z</time>
      </trkpt>
      <trkpt lat="45.85128" lon="2.96361">
        <ele>1037.6187744141</ele>
        <time>2020-07-07T19:20:48.664Z</time>
      </trkpt>
      <trkpt lat="45.85149" lon="2.96381">
        <ele>1037.6271972656</ele>
        <time>2020-07-07T19:20:56.852Z</time>
      </trkpt>
      <trkpt lat="45.85167" lon="2.96399">
        <ele>1037.6463623047</ele>
        <time>2020-07-07T19:21:05.044Z</time>
      </trkpt>
      <trkpt lat="45.85185" lon="2.96427">
        <ele>1037.2740478516</ele>
        <time>2020-07-07T19:21:13.242Z</time>
      </trkpt>
      <trkpt lat="45.85206" lon="2.96462">
        <ele>1033.7021484375</ele>
        <time>2020-07-07T19:21:21.446Z</time>
      </trkpt>
      <trkpt lat="45.85219" lon="2.96479">
        <ele>1032.0572509766</ele>
        <time>2020-07-07T19:21:29.654Z</time>
      </trkpt>
      <trkpt lat="45.85233" lon="2.96515">
        <ele>1027.4002685547</ele>
        <time>2020-07-07T19:21:37.867Z</time>
      </trkpt>
      <trkpt lat="45.85247" lon="2.96554">
        <ele>1023.3027954102</ele>
        <time>2020-07-07T19:21:46.087Z</time>
      </trkpt>
      <trkpt lat="45.85263" lon="2.96594">
        <ele>1019.1334228516</ele>
        <time>2020-07-07T19:21:54.313Z</time>
      </trkpt>
      <trkpt lat="45.85275" lon="2.96622">
        <ele>1017.0709838867</ele>
        <time>2020-07-07T19:22:02.544Z</time>
      </trkpt>
      <trkpt lat="45.85286" lon="2.9664">
        <ele>1015.3540649414</ele>
        <time>2020-07-07T19:22:10.778Z</time>
      </trkpt>
      <trkpt lat="45.85295" lon="2.96657">
        <ele>1013.8530883789</ele>
        <time>2020-07-07T19:22:19.015Z</time>
      </trkpt>
      <trkpt lat="45.85284" lon="2.96691">
        <ele>1013.84375</ele>
        <time>2020-07-07T19:22:27.257Z</time>
      </trkpt>
      <trkpt lat="45.85284" lon="2.96691">
        <ele>1013.8403930664</ele>
        <time>2020-07-07T19:22:35.499Z</time>
      </trkpt>
      <trkpt lat="45.85284" lon="2.96691">
        <ele>1013.8410644531</ele>
        <time>2020-07-07T19:22:43.741Z</time>
      </trkpt>
      <trkpt lat="45.8527" lon="2.96737">
        <ele>1013.6978149414</ele>
        <time>2020-07-07T19:22:51.990Z</time>
      </trkpt>
      <trkpt lat="45.8526" lon="2.96768">
        <ele>1014.3601074219</ele>
        <time>2020-07-07T19:23:00.244Z</time>
      </trkpt>
      <trkpt lat="45.8525" lon="2.96799">
        <ele>1014.9050292969</ele>
        <time>2020-07-07T19:23:08.503Z</time>
      </trkpt>
      <trkpt lat="45.8524" lon="2.96831">
        <ele>1015.0789794922</ele>
        <time>2020-07-07T19:23:16.767Z</time>
      </trkpt>
      <trkpt lat="45.85245" lon="2.96875">
        <ele>1013.7471923828</ele>
        <time>2020-07-07T19:23:25.037Z</time>
      </trkpt>
      <trkpt lat="45.85247" lon="2.96912">
        <ele>1012.6625976562</ele>
        <time>2020-07-07T19:23:33.312Z</time>
      </trkpt>
      <trkpt lat="45.85245" lon="2.96972">
        <ele>1011.1134643555</ele>
        <time>2020-07-07T19:23:41.595Z</time>
      </trkpt>
      <trkpt lat="45.85243" lon="2.97025">
        <ele>1009.0247192383</ele>
        <time>2020-07-07T19:23:49.886Z</time>
      </trkpt>
      <trkpt lat="45.85231" lon="2.97063">
        <ele>1007.3430786133</ele>
        <time>2020-07-07T19:23:58.183Z</time>
      </trkpt>
      <trkpt lat="45.85218" lon="2.97097">
        <ele>1006.182800293</ele>
        <time>2020-07-07T19:24:06.485Z</time>
      </trkpt>
      <trkpt lat="45.85202" lon="2.97145">
        <ele>1006.7586669922</ele>
        <time>2020-07-07T19:24:14.794Z</time>
      </trkpt>
      <trkpt lat="45.85191" lon="2.97183">
        <ele>1004.9314575195</ele>
        <time>2020-07-07T19:24:23.109Z</time>
      </trkpt>
      <trkpt lat="45.85162" lon="2.97224">
        <ele>1003.0981445312</ele>
        <time>2020-07-07T19:24:31.432Z</time>
      </trkpt>
      <trkpt lat="45.85139" lon="2.9726">
        <ele>1001.8348999023</ele>
        <time>2020-07-07T19:24:39.762Z</time>
      </trkpt>
      <trkpt lat="45.85113" lon="2.97298">
        <ele>998.17791748047</ele>
        <time>2020-07-07T19:24:48.100Z</time>
      </trkpt>
      <trkpt lat="45.851" lon="2.97318">
        <ele>995.64617919922</ele>
        <time>2020-07-07T19:24:56.441Z</time>
      </trkpt>
      <trkpt lat="45.85086" lon="2.97342">
        <ele>992.00347900391</ele>
        <time>2020-07-07T19:25:04.787Z</time>
      </trkpt>
      <trkpt lat="45.85093" lon="2.97355">
        <ele>989.47308349609</ele>
        <time>2020-07-07T19:25:13.135Z</time>
      </trkpt>
      <trkpt lat="45.85101" lon="2.97362">
        <ele>988.12329101562</ele>
        <time>2020-07-07T19:25:21.485Z</time>
      </trkpt>
      <trkpt lat="45.8513" lon="2.97381">
        <ele>985.00262451172</ele>
        <time>2020-07-07T19:25:29.841Z</time>
      </trkpt>
      <trkpt lat="45.85148" lon="2.97419">
        <ele>977.9619140625</ele>
        <time>2020-07-07T19:25:38.204Z</time>
      </trkpt>
      <trkpt lat="45.85168" lon="2.97449">
        <ele>971.95330810547</ele>
        <time>2020-07-07T19:25:46.572Z</time>
      </trkpt>
      <trkpt lat="45.85181" lon="2.9747">
        <ele>967.50341796875</ele>
        <time>2020-07-07T19:25:54.944Z</time>
      </trkpt>
      <trkpt lat="45.85195" lon="2.97493">
        <ele>962.93218994141</ele>
        <time>2020-07-07T19:26:03.321Z</time>
      </trkpt>
      <trkpt lat="45.85206" lon="2.97515">
        <ele>958.43267822266</ele>
        <time>2020-07-07T19:26:11.701Z</time>
      </trkpt>
      <trkpt lat="45.8522" lon="2.97541">
        <ele>953.26513671875</ele>
        <time>2020-07-07T19:26:20.086Z</time>
      </trkpt>
      <trkpt lat="45.85246" lon="2.97583">
        <ele>944.95861816406</ele>
        <time>2020-07-07T19:26:28.479Z</time>
      </trkpt>
      <trkpt lat="45.85278" lon="2.97632">
        <ele>939.75366210938</ele>
        <time>2020-07-07T19:26:36.881Z</time>
      </trkpt>
      <trkpt lat="45.85312" lon="2.97679">
        <ele>934.99633789062</ele>
        <time>2020-07-07T19:26:45.293Z</time>
      </trkpt>
      <trkpt lat="45.85332" lon="2.97708">
        <ele>929.97705078125</ele>
        <time>2020-07-07T19:26:53.710Z</time>
      </trkpt>
      <trkpt lat="45.85355" lon="2.97738">
        <ele>924.75427246094</ele>
        <time>2020-07-07T19:27:02.134Z</time>
      </trkpt>
      <trkpt lat="45.85368" lon="2.97777">
        <ele>920.81451416016</ele>
        <time>2020-07-07T19:27:10.564Z</time>
      </trkpt>
      <trkpt lat="45.85386" lon="2.97811">
        <ele>918.91046142578</ele>
        <time>2020-07-07T19:27:19.000Z</time>
      </trkpt>
      <trkpt lat="45.85419" lon="2.97813">
        <ele>915.45971679688</ele>
        <time>2020-07-07T19:27:27.442Z</time>
      </trkpt>
      <trkpt lat="45.85434" lon="2.97811">
        <ele>913.91314697266</ele>
        <time>2020-07-07T19:27:35.887Z</time>
      </trkpt>
      <trkpt lat="45.85466" lon="2.97826">
        <ele>910.24285888672</ele>
        <time>2020-07-07T19:27:44.339Z</time>
      </trkpt>
      <trkpt lat="45.85499" lon="2.97852">
        <ele>905.89489746094</ele>
        <time>2020-07-07T19:27:52.798Z</time>
      </trkpt>
      <trkpt lat="45.85536" lon="2.97874">
        <ele>901.41961669922</ele>
        <time>2020-07-07T19:28:01.265Z</time>
      </trkpt>
      <trkpt lat="45.8556" lon="2.97899">
        <ele>898.56408691406</ele>
        <time>2020-07-07T19:28:09.738Z</time>
      </trkpt>
      <trkpt lat="45.856" lon="2.97931">
        <ele>893.59039306641</ele>
        <time>2020-07-07T19:28:18.221Z</time>
      </trkpt>
      <trkpt lat="45.85624" lon="2.97959">
        <ele>890.40374755859</ele>
        <time>2020-07-07T19:28:26.710Z</time>
      </trkpt>
      <trkpt lat="45.85641" lon="2.97977">
        <ele>888.46612548828</ele>
        <time>2020-07-07T19:28:35.203Z</time>
      </trkpt>
      <trkpt lat="45.85657" lon="2.98026">
        <ele>890.52801513672</ele>
        <time>2020-07-07T19:28:43.704Z</time>
      </trkpt>
      <trkpt lat="45.85667" lon="2.98055">
        <ele>892.01489257812</ele>
        <time>2020-07-07T19:28:52.209Z</time>
      </trkpt>
      <trkpt lat="45.85672" lon="2.98058">
        <ele>892.67718505859</ele>
        <time>2020-07-07T19:29:00.715Z</time>
      </trkpt>
      <trkpt lat="45.85685" lon="2.98061">
        <ele>894.56329345703</ele>
        <time>2020-07-07T19:29:09.224Z</time>
      </trkpt>
      <trkpt lat="45.85692" lon="2.98063">
        <ele>895.64306640625</ele>
        <time>2020-07-07T19:29:17.734Z</time>
      </trkpt>
      <trkpt lat="45.85701" lon="2.98065">
        <ele>896.43103027344</ele>
        <time>2020-07-07T19:29:26.246Z</time>
      </trkpt>
      <trkpt lat="45.85708" lon="2.98056">
        <ele>895.85034179688</ele>
        <time>2020-07-07T19:29:34.760Z</time>
      </trkpt>
      <trkpt lat="45.85714" lon="2.98047">
        <ele>895.32244873047</ele>
        <time>2020-07-07T19:29:43.276Z</time>
      </trkpt>
      <trkpt lat="45.85719" lon="2.98039">
        <ele>894.76574707031</ele>
        <time>2020-07-07T19:29:51.793Z</time>
      </trkpt>
      <trkpt lat="45.85722" lon="2.9803">
        <ele>894.06506347656</ele>
        <time>2020-07-07T19:30:00.312Z</time>
      </trkpt>
      <trkpt lat="45.85727" lon="2.98025">
        <ele>894.43536376953</ele>
        <time>2020-07-07T19:30:08.832Z</time>
      </trkpt>
      <trkpt lat="45.85733" lon="2.98022">
        <ele>895.33758544922</ele>
        <time>2020-07-07T19:30:17.353Z</time>
      </trkpt>
      <trkpt lat="45.85737" lon="2.98018">
        <ele>894.94085693359</ele>
        <time>2020-07-07T19:30:25.875Z</time>
      </trkpt>
      <trkpt lat="45.85746" lon="2.98003">
        <ele>892.50262451172</ele>
        <time>2020-07-07T19:30:34.400Z</time>
      </trkpt>
      <trkpt lat="45.85754" lon="2.9799">
        <ele>892.01910400391</ele>
        <time>2020-07-07T19:30:42.927Z</time>
      </trkpt>
      <trkpt lat="45.85763" lon="2.97977">
        <ele>891.56555175781</ele>
        <time>2020-07-07T19:30:51.457Z</time>
      </trkpt>
      <trkpt lat="45.85773" lon="2.97959">
        <ele>890.11401367188</ele>
        <time>2020-07-07T19:30:59.990Z</time>
      </trkpt>
      <trkpt lat="45.85776" lon="2.97951">
        <ele>889.20336914062</ele>
        <time>2020-07-07T19:31:08.524Z</time>
      </trkpt>
      <trkpt lat="45.85784" lon="2.97947">
        <ele>888.65142822266</ele>
        <time>2020-07-07T19:31:17.060Z</time>
      </trkpt>
      <trkpt lat="45.85789" lon="2.97943">
        <ele>888.12829589844</ele>
        <time>2020-07-07T19:31:25.597Z</time>
      </trkpt>
      <trkpt lat="45.85799" lon="2.97938">
        <ele>887.55242919922</ele>
        <time>2020-07-07T19:31:34.136Z</time>
      </trkpt>
      <trkpt lat="45.85819" lon="2.97933">
        <ele>886.96545410156</ele>
        <time>2020-07-07T19:31:42.679Z</time>
      </trkpt>
      <trkpt lat="45.85831" lon="2.97931">
        <ele>886.4111328125</ele>
        <time>2020-07-07T19:31:51.225Z</time>
      </trkpt>
      <trkpt lat="45.85849" lon="2.97927">
        <ele>885.39849853516</ele>
        <time>2020-07-07T19:31:59.774Z</time>
      </trkpt>
      <trkpt lat="45.85868" lon="2.97922">
        <ele>884.52203369141</ele>
        <time>2020-07-07T19:32:08.327Z</time>
      </trkpt>
      <trkpt lat="45.85879" lon="2.97922">
        <ele>884.25329589844</ele>
        <time>2020-07-07T19:32:16.882Z</time>
      </trkpt>
      <trkpt lat="45.85897" lon="2.97919">
        <ele>883.35357666016</ele>
        <time>2020-07-07T19:32:25.441Z</time>
      </trkpt>
      <trkpt lat="45.85907" lon="2.97919">
        <ele>882.99365234375</ele>
        <time>2020-07-07T19:32:34.002Z</time>
      </trkpt>
      <trkpt lat="45.85918" lon="2.97916">
        <ele>882.32775878906</ele>
        <time>2020-07-07T19:32:42.565Z</time>
      </trkpt>
      <trkpt lat="45.8593" lon="2.97909">
        <ele>881.38830566406</ele>
        <time>2020-07-07T19:32:51.131Z</time>
      </trkpt>
      <trkpt lat="45.85945" lon="2.97905">
        <ele>880.56402587891</ele>
        <time>2020-07-07T19:32:59.700Z</time>
      </trkpt>
      <trkpt lat="45.85955" lon="2.97901">
        <ele>879.91613769531</ele>
        <time>2020-07-07T19:33:08.271Z</time>
      </trkpt>
      <trkpt lat="45.85969" lon="2.97899">
        <ele>879.26824951172</ele>
        <time>2020-07-07T19:33:16.845Z</time>
      </trkpt>
      <trkpt lat="45.85982" lon="2.97899">
        <ele>878.54125976562</ele>
        <time>2020-07-07T19:33:25.422Z</time>
      </trkpt>
      <trkpt lat="45.85998" lon="2.97898">
        <ele>877.58020019531</ele>
        <time>2020-07-07T19:33:34.002Z</time>
      </trkpt>
      <trkpt lat="45.86014" lon="2.97894">
        <ele>876.32403564453</ele>
        <time>2020-07-07T19:33:42.585Z</time>
      </trkpt>
      <trkpt lat="45.8603" lon="2.97894">
        <ele>875.38214111328</ele>
        <time>2020-07-07T19:33:51.171Z</time>
      </trkpt>
      <trkpt lat="45.86047" lon="2.97892">
        <ele>874.21594238281</ele>
        <time>2020-07-07T19:33:59.760Z</time>
      </trkpt>
      <trkpt lat="45.86063" lon="2.97887">
        <ele>872.83197021484</ele>
        <time>2020-07-07T19:34:08.353Z</time>
      </trkpt>
      <trkpt lat="45.86077" lon="2.97886">
        <ele>871.70178222656</ele>
        <time>2020-07-07T19:34:16.949Z</time>
      </trkpt>
      <trkpt lat="45.86088" lon="2.97884">
        <ele>870.74432373047</ele>
        <time>2020-07-07T19:34:25.547Z</time>
      </trkpt>
      <trkpt lat="45.86102" lon="2.97882">
        <ele>869.75714111328</ele>
        <time>2020-07-07T19:34:34.148Z</time>
      </trkpt>
      <trkpt lat="45.86116" lon="2.97886">
        <ele>869.24841308594</ele>
        <time>2020-07-07T19:34:42.752Z</time>
      </trkpt>
      <trkpt lat="45.86129" lon="2.97885">
        <ele>868.56695556641</ele>
        <time>2020-07-07T19:34:51.358Z</time>
      </trkpt>
      <trkpt lat="45.86144" lon="2.97886">
        <ele>867.83978271484</ele>
        <time>2020-07-07T19:34:59.967Z</time>
      </trkpt>
      <trkpt lat="45.86156" lon="2.97886">
        <ele>866.98315429688</ele>
        <time>2020-07-07T19:35:08.578Z</time>
      </trkpt>
      <trkpt lat="45.86168" lon="2.97887">
        <ele>866.14807128906</ele>
        <time>2020-07-07T19:35:17.192Z</time>
      </trkpt>
      <trkpt lat="45.86186" lon="2.97888">
        <ele>864.93627929688</ele>
        <time>2020-07-07T19:35:25.809Z</time>
      </trkpt>
      <trkpt lat="45.86197" lon="2.97887">
        <ele>864.07720947266</ele>
        <time>2020-07-07T19:35:34.429Z</time>
      </trkpt>
      <trkpt lat="45.86218" lon="2.97888">
        <ele>862.56787109375</ele>
        <time>2020-07-07T19:35:43.053Z</time>
      </trkpt>
      <trkpt lat="45.86236" lon="2.97886">
        <ele>861.67242431641</ele>
        <time>2020-07-07T19:35:51.681Z</time>
      </trkpt>
      <trkpt lat="45.86246" lon="2.97887">
        <ele>861.37609863281</ele>
        <time>2020-07-07T19:36:00.310Z</time>
      </trkpt>
      <trkpt lat="45.86257" lon="2.97889">
        <ele>861.07855224609</ele>
        <time>2020-07-07T19:36:08.942Z</time>
      </trkpt>
      <trkpt lat="45.86267" lon="2.97892">
        <ele>860.82897949219</ele>
        <time>2020-07-07T19:36:17.576Z</time>
      </trkpt>
      <trkpt lat="45.86279" lon="2.97895">
        <ele>860.61700439453</ele>
        <time>2020-07-07T19:36:26.212Z</time>
      </trkpt>
      <trkpt lat="45.86288" lon="2.97898">
        <ele>860.58099365234</ele>
        <time>2020-07-07T19:36:34.850Z</time>
      </trkpt>
      <trkpt lat="45.863" lon="2.97898">
        <ele>860.43701171875</ele>
        <time>2020-07-07T19:36:43.490Z</time>
      </trkpt>
      <trkpt lat="45.86308" lon="2.97899">
        <ele>860.20617675781</ele>
        <time>2020-07-07T19:36:52.132Z</time>
      </trkpt>
      <trkpt lat="45.86318" lon="2.97898">
        <ele>859.48626708984</ele>
        <time>2020-07-07T19:37:00.776Z</time>
      </trkpt>
      <trkpt lat="45.8633" lon="2.97898">
        <ele>858.65844726562</ele>
        <time>2020-07-07T19:37:09.422Z</time>
      </trkpt>
      <trkpt lat="45.86335" lon="2.97899">
        <ele>858.28167724609</ele>
        <time>2020-07-07T19:37:18.070Z</time>
      </trkpt>
      <trkpt lat="45.86349" lon="2.97909">
        <ele>857.54260253906</ele>
        <time>2020-07-07T19:37:26.721Z</time>
      </trkpt>
      <trkpt lat="45.8636" lon="2.97917">
        <ele>856.94030761719</ele>
        <time>2020-07-07T19:37:35.374Z</time>
      </trkpt>
      <trkpt lat="45.86371" lon="2.97926">
        <ele>856.36779785156</ele>
        <time>2020-07-07T19:37:44.030Z</time>
      </trkpt>
      <trkpt lat="45.86387" lon="2.97939">
        <ele>855.82788085938</ele>
        <time>2020-07-07T19:37:52.689Z</time>
      </trkpt>
      <trkpt lat="45.86397" lon="2.97946">
        <ele>854.89294433594</ele>
        <time>2020-07-07T19:38:01.350Z</time>
      </trkpt>
      <trkpt lat="45.8641" lon="2.97954">
        <ele>853.18682861328</ele>
        <time>2020-07-07T19:38:10.014Z</time>
      </trkpt>
      <trkpt lat="45.86418" lon="2.9796">
        <ele>852.2666015625</ele>
        <time>2020-07-07T19:38:18.680Z</time>
      </trkpt>
      <trkpt lat="45.8643" lon="2.97967">
        <ele>850.71765136719</ele>
        <time>2020-07-07T19:38:27.349Z</time>
      </trkpt>
      <trkpt lat="45.8644" lon="2.97975">
        <ele>849.50030517578</ele>
        <time>2020-07-07T19:38:36.020Z</time>
      </trkpt>
      <trkpt lat="45.86447" lon="2.97978">
        <ele>848.69281005859</ele>
        <time>2020-07-07T19:38:44.693Z</time>
      </trkpt>
      <trkpt lat="45.8646" lon="2.97987">
        <ele>847.22308349609</ele>
        <time>2020-07-07T19:38:53.368Z</time>
      </trkpt>
      <trkpt lat="45.86467" lon="2.98003">
        <ele>846.71630859375</ele>
        <time>2020-07-07T19:39:02.046Z</time>
      </trkpt>
      <trkpt lat="45.86475" lon="2.98013">
        <ele>846.02911376953</ele>
        <time>2020-07-07T19:39:10.726Z</time>
      </trkpt>
      <trkpt lat="45.86483" lon="2.98022">
        <ele>845.49877929688</ele>
        <time>2020-07-07T19:39:19.408Z</time>
      </trkpt>
      <trkpt lat="45.8649" lon="2.98032">
        <ele>845.22045898438</ele>
        <time>2020-07-07T19:39:28.092Z</time>
      </trkpt>
      <trkpt lat="45.86497" lon="2.98045">
        <ele>845.00445556641</ele>
        <time>2020-07-07T19:39:36.778Z</time>
      </trkpt>
      <trkpt lat="45.86501" lon="2.9805">
        <ele>844.80407714844</ele>
        <time>2020-07-07T19:39:45.465Z</time>
      </trkpt>
      <trkpt lat="45.86509" lon="2.98052">
        <ele>843.85388183594</ele>
        <time>2020-07-07T19:39:54.154Z</time>
      </trkpt>
      <trkpt lat="45.86518" lon="2.98057">
        <ele>843.00677490234</ele>
        <time>2020-07-07T19:40:02.845Z</time>
      </trkpt>
      <trkpt lat="45.86527" lon="2.98067">
        <ele>842.37811279297</ele>
        <time>2020-07-07T19:40:11.538Z</time>
      </trkpt>
      <trkpt lat="45.86533" lon="2.98075">
        <ele>842.08532714844</ele>
        <time>2020-07-07T19:40:20.233Z</time>
      </trkpt>
      <trkpt lat="45.8654" lon="2.98085">
        <ele>841.70739746094</ele>
        <time>2020-07-07T19:40:28.930Z</time>
      </trkpt>
      <trkpt lat="45.8655" lon="2.98095">
        <ele>841.00134277344</ele>
        <time>2020-07-07T19:40:37.629Z</time>
      </trkpt>
      <trkpt lat="45.86557" lon="2.98103">
        <ele>840.47583007812</ele>
        <time>2020-07-07T19:40:46.330Z</time>
      </trkpt>
      <trkpt lat="45.86564" lon="2.98114">
        <ele>840.31268310547</ele>
        <time>2020-07-07T19:40:55.033Z</time>
      </trkpt>
      <trkpt lat="45.86569" lon="2.9812">
        <ele>840.13507080078</ele>
        <time>2020-07-07T19:41:03.738Z</time>
      </trkpt>
      <trkpt lat="45.86577" lon="2.98128">
        <ele>839.78955078125</ele>
        <time>2020-07-07T19:41:12.445Z</time>
      </trkpt>
      <trkpt lat="45.86583" lon="2.98134">
        <ele>839.50640869141</ele>
        <time>2020-07-07T19:41:21.153Z</time>
      </trkpt>
      <trkpt lat="45.86587" lon="2.98137">
        <ele>839.22802734375</ele>
        <time>2020-07-07T19:41:29.862Z</time>
      </trkpt>
      <trkpt lat="45.86597" lon="2.98139">
        <ele>838.33538818359</ele>
        <time>2020-07-07T19:41:38.573Z</time>
      </trkpt>
      <trkpt lat="45.86604" lon="2.9814">
        <ele>837.70672607422</ele>
        <time>2020-07-07T19:41:47.285Z</time>
      </trkpt>
      <trkpt lat="45.86615" lon="2.98142">
        <ele>836.79968261719</ele>
        <time>2020-07-07T19:41:56.000Z</time>
      </trkpt>
      <trkpt lat="45.8662" lon="2.98143">
        <ele>836.35333251953</ele>
        <time>2020-07-07T19:42:04.716Z</time>
      </trkpt>
      <trkpt lat="45.86627" lon="2.98147">
        <ele>835.91662597656</ele>
        <time>2020-07-07T19:42:13.433Z</time>
      </trkpt>
      <trkpt lat="45.86634" lon="2.98153">
        <ele>835.51824951172</ele>
        <time>2020-07-07T19:42:22.152Z</time>
      </trkpt>
      <trkpt lat="45.86641" lon="2.9816">
        <ele>835.17272949219</ele>
        <time>2020-07-07T19:42:30.872Z</time>
      </trkpt>
      <trkpt lat="45.86647" lon="2.98166">
        <ele>834.88958740234</ele>
        <time>2020-07-07T19:42:39.594Z</time>
      </trkpt>
      <trkpt lat="45.86653" lon="2.98174">
        <ele>834.68798828125</ele>
        <time>2020-07-07T19:42:48.318Z</time>
      </trkpt>
      <trkpt lat="45.8666" lon="2.9818">
        <ele>834.12768554688</ele>
        <time>2020-07-07T19:42:57.043Z</time>
      </trkpt>
      <trkpt lat="45.8667" lon="2.98192">
        <ele>833.28302001953</ele>
        <time>2020-07-07T19:43:05.771Z</time>
      </trkpt>
      <trkpt lat="45.86677" lon="2.98203">
        <ele>832.75268554688</ele>
        <time>2020-07-07T19:43:14.501Z</time>
      </trkpt>
      <trkpt lat="45.86686" lon="2.98211">
        <ele>831.96325683594</ele>
        <time>2020-07-07T19:43:23.233Z</time>
      </trkpt>
      <trkpt lat="45.86696" lon="2.98224">
        <ele>831.142578125</ele>
        <time>2020-07-07T19:43:31.968Z</time>
      </trkpt>
      <trkpt lat="45.86703" lon="2.98231">
        <ele>830.55108642578</ele>
        <time>2020-07-07T19:43:40.704Z</time>
      </trkpt>
      <trkpt lat="45.86712" lon="2.9824">
        <ele>829.86596679688</ele>
        <time>2020-07-07T19:43:49.442Z</time>
      </trkpt>
      <trkpt lat="45.86717" lon="2.98247">
        <ele>829.41247558594</ele>
        <time>2020-07-07T19:43:58.182Z</time>
      </trkpt>
      <trkpt lat="45.86721" lon="2.9825">
        <ele>829.095703125</ele>
        <time>2020-07-07T19:44:06.923Z</time>
      </trkpt>
      <trkpt lat="45.86728" lon="2.98252">
        <ele>828.40618896484</ele>
        <time>2020-07-07T19:44:15.665Z</time>
      </trkpt>
      <trkpt lat="45.86732" lon="2.98256">
        <ele>828.01385498047</ele>
        <time>2020-07-07T19:44:24.408Z</time>
      </trkpt>
      <trkpt lat="45.86738" lon="2.9827">
        <ele>826.94226074219</ele>
        <time>2020-07-07T19:44:33.154Z</time>
      </trkpt>
      <trkpt lat="45.86744" lon="2.98279">
        <ele>825.99780273438</ele>
        <time>2020-07-07T19:44:41.901Z</time>
      </trkpt>
      <trkpt lat="45.86751" lon="2.98289">
        <ele>824.86517333984</ele>
        <time>2020-07-07T19:44:50.650Z</time>
      </trkpt>
      <trkpt lat="45.86756" lon="2.983">
        <ele>823.98449707031</ele>
        <time>2020-07-07T19:44:59.401Z</time>
      </trkpt>
      <trkpt lat="45.86763" lon="2.98311">
        <ele>822.92150878906</ele>
        <time>2020-07-07T19:45:08.154Z</time>
      </trkpt>
      <trkpt lat="45.86768" lon="2.98319">
        <ele>822.08160400391</ele>
        <time>2020-07-07T19:45:16.909Z</time>
      </trkpt>
      <trkpt lat="45.86773" lon="2.98326">
        <ele>821.37371826172</ele>
        <time>2020-07-07T19:45:25.665Z</time>
      </trkpt>
      <trkpt lat="45.86779" lon="2.98331">
        <ele>820.53625488281</ele>
        <time>2020-07-07T19:45:34.422Z</time>
      </trkpt>
      <trkpt lat="45.86786" lon="2.98335">
        <ele>819.59564208984</ele>
        <time>2020-07-07T19:45:43.181Z</time>
      </trkpt>
      <trkpt lat="45.86799" lon="2.98341">
        <ele>817.84631347656</ele>
        <time>2020-07-07T19:45:51.943Z</time>
      </trkpt>
      <trkpt lat="45.86805" lon="2.98342">
        <ele>817.15795898438</ele>
        <time>2020-07-07T19:46:00.706Z</time>
      </trkpt>
      <trkpt lat="45.86814" lon="2.98344">
        <ele>816.73150634766</ele>
        <time>2020-07-07T19:46:09.471Z</time>
      </trkpt>
      <trkpt lat="45.86818" lon="2.9834">
        <ele>816.46826171875</ele>
        <time>2020-07-07T19:46:18.237Z</time>
      </trkpt>
      <trkpt lat="45.86821" lon="2.98337">
        <ele>816.42150878906</ele>
        <time>2020-07-07T19:46:27.003Z</time>
      </trkpt>
      <trkpt lat="45.8683" lon="2.98337">
        <ele>816.02795410156</ele>
        <time>2020-07-07T19:46:35.771Z</time>
      </trkpt>
      <trkpt lat="45.86835" lon="2.98333">
        <ele>815.93194580078</ele>
        <time>2020-07-07T19:46:44.540Z</time>
      </trkpt>
      <trkpt lat="45.86842" lon="2.98329">
        <ele>815.76159667969</ele>
        <time>2020-07-07T19:46:53.311Z</time>
      </trkpt>
      <trkpt lat="45.86848" lon="2.98326">
        <ele>815.55523681641</ele>
        <time>2020-07-07T19:47:02.083Z</time>
      </trkpt>
      <trkpt lat="45.86854" lon="2.9832">
        <ele>815.46166992188</ele>
        <time>2020-07-07T19:47:10.857Z</time>
      </trkpt>
      <trkpt lat="45.86859" lon="2.98317">
        <ele>815.32727050781</ele>
        <time>2020-07-07T19:47:19.632Z</time>
      </trkpt>
      <trkpt lat="45.86867" lon="2.98333">
        <ele>814.42498779297</ele>
        <time>2020-07-07T19:47:28.409Z</time>
      </trkpt>
      <trkpt lat="45.86874" lon="2.98346">
        <ele>813.90716552734</ele>
        <time>2020-07-07T19:47:37.189Z</time>
      </trkpt>
      <trkpt lat="45.86883" lon="2.98353">
        <ele>813.74517822266</ele>
        <time>2020-07-07T19:47:45.971Z</time>
      </trkpt>
      <trkpt lat="45.86895" lon="2.98364">
        <ele>813.57843017578</ele>
        <time>2020-07-07T19:47:54.756Z</time>
      </trkpt>
      <trkpt lat="45.86901" lon="2.98366">
        <ele>813.34802246094</ele>
        <time>2020-07-07T19:48:03.542Z</time>
      </trkpt>
      <trkpt lat="45.86906" lon="2.98368">
        <ele>813.15844726562</ele>
        <time>2020-07-07T19:48:12.329Z</time>
      </trkpt>
      <trkpt lat="45.86914" lon="2.98368">
        <ele>812.79736328125</ele>
        <time>2020-07-07T19:48:21.118Z</time>
      </trkpt>
      <trkpt lat="45.86923" lon="2.98371">
        <ele>812.5947265625</ele>
        <time>2020-07-07T19:48:29.908Z</time>
      </trkpt>
      <trkpt lat="45.8692" lon="2.98375">
        <ele>812.75897216797</ele>
        <time>2020-07-07T19:48:38.699Z</time>
      </trkpt>
      <trkpt lat="45.86913" lon="2.98386">
        <ele>813.45483398438</ele>
        <time>2020-07-07T19:48:47.492Z</time>
      </trkpt>
      <trkpt lat="45.86902" lon="2.98403">
        <ele>814.62701416016</ele>
        <time>2020-07-07T19:48:56.289Z</time>
      </trkpt>
      <trkpt lat="45.86895" lon="2.98412">
        <ele>815.29534912109</ele>
        <time>2020-07-07T19:49:05.088Z</time>
      </trkpt>
      <trkpt lat="45.86887" lon="2.9842">
        <ele>815.94201660156</ele>
        <time>2020-07-07T19:49:13.888Z</time>
      </trkpt>
      <trkpt lat="45.86883" lon="2.98437">
        <ele>816.24914550781</ele>
        <time>2020-07-07T19:49:22.691Z</time>
      </trkpt>
      <trkpt lat="45.86878" lon="2.98455">
        <ele>816.42553710938</ele>
        <time>2020-07-07T19:49:31.497Z</time>
      </trkpt>
      <trkpt lat="45.86878" lon="2.98478">
        <ele>816.4111328125</ele>
        <time>2020-07-07T19:49:40.306Z</time>
      </trkpt>
      <trkpt lat="45.86877" lon="2.98497">
        <ele>816.46954345703</ele>
        <time>2020-07-07T19:49:49.118Z</time>
      </trkpt>
      <trkpt lat="45.86874" lon="2.98518">
        <ele>816.95520019531</ele>
        <time>2020-07-07T19:49:57.933Z</time>
      </trkpt>
      <trkpt lat="45.86873" lon="2.98535">
        <ele>816.99719238281</ele>
        <time>2020-07-07T19:50:06.750Z</time>
      </trkpt>
      <trkpt lat="45.8687" lon="2.98563">
        <ele>817.201171875</ele>
        <time>2020-07-07T19:50:15.571Z</time>
      </trkpt>
      <trkpt lat="45.86869" lon="2.98577">
        <ele>817.2431640625</ele>
        <time>2020-07-07T19:50:24.394Z</time>
      </trkpt>
      <trkpt lat="45.86867" lon="2.98603">
        <ele>816.81170654297</ele>
        <time>2020-07-07T19:50:33.221Z</time>
      </trkpt>
      <trkpt lat="45.86865" lon="2.98611">
        <ele>816.48895263672</ele>
        <time>2020-07-07T19:50:42.049Z</time>
      </trkpt>
      <trkpt lat="45.86865" lon="2.9863">
        <ele>815.61547851562</ele>
        <time>2020-07-07T19:50:50.879Z</time>
      </trkpt>
      <trkpt lat="45.8687" lon="2.98648">
        <ele>814.46728515625</ele>
        <time>2020-07-07T19:50:59.712Z</time>
      </trkpt>
      <trkpt lat="45.86874" lon="2.98663">
        <ele>813.54510498047</ele>
        <time>2020-07-07T19:51:08.547Z</time>
      </trkpt>
      <trkpt lat="45.86879" lon="2.98676">
        <ele>812.67138671875</ele>
        <time>2020-07-07T19:51:17.384Z</time>
      </trkpt>
      <trkpt lat="45.8688" lon="2.98689">
        <ele>810.99407958984</ele>
        <time>2020-07-07T19:51:26.223Z</time>
      </trkpt>
      <trkpt lat="45.86879" lon="2.987">
        <ele>809.77990722656</ele>
        <time>2020-07-07T19:51:35.064Z</time>
      </trkpt>
      <trkpt lat="45.86876" lon="2.98715">
        <ele>808.16735839844</ele>
        <time>2020-07-07T19:51:43.907Z</time>
      </trkpt>
      <trkpt lat="45.86871" lon="2.98727">
        <ele>807.06115722656</ele>
        <time>2020-07-07T19:51:52.752Z</time>
      </trkpt>
      <trkpt lat="45.86865" lon="2.9874">
        <ele>806.40081787109</ele>
        <time>2020-07-07T19:52:01.599Z</time>
      </trkpt>
      <trkpt lat="45.86862" lon="2.98756">
        <ele>805.74810791016</ele>
        <time>2020-07-07T19:52:10.448Z</time>
      </trkpt>
      <trkpt lat="45.86863" lon="2.98777">
        <ele>804.86193847656</ele>
        <time>2020-07-07T19:52:19.300Z</time>
      </trkpt>
      <trkpt lat="45.86862" lon="2.98791">
        <ele>804.50323486328</ele>
        <time>2020-07-07T19:52:28.154Z</time>
      </trkpt>
      <trkpt lat="45.86864" lon="2.98807">
        <ele>803.63336181641</ele>
        <time>2020-07-07T19:52:37.011Z</time>
      </trkpt>
      <trkpt lat="45.86864" lon="2.98825">
        <ele>803.34039306641</ele>
        <time>2020-07-07T19:52:45.870Z</time>
      </trkpt>
      <trkpt lat="45.86867" lon="2.98855">
        <ele>803.55450439453</ele>
        <time>2020-07-07T19:52:54.733Z</time>
      </trkpt>
      <trkpt lat="45.86871" lon="2.9887">
        <ele>803.36010742188</ele>
        <time>2020-07-07T19:53:03.599Z</time>
      </trkpt>
      <trkpt lat="45.86871" lon="2.98883">
        <ele>803.84246826172</ele>
        <time>2020-07-07T19:53:12.466Z</time>
      </trkpt>
      <trkpt lat="45.86888" lon="2.98897">
        <ele>801.24731445312</ele>
        <time>2020-07-07T19:53:21.337Z</time>
      </trkpt>
      <trkpt lat="45.869" lon="2.98904">
        <ele>800.48181152344</ele>
        <time>2020-07-07T19:53:30.211Z</time>
      </trkpt>
      <trkpt lat="45.86915" lon="2.98916">
        <ele>799.82672119141</ele>
        <time>2020-07-07T19:53:39.088Z</time>
      </trkpt>
      <trkpt lat="45.86924" lon="2.98919">
        <ele>799.27239990234</ele>
        <time>2020-07-07T19:53:47.967Z</time>
      </trkpt>
      <trkpt lat="45.86936" lon="2.98924">
        <ele>798.59930419922</ele>
        <time>2020-07-07T19:53:56.849Z</time>
      </trkpt>
      <trkpt lat="45.8695" lon="2.98936">
        <ele>797.89770507812</ele>
        <time>2020-07-07T19:54:05.734Z</time>
      </trkpt>
      <trkpt lat="45.86958" lon="2.98948">
        <ele>797.62176513672</ele>
        <time>2020-07-07T19:54:14.621Z</time>
      </trkpt>
      <trkpt lat="45.86969" lon="2.98967">
        <ele>797.30023193359</ele>
        <time>2020-07-07T19:54:23.512Z</time>
      </trkpt>
      <trkpt lat="45.86979" lon="2.98981">
        <ele>796.88507080078</ele>
        <time>2020-07-07T19:54:32.406Z</time>
      </trkpt>
      <trkpt lat="45.86991" lon="2.98999">
        <ele>796.45794677734</ele>
        <time>2020-07-07T19:54:41.303Z</time>
      </trkpt>
      <trkpt lat="45.86999" lon="2.9901">
        <ele>796.14050292969</ele>
        <time>2020-07-07T19:54:50.202Z</time>
      </trkpt>
      <trkpt lat="45.87006" lon="2.99028">
        <ele>795.65100097656</ele>
        <time>2020-07-07T19:54:59.104Z</time>
      </trkpt>
      <trkpt lat="45.87011" lon="2.99041">
        <ele>795.24786376953</ele>
        <time>2020-07-07T19:55:08.008Z</time>
      </trkpt>
      <trkpt lat="45.87019" lon="2.99052">
        <ele>794.68634033203</ele>
        <time>2020-07-07T19:55:16.914Z</time>
      </trkpt>
      <trkpt lat="45.87029" lon="2.99064">
        <ele>793.98809814453</ele>
        <time>2020-07-07T19:55:25.823Z</time>
      </trkpt>
      <trkpt lat="45.8704" lon="2.99078">
        <ele>793.15185546875</ele>
        <time>2020-07-07T19:55:34.735Z</time>
      </trkpt>
      <trkpt lat="45.87051" lon="2.99096">
        <ele>791.98077392578</ele>
        <time>2020-07-07T19:55:43.650Z</time>
      </trkpt>
      <trkpt lat="45.87061" lon="2.99112">
        <ele>790.47900390625</ele>
        <time>2020-07-07T19:55:52.568Z</time>
      </trkpt>
      <trkpt lat="45.8707" lon="2.99126">
        <ele>789.36322021484</ele>
        <time>2020-07-07T19:56:01.489Z</time>
      </trkpt>
      <trkpt lat="45.8708" lon="2.9914">
        <ele>788.24139404297</ele>
        <time>2020-07-07T19:56:10.413Z</time>
      </trkpt>
      <trkpt lat="45.87088" lon="2.99154">
        <ele>787.13757324219</ele>
        <time>2020-07-07T19:56:19.339Z</time>
      </trkpt>
      <trkpt lat="45.87098" lon="2.99162">
        <ele>786.43804931641</ele>
        <time>2020-07-07T19:56:28.268Z</time>
      </trkpt>
      <trkpt lat="45.87109" lon="2.99174">
        <ele>785.41827392578</ele>
        <time>2020-07-07T19:56:37.199Z</time>
      </trkpt>
      <trkpt lat="45.87115" lon="2.99181">
        <ele>784.95672607422</ele>
        <time>2020-07-07T19:56:46.132Z</time>
      </trkpt>
      <trkpt lat="45.87118" lon="2.99193">
        <ele>784.17327880859</ele>
        <time>2020-07-07T19:56:55.067Z</time>
      </trkpt>
      <trkpt lat="45.87125" lon="2.99213">
        <ele>782.86907958984</ele>
        <time>2020-07-07T19:57:04.005Z</time>
      </trkpt>
      <trkpt lat="45.87127" lon="2.99226">
        <ele>782.06878662109</ele>
        <time>2020-07-07T19:57:12.945Z</time>
      </trkpt>
      <trkpt lat="45.87135" lon="2.99234">
        <ele>781.494140625</ele>
        <time>2020-07-07T19:57:21.887Z</time>
      </trkpt>
      <trkpt lat="45.87144" lon="2.99249">
        <ele>780.33862304688</ele>
        <time>2020-07-07T19:57:30.831Z</time>
      </trkpt>
      <trkpt lat="45.8715" lon="2.99256">
        <ele>779.66912841797</ele>
        <time>2020-07-07T19:57:39.777Z</time>
      </trkpt>
      <trkpt lat="45.87154" lon="2.99271">
        <ele>779.30236816406</ele>
        <time>2020-07-07T19:57:48.725Z</time>
      </trkpt>
      <trkpt lat="45.87158" lon="2.99289">
        <ele>778.67547607422</ele>
        <time>2020-07-07T19:57:57.676Z</time>
      </trkpt>
      <trkpt lat="45.87159" lon="2.9931">
        <ele>777.88836669922</ele>
        <time>2020-07-07T19:58:06.630Z</time>
      </trkpt>
      <trkpt lat="45.8716" lon="2.99323">
        <ele>777.41564941406</ele>
        <time>2020-07-07T19:58:15.586Z</time>
      </trkpt>
      <trkpt lat="45.8716" lon="2.99332">
        <ele>777.10974121094</ele>
        <time>2020-07-07T19:58:24.543Z</time>
      </trkpt>
      <trkpt lat="45.87155" lon="2.99345">
        <ele>776.76751708984</ele>
        <time>2020-07-07T19:58:33.502Z</time>
      </trkpt>
      <trkpt lat="45.87138" lon="2.99371">
        <ele>775.69897460938</ele>
        <time>2020-07-07T19:58:42.466Z</time>
      </trkpt>
      <trkpt lat="45.87127" lon="2.99386">
        <ele>775.65093994141</ele>
        <time>2020-07-07T19:58:51.433Z</time>
      </trkpt>
      <trkpt lat="45.87118" lon="2.99396">
        <ele>775.65338134766</ele>
        <time>2020-07-07T19:59:00.402Z</time>
      </trkpt>
      <trkpt lat="45.87102" lon="2.99404">
        <ele>775.2900390625</ele>
        <time>2020-07-07T19:59:09.375Z</time>
      </trkpt>
      <trkpt lat="45.87076" lon="2.99419">
        <ele>773.60552978516</ele>
        <time>2020-07-07T19:59:18.353Z</time>
      </trkpt>
      <trkpt lat="45.87065" lon="2.99425">
        <ele>773.033203125</ele>
        <time>2020-07-07T19:59:27.333Z</time>
      </trkpt>
      <trkpt lat="45.8705" lon="2.99434">
        <ele>772.20098876953</ele>
        <time>2020-07-07T19:59:36.317Z</time>
      </trkpt>
      <trkpt lat="45.87034" lon="2.99442">
        <ele>771.64666748047</ele>
        <time>2020-07-07T19:59:45.304Z</time>
      </trkpt>
      <trkpt lat="45.87017" lon="2.99452">
        <ele>771.06951904297</ele>
        <time>2020-07-07T19:59:54.295Z</time>
      </trkpt>
      <trkpt lat="45.87003" lon="2.99456">
        <ele>770.94311523438</ele>
        <time>2020-07-07T20:00:03.289Z</time>
      </trkpt>
      <trkpt lat="45.86975" lon="2.99472">
        <ele>770.35760498047</ele>
        <time>2020-07-07T20:00:12.289Z</time>
      </trkpt>
      <trkpt lat="45.86959" lon="2.99485">
        <ele>771.00738525391</ele>
        <time>2020-07-07T20:00:21.292Z</time>
      </trkpt>
      <trkpt lat="45.86936" lon="2.99499">
        <ele>771.03771972656</ele>
        <time>2020-07-07T20:00:30.300Z</time>
      </trkpt>
      <trkpt lat="45.86922" lon="2.99513">
        <ele>770.33477783203</ele>
        <time>2020-07-07T20:00:39.312Z</time>
      </trkpt>
      <trkpt lat="45.8691" lon="2.99527">
        <ele>770.21960449219</ele>
        <time>2020-07-07T20:00:48.327Z</time>
      </trkpt>
      <trkpt lat="45.86899" lon="2.99543">
        <ele>769.21978759766</ele>
        <time>2020-07-07T20:00:57.345Z</time>
      </trkpt>
      <trkpt lat="45.86885" lon="2.99564">
        <ele>768.5732421875</ele>
        <time>2020-07-07T20:01:06.367Z</time>
      </trkpt>
      <trkpt lat="45.86872" lon="2.9959">
        <ele>768.87799072266</ele>
        <time>2020-07-07T20:01:15.394Z</time>
      </trkpt>
      <trkpt lat="45.86861" lon="2.99617">
        <ele>769.58941650391</ele>
        <time>2020-07-07T20:01:24.425Z</time>
      </trkpt>
      <trkpt lat="45.86851" lon="2.99636">
        <ele>770.72918701172</ele>
        <time>2020-07-07T20:01:33.459Z</time>
      </trkpt>
      <trkpt lat="45.8684" lon="2.99666">
        <ele>770.86273193359</ele>
        <time>2020-07-07T20:01:42.498Z</time>
      </trkpt>
      <trkpt lat="45.8683" lon="2.99694">
        <ele>771.33306884766</ele>
        <time>2020-07-07T20:01:51.541Z</time>
      </trkpt>
      <trkpt lat="45.86815" lon="2.99733">
        <ele>769.50421142578</ele>
        <time>2020-07-07T20:02:00.591Z</time>
      </trkpt>
      <trkpt lat="45.86806" lon="2.99756">
        <ele>768.38513183594</ele>
        <time>2020-07-07T20:02:09.644Z</time>
      </trkpt>
      <trkpt lat="45.86791" lon="2.99787">
        <ele>767.37719726562</ele>
        <time>2020-07-07T20:02:18.703Z</time>
      </trkpt>
      <trkpt lat="45.86781" lon="2.99807">
        <ele>766.74731445312</ele>
        <time>2020-07-07T20:02:27.765Z</time>
      </trkpt>
      <trkpt lat="45.86767" lon="2.99826">
        <ele>764.67346191406</ele>
        <time>2020-07-07T20:02:36.831Z</time>
      </trkpt>
      <trkpt lat="45.86759" lon="2.99843">
        <ele>761.91906738281</ele>
        <time>2020-07-07T20:02:45.900Z</time>
      </trkpt>
      <trkpt lat="45.86746" lon="2.99866">
        <ele>761.62872314453</ele>
        <time>2020-07-07T20:02:54.973Z</time>
      </trkpt>
      <trkpt lat="45.86727" lon="2.99888">
        <ele>761.84588623047</ele>
        <time>2020-07-07T20:03:04.051Z</time>
      </trkpt>
      <trkpt lat="45.86715" lon="2.99904">
        <ele>763.9013671875</ele>
        <time>2020-07-07T20:03:13.132Z</time>
      </trkpt>
      <trkpt lat="45.86698" lon="2.9994">
        <ele>764.39642333984</ele>
        <time>2020-07-07T20:03:22.219Z</time>
      </trkpt>
      <trkpt lat="45.86685" lon="2.99958">
        <ele>766.39526367188</ele>
        <time>2020-07-07T20:03:31.310Z</time>
      </trkpt>
      <trkpt lat="45.86675" lon="2.99977">
        <ele>765.82550048828</ele>
        <time>2020-07-07T20:03:40.404Z</time>
      </trkpt>
      <trkpt lat="45.8666" lon="3.00002">
        <ele>762.77325439453</ele>
        <time>2020-07-07T20:03:49.503Z</time>
      </trkpt>
      <trkpt lat="45.8665" lon="3.00022">
        <ele>761.98663330078</ele>
        <time>2020-07-07T20:03:58.605Z</time>
      </trkpt>
      <trkpt lat="45.86642" lon="3.00038">
        <ele>761.80065917969</ele>
        <time>2020-07-07T20:04:07.710Z</time>
      </trkpt>
      <trkpt lat="45.86631" lon="3.00052">
        <ele>762.87579345703</ele>
        <time>2020-07-07T20:04:16.818Z</time>
      </trkpt>
      <trkpt lat="45.86618" lon="3.00081">
        <ele>763.04174804688</ele>
        <time>2020-07-07T20:04:25.931Z</time>
      </trkpt>
      <trkpt lat="45.86605" lon="3.00101">
        <ele>762.64837646484</ele>
        <time>2020-07-07T20:04:35.047Z</time>
      </trkpt>
      <trkpt lat="45.86594" lon="3.00115">
        <ele>763.2890625</ele>
        <time>2020-07-07T20:04:44.166Z</time>
      </trkpt>
      <trkpt lat="45.86578" lon="3.00139">
        <ele>762.48236083984</ele>
        <time>2020-07-07T20:04:53.290Z</time>
      </trkpt>
      <trkpt lat="45.86562" lon="3.00159">
        <ele>761.21295166016</ele>
        <time>2020-07-07T20:05:02.418Z</time>
      </trkpt>
      <trkpt lat="45.86546" lon="3.00179">
        <ele>759.89520263672</ele>
        <time>2020-07-07T20:05:11.550Z</time>
      </trkpt>
      <trkpt lat="45.86524" lon="3.00206">
        <ele>759.26409912109</ele>
        <time>2020-07-07T20:05:20.688Z</time>
      </trkpt>
      <trkpt lat="45.86506" lon="3.00229">
        <ele>759.21020507812</ele>
        <time>2020-07-07T20:05:29.831Z</time>
      </trkpt>
      <trkpt lat="45.86489" lon="3.00245">
        <ele>759.61334228516</ele>
        <time>2020-07-07T20:05:38.978Z</time>
      </trkpt>
      <trkpt lat="45.86467" lon="3.00264">
        <ele>760.13842773438</ele>
        <time>2020-07-07T20:05:48.130Z</time>
      </trkpt>
      <trkpt lat="45.86454" lon="3.00278">
        <ele>760.44201660156</ele>
        <time>2020-07-07T20:05:57.285Z</time>
      </trkpt>
      <trkpt lat="45.86441" lon="3.00295">
        <ele>760.71795654297</ele>
        <time>2020-07-07T20:06:06.444Z</time>
      </trkpt>
      <trkpt lat="45.86434" lon="3.00313">
        <ele>760.72991943359</ele>
        <time>2020-07-07T20:06:15.606Z</time>
      </trkpt>
      <trkpt lat="45.86428" lon="3.00328">
        <ele>760.79113769531</ele>
        <time>2020-07-07T20:06:24.770Z</time>
      </trkpt>
      <trkpt lat="45.86422" lon="3.00348">
        <ele>760.84240722656</ele>
        <time>2020-07-07T20:06:33.937Z</time>
      </trkpt>
      <trkpt lat="45.86411" lon="3.00365">
        <ele>761.19244384766</ele>
        <time>2020-07-07T20:06:43.108Z</time>
      </trkpt>
      <trkpt lat="45.86398" lon="3.00386">
        <ele>760.83850097656</ele>
        <time>2020-07-07T20:06:52.283Z</time>
      </trkpt>
      <trkpt lat="45.86393" lon="3.00394">
        <ele>760.71612548828</ele>
        <time>2020-07-07T20:07:01.459Z</time>
      </trkpt>
      <trkpt lat="45.86397" lon="3.00415">
        <ele>760.14984130859</ele>
        <time>2020-07-07T20:07:10.638Z</time>
      </trkpt>
      <trkpt lat="45.86401" lon="3.00426">
        <ele>759.81958007812</ele>
        <time>2020-07-07T20:07:19.819Z</time>
      </trkpt>
      <trkpt lat="45.86412" lon="3.00425">
        <ele>759.74188232422</ele>
        <time>2020-07-07T20:07:29.002Z</time>
      </trkpt>
      <trkpt lat="45.86423" lon="3.00433">
        <ele>759.32525634766</ele>
        <time>2020-07-07T20:07:38.188Z</time>
      </trkpt>
      <trkpt lat="45.86433" lon="3.00443">
        <ele>758.84173583984</ele>
        <time>2020-07-07T20:07:47.376Z</time>
      </trkpt>
      <trkpt lat="45.86441" lon="3.00449">
        <ele>758.51300048828</ele>
        <time>2020-07-07T20:07:56.566Z</time>
      </trkpt>
      <trkpt lat="45.86448" lon="3.00457">
        <ele>758.15307617188</ele>
        <time>2020-07-07T20:08:05.758Z</time>
      </trkpt>
      <trkpt lat="45.86455" lon="3.00463">
        <ele>757.85668945312</ele>
        <time>2020-07-07T20:08:14.951Z</time>
      </trkpt>
      <trkpt lat="45.86471" lon="3.00469">
        <ele>757.45959472656</ele>
        <time>2020-07-07T20:08:24.147Z</time>
      </trkpt>
      <trkpt lat="45.86484" lon="3.00478">
        <ele>755.97308349609</ele>
        <time>2020-07-07T20:08:33.347Z</time>
      </trkpt>
      <trkpt lat="45.86499" lon="3.00485">
        <ele>754.30895996094</ele>
        <time>2020-07-07T20:08:42.550Z</time>
      </trkpt>
      <trkpt lat="45.86507" lon="3.00496">
        <ele>753.18591308594</ele>
        <time>2020-07-07T20:08:51.755Z</time>
      </trkpt>
      <trkpt lat="45.86517" lon="3.00508">
        <ele>751.73175048828</ele>
        <time>2020-07-07T20:09:00.963Z</time>
      </trkpt>
      <trkpt lat="45.86527" lon="3.00516">
        <ele>750.35369873047</ele>
        <time>2020-07-07T20:09:10.173Z</time>
      </trkpt>
      <trkpt lat="45.86536" lon="3.00518">
        <ele>749.33508300781</ele>
        <time>2020-07-07T20:09:19.385Z</time>
      </trkpt>
      <trkpt lat="45.86546" lon="3.00518">
        <ele>748.40405273438</ele>
        <time>2020-07-07T20:09:28.599Z</time>
      </trkpt>
      <trkpt lat="45.86555" lon="3.00518">
        <ele>747.57855224609</ele>
        <time>2020-07-07T20:09:37.814Z</time>
      </trkpt>
      <trkpt lat="45.86567" lon="3.00525">
        <ele>745.81884765625</ele>
        <time>2020-07-07T20:09:47.032Z</time>
      </trkpt>
      <trkpt lat="45.86578" lon="3.00534">
        <ele>744.09356689453</ele>
        <time>2020-07-07T20:09:56.252Z</time>
      </trkpt>
      <trkpt lat="45.8659" lon="3.00541">
        <ele>742.37786865234</ele>
        <time>2020-07-07T20:10:05.475Z</time>
      </trkpt>
      <trkpt lat="45.86599" lon="3.00548">
        <ele>741.029296875</ele>
        <time>2020-07-07T20:10:14.700Z</time>
      </trkpt>
      <trkpt lat="45.8661" lon="3.00557">
        <ele>739.35314941406</ele>
        <time>2020-07-07T20:10:23.928Z</time>
      </trkpt>
      <trkpt lat="45.86604" lon="3.00582">
        <ele>738.44488525391</ele>
        <time>2020-07-07T20:10:33.159Z</time>
      </trkpt>
      <trkpt lat="45.86598" lon="3.00605">
        <ele>737.98492431641</ele>
        <time>2020-07-07T20:10:42.394Z</time>
      </trkpt>
      <trkpt lat="45.8659" lon="3.00642">
        <ele>738.28558349609</ele>
        <time>2020-07-07T20:10:51.634Z</time>
      </trkpt>
      <trkpt lat="45.86592" lon="3.00664">
        <ele>738.29760742188</ele>
        <time>2020-07-07T20:11:00.877Z</time>
      </trkpt>
      <trkpt lat="45.86595" lon="3.00695">
        <ele>736.76898193359</ele>
        <time>2020-07-07T20:11:10.125Z</time>
      </trkpt>
      <trkpt lat="45.86598" lon="3.0072">
        <ele>734.88256835938</ele>
        <time>2020-07-07T20:11:19.376Z</time>
      </trkpt>
      <trkpt lat="45.86605" lon="3.00741">
        <ele>733.16564941406</ele>
        <time>2020-07-07T20:11:28.630Z</time>
      </trkpt>
      <trkpt lat="45.86618" lon="3.00758">
        <ele>730.34851074219</ele>
        <time>2020-07-07T20:11:37.888Z</time>
      </trkpt>
      <trkpt lat="45.86628" lon="3.00775">
        <ele>727.38446044922</ele>
        <time>2020-07-07T20:11:47.149Z</time>
      </trkpt>
      <trkpt lat="45.86644" lon="3.00784">
        <ele>723.93182373047</ele>
        <time>2020-07-07T20:11:56.413Z</time>
      </trkpt>
      <trkpt lat="45.86657" lon="3.00798">
        <ele>721.47222900391</ele>
        <time>2020-07-07T20:12:05.681Z</time>
      </trkpt>
      <trkpt lat="45.86664" lon="3.00802">
        <ele>720.48840332031</ele>
        <time>2020-07-07T20:12:14.950Z</time>
      </trkpt>
      <trkpt lat="45.86667" lon="3.0085">
        <ele>717.11108398438</ele>
        <time>2020-07-07T20:12:24.226Z</time>
      </trkpt>
      <trkpt lat="45.86674" lon="3.00892">
        <ele>713.28375244141</ele>
        <time>2020-07-07T20:12:33.508Z</time>
      </trkpt>
      <trkpt lat="45.86682" lon="3.0093">
        <ele>709.34155273438</ele>
        <time>2020-07-07T20:12:42.796Z</time>
      </trkpt>
      <trkpt lat="45.86687" lon="3.00972">
        <ele>703.70251464844</ele>
        <time>2020-07-07T20:12:52.089Z</time>
      </trkpt>
      <trkpt lat="45.8669" lon="3.01012">
        <ele>698.45465087891</ele>
        <time>2020-07-07T20:13:01.388Z</time>
      </trkpt>
      <trkpt lat="45.86694" lon="3.01027">
        <ele>695.99505615234</ele>
        <time>2020-07-07T20:13:10.689Z</time>
      </trkpt>
      <trkpt lat="45.86698" lon="3.01079">
        <ele>688.20831298828</ele>
        <time>2020-07-07T20:13:19.998Z</time>
      </trkpt>
      <trkpt lat="45.86706" lon="3.0111">
        <ele>683.53430175781</ele>
        <time>2020-07-07T20:13:29.311Z</time>
      </trkpt>
      <trkpt lat="45.86709" lon="3.01163">
        <ele>678.22637939453</ele>
        <time>2020-07-07T20:13:38.632Z</time>
      </trkpt>
      <trkpt lat="45.86718" lon="3.01226">
        <ele>672.74090576172</ele>
        <time>2020-07-07T20:13:47.962Z</time>
      </trkpt>
      <trkpt lat="45.86719" lon="3.01283">
        <ele>668.55975341797</ele>
        <time>2020-07-07T20:13:57.300Z</time>
      </trkpt>
      <trkpt lat="45.86722" lon="3.01335">
        <ele>665.42346191406</ele>
        <time>2020-07-07T20:14:06.645Z</time>
      </trkpt>
      <trkpt lat="45.86728" lon="3.01387">
        <ele>665.89501953125</ele>
        <time>2020-07-07T20:14:15.997Z</time>
      </trkpt>
      <trkpt lat="45.86746" lon="3.0146">
        <ele>665.59075927734</ele>
        <time>2020-07-07T20:14:25.360Z</time>
      </trkpt>
      <trkpt lat="45.86754" lon="3.015">
        <ele>665.837890625</ele>
        <time>2020-07-07T20:14:34.729Z</time>
      </trkpt>
      <trkpt lat="45.86769" lon="3.01541">
        <ele>663.43395996094</ele>
        <time>2020-07-07T20:14:44.104Z</time>
      </trkpt>
      <trkpt lat="45.86773" lon="3.01571">
        <ele>661.82580566406</ele>
        <time>2020-07-07T20:14:53.484Z</time>
      </trkpt>
      <trkpt lat="45.86782" lon="3.01608">
        <ele>660.06396484375</ele>
        <time>2020-07-07T20:15:02.869Z</time>
      </trkpt>
      <trkpt lat="45.86786" lon="3.01626">
        <ele>659.72802734375</ele>
        <time>2020-07-07T20:15:12.257Z</time>
      </trkpt>
      <trkpt lat="45.86795" lon="3.01644">
        <ele>658.92175292969</ele>
        <time>2020-07-07T20:15:21.648Z</time>
      </trkpt>
      <trkpt lat="45.86811" lon="3.01671">
        <ele>658.06030273438</ele>
        <time>2020-07-07T20:15:31.044Z</time>
      </trkpt>
      <trkpt lat="45.86824" lon="3.017">
        <ele>656.98876953125</ele>
        <time>2020-07-07T20:15:40.445Z</time>
      </trkpt>
      <trkpt lat="45.86838" lon="3.01728">
        <ele>655.97375488281</ele>
        <time>2020-07-07T20:15:49.850Z</time>
      </trkpt>
      <trkpt lat="45.86859" lon="3.01748">
        <ele>654.98510742188</ele>
        <time>2020-07-07T20:15:59.261Z</time>
      </trkpt>
      <trkpt lat="45.8688" lon="3.01761">
        <ele>654.16119384766</ele>
        <time>2020-07-07T20:16:08.676Z</time>
      </trkpt>
      <trkpt lat="45.86903" lon="3.01763">
        <ele>652.91564941406</ele>
        <time>2020-07-07T20:16:18.096Z</time>
      </trkpt>
      <trkpt lat="45.86934" lon="3.01754">
        <ele>651.12145996094</ele>
        <time>2020-07-07T20:16:27.522Z</time>
      </trkpt>
      <trkpt lat="45.86951" lon="3.01739">
        <ele>650.74835205078</ele>
        <time>2020-07-07T20:16:36.952Z</time>
      </trkpt>
      <trkpt lat="45.86985" lon="3.01719">
        <ele>649.64971923828</ele>
        <time>2020-07-07T20:16:46.389Z</time>
      </trkpt>
      <trkpt lat="45.86999" lon="3.01713">
        <ele>649.12780761719</ele>
        <time>2020-07-07T20:16:55.829Z</time>
      </trkpt>
      <trkpt lat="45.87015" lon="3.01696">
        <ele>649.98370361328</ele>
        <time>2020-07-07T20:17:05.273Z</time>
      </trkpt>
      <trkpt lat="45.87038" lon="3.01688">
        <ele>650.21166992188</ele>
        <time>2020-07-07T20:17:14.722Z</time>
      </trkpt>
      <trkpt lat="45.87059" lon="3.01682">
        <ele>650.41223144531</ele>
        <time>2020-07-07T20:17:24.175Z</time>
      </trkpt>
      <trkpt lat="45.87081" lon="3.01692">
        <ele>650.1298828125</ele>
        <time>2020-07-07T20:17:33.633Z</time>
      </trkpt>
      <trkpt lat="45.87106" lon="3.01704">
        <ele>649.51318359375</ele>
        <time>2020-07-07T20:17:43.096Z</time>
      </trkpt>
      <trkpt lat="45.87125" lon="3.01708">
        <ele>649.49877929688</ele>
        <time>2020-07-07T20:17:52.563Z</time>
      </trkpt>
      <trkpt lat="45.87139" lon="3.01713">
        <ele>649.24444580078</ele>
        <time>2020-07-07T20:18:02.033Z</time>
      </trkpt>
      <trkpt lat="45.8714" lon="3.01716">
        <ele>649.21569824219</ele>
        <time>2020-07-07T20:18:11.503Z</time>
      </trkpt>
      <trkpt lat="45.87142" lon="3.01722">
        <ele>649.09692382812</ele>
        <time>2020-07-07T20:18:20.974Z</time>
      </trkpt>
      <trkpt lat="45.87137" lon="3.01728">
        <ele>648.17059326172</ele>
        <time>2020-07-07T20:18:30.447Z</time>
      </trkpt>
      <trkpt lat="45.87132" lon="3.01738">
        <ele>647.37396240234</ele>
        <time>2020-07-07T20:18:39.921Z</time>
      </trkpt>
      <trkpt lat="45.87127" lon="3.01748">
        <ele>646.564453125</ele>
        <time>2020-07-07T20:18:49.397Z</time>
      </trkpt>
      <trkpt lat="45.87123" lon="3.01761">
        <ele>645.17474365234</ele>
        <time>2020-07-07T20:18:58.875Z</time>
      </trkpt>
      <trkpt lat="45.87125" lon="3.0178">
        <ele>643.64978027344</ele>
        <time>2020-07-07T20:19:08.356Z</time>
      </trkpt>
      <trkpt lat="45.87122" lon="3.01793">
        <ele>642.53759765625</ele>
        <time>2020-07-07T20:19:17.839Z</time>
      </trkpt>
      <trkpt lat="45.87122" lon="3.01815">
        <ele>640.66107177734</ele>
        <time>2020-07-07T20:19:27.325Z</time>
      </trkpt>
      <trkpt lat="45.87122" lon="3.01835">
        <ele>639.21380615234</ele>
        <time>2020-07-07T20:19:36.813Z</time>
      </trkpt>
      <trkpt lat="45.87122" lon="3.01853">
        <ele>637.64697265625</ele>
        <time>2020-07-07T20:19:46.304Z</time>
      </trkpt>
      <trkpt lat="45.87122" lon="3.01866">
        <ele>636.24920654297</ele>
        <time>2020-07-07T20:19:55.797Z</time>
      </trkpt>
      <trkpt lat="45.87124" lon="3.01881">
        <ele>634.65228271484</ele>
        <time>2020-07-07T20:20:05.292Z</time>
      </trkpt>
      <trkpt lat="45.87126" lon="3.01896">
        <ele>633.00494384766</ele>
        <time>2020-07-07T20:20:14.789Z</time>
      </trkpt>
      <trkpt lat="45.87132" lon="3.01911">
        <ele>631.44641113281</ele>
        <time>2020-07-07T20:20:24.288Z</time>
      </trkpt>
      <trkpt lat="45.8714" lon="3.01925">
        <ele>630.07916259766</ele>
        <time>2020-07-07T20:20:33.790Z</time>
      </trkpt>
      <trkpt lat="45.87148" lon="3.01936">
        <ele>629.09240722656</ele>
        <time>2020-07-07T20:20:43.294Z</time>
      </trkpt>
      <trkpt lat="45.87155" lon="3.01954">
        <ele>627.87341308594</ele>
        <time>2020-07-07T20:20:52.801Z</time>
      </trkpt>
      <trkpt lat="45.87162" lon="3.01964">
        <ele>627.10552978516</ele>
        <time>2020-07-07T20:21:02.310Z</time>
      </trkpt>
      <trkpt lat="45.87174" lon="3.01991">
        <ele>625.21942138672</ele>
        <time>2020-07-07T20:21:11.823Z</time>
      </trkpt>
      <trkpt lat="45.87178" lon="3.01994">
        <ele>624.88830566406</ele>
        <time>2020-07-07T20:21:21.337Z</time>
      </trkpt>
      <trkpt lat="45.87189" lon="3.01998">
        <ele>624.14440917969</ele>
        <time>2020-07-07T20:21:30.854Z</time>
      </trkpt>
      <trkpt lat="45.87199" lon="3.02002">
        <ele>623.48693847656</ele>
        <time>2020-07-07T20:21:40.373Z</time>
      </trkpt>
      <trkpt lat="45.87208" lon="3.02004">
        <ele>622.90625</ele>
        <time>2020-07-07T20:21:49.894Z</time>
      </trkpt>
      <trkpt lat="45.87212" lon="3.02016">
        <ele>622.37420654297</ele>
        <time>2020-07-07T20:21:59.416Z</time>
      </trkpt>
      <trkpt lat="45.87214" lon="3.02033">
        <ele>621.81988525391</ele>
        <time>2020-07-07T20:22:08.941Z</time>
      </trkpt>
      <trkpt lat="45.87217" lon="3.02068">
        <ele>620.84564208984</ele>
        <time>2020-07-07T20:22:18.471Z</time>
      </trkpt>
      <trkpt lat="45.87222" lon="3.02098">
        <ele>619.97546386719</ele>
        <time>2020-07-07T20:22:28.005Z</time>
      </trkpt>
      <trkpt lat="45.87226" lon="3.02141">
        <ele>619.31677246094</ele>
        <time>2020-07-07T20:22:37.545Z</time>
      </trkpt>
      <trkpt lat="45.87231" lon="3.0219">
        <ele>618.38891601562</ele>
        <time>2020-07-07T20:22:47.092Z</time>
      </trkpt>
      <trkpt lat="45.87236" lon="3.02232">
        <ele>618.06494140625</ele>
        <time>2020-07-07T20:22:56.645Z</time>
      </trkpt>
      <trkpt lat="45.87241" lon="3.02269">
        <ele>617.55523681641</ele>
        <time>2020-07-07T20:23:06.203Z</time>
      </trkpt>
      <trkpt lat="45.87244" lon="3.0229">
        <ele>616.75622558594</ele>
        <time>2020-07-07T20:23:15.764Z</time>
      </trkpt>
      <trkpt lat="45.87241" lon="3.02309">
        <ele>615.94757080078</ele>
        <time>2020-07-07T20:23:25.328Z</time>
      </trkpt>
      <trkpt lat="45.87237" lon="3.02328">
        <ele>615.17248535156</ele>
        <time>2020-07-07T20:23:34.895Z</time>
      </trkpt>
      <trkpt lat="45.87231" lon="3.0234">
        <ele>614.79455566406</ele>
        <time>2020-07-07T20:23:44.464Z</time>
      </trkpt>
      <trkpt lat="45.87218" lon="3.02362">
        <ele>613.84484863281</ele>
        <time>2020-07-07T20:23:54.037Z</time>
      </trkpt>
      <trkpt lat="45.8721" lon="3.02377">
        <ele>613.26892089844</ele>
        <time>2020-07-07T20:24:03.612Z</time>
      </trkpt>
      <trkpt lat="45.87196" lon="3.02394">
        <ele>612.82861328125</ele>
        <time>2020-07-07T20:24:13.191Z</time>
      </trkpt>
      <trkpt lat="45.87184" lon="3.02408">
        <ele>612.09063720703</ele>
        <time>2020-07-07T20:24:22.773Z</time>
      </trkpt>
      <trkpt lat="45.87168" lon="3.02431">
        <ele>610.18933105469</ele>
        <time>2020-07-07T20:24:32.360Z</time>
      </trkpt>
      <trkpt lat="45.87158" lon="3.02448">
        <ele>608.37310791016</ele>
        <time>2020-07-07T20:24:41.950Z</time>
      </trkpt>
      <trkpt lat="45.87153" lon="3.02472">
        <ele>606.43786621094</ele>
        <time>2020-07-07T20:24:51.543Z</time>
      </trkpt>
      <trkpt lat="45.87148" lon="3.02505">
        <ele>603.63031005859</ele>
        <time>2020-07-07T20:25:01.141Z</time>
      </trkpt>
      <trkpt lat="45.87148" lon="3.02533">
        <ele>601.29681396484</ele>
        <time>2020-07-07T20:25:10.743Z</time>
      </trkpt>
      <trkpt lat="45.87149" lon="3.02568">
        <ele>597.87493896484</ele>
        <time>2020-07-07T20:25:20.350Z</time>
      </trkpt>
      <trkpt lat="45.87149" lon="3.02602">
        <ele>595.08172607422</ele>
        <time>2020-07-07T20:25:29.962Z</time>
      </trkpt>
      <trkpt lat="45.87152" lon="3.02642">
        <ele>591.23937988281</ele>
        <time>2020-07-07T20:25:39.579Z</time>
      </trkpt>
      <trkpt lat="45.87145" lon="3.02659">
        <ele>589.58843994141</ele>
        <time>2020-07-07T20:25:49.199Z</time>
      </trkpt>
      <trkpt lat="45.87135" lon="3.027">
        <ele>586.32977294922</ele>
        <time>2020-07-07T20:25:58.825Z</time>
      </trkpt>
      <trkpt lat="45.87127" lon="3.02722">
        <ele>585.18762207031</ele>
        <time>2020-07-07T20:26:08.455Z</time>
      </trkpt>
      <trkpt lat="45.8712" lon="3.02749">
        <ele>582.52954101562</ele>
        <time>2020-07-07T20:26:18.089Z</time>
      </trkpt>
      <trkpt lat="45.87113" lon="3.02775">
        <ele>580.29608154297</ele>
        <time>2020-07-07T20:26:27.727Z</time>
      </trkpt>
      <trkpt lat="45.87107" lon="3.0281">
        <ele>579.39501953125</ele>
        <time>2020-07-07T20:26:37.370Z</time>
      </trkpt>
      <trkpt lat="45.87095" lon="3.02862">
        <ele>574.99859619141</ele>
        <time>2020-07-07T20:26:47.020Z</time>
      </trkpt>
      <trkpt lat="45.87096" lon="3.02868">
        <ele>575.02862548828</ele>
        <time>2020-07-07T20:26:56.671Z</time>
      </trkpt>
      <trkpt lat="45.87107" lon="3.02867">
        <ele>576.00042724609</ele>
        <time>2020-07-07T20:27:06.324Z</time>
      </trkpt>
      <trkpt lat="45.8712" lon="3.02869">
        <ele>577.04187011719</ele>
        <time>2020-07-07T20:27:15.980Z</time>
      </trkpt>
      <trkpt lat="45.87131" lon="3.02871">
        <ele>577.9033203125</ele>
        <time>2020-07-07T20:27:25.638Z</time>
      </trkpt>
      <trkpt lat="45.87141" lon="3.02873">
        <ele>578.73553466797</ele>
        <time>2020-07-07T20:27:35.298Z</time>
      </trkpt>
      <trkpt lat="45.87152" lon="3.02878">
        <ele>579.42541503906</ele>
        <time>2020-07-07T20:27:44.960Z</time>
      </trkpt>
      <trkpt lat="45.87163" lon="3.02885">
        <ele>580.14892578125</ele>
        <time>2020-07-07T20:27:54.625Z</time>
      </trkpt>
      <trkpt lat="45.87175" lon="3.02892">
        <ele>580.97918701172</ele>
        <time>2020-07-07T20:28:04.293Z</time>
      </trkpt>
      <trkpt lat="45.87184" lon="3.02893">
        <ele>581.58508300781</ele>
        <time>2020-07-07T20:28:13.962Z</time>
      </trkpt>
      <trkpt lat="45.8719" lon="3.02904">
        <ele>581.91741943359</ele>
        <time>2020-07-07T20:28:23.633Z</time>
      </trkpt>
      <trkpt lat="45.87198" lon="3.02913">
        <ele>582.32537841797</ele>
        <time>2020-07-07T20:28:33.306Z</time>
      </trkpt>
      <trkpt lat="45.87202" lon="3.0292">
        <ele>582.5869140625</ele>
        <time>2020-07-07T20:28:42.981Z</time>
      </trkpt>
      <trkpt lat="45.87199" lon="3.02924">
        <ele>582.31335449219</ele>
        <time>2020-07-07T20:28:52.656Z</time>
      </trkpt>
      <trkpt lat="45.87193" lon="3.02932">
        <ele>581.43347167969</ele>
        <time>2020-07-07T20:29:02.333Z</time>
      </trkpt>
      <trkpt lat="45.87195" lon="3.02951">
        <ele>580.46405029297</ele>
        <time>2020-07-07T20:29:12.013Z</time>
      </trkpt>
      <trkpt lat="45.87198" lon="3.02967">
        <ele>579.66253662109</ele>
        <time>2020-07-07T20:29:21.695Z</time>
      </trkpt>
      <trkpt lat="45.87199" lon="3.02987">
        <ele>578.52734375</ele>
        <time>2020-07-07T20:29:31.380Z</time>
      </trkpt>
      <trkpt lat="45.87201" lon="3.03002">
        <ele>577.30712890625</ele>
        <time>2020-07-07T20:29:41.067Z</time>
      </trkpt>
      <trkpt lat="45.87199" lon="3.03016">
        <ele>575.88250732422</ele>
        <time>2020-07-07T20:29:50.756Z</time>
      </trkpt>
      <trkpt lat="45.87202" lon="3.03032">
        <ele>574.77868652344</ele>
        <time>2020-07-07T20:30:00.447Z</time>
      </trkpt>
      <trkpt lat="45.87198" lon="3.0304">
        <ele>573.68927001953</ele>
        <time>2020-07-07T20:30:10.140Z</time>
      </trkpt>
      <trkpt lat="45.87197" lon="3.03059">
        <ele>572.04193115234</ele>
        <time>2020-07-07T20:30:19.835Z</time>
      </trkpt>
      <trkpt lat="45.87194" lon="3.03069">
        <ele>570.88684082031</ele>
        <time>2020-07-07T20:30:29.532Z</time>
      </trkpt>
      <trkpt lat="45.87189" lon="3.03085">
        <ele>569.25994873047</ele>
        <time>2020-07-07T20:30:39.231Z</time>
      </trkpt>
      <trkpt lat="45.87184" lon="3.03101">
        <ele>567.59936523438</ele>
        <time>2020-07-07T20:30:48.933Z</time>
      </trkpt>
      <trkpt lat="45.87179" lon="3.03114">
        <ele>566.17401123047</ele>
        <time>2020-07-07T20:30:58.637Z</time>
      </trkpt>
      <trkpt lat="45.87178" lon="3.03134">
        <ele>564.68841552734</ele>
        <time>2020-07-07T20:31:08.344Z</time>
      </trkpt>
      <trkpt lat="45.87178" lon="3.03149">
        <ele>563.84136962891</ele>
        <time>2020-07-07T20:31:18.053Z</time>
      </trkpt>
      <trkpt lat="45.8718" lon="3.03159">
        <ele>563.42504882812</ele>
        <time>2020-07-07T20:31:27.763Z</time>
      </trkpt>
      <trkpt lat="45.87187" lon="3.03173">
        <ele>563.15148925781</ele>
        <time>2020-07-07T20:31:37.476Z</time>
      </trkpt>
      <trkpt lat="45.87195" lon="3.03186">
        <ele>563.22985839844</ele>
        <time>2020-07-07T20:31:47.191Z</time>
      </trkpt>
      <trkpt lat="45.87197" lon="3.032">
        <ele>562.93231201172</ele>
        <time>2020-07-07T20:31:56.908Z</time>
      </trkpt>
      <trkpt lat="45.87199" lon="3.03213">
        <ele>562.634765625</ele>
        <time>2020-07-07T20:32:06.627Z</time>
      </trkpt>
      <trkpt lat="45.87202" lon="3.03226">
        <ele>562.42242431641</ele>
        <time>2020-07-07T20:32:16.348Z</time>
      </trkpt>
      <trkpt lat="45.87203" lon="3.03245">
        <ele>561.93566894531</ele>
        <time>2020-07-07T20:32:26.071Z</time>
      </trkpt>
      <trkpt lat="45.87204" lon="3.03263">
        <ele>561.74945068359</ele>
        <time>2020-07-07T20:32:35.797Z</time>
      </trkpt>
      <trkpt lat="45.87202" lon="3.03274">
        <ele>561.86944580078</ele>
        <time>2020-07-07T20:32:45.524Z</time>
      </trkpt>
      <trkpt lat="45.87201" lon="3.03286">
        <ele>562.05902099609</ele>
        <time>2020-07-07T20:32:55.253Z</time>
      </trkpt>
      <trkpt lat="45.87198" lon="3.03305">
        <ele>562.3349609375</ele>
        <time>2020-07-07T20:33:04.985Z</time>
      </trkpt>
      <trkpt lat="45.87191" lon="3.03317">
        <ele>561.65325927734</ele>
        <time>2020-07-07T20:33:14.719Z</time>
      </trkpt>
      <trkpt lat="45.87185" lon="3.03335">
        <ele>560.21948242188</ele>
        <time>2020-07-07T20:33:24.456Z</time>
      </trkpt>
      <trkpt lat="45.87174" lon="3.03349">
        <ele>558.40112304688</ele>
        <time>2020-07-07T20:33:34.196Z</time>
      </trkpt>
      <trkpt lat="45.87167" lon="3.03362">
        <ele>557.32250976562</ele>
        <time>2020-07-07T20:33:43.938Z</time>
      </trkpt>
      <trkpt lat="45.87157" lon="3.03374">
        <ele>555.53271484375</ele>
        <time>2020-07-07T20:33:53.683Z</time>
      </trkpt>
      <trkpt lat="45.87153" lon="3.03385">
        <ele>554.56689453125</ele>
        <time>2020-07-07T20:34:03.429Z</time>
      </trkpt>
      <trkpt lat="45.87146" lon="3.03393">
        <ele>553.15350341797</ele>
        <time>2020-07-07T20:34:13.177Z</time>
      </trkpt>
      <trkpt lat="45.87134" lon="3.03406">
        <ele>551.03338623047</ele>
        <time>2020-07-07T20:34:22.928Z</time>
      </trkpt>
      <trkpt lat="45.87124" lon="3.03414">
        <ele>549.42706298828</ele>
        <time>2020-07-07T20:34:32.682Z</time>
      </trkpt>
      <trkpt lat="45.87118" lon="3.03421">
        <ele>548.23687744141</ele>
        <time>2020-07-07T20:34:42.437Z</time>
      </trkpt>
      <trkpt lat="45.87109" lon="3.03434">
        <ele>545.833984375</ele>
        <time>2020-07-07T20:34:52.195Z</time>
      </trkpt>
      <trkpt lat="45.87107" lon="3.03444">
        <ele>544.62933349609</ele>
        <time>2020-07-07T20:35:01.954Z</time>
      </trkpt>
      <trkpt lat="45.87104" lon="3.03462">
        <ele>542.35931396484</ele>
        <time>2020-07-07T20:35:11.716Z</time>
      </trkpt>
      <trkpt lat="45.871" lon="3.03474">
        <ele>540.69451904297</ele>
        <time>2020-07-07T20:35:21.480Z</time>
      </trkpt>
      <trkpt lat="45.87096" lon="3.03492">
        <ele>538.60565185547</ele>
        <time>2020-07-07T20:35:31.246Z</time>
      </trkpt>
      <trkpt lat="45.87091" lon="3.03505">
        <ele>536.93676757812</ele>
        <time>2020-07-07T20:35:41.014Z</time>
      </trkpt>
      <trkpt lat="45.87071" lon="3.03526">
        <ele>530.71539306641</ele>
        <time>2020-07-07T20:35:50.787Z</time>
      </trkpt>
      <trkpt lat="45.87061" lon="3.03534">
        <ele>529.92712402344</ele>
        <time>2020-07-07T20:36:00.562Z</time>
      </trkpt>
      <trkpt lat="45.87054" lon="3.03552">
        <ele>528.42559814453</ele>
        <time>2020-07-07T20:36:10.340Z</time>
      </trkpt>
      <trkpt lat="45.87049" lon="3.03574">
        <ele>526.70269775391</ele>
        <time>2020-07-07T20:36:20.122Z</time>
      </trkpt>
      <trkpt lat="45.8704" lon="3.03603">
        <ele>523.96459960938</ele>
        <time>2020-07-07T20:36:29.908Z</time>
      </trkpt>
      <trkpt lat="45.87036" lon="3.03623">
        <ele>521.50622558594</ele>
        <time>2020-07-07T20:36:39.697Z</time>
      </trkpt>
      <trkpt lat="45.87032" lon="3.03648">
        <ele>518.66870117188</ele>
        <time>2020-07-07T20:36:49.489Z</time>
      </trkpt>
      <trkpt lat="45.8703" lon="3.03665">
        <ele>516.98779296875</ele>
        <time>2020-07-07T20:36:59.284Z</time>
      </trkpt>
      <trkpt lat="45.87031" lon="3.03678">
        <ele>515.75762939453</ele>
        <time>2020-07-07T20:37:09.081Z</time>
      </trkpt>
      <trkpt lat="45.87022" lon="3.03686">
        <ele>515.49487304688</ele>
        <time>2020-07-07T20:37:18.880Z</time>
      </trkpt>
      <trkpt lat="45.87011" lon="3.03701">
        <ele>514.81457519531</ele>
        <time>2020-07-07T20:37:28.682Z</time>
      </trkpt>
      <trkpt lat="45.87005" lon="3.03714">
        <ele>513.77661132812</ele>
        <time>2020-07-07T20:37:38.486Z</time>
      </trkpt>
      <trkpt lat="45.87002" lon="3.03728">
        <ele>512.06567382812</ele>
        <time>2020-07-07T20:37:48.292Z</time>
      </trkpt>
      <trkpt lat="45.86995" lon="3.03747">
        <ele>509.72964477539</ele>
        <time>2020-07-07T20:37:58.101Z</time>
      </trkpt>
      <trkpt lat="45.86988" lon="3.03771">
        <ele>507.28982543945</ele>
        <time>2020-07-07T20:38:07.914Z</time>
      </trkpt>
      <trkpt lat="45.86979" lon="3.03781">
        <ele>506.88446044922</ele>
        <time>2020-07-07T20:38:17.729Z</time>
      </trkpt>
      <trkpt lat="45.86967" lon="3.03777">
        <ele>506.75021362305</ele>
        <time>2020-07-07T20:38:27.546Z</time>
      </trkpt>
      <trkpt lat="45.86961" lon="3.0377">
        <ele>506.62545776367</ele>
        <time>2020-07-07T20:38:37.365Z</time>
      </trkpt>
      <trkpt lat="45.86954" lon="3.03765">
        <ele>506.33990478516</ele>
        <time>2020-07-07T20:38:47.186Z</time>
      </trkpt>
      <trkpt lat="45.86939" lon="3.03758">
        <ele>505.69479370117</ele>
        <time>2020-07-07T20:38:57.010Z</time>
      </trkpt>
      <trkpt lat="45.86926" lon="3.03749">
        <ele>506.2802734375</ele>
        <time>2020-07-07T20:39:06.837Z</time>
      </trkpt>
      <trkpt lat="45.86916" lon="3.03747">
        <ele>505.93475341797</ele>
        <time>2020-07-07T20:39:16.666Z</time>
      </trkpt>
      <trkpt lat="45.86907" lon="3.03752">
        <ele>504.48779296875</ele>
        <time>2020-07-07T20:39:26.497Z</time>
      </trkpt>
      <trkpt lat="45.86893" lon="3.03758">
        <ele>502.41213989258</ele>
        <time>2020-07-07T20:39:36.331Z</time>
      </trkpt>
      <trkpt lat="45.86887" lon="3.03763">
        <ele>501.7532043457</ele>
        <time>2020-07-07T20:39:46.166Z</time>
      </trkpt>
      <trkpt lat="45.86867" lon="3.03785">
        <ele>500.48382568359</ele>
        <time>2020-07-07T20:39:56.006Z</time>
      </trkpt>
      <trkpt lat="45.86851" lon="3.038">
        <ele>499.55157470703</ele>
        <time>2020-07-07T20:40:05.850Z</time>
      </trkpt>
      <trkpt lat="45.86831" lon="3.03828">
        <ele>496.38726806641</ele>
        <time>2020-07-07T20:40:15.699Z</time>
      </trkpt>
      <trkpt lat="45.86827" lon="3.03837">
        <ele>495.38781738281</ele>
        <time>2020-07-07T20:40:25.550Z</time>
      </trkpt>
      <trkpt lat="45.86813" lon="3.03846">
        <ele>494.1552734375</ele>
        <time>2020-07-07T20:40:35.404Z</time>
      </trkpt>
      <trkpt lat="45.86799" lon="3.03855">
        <ele>493.17129516602</ele>
        <time>2020-07-07T20:40:45.261Z</time>
      </trkpt>
      <trkpt lat="45.86784" lon="3.03861">
        <ele>492.26306152344</ele>
        <time>2020-07-07T20:40:55.121Z</time>
      </trkpt>
      <trkpt lat="45.8678" lon="3.0387">
        <ele>491.73873901367</ele>
        <time>2020-07-07T20:41:04.983Z</time>
      </trkpt>
      <trkpt lat="45.86783" lon="3.03884">
        <ele>491.39199829102</ele>
        <time>2020-07-07T20:41:14.847Z</time>
      </trkpt>
      <trkpt lat="45.86786" lon="3.03902">
        <ele>490.86288452148</ele>
        <time>2020-07-07T20:41:24.713Z</time>
      </trkpt>
      <trkpt lat="45.86789" lon="3.03912">
        <ele>490.74691772461</ele>
        <time>2020-07-07T20:41:34.581Z</time>
      </trkpt>
      <trkpt lat="45.86793" lon="3.0393">
        <ele>490.48025512695</ele>
        <time>2020-07-07T20:41:44.451Z</time>
      </trkpt>
      <trkpt lat="45.86793" lon="3.03945">
        <ele>489.77716064453</ele>
        <time>2020-07-07T20:41:54.323Z</time>
      </trkpt>
      <trkpt lat="45.86795" lon="3.03959">
        <ele>489.11248779297</ele>
        <time>2020-07-07T20:42:04.198Z</time>
      </trkpt>
      <trkpt lat="45.86796" lon="3.03971">
        <ele>488.57257080078</ele>
        <time>2020-07-07T20:42:14.074Z</time>
      </trkpt>
      <trkpt lat="45.86779" lon="3.03977">
        <ele>487.85269165039</ele>
        <time>2020-07-07T20:42:23.954Z</time>
      </trkpt>
      <trkpt lat="45.86754" lon="3.03984">
        <ele>487.27523803711</ele>
        <time>2020-07-07T20:42:33.839Z</time>
      </trkpt>
      <trkpt lat="45.86747" lon="3.03987">
        <ele>487.07940673828</ele>
        <time>2020-07-07T20:42:43.725Z</time>
      </trkpt>
    </trkseg>
  </trk>
</gpx>